<?xml version="1.0" encoding="UTF-8" standalone="no" ?>
<gpx xmlns="http://www.topografix.com/GPX/1/1" xmlns:xsi="http://www.w3.org/2001/XMLSchema-instance" xsi:schemaLocation="http://www.topografix.com/GPX/1/1 http://www.topografix.com/GPX/1/1/gpx.xsd" version="1.1" creator="VisuGPX - https://www.visugpx.com">
  <metadata>
    <name>La Renarde 2013</name>
    <desc><![CDATA[Bien beau tracé, pas si boueux que cela malgré la pluie de la veille.]]></desc>
  </metadata>
  <trk>
    <name><![CDATA[2013-10-13-01]]></name>
    <trkseg>
      <trkpt lat="44.51678" lon="5.7954">
        <ele>808.6</ele>
        <time>2013-10-13T06:23:34Z</time>
      </trkpt>
      <trkpt lat="44.51708" lon="5.79536">
        <ele>785.9</ele>
        <time>2013-10-13T06:23:35Z</time>
      </trkpt>
      <trkpt lat="44.51697" lon="5.79549">
        <ele>786.4</ele>
        <time>2013-10-13T06:23:37Z</time>
      </trkpt>
      <trkpt lat="44.51695" lon="5.79569">
        <ele>788.1</ele>
        <time>2013-10-13T06:23:40Z</time>
      </trkpt>
      <trkpt lat="44.51691" lon="5.79585">
        <ele>788</ele>
        <time>2013-10-13T06:23:43Z</time>
      </trkpt>
      <trkpt lat="44.51689" lon="5.79602">
        <ele>793</ele>
        <time>2013-10-13T06:23:46Z</time>
      </trkpt>
      <trkpt lat="44.51692" lon="5.79619">
        <ele>796.3</ele>
        <time>2013-10-13T06:23:49Z</time>
      </trkpt>
      <trkpt lat="44.51693" lon="5.79635">
        <ele>797.4</ele>
        <time>2013-10-13T06:23:52Z</time>
      </trkpt>
      <trkpt lat="44.51701" lon="5.79644">
        <ele>794.3</ele>
        <time>2013-10-13T06:23:54Z</time>
      </trkpt>
      <trkpt lat="44.51709" lon="5.79659">
        <ele>791.8</ele>
        <time>2013-10-13T06:23:57Z</time>
      </trkpt>
      <trkpt lat="44.51713" lon="5.7967">
        <ele>790.8</ele>
        <time>2013-10-13T06:23:59Z</time>
      </trkpt>
      <trkpt lat="44.51714" lon="5.79687">
        <ele>791.4</ele>
        <time>2013-10-13T06:24:02Z</time>
      </trkpt>
      <trkpt lat="44.51715" lon="5.79702">
        <ele>791.4</ele>
        <time>2013-10-13T06:24:05Z</time>
      </trkpt>
      <trkpt lat="44.51713" lon="5.79716">
        <ele>792.2</ele>
        <time>2013-10-13T06:24:08Z</time>
      </trkpt>
      <trkpt lat="44.51715" lon="5.79733">
        <ele>792.1</ele>
        <time>2013-10-13T06:24:11Z</time>
      </trkpt>
      <trkpt lat="44.51717" lon="5.7975">
        <ele>792</ele>
        <time>2013-10-13T06:24:14Z</time>
      </trkpt>
      <trkpt lat="44.51719" lon="5.79764">
        <ele>792.7</ele>
        <time>2013-10-13T06:24:16Z</time>
      </trkpt>
      <trkpt lat="44.51721" lon="5.79778">
        <ele>793.2</ele>
        <time>2013-10-13T06:24:18Z</time>
      </trkpt>
      <trkpt lat="44.51725" lon="5.79791">
        <ele>793.9</ele>
        <time>2013-10-13T06:24:20Z</time>
      </trkpt>
      <trkpt lat="44.51729" lon="5.79803">
        <ele>793.6</ele>
        <time>2013-10-13T06:24:22Z</time>
      </trkpt>
      <trkpt lat="44.51736" lon="5.79816">
        <ele>793.9</ele>
        <time>2013-10-13T06:24:24Z</time>
      </trkpt>
      <trkpt lat="44.51743" lon="5.7983">
        <ele>794.2</ele>
        <time>2013-10-13T06:24:26Z</time>
      </trkpt>
      <trkpt lat="44.51748" lon="5.79843">
        <ele>794.9</ele>
        <time>2013-10-13T06:24:28Z</time>
      </trkpt>
      <trkpt lat="44.51753" lon="5.79855">
        <ele>795.2</ele>
        <time>2013-10-13T06:24:30Z</time>
      </trkpt>
      <trkpt lat="44.51761" lon="5.79867">
        <ele>794.8</ele>
        <time>2013-10-13T06:24:32Z</time>
      </trkpt>
      <trkpt lat="44.51765" lon="5.79881">
        <ele>794.8</ele>
        <time>2013-10-13T06:24:34Z</time>
      </trkpt>
      <trkpt lat="44.51766" lon="5.79894">
        <ele>794.7</ele>
        <time>2013-10-13T06:24:36Z</time>
      </trkpt>
      <trkpt lat="44.51771" lon="5.79907">
        <ele>794.5</ele>
        <time>2013-10-13T06:24:38Z</time>
      </trkpt>
      <trkpt lat="44.51774" lon="5.7992">
        <ele>794.5</ele>
        <time>2013-10-13T06:24:40Z</time>
      </trkpt>
      <trkpt lat="44.51776" lon="5.79933">
        <ele>794.6</ele>
        <time>2013-10-13T06:24:42Z</time>
      </trkpt>
      <trkpt lat="44.51778" lon="5.79946">
        <ele>794.9</ele>
        <time>2013-10-13T06:24:44Z</time>
      </trkpt>
      <trkpt lat="44.5178" lon="5.7996">
        <ele>795.2</ele>
        <time>2013-10-13T06:24:46Z</time>
      </trkpt>
      <trkpt lat="44.51782" lon="5.79974">
        <ele>795.4</ele>
        <time>2013-10-13T06:24:48Z</time>
      </trkpt>
      <trkpt lat="44.51785" lon="5.79988">
        <ele>795.6</ele>
        <time>2013-10-13T06:24:50Z</time>
      </trkpt>
      <trkpt lat="44.5179" lon="5.80002">
        <ele>795.8</ele>
        <time>2013-10-13T06:24:52Z</time>
      </trkpt>
      <trkpt lat="44.51794" lon="5.80017">
        <ele>795.9</ele>
        <time>2013-10-13T06:24:54Z</time>
      </trkpt>
      <trkpt lat="44.51799" lon="5.8003">
        <ele>795.9</ele>
        <time>2013-10-13T06:24:56Z</time>
      </trkpt>
      <trkpt lat="44.51803" lon="5.80044">
        <ele>796.3</ele>
        <time>2013-10-13T06:24:58Z</time>
      </trkpt>
      <trkpt lat="44.51807" lon="5.80058">
        <ele>796.1</ele>
        <time>2013-10-13T06:25:00Z</time>
      </trkpt>
      <trkpt lat="44.5181" lon="5.80071">
        <ele>796.3</ele>
        <time>2013-10-13T06:25:02Z</time>
      </trkpt>
      <trkpt lat="44.51813" lon="5.80085">
        <ele>796.4</ele>
        <time>2013-10-13T06:25:04Z</time>
      </trkpt>
      <trkpt lat="44.51817" lon="5.80099">
        <ele>796.5</ele>
        <time>2013-10-13T06:25:06Z</time>
      </trkpt>
      <trkpt lat="44.51821" lon="5.80113">
        <ele>796.4</ele>
        <time>2013-10-13T06:25:08Z</time>
      </trkpt>
      <trkpt lat="44.51825" lon="5.80127">
        <ele>796.4</ele>
        <time>2013-10-13T06:25:10Z</time>
      </trkpt>
      <trkpt lat="44.51828" lon="5.8014">
        <ele>796.5</ele>
        <time>2013-10-13T06:25:12Z</time>
      </trkpt>
      <trkpt lat="44.51832" lon="5.80154">
        <ele>796.6</ele>
        <time>2013-10-13T06:25:14Z</time>
      </trkpt>
      <trkpt lat="44.51836" lon="5.80167">
        <ele>796.7</ele>
        <time>2013-10-13T06:25:16Z</time>
      </trkpt>
      <trkpt lat="44.51841" lon="5.80181">
        <ele>796.7</ele>
        <time>2013-10-13T06:25:18Z</time>
      </trkpt>
      <trkpt lat="44.51844" lon="5.80194">
        <ele>797.3</ele>
        <time>2013-10-13T06:25:20Z</time>
      </trkpt>
      <trkpt lat="44.51848" lon="5.80208">
        <ele>797.8</ele>
        <time>2013-10-13T06:25:22Z</time>
      </trkpt>
      <trkpt lat="44.51852" lon="5.80222">
        <ele>797.9</ele>
        <time>2013-10-13T06:25:24Z</time>
      </trkpt>
      <trkpt lat="44.51856" lon="5.80236">
        <ele>798.6</ele>
        <time>2013-10-13T06:25:26Z</time>
      </trkpt>
      <trkpt lat="44.51858" lon="5.8025">
        <ele>799.3</ele>
        <time>2013-10-13T06:25:28Z</time>
      </trkpt>
      <trkpt lat="44.51862" lon="5.80264">
        <ele>799.5</ele>
        <time>2013-10-13T06:25:30Z</time>
      </trkpt>
      <trkpt lat="44.51865" lon="5.80278">
        <ele>799.8</ele>
        <time>2013-10-13T06:25:32Z</time>
      </trkpt>
      <trkpt lat="44.51869" lon="5.80292">
        <ele>799.8</ele>
        <time>2013-10-13T06:25:34Z</time>
      </trkpt>
      <trkpt lat="44.51873" lon="5.80306">
        <ele>799.9</ele>
        <time>2013-10-13T06:25:36Z</time>
      </trkpt>
      <trkpt lat="44.51875" lon="5.8032">
        <ele>799.7</ele>
        <time>2013-10-13T06:25:38Z</time>
      </trkpt>
      <trkpt lat="44.51884" lon="5.80346">
        <ele>799</ele>
        <time>2013-10-13T06:25:42Z</time>
      </trkpt>
      <trkpt lat="44.51887" lon="5.80359">
        <ele>799</ele>
        <time>2013-10-13T06:25:44Z</time>
      </trkpt>
      <trkpt lat="44.5189" lon="5.80373">
        <ele>799.1</ele>
        <time>2013-10-13T06:25:46Z</time>
      </trkpt>
      <trkpt lat="44.51894" lon="5.80387">
        <ele>799.4</ele>
        <time>2013-10-13T06:25:48Z</time>
      </trkpt>
      <trkpt lat="44.51897" lon="5.80401">
        <ele>799.8</ele>
        <time>2013-10-13T06:25:50Z</time>
      </trkpt>
      <trkpt lat="44.51899" lon="5.80415">
        <ele>800.2</ele>
        <time>2013-10-13T06:25:52Z</time>
      </trkpt>
      <trkpt lat="44.51902" lon="5.80429">
        <ele>800.4</ele>
        <time>2013-10-13T06:25:54Z</time>
      </trkpt>
      <trkpt lat="44.51905" lon="5.80444">
        <ele>800.8</ele>
        <time>2013-10-13T06:25:56Z</time>
      </trkpt>
      <trkpt lat="44.51909" lon="5.80458">
        <ele>801.1</ele>
        <time>2013-10-13T06:25:58Z</time>
      </trkpt>
      <trkpt lat="44.51913" lon="5.80472">
        <ele>801.3</ele>
        <time>2013-10-13T06:26:00Z</time>
      </trkpt>
      <trkpt lat="44.51917" lon="5.80486">
        <ele>801.6</ele>
        <time>2013-10-13T06:26:02Z</time>
      </trkpt>
      <trkpt lat="44.51921" lon="5.80499">
        <ele>801.9</ele>
        <time>2013-10-13T06:26:04Z</time>
      </trkpt>
      <trkpt lat="44.51925" lon="5.80513">
        <ele>802.2</ele>
        <time>2013-10-13T06:26:06Z</time>
      </trkpt>
      <trkpt lat="44.5193" lon="5.80526">
        <ele>802.4</ele>
        <time>2013-10-13T06:26:08Z</time>
      </trkpt>
      <trkpt lat="44.51935" lon="5.80539">
        <ele>802.5</ele>
        <time>2013-10-13T06:26:10Z</time>
      </trkpt>
      <trkpt lat="44.5194" lon="5.80552">
        <ele>802.8</ele>
        <time>2013-10-13T06:26:12Z</time>
      </trkpt>
      <trkpt lat="44.51945" lon="5.80565">
        <ele>803.1</ele>
        <time>2013-10-13T06:26:14Z</time>
      </trkpt>
      <trkpt lat="44.5195" lon="5.80578">
        <ele>803.4</ele>
        <time>2013-10-13T06:26:16Z</time>
      </trkpt>
      <trkpt lat="44.51955" lon="5.8059">
        <ele>803.5</ele>
        <time>2013-10-13T06:26:18Z</time>
      </trkpt>
      <trkpt lat="44.5196" lon="5.80603">
        <ele>803.5</ele>
        <time>2013-10-13T06:26:20Z</time>
      </trkpt>
      <trkpt lat="44.51964" lon="5.80615">
        <ele>803.7</ele>
        <time>2013-10-13T06:26:22Z</time>
      </trkpt>
      <trkpt lat="44.5197" lon="5.80625">
        <ele>804.3</ele>
        <time>2013-10-13T06:26:24Z</time>
      </trkpt>
      <trkpt lat="44.51978" lon="5.80634">
        <ele>804</ele>
        <time>2013-10-13T06:26:27Z</time>
      </trkpt>
      <trkpt lat="44.51991" lon="5.8063">
        <ele>802.1</ele>
        <time>2013-10-13T06:26:30Z</time>
      </trkpt>
      <trkpt lat="44.52003" lon="5.80622">
        <ele>801.2</ele>
        <time>2013-10-13T06:26:32Z</time>
      </trkpt>
      <trkpt lat="44.52013" lon="5.80611">
        <ele>800.4</ele>
        <time>2013-10-13T06:26:34Z</time>
      </trkpt>
      <trkpt lat="44.52023" lon="5.80602">
        <ele>800.1</ele>
        <time>2013-10-13T06:26:36Z</time>
      </trkpt>
      <trkpt lat="44.52033" lon="5.80592">
        <ele>799.9</ele>
        <time>2013-10-13T06:26:38Z</time>
      </trkpt>
      <trkpt lat="44.52044" lon="5.80583">
        <ele>799.6</ele>
        <time>2013-10-13T06:26:40Z</time>
      </trkpt>
      <trkpt lat="44.52066" lon="5.80562">
        <ele>799.3</ele>
        <time>2013-10-13T06:26:44Z</time>
      </trkpt>
      <trkpt lat="44.52078" lon="5.80553">
        <ele>799.1</ele>
        <time>2013-10-13T06:26:46Z</time>
      </trkpt>
      <trkpt lat="44.52089" lon="5.80543">
        <ele>799.1</ele>
        <time>2013-10-13T06:26:48Z</time>
      </trkpt>
      <trkpt lat="44.521" lon="5.80533">
        <ele>799</ele>
        <time>2013-10-13T06:26:50Z</time>
      </trkpt>
      <trkpt lat="44.52111" lon="5.80523">
        <ele>798.7</ele>
        <time>2013-10-13T06:26:52Z</time>
      </trkpt>
      <trkpt lat="44.52121" lon="5.80514">
        <ele>798.7</ele>
        <time>2013-10-13T06:26:54Z</time>
      </trkpt>
      <trkpt lat="44.52131" lon="5.80504">
        <ele>799</ele>
        <time>2013-10-13T06:26:56Z</time>
      </trkpt>
      <trkpt lat="44.52142" lon="5.80495">
        <ele>799.5</ele>
        <time>2013-10-13T06:26:58Z</time>
      </trkpt>
      <trkpt lat="44.52152" lon="5.80488">
        <ele>799.6</ele>
        <time>2013-10-13T06:27:00Z</time>
      </trkpt>
      <trkpt lat="44.52162" lon="5.80487">
        <ele>798</ele>
        <time>2013-10-13T06:27:02Z</time>
      </trkpt>
      <trkpt lat="44.5217" lon="5.80496">
        <ele>797.3</ele>
        <time>2013-10-13T06:27:04Z</time>
      </trkpt>
      <trkpt lat="44.52173" lon="5.80515">
        <ele>797.5</ele>
        <time>2013-10-13T06:27:06Z</time>
      </trkpt>
      <trkpt lat="44.52172" lon="5.80535">
        <ele>798.5</ele>
        <time>2013-10-13T06:27:08Z</time>
      </trkpt>
      <trkpt lat="44.52175" lon="5.80552">
        <ele>798.6</ele>
        <time>2013-10-13T06:27:10Z</time>
      </trkpt>
      <trkpt lat="44.52177" lon="5.80567">
        <ele>799</ele>
        <time>2013-10-13T06:27:12Z</time>
      </trkpt>
      <trkpt lat="44.5218" lon="5.80583">
        <ele>799.4</ele>
        <time>2013-10-13T06:27:14Z</time>
      </trkpt>
      <trkpt lat="44.52182" lon="5.80598">
        <ele>799.7</ele>
        <time>2013-10-13T06:27:16Z</time>
      </trkpt>
      <trkpt lat="44.52185" lon="5.80614">
        <ele>800</ele>
        <time>2013-10-13T06:27:18Z</time>
      </trkpt>
      <trkpt lat="44.52188" lon="5.80629">
        <ele>800.5</ele>
        <time>2013-10-13T06:27:20Z</time>
      </trkpt>
      <trkpt lat="44.52191" lon="5.80645">
        <ele>801.1</ele>
        <time>2013-10-13T06:27:22Z</time>
      </trkpt>
      <trkpt lat="44.52194" lon="5.80661">
        <ele>801.5</ele>
        <time>2013-10-13T06:27:24Z</time>
      </trkpt>
      <trkpt lat="44.52198" lon="5.80677">
        <ele>802</ele>
        <time>2013-10-13T06:27:26Z</time>
      </trkpt>
      <trkpt lat="44.52202" lon="5.80692">
        <ele>802.2</ele>
        <time>2013-10-13T06:27:28Z</time>
      </trkpt>
      <trkpt lat="44.52205" lon="5.80708">
        <ele>802.9</ele>
        <time>2013-10-13T06:27:30Z</time>
      </trkpt>
      <trkpt lat="44.52208" lon="5.80723">
        <ele>803</ele>
        <time>2013-10-13T06:27:32Z</time>
      </trkpt>
      <trkpt lat="44.52211" lon="5.80738">
        <ele>803.1</ele>
        <time>2013-10-13T06:27:34Z</time>
      </trkpt>
      <trkpt lat="44.52214" lon="5.80752">
        <ele>803.7</ele>
        <time>2013-10-13T06:27:36Z</time>
      </trkpt>
      <trkpt lat="44.52216" lon="5.80767">
        <ele>803.7</ele>
        <time>2013-10-13T06:27:38Z</time>
      </trkpt>
      <trkpt lat="44.52219" lon="5.80782">
        <ele>803.9</ele>
        <time>2013-10-13T06:27:40Z</time>
      </trkpt>
      <trkpt lat="44.52222" lon="5.80797">
        <ele>803.9</ele>
        <time>2013-10-13T06:27:42Z</time>
      </trkpt>
      <trkpt lat="44.5223" lon="5.80829">
        <ele>803.9</ele>
        <time>2013-10-13T06:27:46Z</time>
      </trkpt>
      <trkpt lat="44.52234" lon="5.80846">
        <ele>803.9</ele>
        <time>2013-10-13T06:27:48Z</time>
      </trkpt>
      <trkpt lat="44.52237" lon="5.80861">
        <ele>803.8</ele>
        <time>2013-10-13T06:27:50Z</time>
      </trkpt>
      <trkpt lat="44.52241" lon="5.80877">
        <ele>804.2</ele>
        <time>2013-10-13T06:27:52Z</time>
      </trkpt>
      <trkpt lat="44.52245" lon="5.80892">
        <ele>804.7</ele>
        <time>2013-10-13T06:27:54Z</time>
      </trkpt>
      <trkpt lat="44.52248" lon="5.80908">
        <ele>804.8</ele>
        <time>2013-10-13T06:27:56Z</time>
      </trkpt>
      <trkpt lat="44.52252" lon="5.80924">
        <ele>805</ele>
        <time>2013-10-13T06:27:58Z</time>
      </trkpt>
      <trkpt lat="44.52255" lon="5.80939">
        <ele>804.9</ele>
        <time>2013-10-13T06:28:00Z</time>
      </trkpt>
      <trkpt lat="44.52258" lon="5.80954">
        <ele>804.8</ele>
        <time>2013-10-13T06:28:02Z</time>
      </trkpt>
      <trkpt lat="44.52261" lon="5.8097">
        <ele>804.7</ele>
        <time>2013-10-13T06:28:04Z</time>
      </trkpt>
      <trkpt lat="44.52264" lon="5.80986">
        <ele>804.9</ele>
        <time>2013-10-13T06:28:06Z</time>
      </trkpt>
      <trkpt lat="44.52268" lon="5.81002">
        <ele>804.9</ele>
        <time>2013-10-13T06:28:08Z</time>
      </trkpt>
      <trkpt lat="44.52271" lon="5.81018">
        <ele>805.1</ele>
        <time>2013-10-13T06:28:10Z</time>
      </trkpt>
      <trkpt lat="44.52276" lon="5.81034">
        <ele>805.4</ele>
        <time>2013-10-13T06:28:12Z</time>
      </trkpt>
      <trkpt lat="44.52279" lon="5.81049">
        <ele>805.4</ele>
        <time>2013-10-13T06:28:14Z</time>
      </trkpt>
      <trkpt lat="44.52282" lon="5.81064">
        <ele>805.5</ele>
        <time>2013-10-13T06:28:16Z</time>
      </trkpt>
      <trkpt lat="44.52284" lon="5.81079">
        <ele>805.2</ele>
        <time>2013-10-13T06:28:18Z</time>
      </trkpt>
      <trkpt lat="44.52287" lon="5.81093">
        <ele>805.2</ele>
        <time>2013-10-13T06:28:20Z</time>
      </trkpt>
      <trkpt lat="44.5229" lon="5.81109">
        <ele>805.1</ele>
        <time>2013-10-13T06:28:22Z</time>
      </trkpt>
      <trkpt lat="44.52294" lon="5.81125">
        <ele>805.6</ele>
        <time>2013-10-13T06:28:24Z</time>
      </trkpt>
      <trkpt lat="44.52297" lon="5.81142">
        <ele>806.2</ele>
        <time>2013-10-13T06:28:26Z</time>
      </trkpt>
      <trkpt lat="44.523" lon="5.81158">
        <ele>806.7</ele>
        <time>2013-10-13T06:28:28Z</time>
      </trkpt>
      <trkpt lat="44.52303" lon="5.81174">
        <ele>807.2</ele>
        <time>2013-10-13T06:28:30Z</time>
      </trkpt>
      <trkpt lat="44.52306" lon="5.81189">
        <ele>807.1</ele>
        <time>2013-10-13T06:28:32Z</time>
      </trkpt>
      <trkpt lat="44.52309" lon="5.81203">
        <ele>807.1</ele>
        <time>2013-10-13T06:28:34Z</time>
      </trkpt>
      <trkpt lat="44.52313" lon="5.81218">
        <ele>807</ele>
        <time>2013-10-13T06:28:36Z</time>
      </trkpt>
      <trkpt lat="44.52317" lon="5.81234">
        <ele>807.4</ele>
        <time>2013-10-13T06:28:38Z</time>
      </trkpt>
      <trkpt lat="44.52321" lon="5.81249">
        <ele>807.5</ele>
        <time>2013-10-13T06:28:40Z</time>
      </trkpt>
      <trkpt lat="44.52325" lon="5.81264">
        <ele>807.3</ele>
        <time>2013-10-13T06:28:42Z</time>
      </trkpt>
      <trkpt lat="44.52335" lon="5.81291">
        <ele>807.4</ele>
        <time>2013-10-13T06:28:46Z</time>
      </trkpt>
      <trkpt lat="44.5234" lon="5.81305">
        <ele>807.7</ele>
        <time>2013-10-13T06:28:48Z</time>
      </trkpt>
      <trkpt lat="44.52345" lon="5.81319">
        <ele>807.8</ele>
        <time>2013-10-13T06:28:50Z</time>
      </trkpt>
      <trkpt lat="44.52351" lon="5.81333">
        <ele>808</ele>
        <time>2013-10-13T06:28:52Z</time>
      </trkpt>
      <trkpt lat="44.52357" lon="5.81346">
        <ele>808.2</ele>
        <time>2013-10-13T06:28:54Z</time>
      </trkpt>
      <trkpt lat="44.52362" lon="5.81359">
        <ele>808.1</ele>
        <time>2013-10-13T06:28:56Z</time>
      </trkpt>
      <trkpt lat="44.52367" lon="5.81372">
        <ele>808.3</ele>
        <time>2013-10-13T06:28:58Z</time>
      </trkpt>
      <trkpt lat="44.52374" lon="5.81384">
        <ele>808.2</ele>
        <time>2013-10-13T06:29:00Z</time>
      </trkpt>
      <trkpt lat="44.5238" lon="5.81397">
        <ele>807.6</ele>
        <time>2013-10-13T06:29:02Z</time>
      </trkpt>
      <trkpt lat="44.52386" lon="5.81409">
        <ele>807.8</ele>
        <time>2013-10-13T06:29:04Z</time>
      </trkpt>
      <trkpt lat="44.52393" lon="5.81422">
        <ele>807.8</ele>
        <time>2013-10-13T06:29:06Z</time>
      </trkpt>
      <trkpt lat="44.52399" lon="5.81434">
        <ele>807.7</ele>
        <time>2013-10-13T06:29:08Z</time>
      </trkpt>
      <trkpt lat="44.52406" lon="5.81446">
        <ele>807.4</ele>
        <time>2013-10-13T06:29:10Z</time>
      </trkpt>
      <trkpt lat="44.52413" lon="5.81459">
        <ele>807.5</ele>
        <time>2013-10-13T06:29:12Z</time>
      </trkpt>
      <trkpt lat="44.5242" lon="5.81472">
        <ele>807.5</ele>
        <time>2013-10-13T06:29:14Z</time>
      </trkpt>
      <trkpt lat="44.52428" lon="5.81485">
        <ele>807.6</ele>
        <time>2013-10-13T06:29:16Z</time>
      </trkpt>
      <trkpt lat="44.52435" lon="5.81498">
        <ele>807.7</ele>
        <time>2013-10-13T06:29:18Z</time>
      </trkpt>
      <trkpt lat="44.52443" lon="5.81512">
        <ele>807.8</ele>
        <time>2013-10-13T06:29:20Z</time>
      </trkpt>
      <trkpt lat="44.5245" lon="5.81524">
        <ele>807.9</ele>
        <time>2013-10-13T06:29:22Z</time>
      </trkpt>
      <trkpt lat="44.52458" lon="5.81537">
        <ele>808.2</ele>
        <time>2013-10-13T06:29:24Z</time>
      </trkpt>
      <trkpt lat="44.52465" lon="5.8155">
        <ele>808.9</ele>
        <time>2013-10-13T06:29:26Z</time>
      </trkpt>
      <trkpt lat="44.52473" lon="5.81563">
        <ele>809.5</ele>
        <time>2013-10-13T06:29:28Z</time>
      </trkpt>
      <trkpt lat="44.5248" lon="5.81576">
        <ele>809.9</ele>
        <time>2013-10-13T06:29:30Z</time>
      </trkpt>
      <trkpt lat="44.52488" lon="5.81589">
        <ele>810.1</ele>
        <time>2013-10-13T06:29:32Z</time>
      </trkpt>
      <trkpt lat="44.52495" lon="5.81602">
        <ele>810.5</ele>
        <time>2013-10-13T06:29:34Z</time>
      </trkpt>
      <trkpt lat="44.52502" lon="5.81615">
        <ele>810.9</ele>
        <time>2013-10-13T06:29:36Z</time>
      </trkpt>
      <trkpt lat="44.5251" lon="5.81628">
        <ele>811.2</ele>
        <time>2013-10-13T06:29:38Z</time>
      </trkpt>
      <trkpt lat="44.52519" lon="5.81642">
        <ele>811.8</ele>
        <time>2013-10-13T06:29:40Z</time>
      </trkpt>
      <trkpt lat="44.52527" lon="5.81656">
        <ele>812.1</ele>
        <time>2013-10-13T06:29:42Z</time>
      </trkpt>
      <trkpt lat="44.52544" lon="5.81682">
        <ele>812.2</ele>
        <time>2013-10-13T06:29:46Z</time>
      </trkpt>
      <trkpt lat="44.52552" lon="5.81696">
        <ele>812.3</ele>
        <time>2013-10-13T06:29:48Z</time>
      </trkpt>
      <trkpt lat="44.5256" lon="5.81709">
        <ele>812.4</ele>
        <time>2013-10-13T06:29:50Z</time>
      </trkpt>
      <trkpt lat="44.52568" lon="5.81721">
        <ele>812.6</ele>
        <time>2013-10-13T06:29:52Z</time>
      </trkpt>
      <trkpt lat="44.52576" lon="5.81732">
        <ele>812.5</ele>
        <time>2013-10-13T06:29:54Z</time>
      </trkpt>
      <trkpt lat="44.52584" lon="5.81746">
        <ele>812.9</ele>
        <time>2013-10-13T06:29:56Z</time>
      </trkpt>
      <trkpt lat="44.5259" lon="5.81758">
        <ele>813.3</ele>
        <time>2013-10-13T06:29:58Z</time>
      </trkpt>
      <trkpt lat="44.52597" lon="5.81769">
        <ele>813.8</ele>
        <time>2013-10-13T06:30:00Z</time>
      </trkpt>
      <trkpt lat="44.52603" lon="5.81783">
        <ele>814.2</ele>
        <time>2013-10-13T06:30:02Z</time>
      </trkpt>
      <trkpt lat="44.52609" lon="5.81797">
        <ele>814.6</ele>
        <time>2013-10-13T06:30:04Z</time>
      </trkpt>
      <trkpt lat="44.52615" lon="5.81811">
        <ele>814.8</ele>
        <time>2013-10-13T06:30:06Z</time>
      </trkpt>
      <trkpt lat="44.52623" lon="5.81825">
        <ele>815.1</ele>
        <time>2013-10-13T06:30:08Z</time>
      </trkpt>
      <trkpt lat="44.52629" lon="5.81838">
        <ele>814.9</ele>
        <time>2013-10-13T06:30:10Z</time>
      </trkpt>
      <trkpt lat="44.52636" lon="5.81851">
        <ele>814.8</ele>
        <time>2013-10-13T06:30:12Z</time>
      </trkpt>
      <trkpt lat="44.52642" lon="5.81865">
        <ele>814.7</ele>
        <time>2013-10-13T06:30:14Z</time>
      </trkpt>
      <trkpt lat="44.52649" lon="5.81878">
        <ele>814.6</ele>
        <time>2013-10-13T06:30:16Z</time>
      </trkpt>
      <trkpt lat="44.52657" lon="5.81892">
        <ele>814.8</ele>
        <time>2013-10-13T06:30:18Z</time>
      </trkpt>
      <trkpt lat="44.52663" lon="5.81904">
        <ele>814.5</ele>
        <time>2013-10-13T06:30:20Z</time>
      </trkpt>
      <trkpt lat="44.52669" lon="5.81917">
        <ele>814.5</ele>
        <time>2013-10-13T06:30:22Z</time>
      </trkpt>
      <trkpt lat="44.52676" lon="5.81929">
        <ele>814.4</ele>
        <time>2013-10-13T06:30:24Z</time>
      </trkpt>
      <trkpt lat="44.52683" lon="5.81942">
        <ele>814.2</ele>
        <time>2013-10-13T06:30:26Z</time>
      </trkpt>
      <trkpt lat="44.5269" lon="5.81955">
        <ele>814</ele>
        <time>2013-10-13T06:30:28Z</time>
      </trkpt>
      <trkpt lat="44.52697" lon="5.81968">
        <ele>813.9</ele>
        <time>2013-10-13T06:30:30Z</time>
      </trkpt>
      <trkpt lat="44.52704" lon="5.81981">
        <ele>814.1</ele>
        <time>2013-10-13T06:30:32Z</time>
      </trkpt>
      <trkpt lat="44.52712" lon="5.81995">
        <ele>814.2</ele>
        <time>2013-10-13T06:30:34Z</time>
      </trkpt>
      <trkpt lat="44.52719" lon="5.82008">
        <ele>814.3</ele>
        <time>2013-10-13T06:30:36Z</time>
      </trkpt>
      <trkpt lat="44.52726" lon="5.82021">
        <ele>814.4</ele>
        <time>2013-10-13T06:30:38Z</time>
      </trkpt>
      <trkpt lat="44.52733" lon="5.82034">
        <ele>814.5</ele>
        <time>2013-10-13T06:30:40Z</time>
      </trkpt>
      <trkpt lat="44.5274" lon="5.82047">
        <ele>814.5</ele>
        <time>2013-10-13T06:30:42Z</time>
      </trkpt>
      <trkpt lat="44.52748" lon="5.82061">
        <ele>814.6</ele>
        <time>2013-10-13T06:30:44Z</time>
      </trkpt>
      <trkpt lat="44.52763" lon="5.82086">
        <ele>815.1</ele>
        <time>2013-10-13T06:30:48Z</time>
      </trkpt>
      <trkpt lat="44.5277" lon="5.82099">
        <ele>815.4</ele>
        <time>2013-10-13T06:30:50Z</time>
      </trkpt>
      <trkpt lat="44.52777" lon="5.82112">
        <ele>815.5</ele>
        <time>2013-10-13T06:30:52Z</time>
      </trkpt>
      <trkpt lat="44.52784" lon="5.82125">
        <ele>815.5</ele>
        <time>2013-10-13T06:30:54Z</time>
      </trkpt>
      <trkpt lat="44.52791" lon="5.82139">
        <ele>815.6</ele>
        <time>2013-10-13T06:30:56Z</time>
      </trkpt>
      <trkpt lat="44.52798" lon="5.82152">
        <ele>815.8</ele>
        <time>2013-10-13T06:30:58Z</time>
      </trkpt>
      <trkpt lat="44.52806" lon="5.82165">
        <ele>816</ele>
        <time>2013-10-13T06:31:00Z</time>
      </trkpt>
      <trkpt lat="44.52813" lon="5.82178">
        <ele>816.1</ele>
        <time>2013-10-13T06:31:02Z</time>
      </trkpt>
      <trkpt lat="44.5282" lon="5.82192">
        <ele>816.4</ele>
        <time>2013-10-13T06:31:04Z</time>
      </trkpt>
      <trkpt lat="44.52827" lon="5.82205">
        <ele>816.5</ele>
        <time>2013-10-13T06:31:06Z</time>
      </trkpt>
      <trkpt lat="44.52833" lon="5.82219">
        <ele>816.7</ele>
        <time>2013-10-13T06:31:08Z</time>
      </trkpt>
      <trkpt lat="44.52838" lon="5.82233">
        <ele>816.5</ele>
        <time>2013-10-13T06:31:10Z</time>
      </trkpt>
      <trkpt lat="44.52843" lon="5.82248">
        <ele>816.7</ele>
        <time>2013-10-13T06:31:12Z</time>
      </trkpt>
      <trkpt lat="44.52848" lon="5.82263">
        <ele>817</ele>
        <time>2013-10-13T06:31:14Z</time>
      </trkpt>
      <trkpt lat="44.52853" lon="5.82279">
        <ele>817.3</ele>
        <time>2013-10-13T06:31:16Z</time>
      </trkpt>
      <trkpt lat="44.52856" lon="5.82295">
        <ele>817.5</ele>
        <time>2013-10-13T06:31:18Z</time>
      </trkpt>
      <trkpt lat="44.5286" lon="5.82311">
        <ele>817.8</ele>
        <time>2013-10-13T06:31:20Z</time>
      </trkpt>
      <trkpt lat="44.52863" lon="5.82327">
        <ele>817.9</ele>
        <time>2013-10-13T06:31:22Z</time>
      </trkpt>
      <trkpt lat="44.52867" lon="5.82343">
        <ele>818.2</ele>
        <time>2013-10-13T06:31:24Z</time>
      </trkpt>
      <trkpt lat="44.5287" lon="5.82359">
        <ele>818.2</ele>
        <time>2013-10-13T06:31:26Z</time>
      </trkpt>
      <trkpt lat="44.52873" lon="5.82374">
        <ele>818.2</ele>
        <time>2013-10-13T06:31:28Z</time>
      </trkpt>
      <trkpt lat="44.52876" lon="5.82389">
        <ele>818.3</ele>
        <time>2013-10-13T06:31:30Z</time>
      </trkpt>
      <trkpt lat="44.52879" lon="5.82405">
        <ele>818.4</ele>
        <time>2013-10-13T06:31:32Z</time>
      </trkpt>
      <trkpt lat="44.52881" lon="5.82419">
        <ele>818.7</ele>
        <time>2013-10-13T06:31:34Z</time>
      </trkpt>
      <trkpt lat="44.52884" lon="5.82434">
        <ele>818.8</ele>
        <time>2013-10-13T06:31:36Z</time>
      </trkpt>
      <trkpt lat="44.52887" lon="5.82447">
        <ele>819</ele>
        <time>2013-10-13T06:31:38Z</time>
      </trkpt>
      <trkpt lat="44.52889" lon="5.82463">
        <ele>819.4</ele>
        <time>2013-10-13T06:31:41Z</time>
      </trkpt>
      <trkpt lat="44.52901" lon="5.82468">
        <ele>819</ele>
        <time>2013-10-13T06:31:46Z</time>
      </trkpt>
      <trkpt lat="44.52923" lon="5.82456">
        <ele>818.6</ele>
        <time>2013-10-13T06:31:50Z</time>
      </trkpt>
      <trkpt lat="44.52934" lon="5.82452">
        <ele>818.5</ele>
        <time>2013-10-13T06:31:52Z</time>
      </trkpt>
      <trkpt lat="44.52945" lon="5.82447">
        <ele>818.4</ele>
        <time>2013-10-13T06:31:54Z</time>
      </trkpt>
      <trkpt lat="44.52956" lon="5.82443">
        <ele>818.2</ele>
        <time>2013-10-13T06:31:56Z</time>
      </trkpt>
      <trkpt lat="44.52967" lon="5.82439">
        <ele>818.1</ele>
        <time>2013-10-13T06:31:58Z</time>
      </trkpt>
      <trkpt lat="44.52979" lon="5.82434">
        <ele>817.9</ele>
        <time>2013-10-13T06:32:00Z</time>
      </trkpt>
      <trkpt lat="44.52989" lon="5.8243">
        <ele>817.8</ele>
        <time>2013-10-13T06:32:02Z</time>
      </trkpt>
      <trkpt lat="44.53001" lon="5.82427">
        <ele>817.8</ele>
        <time>2013-10-13T06:32:04Z</time>
      </trkpt>
      <trkpt lat="44.53012" lon="5.82422">
        <ele>817.9</ele>
        <time>2013-10-13T06:32:06Z</time>
      </trkpt>
      <trkpt lat="44.53023" lon="5.82419">
        <ele>818</ele>
        <time>2013-10-13T06:32:08Z</time>
      </trkpt>
      <trkpt lat="44.53034" lon="5.82416">
        <ele>818.8</ele>
        <time>2013-10-13T06:32:10Z</time>
      </trkpt>
      <trkpt lat="44.53045" lon="5.82413">
        <ele>819.6</ele>
        <time>2013-10-13T06:32:12Z</time>
      </trkpt>
      <trkpt lat="44.53056" lon="5.82411">
        <ele>819.8</ele>
        <time>2013-10-13T06:32:14Z</time>
      </trkpt>
      <trkpt lat="44.53067" lon="5.8241">
        <ele>820.2</ele>
        <time>2013-10-13T06:32:16Z</time>
      </trkpt>
      <trkpt lat="44.53078" lon="5.82408">
        <ele>820</ele>
        <time>2013-10-13T06:32:18Z</time>
      </trkpt>
      <trkpt lat="44.53089" lon="5.82408">
        <ele>819.7</ele>
        <time>2013-10-13T06:32:20Z</time>
      </trkpt>
      <trkpt lat="44.531" lon="5.82408">
        <ele>819.5</ele>
        <time>2013-10-13T06:32:22Z</time>
      </trkpt>
      <trkpt lat="44.53109" lon="5.82409">
        <ele>819.4</ele>
        <time>2013-10-13T06:32:24Z</time>
      </trkpt>
      <trkpt lat="44.53118" lon="5.82414">
        <ele>818.6</ele>
        <time>2013-10-13T06:32:26Z</time>
      </trkpt>
      <trkpt lat="44.53128" lon="5.82427">
        <ele>816.6</ele>
        <time>2013-10-13T06:32:29Z</time>
      </trkpt>
      <trkpt lat="44.53131" lon="5.8244">
        <ele>816.1</ele>
        <time>2013-10-13T06:32:31Z</time>
      </trkpt>
      <trkpt lat="44.53131" lon="5.82453">
        <ele>815.8</ele>
        <time>2013-10-13T06:32:33Z</time>
      </trkpt>
      <trkpt lat="44.53129" lon="5.82468">
        <ele>817.1</ele>
        <time>2013-10-13T06:32:35Z</time>
      </trkpt>
      <trkpt lat="44.53129" lon="5.82483">
        <ele>818.5</ele>
        <time>2013-10-13T06:32:37Z</time>
      </trkpt>
      <trkpt lat="44.53127" lon="5.82497">
        <ele>820</ele>
        <time>2013-10-13T06:32:39Z</time>
      </trkpt>
      <trkpt lat="44.53129" lon="5.8251">
        <ele>820.5</ele>
        <time>2013-10-13T06:32:41Z</time>
      </trkpt>
      <trkpt lat="44.53134" lon="5.82521">
        <ele>820.8</ele>
        <time>2013-10-13T06:32:43Z</time>
      </trkpt>
      <trkpt lat="44.5314" lon="5.82532">
        <ele>820.9</ele>
        <time>2013-10-13T06:32:45Z</time>
      </trkpt>
      <trkpt lat="44.53145" lon="5.82543">
        <ele>821.1</ele>
        <time>2013-10-13T06:32:47Z</time>
      </trkpt>
      <trkpt lat="44.53158" lon="5.82565">
        <ele>820.9</ele>
        <time>2013-10-13T06:32:51Z</time>
      </trkpt>
      <trkpt lat="44.53163" lon="5.82576">
        <ele>821.1</ele>
        <time>2013-10-13T06:32:53Z</time>
      </trkpt>
      <trkpt lat="44.53169" lon="5.82588">
        <ele>821.3</ele>
        <time>2013-10-13T06:32:55Z</time>
      </trkpt>
      <trkpt lat="44.53174" lon="5.82599">
        <ele>821.7</ele>
        <time>2013-10-13T06:32:57Z</time>
      </trkpt>
      <trkpt lat="44.5318" lon="5.82611">
        <ele>822.2</ele>
        <time>2013-10-13T06:32:59Z</time>
      </trkpt>
      <trkpt lat="44.53186" lon="5.82622">
        <ele>822.6</ele>
        <time>2013-10-13T06:33:01Z</time>
      </trkpt>
      <trkpt lat="44.53192" lon="5.82632">
        <ele>823</ele>
        <time>2013-10-13T06:33:03Z</time>
      </trkpt>
      <trkpt lat="44.53198" lon="5.82643">
        <ele>823.3</ele>
        <time>2013-10-13T06:33:05Z</time>
      </trkpt>
      <trkpt lat="44.53205" lon="5.82653">
        <ele>823.3</ele>
        <time>2013-10-13T06:33:07Z</time>
      </trkpt>
      <trkpt lat="44.53212" lon="5.82663">
        <ele>823.4</ele>
        <time>2013-10-13T06:33:09Z</time>
      </trkpt>
      <trkpt lat="44.53218" lon="5.82673">
        <ele>823.4</ele>
        <time>2013-10-13T06:33:11Z</time>
      </trkpt>
      <trkpt lat="44.53223" lon="5.82684">
        <ele>823.3</ele>
        <time>2013-10-13T06:33:13Z</time>
      </trkpt>
      <trkpt lat="44.53227" lon="5.82696">
        <ele>823.3</ele>
        <time>2013-10-13T06:33:15Z</time>
      </trkpt>
      <trkpt lat="44.53231" lon="5.82708">
        <ele>823.5</ele>
        <time>2013-10-13T06:33:17Z</time>
      </trkpt>
      <trkpt lat="44.53238" lon="5.82723">
        <ele>824.2</ele>
        <time>2013-10-13T06:33:20Z</time>
      </trkpt>
      <trkpt lat="44.53249" lon="5.82728">
        <ele>822.6</ele>
        <time>2013-10-13T06:33:23Z</time>
      </trkpt>
      <trkpt lat="44.5326" lon="5.82721">
        <ele>822</ele>
        <time>2013-10-13T06:33:26Z</time>
      </trkpt>
      <trkpt lat="44.53271" lon="5.82712">
        <ele>821.7</ele>
        <time>2013-10-13T06:33:29Z</time>
      </trkpt>
      <trkpt lat="44.53283" lon="5.82703">
        <ele>823.2</ele>
        <time>2013-10-13T06:33:32Z</time>
      </trkpt>
      <trkpt lat="44.53295" lon="5.82697">
        <ele>823.9</ele>
        <time>2013-10-13T06:33:35Z</time>
      </trkpt>
      <trkpt lat="44.53307" lon="5.82691">
        <ele>824.5</ele>
        <time>2013-10-13T06:33:38Z</time>
      </trkpt>
      <trkpt lat="44.53319" lon="5.82685">
        <ele>826.3</ele>
        <time>2013-10-13T06:33:41Z</time>
      </trkpt>
      <trkpt lat="44.53328" lon="5.82683">
        <ele>826.8</ele>
        <time>2013-10-13T06:33:43Z</time>
      </trkpt>
      <trkpt lat="44.53337" lon="5.82679">
        <ele>827.5</ele>
        <time>2013-10-13T06:33:45Z</time>
      </trkpt>
      <trkpt lat="44.53346" lon="5.82676">
        <ele>827.9</ele>
        <time>2013-10-13T06:33:47Z</time>
      </trkpt>
      <trkpt lat="44.53355" lon="5.82674">
        <ele>828.3</ele>
        <time>2013-10-13T06:33:49Z</time>
      </trkpt>
      <trkpt lat="44.53377" lon="5.82671">
        <ele>829.1</ele>
        <time>2013-10-13T06:33:54Z</time>
      </trkpt>
      <trkpt lat="44.53391" lon="5.8267">
        <ele>829</ele>
        <time>2013-10-13T06:33:57Z</time>
      </trkpt>
      <trkpt lat="44.534" lon="5.82667">
        <ele>829.7</ele>
        <time>2013-10-13T06:33:59Z</time>
      </trkpt>
      <trkpt lat="44.5341" lon="5.82664">
        <ele>830.5</ele>
        <time>2013-10-13T06:34:01Z</time>
      </trkpt>
      <trkpt lat="44.53419" lon="5.82661">
        <ele>830.9</ele>
        <time>2013-10-13T06:34:03Z</time>
      </trkpt>
      <trkpt lat="44.53431" lon="5.82658">
        <ele>831.6</ele>
        <time>2013-10-13T06:34:06Z</time>
      </trkpt>
      <trkpt lat="44.53442" lon="5.82655">
        <ele>831.8</ele>
        <time>2013-10-13T06:34:09Z</time>
      </trkpt>
      <trkpt lat="44.53453" lon="5.82652">
        <ele>832.2</ele>
        <time>2013-10-13T06:34:13Z</time>
      </trkpt>
      <trkpt lat="44.53463" lon="5.82647">
        <ele>833</ele>
        <time>2013-10-13T06:34:16Z</time>
      </trkpt>
      <trkpt lat="44.53474" lon="5.82648">
        <ele>832.7</ele>
        <time>2013-10-13T06:34:19Z</time>
      </trkpt>
      <trkpt lat="44.53486" lon="5.82653">
        <ele>832.5</ele>
        <time>2013-10-13T06:34:22Z</time>
      </trkpt>
      <trkpt lat="44.53498" lon="5.82654">
        <ele>832.1</ele>
        <time>2013-10-13T06:34:25Z</time>
      </trkpt>
      <trkpt lat="44.53509" lon="5.82647">
        <ele>830.8</ele>
        <time>2013-10-13T06:34:28Z</time>
      </trkpt>
      <trkpt lat="44.53516" lon="5.82637">
        <ele>830</ele>
        <time>2013-10-13T06:34:30Z</time>
      </trkpt>
      <trkpt lat="44.53522" lon="5.82627">
        <ele>830.3</ele>
        <time>2013-10-13T06:34:32Z</time>
      </trkpt>
      <trkpt lat="44.53528" lon="5.82617">
        <ele>831.6</ele>
        <time>2013-10-13T06:34:34Z</time>
      </trkpt>
      <trkpt lat="44.53535" lon="5.82608">
        <ele>832.2</ele>
        <time>2013-10-13T06:34:36Z</time>
      </trkpt>
      <trkpt lat="44.53543" lon="5.82601">
        <ele>832.8</ele>
        <time>2013-10-13T06:34:38Z</time>
      </trkpt>
      <trkpt lat="44.53555" lon="5.82599">
        <ele>833.8</ele>
        <time>2013-10-13T06:34:41Z</time>
      </trkpt>
      <trkpt lat="44.53565" lon="5.82594">
        <ele>834.5</ele>
        <time>2013-10-13T06:34:44Z</time>
      </trkpt>
      <trkpt lat="44.53576" lon="5.82587">
        <ele>835.5</ele>
        <time>2013-10-13T06:34:47Z</time>
      </trkpt>
      <trkpt lat="44.53586" lon="5.82576">
        <ele>836.2</ele>
        <time>2013-10-13T06:34:50Z</time>
      </trkpt>
      <trkpt lat="44.536" lon="5.82552">
        <ele>836.5</ele>
        <time>2013-10-13T06:34:55Z</time>
      </trkpt>
      <trkpt lat="44.53604" lon="5.82535">
        <ele>836.9</ele>
        <time>2013-10-13T06:34:58Z</time>
      </trkpt>
      <trkpt lat="44.53609" lon="5.82523">
        <ele>837.2</ele>
        <time>2013-10-13T06:35:00Z</time>
      </trkpt>
      <trkpt lat="44.53613" lon="5.82511">
        <ele>837.3</ele>
        <time>2013-10-13T06:35:02Z</time>
      </trkpt>
      <trkpt lat="44.53619" lon="5.825">
        <ele>837.6</ele>
        <time>2013-10-13T06:35:04Z</time>
      </trkpt>
      <trkpt lat="44.53626" lon="5.82489">
        <ele>838.3</ele>
        <time>2013-10-13T06:35:06Z</time>
      </trkpt>
      <trkpt lat="44.53633" lon="5.82478">
        <ele>839.2</ele>
        <time>2013-10-13T06:35:08Z</time>
      </trkpt>
      <trkpt lat="44.53639" lon="5.82468">
        <ele>840</ele>
        <time>2013-10-13T06:35:10Z</time>
      </trkpt>
      <trkpt lat="44.53646" lon="5.82457">
        <ele>840.8</ele>
        <time>2013-10-13T06:35:12Z</time>
      </trkpt>
      <trkpt lat="44.53653" lon="5.82446">
        <ele>842.4</ele>
        <time>2013-10-13T06:35:14Z</time>
      </trkpt>
      <trkpt lat="44.5366" lon="5.82437">
        <ele>844.1</ele>
        <time>2013-10-13T06:35:16Z</time>
      </trkpt>
      <trkpt lat="44.53667" lon="5.82429">
        <ele>845.6</ele>
        <time>2013-10-13T06:35:18Z</time>
      </trkpt>
      <trkpt lat="44.53676" lon="5.82426">
        <ele>847.2</ele>
        <time>2013-10-13T06:35:20Z</time>
      </trkpt>
      <trkpt lat="44.53688" lon="5.82419">
        <ele>848.4</ele>
        <time>2013-10-13T06:35:23Z</time>
      </trkpt>
      <trkpt lat="44.537" lon="5.82414">
        <ele>849.1</ele>
        <time>2013-10-13T06:35:26Z</time>
      </trkpt>
      <trkpt lat="44.53711" lon="5.82407">
        <ele>850.6</ele>
        <time>2013-10-13T06:35:29Z</time>
      </trkpt>
      <trkpt lat="44.5372" lon="5.82398">
        <ele>850</ele>
        <time>2013-10-13T06:35:32Z</time>
      </trkpt>
      <trkpt lat="44.53728" lon="5.82388">
        <ele>849.3</ele>
        <time>2013-10-13T06:35:35Z</time>
      </trkpt>
      <trkpt lat="44.53733" lon="5.82375">
        <ele>847.8</ele>
        <time>2013-10-13T06:35:38Z</time>
      </trkpt>
      <trkpt lat="44.53735" lon="5.82359">
        <ele>846.7</ele>
        <time>2013-10-13T06:35:41Z</time>
      </trkpt>
      <trkpt lat="44.53739" lon="5.82345">
        <ele>846.8</ele>
        <time>2013-10-13T06:35:44Z</time>
      </trkpt>
      <trkpt lat="44.53741" lon="5.82331">
        <ele>847.2</ele>
        <time>2013-10-13T06:35:47Z</time>
      </trkpt>
      <trkpt lat="44.53744" lon="5.82318">
        <ele>847.2</ele>
        <time>2013-10-13T06:35:50Z</time>
      </trkpt>
      <trkpt lat="44.53747" lon="5.82304">
        <ele>848.2</ele>
        <time>2013-10-13T06:35:54Z</time>
      </trkpt>
      <trkpt lat="44.53761" lon="5.82276">
        <ele>848.9</ele>
        <time>2013-10-13T06:36:01Z</time>
      </trkpt>
      <trkpt lat="44.53767" lon="5.82266">
        <ele>849.7</ele>
        <time>2013-10-13T06:36:04Z</time>
      </trkpt>
      <trkpt lat="44.53774" lon="5.82255">
        <ele>850.9</ele>
        <time>2013-10-13T06:36:08Z</time>
      </trkpt>
      <trkpt lat="44.53782" lon="5.82243">
        <ele>851.9</ele>
        <time>2013-10-13T06:36:12Z</time>
      </trkpt>
      <trkpt lat="44.53787" lon="5.82233">
        <ele>852.4</ele>
        <time>2013-10-13T06:36:16Z</time>
      </trkpt>
      <trkpt lat="44.53794" lon="5.82222">
        <ele>853.5</ele>
        <time>2013-10-13T06:36:20Z</time>
      </trkpt>
      <trkpt lat="44.538" lon="5.82211">
        <ele>854.6</ele>
        <time>2013-10-13T06:36:24Z</time>
      </trkpt>
      <trkpt lat="44.53806" lon="5.82199">
        <ele>855</ele>
        <time>2013-10-13T06:36:27Z</time>
      </trkpt>
      <trkpt lat="44.53812" lon="5.82185">
        <ele>855.8</ele>
        <time>2013-10-13T06:36:31Z</time>
      </trkpt>
      <trkpt lat="44.53816" lon="5.8217">
        <ele>855.7</ele>
        <time>2013-10-13T06:36:35Z</time>
      </trkpt>
      <trkpt lat="44.53822" lon="5.82158">
        <ele>857.4</ele>
        <time>2013-10-13T06:36:38Z</time>
      </trkpt>
      <trkpt lat="44.5383" lon="5.82146">
        <ele>858.5</ele>
        <time>2013-10-13T06:36:41Z</time>
      </trkpt>
      <trkpt lat="44.53837" lon="5.82136">
        <ele>859.1</ele>
        <time>2013-10-13T06:36:43Z</time>
      </trkpt>
      <trkpt lat="44.53845" lon="5.82125">
        <ele>859.8</ele>
        <time>2013-10-13T06:36:46Z</time>
      </trkpt>
      <trkpt lat="44.53855" lon="5.82116">
        <ele>861.1</ele>
        <time>2013-10-13T06:36:49Z</time>
      </trkpt>
      <trkpt lat="44.53867" lon="5.8211">
        <ele>863.3</ele>
        <time>2013-10-13T06:36:52Z</time>
      </trkpt>
      <trkpt lat="44.53879" lon="5.82104">
        <ele>865.5</ele>
        <time>2013-10-13T06:36:55Z</time>
      </trkpt>
      <trkpt lat="44.53902" lon="5.82095">
        <ele>865.9</ele>
        <time>2013-10-13T06:37:01Z</time>
      </trkpt>
      <trkpt lat="44.53914" lon="5.82091">
        <ele>866.4</ele>
        <time>2013-10-13T06:37:04Z</time>
      </trkpt>
      <trkpt lat="44.53927" lon="5.82086">
        <ele>866.7</ele>
        <time>2013-10-13T06:37:07Z</time>
      </trkpt>
      <trkpt lat="44.5394" lon="5.82083">
        <ele>867.3</ele>
        <time>2013-10-13T06:37:10Z</time>
      </trkpt>
      <trkpt lat="44.53952" lon="5.82079">
        <ele>868.1</ele>
        <time>2013-10-13T06:37:13Z</time>
      </trkpt>
      <trkpt lat="44.53964" lon="5.82074">
        <ele>869</ele>
        <time>2013-10-13T06:37:16Z</time>
      </trkpt>
      <trkpt lat="44.53977" lon="5.82069">
        <ele>869.4</ele>
        <time>2013-10-13T06:37:19Z</time>
      </trkpt>
      <trkpt lat="44.53989" lon="5.82066">
        <ele>869.7</ele>
        <time>2013-10-13T06:37:22Z</time>
      </trkpt>
      <trkpt lat="44.54002" lon="5.82069">
        <ele>869.7</ele>
        <time>2013-10-13T06:37:25Z</time>
      </trkpt>
      <trkpt lat="44.54014" lon="5.82075">
        <ele>870.1</ele>
        <time>2013-10-13T06:37:28Z</time>
      </trkpt>
      <trkpt lat="44.54025" lon="5.82083">
        <ele>870.7</ele>
        <time>2013-10-13T06:37:31Z</time>
      </trkpt>
      <trkpt lat="44.54035" lon="5.82087">
        <ele>871.3</ele>
        <time>2013-10-13T06:37:34Z</time>
      </trkpt>
      <trkpt lat="44.54046" lon="5.8209">
        <ele>871.9</ele>
        <time>2013-10-13T06:37:37Z</time>
      </trkpt>
      <trkpt lat="44.54058" lon="5.82093">
        <ele>872.6</ele>
        <time>2013-10-13T06:37:40Z</time>
      </trkpt>
      <trkpt lat="44.54069" lon="5.82096">
        <ele>873.3</ele>
        <time>2013-10-13T06:37:43Z</time>
      </trkpt>
      <trkpt lat="44.54079" lon="5.82097">
        <ele>873.6</ele>
        <time>2013-10-13T06:37:46Z</time>
      </trkpt>
      <trkpt lat="44.54088" lon="5.82095">
        <ele>874.8</ele>
        <time>2013-10-13T06:37:52Z</time>
      </trkpt>
      <trkpt lat="44.54095" lon="5.82104">
        <ele>877</ele>
        <time>2013-10-13T06:38:04Z</time>
      </trkpt>
      <trkpt lat="44.54113" lon="5.82121">
        <ele>881.4</ele>
        <time>2013-10-13T06:38:36Z</time>
      </trkpt>
      <trkpt lat="44.54121" lon="5.82127">
        <ele>881.7</ele>
        <time>2013-10-13T06:38:39Z</time>
      </trkpt>
      <trkpt lat="44.54129" lon="5.82135">
        <ele>882</ele>
        <time>2013-10-13T06:38:42Z</time>
      </trkpt>
      <trkpt lat="44.54137" lon="5.82142">
        <ele>882.2</ele>
        <time>2013-10-13T06:38:45Z</time>
      </trkpt>
      <trkpt lat="44.54146" lon="5.82149">
        <ele>882.4</ele>
        <time>2013-10-13T06:38:48Z</time>
      </trkpt>
      <trkpt lat="44.54155" lon="5.82157">
        <ele>882.7</ele>
        <time>2013-10-13T06:38:51Z</time>
      </trkpt>
      <trkpt lat="44.54163" lon="5.82166">
        <ele>883</ele>
        <time>2013-10-13T06:38:54Z</time>
      </trkpt>
      <trkpt lat="44.54172" lon="5.82174">
        <ele>883.3</ele>
        <time>2013-10-13T06:38:57Z</time>
      </trkpt>
      <trkpt lat="44.54181" lon="5.82182">
        <ele>883.5</ele>
        <time>2013-10-13T06:39:00Z</time>
      </trkpt>
      <trkpt lat="44.5419" lon="5.8219">
        <ele>883.8</ele>
        <time>2013-10-13T06:39:03Z</time>
      </trkpt>
      <trkpt lat="44.54199" lon="5.82199">
        <ele>884.1</ele>
        <time>2013-10-13T06:39:06Z</time>
      </trkpt>
      <trkpt lat="44.54214" lon="5.82214">
        <ele>884.4</ele>
        <time>2013-10-13T06:39:12Z</time>
      </trkpt>
      <trkpt lat="44.54224" lon="5.82222">
        <ele>884.8</ele>
        <time>2013-10-13T06:39:16Z</time>
      </trkpt>
      <trkpt lat="44.54234" lon="5.8223">
        <ele>885.5</ele>
        <time>2013-10-13T06:39:20Z</time>
      </trkpt>
      <trkpt lat="44.54244" lon="5.8224">
        <ele>886.5</ele>
        <time>2013-10-13T06:39:24Z</time>
      </trkpt>
      <trkpt lat="44.54253" lon="5.82249">
        <ele>886.9</ele>
        <time>2013-10-13T06:39:28Z</time>
      </trkpt>
      <trkpt lat="44.54262" lon="5.82255">
        <ele>887.5</ele>
        <time>2013-10-13T06:39:32Z</time>
      </trkpt>
      <trkpt lat="44.54271" lon="5.82257">
        <ele>888.4</ele>
        <time>2013-10-13T06:39:36Z</time>
      </trkpt>
      <trkpt lat="44.54281" lon="5.82258">
        <ele>889.9</ele>
        <time>2013-10-13T06:39:41Z</time>
      </trkpt>
      <trkpt lat="44.5429" lon="5.8226">
        <ele>890.9</ele>
        <time>2013-10-13T06:39:46Z</time>
      </trkpt>
      <trkpt lat="44.543" lon="5.82265">
        <ele>892.7</ele>
        <time>2013-10-13T06:39:52Z</time>
      </trkpt>
      <trkpt lat="44.54308" lon="5.82273">
        <ele>893.9</ele>
        <time>2013-10-13T06:39:57Z</time>
      </trkpt>
      <trkpt lat="44.54315" lon="5.82282">
        <ele>894.9</ele>
        <time>2013-10-13T06:40:02Z</time>
      </trkpt>
      <trkpt lat="44.54323" lon="5.82291">
        <ele>896.7</ele>
        <time>2013-10-13T06:40:07Z</time>
      </trkpt>
      <trkpt lat="44.5434" lon="5.82307">
        <ele>899.6</ele>
        <time>2013-10-13T06:40:17Z</time>
      </trkpt>
      <trkpt lat="44.54348" lon="5.82314">
        <ele>900.7</ele>
        <time>2013-10-13T06:40:22Z</time>
      </trkpt>
      <trkpt lat="44.54355" lon="5.8232">
        <ele>902.3</ele>
        <time>2013-10-13T06:40:27Z</time>
      </trkpt>
      <trkpt lat="44.54364" lon="5.82327">
        <ele>904.2</ele>
        <time>2013-10-13T06:40:32Z</time>
      </trkpt>
      <trkpt lat="44.54374" lon="5.82332">
        <ele>905.1</ele>
        <time>2013-10-13T06:40:37Z</time>
      </trkpt>
      <trkpt lat="44.54384" lon="5.82337">
        <ele>905.9</ele>
        <time>2013-10-13T06:40:42Z</time>
      </trkpt>
      <trkpt lat="44.54392" lon="5.82346">
        <ele>905.8</ele>
        <time>2013-10-13T06:40:47Z</time>
      </trkpt>
      <trkpt lat="44.54395" lon="5.8236">
        <ele>906.5</ele>
        <time>2013-10-13T06:40:52Z</time>
      </trkpt>
      <trkpt lat="44.54395" lon="5.82375">
        <ele>907.2</ele>
        <time>2013-10-13T06:40:57Z</time>
      </trkpt>
      <trkpt lat="44.54398" lon="5.82388">
        <ele>907.7</ele>
        <time>2013-10-13T06:41:02Z</time>
      </trkpt>
      <trkpt lat="44.54403" lon="5.82401">
        <ele>908.8</ele>
        <time>2013-10-13T06:41:07Z</time>
      </trkpt>
      <trkpt lat="44.54411" lon="5.82409">
        <ele>910.1</ele>
        <time>2013-10-13T06:41:12Z</time>
      </trkpt>
      <trkpt lat="44.54429" lon="5.82402">
        <ele>914.5</ele>
        <time>2013-10-13T06:41:23Z</time>
      </trkpt>
      <trkpt lat="44.54439" lon="5.82397">
        <ele>916.5</ele>
        <time>2013-10-13T06:41:28Z</time>
      </trkpt>
      <trkpt lat="44.54448" lon="5.82392">
        <ele>918</ele>
        <time>2013-10-13T06:41:32Z</time>
      </trkpt>
      <trkpt lat="44.54458" lon="5.82393">
        <ele>918.7</ele>
        <time>2013-10-13T06:41:37Z</time>
      </trkpt>
      <trkpt lat="44.54466" lon="5.82403">
        <ele>919.8</ele>
        <time>2013-10-13T06:41:43Z</time>
      </trkpt>
      <trkpt lat="44.54469" lon="5.82415">
        <ele>920.7</ele>
        <time>2013-10-13T06:41:48Z</time>
      </trkpt>
      <trkpt lat="44.54472" lon="5.82427">
        <ele>922.2</ele>
        <time>2013-10-13T06:41:53Z</time>
      </trkpt>
      <trkpt lat="44.54475" lon="5.8244">
        <ele>924.6</ele>
        <time>2013-10-13T06:41:58Z</time>
      </trkpt>
      <trkpt lat="44.5448" lon="5.82451">
        <ele>927.5</ele>
        <time>2013-10-13T06:42:03Z</time>
      </trkpt>
      <trkpt lat="44.5449" lon="5.82452">
        <ele>925.2</ele>
        <time>2013-10-13T06:42:09Z</time>
      </trkpt>
      <trkpt lat="44.545" lon="5.8245">
        <ele>924.6</ele>
        <time>2013-10-13T06:42:15Z</time>
      </trkpt>
      <trkpt lat="44.5452" lon="5.82453">
        <ele>926.8</ele>
        <time>2013-10-13T06:42:28Z</time>
      </trkpt>
      <trkpt lat="44.54531" lon="5.82456">
        <ele>928.3</ele>
        <time>2013-10-13T06:42:34Z</time>
      </trkpt>
      <trkpt lat="44.54541" lon="5.8246">
        <ele>928.8</ele>
        <time>2013-10-13T06:42:39Z</time>
      </trkpt>
      <trkpt lat="44.54551" lon="5.82465">
        <ele>929.2</ele>
        <time>2013-10-13T06:42:44Z</time>
      </trkpt>
      <trkpt lat="44.5456" lon="5.82468">
        <ele>929.8</ele>
        <time>2013-10-13T06:42:49Z</time>
      </trkpt>
      <trkpt lat="44.54569" lon="5.82464">
        <ele>931.3</ele>
        <time>2013-10-13T06:42:55Z</time>
      </trkpt>
      <trkpt lat="44.54578" lon="5.82459">
        <ele>932.5</ele>
        <time>2013-10-13T06:43:00Z</time>
      </trkpt>
      <trkpt lat="44.54587" lon="5.82456">
        <ele>933.2</ele>
        <time>2013-10-13T06:43:04Z</time>
      </trkpt>
      <trkpt lat="44.54596" lon="5.82454">
        <ele>935</ele>
        <time>2013-10-13T06:43:11Z</time>
      </trkpt>
      <trkpt lat="44.54605" lon="5.8246">
        <ele>936.7</ele>
        <time>2013-10-13T06:43:17Z</time>
      </trkpt>
      <trkpt lat="44.54619" lon="5.82447">
        <ele>937.6</ele>
        <time>2013-10-13T06:43:34Z</time>
      </trkpt>
      <trkpt lat="44.54624" lon="5.82436">
        <ele>939.1</ele>
        <time>2013-10-13T06:43:39Z</time>
      </trkpt>
      <trkpt lat="44.54631" lon="5.82426">
        <ele>940.7</ele>
        <time>2013-10-13T06:43:45Z</time>
      </trkpt>
      <trkpt lat="44.54636" lon="5.82413">
        <ele>942.7</ele>
        <time>2013-10-13T06:43:51Z</time>
      </trkpt>
      <trkpt lat="44.54641" lon="5.82402">
        <ele>944.5</ele>
        <time>2013-10-13T06:43:56Z</time>
      </trkpt>
      <trkpt lat="44.54648" lon="5.82393">
        <ele>947.4</ele>
        <time>2013-10-13T06:44:01Z</time>
      </trkpt>
      <trkpt lat="44.54655" lon="5.82382">
        <ele>948.7</ele>
        <time>2013-10-13T06:44:07Z</time>
      </trkpt>
      <trkpt lat="44.54661" lon="5.82371">
        <ele>948.9</ele>
        <time>2013-10-13T06:44:13Z</time>
      </trkpt>
      <trkpt lat="44.54667" lon="5.8236">
        <ele>950.4</ele>
        <time>2013-10-13T06:44:19Z</time>
      </trkpt>
      <trkpt lat="44.54681" lon="5.82338">
        <ele>953.9</ele>
        <time>2013-10-13T06:44:31Z</time>
      </trkpt>
      <trkpt lat="44.54688" lon="5.8233">
        <ele>956.4</ele>
        <time>2013-10-13T06:44:36Z</time>
      </trkpt>
      <trkpt lat="44.54697" lon="5.82326">
        <ele>959.4</ele>
        <time>2013-10-13T06:44:41Z</time>
      </trkpt>
      <trkpt lat="44.54707" lon="5.82327">
        <ele>966.5</ele>
        <time>2013-10-13T06:46:47Z</time>
      </trkpt>
      <trkpt lat="44.54726" lon="5.82317">
        <ele>965.8</ele>
        <time>2013-10-13T06:46:56Z</time>
      </trkpt>
      <trkpt lat="44.54735" lon="5.82315">
        <ele>966.7</ele>
        <time>2013-10-13T06:47:00Z</time>
      </trkpt>
      <trkpt lat="44.54745" lon="5.82313">
        <ele>968.2</ele>
        <time>2013-10-13T06:47:05Z</time>
      </trkpt>
      <trkpt lat="44.54754" lon="5.8231">
        <ele>968.7</ele>
        <time>2013-10-13T06:47:09Z</time>
      </trkpt>
      <trkpt lat="44.54763" lon="5.8231">
        <ele>969.1</ele>
        <time>2013-10-13T06:47:13Z</time>
      </trkpt>
      <trkpt lat="44.54774" lon="5.82308">
        <ele>969.5</ele>
        <time>2013-10-13T06:47:18Z</time>
      </trkpt>
      <trkpt lat="44.54783" lon="5.82307">
        <ele>969.6</ele>
        <time>2013-10-13T06:47:22Z</time>
      </trkpt>
      <trkpt lat="44.54794" lon="5.82307">
        <ele>970.6</ele>
        <time>2013-10-13T06:47:26Z</time>
      </trkpt>
      <trkpt lat="44.54803" lon="5.82306">
        <ele>971</ele>
        <time>2013-10-13T06:47:30Z</time>
      </trkpt>
      <trkpt lat="44.54814" lon="5.82304">
        <ele>972</ele>
        <time>2013-10-13T06:47:35Z</time>
      </trkpt>
      <trkpt lat="44.54824" lon="5.82303">
        <ele>972.8</ele>
        <time>2013-10-13T06:47:40Z</time>
      </trkpt>
      <trkpt lat="44.54834" lon="5.82304">
        <ele>973.9</ele>
        <time>2013-10-13T06:47:44Z</time>
      </trkpt>
      <trkpt lat="44.54845" lon="5.82307">
        <ele>975.1</ele>
        <time>2013-10-13T06:47:49Z</time>
      </trkpt>
      <trkpt lat="44.54867" lon="5.82304">
        <ele>975.9</ele>
        <time>2013-10-13T06:47:57Z</time>
      </trkpt>
      <trkpt lat="44.54877" lon="5.82302">
        <ele>976.2</ele>
        <time>2013-10-13T06:48:01Z</time>
      </trkpt>
      <trkpt lat="44.54886" lon="5.82295">
        <ele>976.1</ele>
        <time>2013-10-13T06:48:05Z</time>
      </trkpt>
      <trkpt lat="44.54895" lon="5.82286">
        <ele>976.9</ele>
        <time>2013-10-13T06:48:09Z</time>
      </trkpt>
      <trkpt lat="44.54901" lon="5.82275">
        <ele>977.1</ele>
        <time>2013-10-13T06:48:13Z</time>
      </trkpt>
      <trkpt lat="44.5491" lon="5.82264">
        <ele>978.1</ele>
        <time>2013-10-13T06:48:18Z</time>
      </trkpt>
      <trkpt lat="44.54916" lon="5.82255">
        <ele>978.4</ele>
        <time>2013-10-13T06:48:22Z</time>
      </trkpt>
      <trkpt lat="44.5492" lon="5.82241">
        <ele>980.5</ele>
        <time>2013-10-13T06:48:26Z</time>
      </trkpt>
      <trkpt lat="44.54926" lon="5.82231">
        <ele>982.1</ele>
        <time>2013-10-13T06:48:30Z</time>
      </trkpt>
      <trkpt lat="44.54932" lon="5.82221">
        <ele>983</ele>
        <time>2013-10-13T06:48:34Z</time>
      </trkpt>
      <trkpt lat="44.5494" lon="5.82213">
        <ele>983.7</ele>
        <time>2013-10-13T06:48:38Z</time>
      </trkpt>
      <trkpt lat="44.54949" lon="5.82211">
        <ele>985.1</ele>
        <time>2013-10-13T06:48:42Z</time>
      </trkpt>
      <trkpt lat="44.54958" lon="5.82208">
        <ele>987.4</ele>
        <time>2013-10-13T06:48:46Z</time>
      </trkpt>
      <trkpt lat="44.54969" lon="5.82207">
        <ele>989</ele>
        <time>2013-10-13T06:48:50Z</time>
      </trkpt>
      <trkpt lat="44.54991" lon="5.82203">
        <ele>991</ele>
        <time>2013-10-13T06:48:58Z</time>
      </trkpt>
      <trkpt lat="44.55001" lon="5.82202">
        <ele>992.9</ele>
        <time>2013-10-13T06:49:02Z</time>
      </trkpt>
      <trkpt lat="44.55011" lon="5.822">
        <ele>994.9</ele>
        <time>2013-10-13T06:49:08Z</time>
      </trkpt>
      <trkpt lat="44.5502" lon="5.82199">
        <ele>996</ele>
        <time>2013-10-13T06:49:15Z</time>
      </trkpt>
      <trkpt lat="44.5503" lon="5.82198">
        <ele>996.9</ele>
        <time>2013-10-13T06:49:21Z</time>
      </trkpt>
      <trkpt lat="44.5504" lon="5.82194">
        <ele>997.4</ele>
        <time>2013-10-13T06:49:26Z</time>
      </trkpt>
      <trkpt lat="44.55051" lon="5.82192">
        <ele>998.7</ele>
        <time>2013-10-13T06:49:31Z</time>
      </trkpt>
      <trkpt lat="44.55062" lon="5.8219">
        <ele>999.4</ele>
        <time>2013-10-13T06:49:36Z</time>
      </trkpt>
      <trkpt lat="44.55073" lon="5.82187">
        <ele>1000.1</ele>
        <time>2013-10-13T06:49:40Z</time>
      </trkpt>
      <trkpt lat="44.55084" lon="5.82186">
        <ele>1001.1</ele>
        <time>2013-10-13T06:49:44Z</time>
      </trkpt>
      <trkpt lat="44.55095" lon="5.82187">
        <ele>1001.5</ele>
        <time>2013-10-13T06:49:48Z</time>
      </trkpt>
      <trkpt lat="44.55106" lon="5.8219">
        <ele>1002.6</ele>
        <time>2013-10-13T06:49:52Z</time>
      </trkpt>
      <trkpt lat="44.55126" lon="5.822">
        <ele>1003</ele>
        <time>2013-10-13T06:50:00Z</time>
      </trkpt>
      <trkpt lat="44.55135" lon="5.82203">
        <ele>1003.6</ele>
        <time>2013-10-13T06:50:03Z</time>
      </trkpt>
      <trkpt lat="44.55145" lon="5.82206">
        <ele>1003.7</ele>
        <time>2013-10-13T06:50:06Z</time>
      </trkpt>
      <trkpt lat="44.55155" lon="5.82207">
        <ele>1004.3</ele>
        <time>2013-10-13T06:50:09Z</time>
      </trkpt>
      <trkpt lat="44.55165" lon="5.82207">
        <ele>1004</ele>
        <time>2013-10-13T06:50:12Z</time>
      </trkpt>
      <trkpt lat="44.55176" lon="5.82206">
        <ele>1004.1</ele>
        <time>2013-10-13T06:50:15Z</time>
      </trkpt>
      <trkpt lat="44.55186" lon="5.82206">
        <ele>1004.5</ele>
        <time>2013-10-13T06:50:18Z</time>
      </trkpt>
      <trkpt lat="44.55196" lon="5.82205">
        <ele>1005.1</ele>
        <time>2013-10-13T06:50:21Z</time>
      </trkpt>
      <trkpt lat="44.55206" lon="5.82204">
        <ele>1005.7</ele>
        <time>2013-10-13T06:50:24Z</time>
      </trkpt>
      <trkpt lat="44.55216" lon="5.82205">
        <ele>1006.2</ele>
        <time>2013-10-13T06:50:27Z</time>
      </trkpt>
      <trkpt lat="44.55226" lon="5.82209">
        <ele>1006.6</ele>
        <time>2013-10-13T06:50:30Z</time>
      </trkpt>
      <trkpt lat="44.55237" lon="5.82216">
        <ele>1006.9</ele>
        <time>2013-10-13T06:50:33Z</time>
      </trkpt>
      <trkpt lat="44.55249" lon="5.82221">
        <ele>1006.8</ele>
        <time>2013-10-13T06:50:36Z</time>
      </trkpt>
      <trkpt lat="44.55261" lon="5.82224">
        <ele>1006.7</ele>
        <time>2013-10-13T06:50:39Z</time>
      </trkpt>
      <trkpt lat="44.55273" lon="5.82224">
        <ele>1007.2</ele>
        <time>2013-10-13T06:50:42Z</time>
      </trkpt>
      <trkpt lat="44.55286" lon="5.82223">
        <ele>1007.2</ele>
        <time>2013-10-13T06:50:45Z</time>
      </trkpt>
      <trkpt lat="44.55299" lon="5.82221">
        <ele>1007.4</ele>
        <time>2013-10-13T06:50:48Z</time>
      </trkpt>
      <trkpt lat="44.55311" lon="5.82219">
        <ele>1007.8</ele>
        <time>2013-10-13T06:50:51Z</time>
      </trkpt>
      <trkpt lat="44.55325" lon="5.82217">
        <ele>1008.6</ele>
        <time>2013-10-13T06:50:54Z</time>
      </trkpt>
      <trkpt lat="44.55351" lon="5.8222">
        <ele>1008.7</ele>
        <time>2013-10-13T06:51:00Z</time>
      </trkpt>
      <trkpt lat="44.55364" lon="5.8222">
        <ele>1009.2</ele>
        <time>2013-10-13T06:51:03Z</time>
      </trkpt>
      <trkpt lat="44.55376" lon="5.82219">
        <ele>1009.7</ele>
        <time>2013-10-13T06:51:06Z</time>
      </trkpt>
      <trkpt lat="44.55387" lon="5.82219">
        <ele>1009.8</ele>
        <time>2013-10-13T06:51:09Z</time>
      </trkpt>
      <trkpt lat="44.55399" lon="5.82217">
        <ele>1009.5</ele>
        <time>2013-10-13T06:51:12Z</time>
      </trkpt>
      <trkpt lat="44.55411" lon="5.82214">
        <ele>1009.4</ele>
        <time>2013-10-13T06:51:15Z</time>
      </trkpt>
      <trkpt lat="44.55422" lon="5.8221">
        <ele>1009.6</ele>
        <time>2013-10-13T06:51:18Z</time>
      </trkpt>
      <trkpt lat="44.55433" lon="5.82207">
        <ele>1009.5</ele>
        <time>2013-10-13T06:51:21Z</time>
      </trkpt>
      <trkpt lat="44.55444" lon="5.82204">
        <ele>1009.4</ele>
        <time>2013-10-13T06:51:24Z</time>
      </trkpt>
      <trkpt lat="44.55454" lon="5.82201">
        <ele>1009.8</ele>
        <time>2013-10-13T06:51:27Z</time>
      </trkpt>
      <trkpt lat="44.55464" lon="5.82194">
        <ele>1010.3</ele>
        <time>2013-10-13T06:51:30Z</time>
      </trkpt>
      <trkpt lat="44.55475" lon="5.82186">
        <ele>1010.9</ele>
        <time>2013-10-13T06:51:33Z</time>
      </trkpt>
      <trkpt lat="44.55486" lon="5.82178">
        <ele>1011.7</ele>
        <time>2013-10-13T06:51:36Z</time>
      </trkpt>
      <trkpt lat="44.55498" lon="5.82174">
        <ele>1012</ele>
        <time>2013-10-13T06:51:39Z</time>
      </trkpt>
      <trkpt lat="44.55508" lon="5.82175">
        <ele>1012</ele>
        <time>2013-10-13T06:51:42Z</time>
      </trkpt>
      <trkpt lat="44.55518" lon="5.82178">
        <ele>1012.3</ele>
        <time>2013-10-13T06:51:45Z</time>
      </trkpt>
      <trkpt lat="44.55528" lon="5.82181">
        <ele>1013.1</ele>
        <time>2013-10-13T06:51:49Z</time>
      </trkpt>
      <trkpt lat="44.55537" lon="5.82185">
        <ele>1014</ele>
        <time>2013-10-13T06:51:54Z</time>
      </trkpt>
      <trkpt lat="44.55557" lon="5.82181">
        <ele>1016</ele>
        <time>2013-10-13T06:52:04Z</time>
      </trkpt>
      <trkpt lat="44.55567" lon="5.8218">
        <ele>1016.9</ele>
        <time>2013-10-13T06:52:10Z</time>
      </trkpt>
      <trkpt lat="44.55577" lon="5.82181">
        <ele>1017.8</ele>
        <time>2013-10-13T06:52:15Z</time>
      </trkpt>
      <trkpt lat="44.55587" lon="5.82183">
        <ele>1018.6</ele>
        <time>2013-10-13T06:52:20Z</time>
      </trkpt>
      <trkpt lat="44.55596" lon="5.82186">
        <ele>1019.2</ele>
        <time>2013-10-13T06:52:25Z</time>
      </trkpt>
      <trkpt lat="44.55606" lon="5.8219">
        <ele>1020.6</ele>
        <time>2013-10-13T06:52:30Z</time>
      </trkpt>
      <trkpt lat="44.55615" lon="5.82192">
        <ele>1021</ele>
        <time>2013-10-13T06:52:35Z</time>
      </trkpt>
      <trkpt lat="44.55625" lon="5.82193">
        <ele>1021.6</ele>
        <time>2013-10-13T06:52:40Z</time>
      </trkpt>
      <trkpt lat="44.55635" lon="5.82192">
        <ele>1022.9</ele>
        <time>2013-10-13T06:52:46Z</time>
      </trkpt>
      <trkpt lat="44.55646" lon="5.82188">
        <ele>1024.3</ele>
        <time>2013-10-13T06:52:52Z</time>
      </trkpt>
      <trkpt lat="44.55655" lon="5.82185">
        <ele>1025.3</ele>
        <time>2013-10-13T06:52:57Z</time>
      </trkpt>
      <trkpt lat="44.55657" lon="5.82166">
        <ele>1026.5</ele>
        <time>2013-10-13T06:53:10Z</time>
      </trkpt>
      <trkpt lat="44.55648" lon="5.82166">
        <ele>1027.5</ele>
        <time>2013-10-13T06:53:14Z</time>
      </trkpt>
      <trkpt lat="44.55637" lon="5.82168">
        <ele>1028.2</ele>
        <time>2013-10-13T06:53:19Z</time>
      </trkpt>
      <trkpt lat="44.55626" lon="5.82165">
        <ele>1030.1</ele>
        <time>2013-10-13T06:53:25Z</time>
      </trkpt>
      <trkpt lat="44.55617" lon="5.82163">
        <ele>1031.5</ele>
        <time>2013-10-13T06:53:30Z</time>
      </trkpt>
      <trkpt lat="44.55607" lon="5.82156">
        <ele>1032.8</ele>
        <time>2013-10-13T06:53:36Z</time>
      </trkpt>
      <trkpt lat="44.556" lon="5.82149">
        <ele>1033.7</ele>
        <time>2013-10-13T06:53:41Z</time>
      </trkpt>
      <trkpt lat="44.55591" lon="5.82143">
        <ele>1034.8</ele>
        <time>2013-10-13T06:53:47Z</time>
      </trkpt>
      <trkpt lat="44.55582" lon="5.82139">
        <ele>1035.6</ele>
        <time>2013-10-13T06:53:52Z</time>
      </trkpt>
      <trkpt lat="44.55572" lon="5.82134">
        <ele>1036.9</ele>
        <time>2013-10-13T06:53:58Z</time>
      </trkpt>
      <trkpt lat="44.55552" lon="5.82126">
        <ele>1039.6</ele>
        <time>2013-10-13T06:54:11Z</time>
      </trkpt>
      <trkpt lat="44.55542" lon="5.82124">
        <ele>1042.2</ele>
        <time>2013-10-13T06:54:17Z</time>
      </trkpt>
      <trkpt lat="44.55533" lon="5.82122">
        <ele>1044</ele>
        <time>2013-10-13T06:54:22Z</time>
      </trkpt>
      <trkpt lat="44.55522" lon="5.82119">
        <ele>1046.2</ele>
        <time>2013-10-13T06:54:27Z</time>
      </trkpt>
      <trkpt lat="44.55512" lon="5.82113">
        <ele>1047.3</ele>
        <time>2013-10-13T06:54:32Z</time>
      </trkpt>
      <trkpt lat="44.55504" lon="5.82107">
        <ele>1048.4</ele>
        <time>2013-10-13T06:54:36Z</time>
      </trkpt>
      <trkpt lat="44.55497" lon="5.82098">
        <ele>1049.2</ele>
        <time>2013-10-13T06:54:40Z</time>
      </trkpt>
      <trkpt lat="44.5549" lon="5.82088">
        <ele>1049.3</ele>
        <time>2013-10-13T06:54:44Z</time>
      </trkpt>
      <trkpt lat="44.55483" lon="5.82077">
        <ele>1051</ele>
        <time>2013-10-13T06:54:48Z</time>
      </trkpt>
      <trkpt lat="44.55474" lon="5.8207">
        <ele>1052.5</ele>
        <time>2013-10-13T06:54:53Z</time>
      </trkpt>
      <trkpt lat="44.55464" lon="5.82075">
        <ele>1052.8</ele>
        <time>2013-10-13T06:54:58Z</time>
      </trkpt>
      <trkpt lat="44.55456" lon="5.8208">
        <ele>1053.1</ele>
        <time>2013-10-13T06:55:02Z</time>
      </trkpt>
      <trkpt lat="44.55436" lon="5.82088">
        <ele>1056.6</ele>
        <time>2013-10-13T06:55:10Z</time>
      </trkpt>
      <trkpt lat="44.55425" lon="5.82087">
        <ele>1058</ele>
        <time>2013-10-13T06:55:15Z</time>
      </trkpt>
      <trkpt lat="44.55415" lon="5.82084">
        <ele>1059.9</ele>
        <time>2013-10-13T06:55:20Z</time>
      </trkpt>
      <trkpt lat="44.55405" lon="5.82079">
        <ele>1061.1</ele>
        <time>2013-10-13T06:55:25Z</time>
      </trkpt>
      <trkpt lat="44.55395" lon="5.82074">
        <ele>1062.3</ele>
        <time>2013-10-13T06:55:30Z</time>
      </trkpt>
      <trkpt lat="44.55385" lon="5.82067">
        <ele>1063.3</ele>
        <time>2013-10-13T06:55:35Z</time>
      </trkpt>
      <trkpt lat="44.55376" lon="5.82064">
        <ele>1064</ele>
        <time>2013-10-13T06:55:39Z</time>
      </trkpt>
      <trkpt lat="44.55367" lon="5.82057">
        <ele>1065.7</ele>
        <time>2013-10-13T06:55:44Z</time>
      </trkpt>
      <trkpt lat="44.55359" lon="5.8205">
        <ele>1067.1</ele>
        <time>2013-10-13T06:55:48Z</time>
      </trkpt>
      <trkpt lat="44.5535" lon="5.82045">
        <ele>1068.1</ele>
        <time>2013-10-13T06:55:53Z</time>
      </trkpt>
      <trkpt lat="44.55341" lon="5.82049">
        <ele>1070.2</ele>
        <time>2013-10-13T06:55:57Z</time>
      </trkpt>
      <trkpt lat="44.55331" lon="5.82056">
        <ele>1070.4</ele>
        <time>2013-10-13T06:56:03Z</time>
      </trkpt>
      <trkpt lat="44.55316" lon="5.82069">
        <ele>1072.4</ele>
        <time>2013-10-13T06:56:11Z</time>
      </trkpt>
      <trkpt lat="44.55306" lon="5.82075">
        <ele>1073.5</ele>
        <time>2013-10-13T06:56:16Z</time>
      </trkpt>
      <trkpt lat="44.55296" lon="5.82071">
        <ele>1073.2</ele>
        <time>2013-10-13T06:56:21Z</time>
      </trkpt>
      <trkpt lat="44.55296" lon="5.82055">
        <ele>1071.3</ele>
        <time>2013-10-13T06:56:26Z</time>
      </trkpt>
      <trkpt lat="44.553" lon="5.82042">
        <ele>1070.8</ele>
        <time>2013-10-13T06:56:31Z</time>
      </trkpt>
      <trkpt lat="44.55307" lon="5.82033">
        <ele>1070.6</ele>
        <time>2013-10-13T06:56:35Z</time>
      </trkpt>
      <trkpt lat="44.55314" lon="5.82025">
        <ele>1070.7</ele>
        <time>2013-10-13T06:56:39Z</time>
      </trkpt>
      <trkpt lat="44.55323" lon="5.82019">
        <ele>1071.2</ele>
        <time>2013-10-13T06:56:44Z</time>
      </trkpt>
      <trkpt lat="44.55332" lon="5.82016">
        <ele>1071.9</ele>
        <time>2013-10-13T06:56:49Z</time>
      </trkpt>
      <trkpt lat="44.55341" lon="5.82014">
        <ele>1073.1</ele>
        <time>2013-10-13T06:56:54Z</time>
      </trkpt>
      <trkpt lat="44.55352" lon="5.82014">
        <ele>1074.1</ele>
        <time>2013-10-13T06:57:00Z</time>
      </trkpt>
      <trkpt lat="44.55362" lon="5.82015">
        <ele>1074.9</ele>
        <time>2013-10-13T06:57:05Z</time>
      </trkpt>
      <trkpt lat="44.55381" lon="5.82012">
        <ele>1076.5</ele>
        <time>2013-10-13T06:57:13Z</time>
      </trkpt>
      <trkpt lat="44.55391" lon="5.82012">
        <ele>1076.8</ele>
        <time>2013-10-13T06:57:18Z</time>
      </trkpt>
      <trkpt lat="44.554" lon="5.8201">
        <ele>1077</ele>
        <time>2013-10-13T06:57:21Z</time>
      </trkpt>
      <trkpt lat="44.55411" lon="5.82009">
        <ele>1077.5</ele>
        <time>2013-10-13T06:57:25Z</time>
      </trkpt>
      <trkpt lat="44.5542" lon="5.82007">
        <ele>1078.2</ele>
        <time>2013-10-13T06:57:29Z</time>
      </trkpt>
      <trkpt lat="44.55432" lon="5.82001">
        <ele>1078</ele>
        <time>2013-10-13T06:57:33Z</time>
      </trkpt>
      <trkpt lat="44.55441" lon="5.81997">
        <ele>1078.6</ele>
        <time>2013-10-13T06:57:37Z</time>
      </trkpt>
      <trkpt lat="44.55449" lon="5.81989">
        <ele>1079</ele>
        <time>2013-10-13T06:57:41Z</time>
      </trkpt>
      <trkpt lat="44.55457" lon="5.8198">
        <ele>1081.1</ele>
        <time>2013-10-13T06:57:46Z</time>
      </trkpt>
      <trkpt lat="44.55462" lon="5.81968">
        <ele>1081.3</ele>
        <time>2013-10-13T06:57:51Z</time>
      </trkpt>
      <trkpt lat="44.55467" lon="5.81957">
        <ele>1083.1</ele>
        <time>2013-10-13T06:57:56Z</time>
      </trkpt>
      <trkpt lat="44.55474" lon="5.81949">
        <ele>1084.2</ele>
        <time>2013-10-13T06:58:02Z</time>
      </trkpt>
      <trkpt lat="44.55484" lon="5.81943">
        <ele>1085.3</ele>
        <time>2013-10-13T06:58:08Z</time>
      </trkpt>
      <trkpt lat="44.55503" lon="5.81949">
        <ele>1087.8</ele>
        <time>2013-10-13T06:58:20Z</time>
      </trkpt>
      <trkpt lat="44.55511" lon="5.81955">
        <ele>1089.9</ele>
        <time>2013-10-13T06:58:25Z</time>
      </trkpt>
      <trkpt lat="44.5552" lon="5.81961">
        <ele>1090.3</ele>
        <time>2013-10-13T06:58:30Z</time>
      </trkpt>
      <trkpt lat="44.55529" lon="5.81967">
        <ele>1090.9</ele>
        <time>2013-10-13T06:58:34Z</time>
      </trkpt>
      <trkpt lat="44.55537" lon="5.81973">
        <ele>1092.4</ele>
        <time>2013-10-13T06:58:38Z</time>
      </trkpt>
      <trkpt lat="44.55544" lon="5.81982">
        <ele>1094.4</ele>
        <time>2013-10-13T06:58:43Z</time>
      </trkpt>
      <trkpt lat="44.55553" lon="5.81988">
        <ele>1095.5</ele>
        <time>2013-10-13T06:58:49Z</time>
      </trkpt>
      <trkpt lat="44.55563" lon="5.8199">
        <ele>1096.3</ele>
        <time>2013-10-13T06:58:54Z</time>
      </trkpt>
      <trkpt lat="44.55573" lon="5.81991">
        <ele>1097</ele>
        <time>2013-10-13T06:59:00Z</time>
      </trkpt>
      <trkpt lat="44.55582" lon="5.81991">
        <ele>1098.4</ele>
        <time>2013-10-13T06:59:06Z</time>
      </trkpt>
      <trkpt lat="44.55593" lon="5.8199">
        <ele>1099</ele>
        <time>2013-10-13T06:59:12Z</time>
      </trkpt>
      <trkpt lat="44.55613" lon="5.81984">
        <ele>1101.5</ele>
        <time>2013-10-13T06:59:23Z</time>
      </trkpt>
      <trkpt lat="44.55621" lon="5.81976">
        <ele>1102.1</ele>
        <time>2013-10-13T06:59:29Z</time>
      </trkpt>
      <trkpt lat="44.55627" lon="5.81966">
        <ele>1104</ele>
        <time>2013-10-13T06:59:35Z</time>
      </trkpt>
      <trkpt lat="44.55629" lon="5.81952">
        <ele>1105.3</ele>
        <time>2013-10-13T06:59:42Z</time>
      </trkpt>
      <trkpt lat="44.55634" lon="5.81939">
        <ele>1105.5</ele>
        <time>2013-10-13T06:59:49Z</time>
      </trkpt>
      <trkpt lat="44.55638" lon="5.81925">
        <ele>1105.7</ele>
        <time>2013-10-13T06:59:53Z</time>
      </trkpt>
      <trkpt lat="44.55645" lon="5.81914">
        <ele>1106.3</ele>
        <time>2013-10-13T06:59:59Z</time>
      </trkpt>
      <trkpt lat="44.55651" lon="5.81902">
        <ele>1107.8</ele>
        <time>2013-10-13T07:00:04Z</time>
      </trkpt>
      <trkpt lat="44.55656" lon="5.81891">
        <ele>1108.9</ele>
        <time>2013-10-13T07:00:09Z</time>
      </trkpt>
      <trkpt lat="44.55662" lon="5.8188">
        <ele>1110.2</ele>
        <time>2013-10-13T07:00:15Z</time>
      </trkpt>
      <trkpt lat="44.55674" lon="5.81856">
        <ele>1111.5</ele>
        <time>2013-10-13T07:00:27Z</time>
      </trkpt>
      <trkpt lat="44.55677" lon="5.81842">
        <ele>1112.2</ele>
        <time>2013-10-13T07:00:33Z</time>
      </trkpt>
      <trkpt lat="44.55681" lon="5.81829">
        <ele>1113.7</ele>
        <time>2013-10-13T07:00:38Z</time>
      </trkpt>
      <trkpt lat="44.55686" lon="5.81817">
        <ele>1114.9</ele>
        <time>2013-10-13T07:00:43Z</time>
      </trkpt>
      <trkpt lat="44.55695" lon="5.81815">
        <ele>1115.4</ele>
        <time>2013-10-13T07:00:47Z</time>
      </trkpt>
      <trkpt lat="44.55703" lon="5.81822">
        <ele>1115.6</ele>
        <time>2013-10-13T07:00:51Z</time>
      </trkpt>
      <trkpt lat="44.55708" lon="5.81834">
        <ele>1119.5</ele>
        <time>2013-10-13T07:00:56Z</time>
      </trkpt>
      <trkpt lat="44.5571" lon="5.81848">
        <ele>1121</ele>
        <time>2013-10-13T07:01:02Z</time>
      </trkpt>
      <trkpt lat="44.55712" lon="5.81862">
        <ele>1122.1</ele>
        <time>2013-10-13T07:01:08Z</time>
      </trkpt>
      <trkpt lat="44.55716" lon="5.81873">
        <ele>1122.8</ele>
        <time>2013-10-13T07:01:13Z</time>
      </trkpt>
      <trkpt lat="44.55719" lon="5.81886">
        <ele>1124.6</ele>
        <time>2013-10-13T07:01:18Z</time>
      </trkpt>
      <trkpt lat="44.55728" lon="5.8191">
        <ele>1127</ele>
        <time>2013-10-13T07:01:28Z</time>
      </trkpt>
      <trkpt lat="44.55735" lon="5.81921">
        <ele>1128.8</ele>
        <time>2013-10-13T07:01:33Z</time>
      </trkpt>
      <trkpt lat="44.55744" lon="5.81924">
        <ele>1129.3</ele>
        <time>2013-10-13T07:01:38Z</time>
      </trkpt>
      <trkpt lat="44.55754" lon="5.81924">
        <ele>1129.7</ele>
        <time>2013-10-13T07:01:43Z</time>
      </trkpt>
      <trkpt lat="44.55763" lon="5.81922">
        <ele>1129.6</ele>
        <time>2013-10-13T07:01:48Z</time>
      </trkpt>
      <trkpt lat="44.55773" lon="5.81918">
        <ele>1130.4</ele>
        <time>2013-10-13T07:01:53Z</time>
      </trkpt>
      <trkpt lat="44.55783" lon="5.81913">
        <ele>1131.1</ele>
        <time>2013-10-13T07:01:58Z</time>
      </trkpt>
      <trkpt lat="44.55792" lon="5.81906">
        <ele>1132.1</ele>
        <time>2013-10-13T07:02:04Z</time>
      </trkpt>
      <trkpt lat="44.558" lon="5.81902">
        <ele>1132.8</ele>
        <time>2013-10-13T07:02:09Z</time>
      </trkpt>
      <trkpt lat="44.5581" lon="5.81897">
        <ele>1133.7</ele>
        <time>2013-10-13T07:02:15Z</time>
      </trkpt>
      <trkpt lat="44.55819" lon="5.81889">
        <ele>1134.1</ele>
        <time>2013-10-13T07:02:21Z</time>
      </trkpt>
      <trkpt lat="44.55832" lon="5.81871">
        <ele>1134.9</ele>
        <time>2013-10-13T07:02:31Z</time>
      </trkpt>
      <trkpt lat="44.5584" lon="5.81863">
        <ele>1135.5</ele>
        <time>2013-10-13T07:02:37Z</time>
      </trkpt>
      <trkpt lat="44.55847" lon="5.81854">
        <ele>1137.2</ele>
        <time>2013-10-13T07:02:43Z</time>
      </trkpt>
      <trkpt lat="44.55857" lon="5.8185">
        <ele>1139</ele>
        <time>2013-10-13T07:02:50Z</time>
      </trkpt>
      <trkpt lat="44.55867" lon="5.81844">
        <ele>1139.2</ele>
        <time>2013-10-13T07:02:56Z</time>
      </trkpt>
      <trkpt lat="44.55875" lon="5.81838">
        <ele>1139.7</ele>
        <time>2013-10-13T07:03:00Z</time>
      </trkpt>
      <trkpt lat="44.55884" lon="5.81836">
        <ele>1141.5</ele>
        <time>2013-10-13T07:03:06Z</time>
      </trkpt>
      <trkpt lat="44.55893" lon="5.81834">
        <ele>1143.3</ele>
        <time>2013-10-13T07:03:14Z</time>
      </trkpt>
      <trkpt lat="44.55903" lon="5.81834">
        <ele>1145.9</ele>
        <time>2013-10-13T07:03:20Z</time>
      </trkpt>
      <trkpt lat="44.55915" lon="5.81831">
        <ele>1147.5</ele>
        <time>2013-10-13T07:03:26Z</time>
      </trkpt>
      <trkpt lat="44.55934" lon="5.81824">
        <ele>1149.2</ele>
        <time>2013-10-13T07:03:37Z</time>
      </trkpt>
      <trkpt lat="44.55943" lon="5.81822">
        <ele>1150.7</ele>
        <time>2013-10-13T07:03:43Z</time>
      </trkpt>
      <trkpt lat="44.55953" lon="5.81821">
        <ele>1154</ele>
        <time>2013-10-13T07:03:49Z</time>
      </trkpt>
      <trkpt lat="44.55962" lon="5.81817">
        <ele>1155.4</ele>
        <time>2013-10-13T07:03:54Z</time>
      </trkpt>
      <trkpt lat="44.5597" lon="5.81813">
        <ele>1156.6</ele>
        <time>2013-10-13T07:04:00Z</time>
      </trkpt>
      <trkpt lat="44.5598" lon="5.8181">
        <ele>1157.7</ele>
        <time>2013-10-13T07:04:06Z</time>
      </trkpt>
      <trkpt lat="44.55989" lon="5.81812">
        <ele>1158.8</ele>
        <time>2013-10-13T07:04:12Z</time>
      </trkpt>
      <trkpt lat="44.55998" lon="5.81816">
        <ele>1160.2</ele>
        <time>2013-10-13T07:04:18Z</time>
      </trkpt>
      <trkpt lat="44.56007" lon="5.81816">
        <ele>1161.3</ele>
        <time>2013-10-13T07:04:23Z</time>
      </trkpt>
      <trkpt lat="44.56018" lon="5.81815">
        <ele>1162.4</ele>
        <time>2013-10-13T07:04:29Z</time>
      </trkpt>
      <trkpt lat="44.56038" lon="5.81813">
        <ele>1164.7</ele>
        <time>2013-10-13T07:04:41Z</time>
      </trkpt>
      <trkpt lat="44.56046" lon="5.81807">
        <ele>1165.7</ele>
        <time>2013-10-13T07:04:47Z</time>
      </trkpt>
      <trkpt lat="44.56054" lon="5.818">
        <ele>1166.3</ele>
        <time>2013-10-13T07:04:53Z</time>
      </trkpt>
      <trkpt lat="44.56061" lon="5.81791">
        <ele>1167</ele>
        <time>2013-10-13T07:04:59Z</time>
      </trkpt>
      <trkpt lat="44.56068" lon="5.81783">
        <ele>1167.6</ele>
        <time>2013-10-13T07:05:05Z</time>
      </trkpt>
      <trkpt lat="44.56074" lon="5.81773">
        <ele>1167.9</ele>
        <time>2013-10-13T07:05:11Z</time>
      </trkpt>
      <trkpt lat="44.5608" lon="5.81762">
        <ele>1167.9</ele>
        <time>2013-10-13T07:05:17Z</time>
      </trkpt>
      <trkpt lat="44.56085" lon="5.8175">
        <ele>1169.2</ele>
        <time>2013-10-13T07:05:23Z</time>
      </trkpt>
      <trkpt lat="44.56089" lon="5.81738">
        <ele>1170.6</ele>
        <time>2013-10-13T07:05:28Z</time>
      </trkpt>
      <trkpt lat="44.56093" lon="5.81726">
        <ele>1171.9</ele>
        <time>2013-10-13T07:05:33Z</time>
      </trkpt>
      <trkpt lat="44.56103" lon="5.81703">
        <ele>1175.6</ele>
        <time>2013-10-13T07:05:45Z</time>
      </trkpt>
      <trkpt lat="44.56108" lon="5.81691">
        <ele>1176.8</ele>
        <time>2013-10-13T07:05:51Z</time>
      </trkpt>
      <trkpt lat="44.56112" lon="5.81678">
        <ele>1178.4</ele>
        <time>2013-10-13T07:05:56Z</time>
      </trkpt>
      <trkpt lat="44.56114" lon="5.81665">
        <ele>1179.4</ele>
        <time>2013-10-13T07:06:00Z</time>
      </trkpt>
      <trkpt lat="44.56116" lon="5.81651">
        <ele>1180.1</ele>
        <time>2013-10-13T07:06:04Z</time>
      </trkpt>
      <trkpt lat="44.56117" lon="5.81635">
        <ele>1181.2</ele>
        <time>2013-10-13T07:06:09Z</time>
      </trkpt>
      <trkpt lat="44.56118" lon="5.81622">
        <ele>1181.5</ele>
        <time>2013-10-13T07:06:13Z</time>
      </trkpt>
      <trkpt lat="44.56118" lon="5.81608">
        <ele>1183</ele>
        <time>2013-10-13T07:06:17Z</time>
      </trkpt>
      <trkpt lat="44.5612" lon="5.81595">
        <ele>1182.8</ele>
        <time>2013-10-13T07:06:20Z</time>
      </trkpt>
      <trkpt lat="44.56121" lon="5.81582">
        <ele>1183.6</ele>
        <time>2013-10-13T07:06:23Z</time>
      </trkpt>
      <trkpt lat="44.56125" lon="5.81569">
        <ele>1184</ele>
        <time>2013-10-13T07:06:26Z</time>
      </trkpt>
      <trkpt lat="44.5613" lon="5.81558">
        <ele>1185</ele>
        <time>2013-10-13T07:06:29Z</time>
      </trkpt>
      <trkpt lat="44.56137" lon="5.81548">
        <ele>1186.1</ele>
        <time>2013-10-13T07:06:33Z</time>
      </trkpt>
      <trkpt lat="44.56147" lon="5.81553">
        <ele>1186.3</ele>
        <time>2013-10-13T07:06:36Z</time>
      </trkpt>
      <trkpt lat="44.56165" lon="5.81563">
        <ele>1186.5</ele>
        <time>2013-10-13T07:06:44Z</time>
      </trkpt>
      <trkpt lat="44.56174" lon="5.81569">
        <ele>1187.3</ele>
        <time>2013-10-13T07:06:49Z</time>
      </trkpt>
      <trkpt lat="44.56184" lon="5.8157">
        <ele>1188.5</ele>
        <time>2013-10-13T07:06:54Z</time>
      </trkpt>
      <trkpt lat="44.56194" lon="5.81573">
        <ele>1189.3</ele>
        <time>2013-10-13T07:06:59Z</time>
      </trkpt>
      <trkpt lat="44.56203" lon="5.81577">
        <ele>1190.3</ele>
        <time>2013-10-13T07:07:03Z</time>
      </trkpt>
      <trkpt lat="44.56211" lon="5.81584">
        <ele>1190.7</ele>
        <time>2013-10-13T07:07:07Z</time>
      </trkpt>
      <trkpt lat="44.56222" lon="5.81587">
        <ele>1191.7</ele>
        <time>2013-10-13T07:07:12Z</time>
      </trkpt>
      <trkpt lat="44.56233" lon="5.81588">
        <ele>1193</ele>
        <time>2013-10-13T07:07:17Z</time>
      </trkpt>
      <trkpt lat="44.56242" lon="5.81589">
        <ele>1193</ele>
        <time>2013-10-13T07:07:22Z</time>
      </trkpt>
      <trkpt lat="44.56252" lon="5.81592">
        <ele>1193.4</ele>
        <time>2013-10-13T07:07:27Z</time>
      </trkpt>
      <trkpt lat="44.56261" lon="5.81595">
        <ele>1194.3</ele>
        <time>2013-10-13T07:07:32Z</time>
      </trkpt>
      <trkpt lat="44.56272" lon="5.81598">
        <ele>1194.9</ele>
        <time>2013-10-13T07:07:37Z</time>
      </trkpt>
      <trkpt lat="44.5629" lon="5.81596">
        <ele>1196.2</ele>
        <time>2013-10-13T07:07:45Z</time>
      </trkpt>
      <trkpt lat="44.56298" lon="5.81587">
        <ele>1196</ele>
        <time>2013-10-13T07:07:51Z</time>
      </trkpt>
      <trkpt lat="44.56301" lon="5.81574">
        <ele>1196.3</ele>
        <time>2013-10-13T07:07:57Z</time>
      </trkpt>
      <trkpt lat="44.56302" lon="5.8156">
        <ele>1196.9</ele>
        <time>2013-10-13T07:08:02Z</time>
      </trkpt>
      <trkpt lat="44.563" lon="5.81547">
        <ele>1197.8</ele>
        <time>2013-10-13T07:08:06Z</time>
      </trkpt>
      <trkpt lat="44.56303" lon="5.81534">
        <ele>1198.1</ele>
        <time>2013-10-13T07:08:10Z</time>
      </trkpt>
      <trkpt lat="44.56307" lon="5.81522">
        <ele>1198.6</ele>
        <time>2013-10-13T07:08:14Z</time>
      </trkpt>
      <trkpt lat="44.56311" lon="5.8151">
        <ele>1199.5</ele>
        <time>2013-10-13T07:08:18Z</time>
      </trkpt>
      <trkpt lat="44.56315" lon="5.81496">
        <ele>1200.4</ele>
        <time>2013-10-13T07:08:23Z</time>
      </trkpt>
      <trkpt lat="44.56318" lon="5.81481">
        <ele>1201.6</ele>
        <time>2013-10-13T07:08:28Z</time>
      </trkpt>
      <trkpt lat="44.56322" lon="5.81468">
        <ele>1202.7</ele>
        <time>2013-10-13T07:08:33Z</time>
      </trkpt>
      <trkpt lat="44.56325" lon="5.81454">
        <ele>1203.8</ele>
        <time>2013-10-13T07:08:38Z</time>
      </trkpt>
      <trkpt lat="44.56325" lon="5.81424">
        <ele>1204.9</ele>
        <time>2013-10-13T07:08:46Z</time>
      </trkpt>
      <trkpt lat="44.56327" lon="5.81407">
        <ele>1205.1</ele>
        <time>2013-10-13T07:08:50Z</time>
      </trkpt>
      <trkpt lat="44.56329" lon="5.81391">
        <ele>1205.4</ele>
        <time>2013-10-13T07:08:53Z</time>
      </trkpt>
      <trkpt lat="44.56329" lon="5.81377">
        <ele>1205.6</ele>
        <time>2013-10-13T07:08:56Z</time>
      </trkpt>
      <trkpt lat="44.56329" lon="5.8136">
        <ele>1206.9</ele>
        <time>2013-10-13T07:08:59Z</time>
      </trkpt>
      <trkpt lat="44.5633" lon="5.81347">
        <ele>1207.3</ele>
        <time>2013-10-13T07:09:01Z</time>
      </trkpt>
      <trkpt lat="44.56335" lon="5.81331">
        <ele>1207.5</ele>
        <time>2013-10-13T07:09:04Z</time>
      </trkpt>
      <trkpt lat="44.56347" lon="5.81327">
        <ele>1209</ele>
        <time>2013-10-13T07:09:07Z</time>
      </trkpt>
      <trkpt lat="44.56357" lon="5.81334">
        <ele>1209.3</ele>
        <time>2013-10-13T07:09:09Z</time>
      </trkpt>
      <trkpt lat="44.56367" lon="5.81339">
        <ele>1209.3</ele>
        <time>2013-10-13T07:09:12Z</time>
      </trkpt>
      <trkpt lat="44.56376" lon="5.8135">
        <ele>1207.9</ele>
        <time>2013-10-13T07:09:15Z</time>
      </trkpt>
      <trkpt lat="44.56383" lon="5.81361">
        <ele>1206.9</ele>
        <time>2013-10-13T07:09:18Z</time>
      </trkpt>
      <trkpt lat="44.5639" lon="5.81372">
        <ele>1207.1</ele>
        <time>2013-10-13T07:09:21Z</time>
      </trkpt>
      <trkpt lat="44.56398" lon="5.81382">
        <ele>1207.4</ele>
        <time>2013-10-13T07:09:24Z</time>
      </trkpt>
      <trkpt lat="44.56406" lon="5.81387">
        <ele>1207.7</ele>
        <time>2013-10-13T07:09:27Z</time>
      </trkpt>
      <trkpt lat="44.56416" lon="5.81391">
        <ele>1208.2</ele>
        <time>2013-10-13T07:09:30Z</time>
      </trkpt>
      <trkpt lat="44.56425" lon="5.81393">
        <ele>1208.7</ele>
        <time>2013-10-13T07:09:33Z</time>
      </trkpt>
      <trkpt lat="44.56435" lon="5.81397">
        <ele>1209.5</ele>
        <time>2013-10-13T07:09:37Z</time>
      </trkpt>
      <trkpt lat="44.56446" lon="5.814">
        <ele>1210.4</ele>
        <time>2013-10-13T07:09:41Z</time>
      </trkpt>
      <trkpt lat="44.56469" lon="5.81405">
        <ele>1212.5</ele>
        <time>2013-10-13T07:09:49Z</time>
      </trkpt>
      <trkpt lat="44.56479" lon="5.81407">
        <ele>1213.2</ele>
        <time>2013-10-13T07:09:53Z</time>
      </trkpt>
      <trkpt lat="44.56489" lon="5.81407">
        <ele>1214.1</ele>
        <time>2013-10-13T07:09:58Z</time>
      </trkpt>
      <trkpt lat="44.56499" lon="5.81404">
        <ele>1214.7</ele>
        <time>2013-10-13T07:10:03Z</time>
      </trkpt>
      <trkpt lat="44.5651" lon="5.81406">
        <ele>1215.1</ele>
        <time>2013-10-13T07:10:07Z</time>
      </trkpt>
      <trkpt lat="44.56516" lon="5.81417">
        <ele>1214.7</ele>
        <time>2013-10-13T07:10:12Z</time>
      </trkpt>
      <trkpt lat="44.56519" lon="5.81429">
        <ele>1216.2</ele>
        <time>2013-10-13T07:10:17Z</time>
      </trkpt>
      <trkpt lat="44.56521" lon="5.81442">
        <ele>1216.7</ele>
        <time>2013-10-13T07:10:23Z</time>
      </trkpt>
      <trkpt lat="44.56521" lon="5.81456">
        <ele>1218.1</ele>
        <time>2013-10-13T07:10:29Z</time>
      </trkpt>
      <trkpt lat="44.56524" lon="5.81469">
        <ele>1220.2</ele>
        <time>2013-10-13T07:10:35Z</time>
      </trkpt>
      <trkpt lat="44.56528" lon="5.81484">
        <ele>1221.4</ele>
        <time>2013-10-13T07:10:41Z</time>
      </trkpt>
      <trkpt lat="44.56534" lon="5.81496">
        <ele>1222.7</ele>
        <time>2013-10-13T07:10:46Z</time>
      </trkpt>
      <trkpt lat="44.5655" lon="5.81505">
        <ele>1224.2</ele>
        <time>2013-10-13T07:10:54Z</time>
      </trkpt>
      <trkpt lat="44.56559" lon="5.81501">
        <ele>1224.5</ele>
        <time>2013-10-13T07:11:00Z</time>
      </trkpt>
      <trkpt lat="44.56569" lon="5.81492">
        <ele>1224.9</ele>
        <time>2013-10-13T07:11:05Z</time>
      </trkpt>
      <trkpt lat="44.56577" lon="5.81485">
        <ele>1225.6</ele>
        <time>2013-10-13T07:11:09Z</time>
      </trkpt>
      <trkpt lat="44.56581" lon="5.81472">
        <ele>1226.8</ele>
        <time>2013-10-13T07:11:16Z</time>
      </trkpt>
      <trkpt lat="44.56589" lon="5.81463">
        <ele>1229.2</ele>
        <time>2013-10-13T07:11:22Z</time>
      </trkpt>
      <trkpt lat="44.56597" lon="5.81455">
        <ele>1230.4</ele>
        <time>2013-10-13T07:11:28Z</time>
      </trkpt>
      <trkpt lat="44.56606" lon="5.81447">
        <ele>1231.6</ele>
        <time>2013-10-13T07:11:34Z</time>
      </trkpt>
      <trkpt lat="44.56613" lon="5.81438">
        <ele>1232</ele>
        <time>2013-10-13T07:11:40Z</time>
      </trkpt>
      <trkpt lat="44.56622" lon="5.81429">
        <ele>1233</ele>
        <time>2013-10-13T07:11:47Z</time>
      </trkpt>
      <trkpt lat="44.56639" lon="5.81415">
        <ele>1233.6</ele>
        <time>2013-10-13T07:11:59Z</time>
      </trkpt>
      <trkpt lat="44.56646" lon="5.81408">
        <ele>1234.8</ele>
        <time>2013-10-13T07:12:05Z</time>
      </trkpt>
      <trkpt lat="44.56655" lon="5.81401">
        <ele>1236</ele>
        <time>2013-10-13T07:12:12Z</time>
      </trkpt>
      <trkpt lat="44.56666" lon="5.81397">
        <ele>1237.1</ele>
        <time>2013-10-13T07:12:20Z</time>
      </trkpt>
      <trkpt lat="44.56676" lon="5.81395">
        <ele>1237.8</ele>
        <time>2013-10-13T07:12:26Z</time>
      </trkpt>
      <trkpt lat="44.56685" lon="5.81397">
        <ele>1238.9</ele>
        <time>2013-10-13T07:12:32Z</time>
      </trkpt>
      <trkpt lat="44.56696" lon="5.814">
        <ele>1240.3</ele>
        <time>2013-10-13T07:12:37Z</time>
      </trkpt>
      <trkpt lat="44.56705" lon="5.81406">
        <ele>1241.4</ele>
        <time>2013-10-13T07:12:42Z</time>
      </trkpt>
      <trkpt lat="44.56713" lon="5.81413">
        <ele>1242.4</ele>
        <time>2013-10-13T07:12:47Z</time>
      </trkpt>
      <trkpt lat="44.56721" lon="5.81421">
        <ele>1243.5</ele>
        <time>2013-10-13T07:12:52Z</time>
      </trkpt>
      <trkpt lat="44.56741" lon="5.81427">
        <ele>1246.9</ele>
        <time>2013-10-13T07:13:01Z</time>
      </trkpt>
      <trkpt lat="44.56751" lon="5.81425">
        <ele>1247.4</ele>
        <time>2013-10-13T07:13:06Z</time>
      </trkpt>
      <trkpt lat="44.5676" lon="5.81422">
        <ele>1248.2</ele>
        <time>2013-10-13T07:13:11Z</time>
      </trkpt>
      <trkpt lat="44.56771" lon="5.81416">
        <ele>1249.3</ele>
        <time>2013-10-13T07:13:16Z</time>
      </trkpt>
      <trkpt lat="44.56782" lon="5.81412">
        <ele>1250.3</ele>
        <time>2013-10-13T07:13:20Z</time>
      </trkpt>
      <trkpt lat="44.56794" lon="5.81407">
        <ele>1251</ele>
        <time>2013-10-13T07:13:24Z</time>
      </trkpt>
      <trkpt lat="44.56804" lon="5.81401">
        <ele>1251.8</ele>
        <time>2013-10-13T07:13:27Z</time>
      </trkpt>
      <trkpt lat="44.56813" lon="5.81396">
        <ele>1252.3</ele>
        <time>2013-10-13T07:13:30Z</time>
      </trkpt>
      <trkpt lat="44.56824" lon="5.8139">
        <ele>1253</ele>
        <time>2013-10-13T07:13:33Z</time>
      </trkpt>
      <trkpt lat="44.56834" lon="5.81384">
        <ele>1253.2</ele>
        <time>2013-10-13T07:13:36Z</time>
      </trkpt>
      <trkpt lat="44.56846" lon="5.81375">
        <ele>1253.6</ele>
        <time>2013-10-13T07:13:39Z</time>
      </trkpt>
      <trkpt lat="44.56856" lon="5.81367">
        <ele>1254</ele>
        <time>2013-10-13T07:13:42Z</time>
      </trkpt>
      <trkpt lat="44.56864" lon="5.8136">
        <ele>1253.8</ele>
        <time>2013-10-13T07:13:44Z</time>
      </trkpt>
      <trkpt lat="44.56875" lon="5.81349">
        <ele>1253.9</ele>
        <time>2013-10-13T07:13:47Z</time>
      </trkpt>
      <trkpt lat="44.56883" lon="5.8134">
        <ele>1254.3</ele>
        <time>2013-10-13T07:13:49Z</time>
      </trkpt>
      <trkpt lat="44.56892" lon="5.81332">
        <ele>1254.5</ele>
        <time>2013-10-13T07:13:51Z</time>
      </trkpt>
      <trkpt lat="44.56901" lon="5.81326">
        <ele>1254.4</ele>
        <time>2013-10-13T07:13:53Z</time>
      </trkpt>
      <trkpt lat="44.56923" lon="5.81314">
        <ele>1254.8</ele>
        <time>2013-10-13T07:13:59Z</time>
      </trkpt>
      <trkpt lat="44.56932" lon="5.81308">
        <ele>1255.4</ele>
        <time>2013-10-13T07:14:03Z</time>
      </trkpt>
      <trkpt lat="44.56942" lon="5.813">
        <ele>1256.1</ele>
        <time>2013-10-13T07:14:06Z</time>
      </trkpt>
      <trkpt lat="44.56951" lon="5.81289">
        <ele>1256.7</ele>
        <time>2013-10-13T07:14:10Z</time>
      </trkpt>
      <trkpt lat="44.56957" lon="5.81278">
        <ele>1256.5</ele>
        <time>2013-10-13T07:14:14Z</time>
      </trkpt>
      <trkpt lat="44.56958" lon="5.81263">
        <ele>1253.8</ele>
        <time>2013-10-13T07:14:18Z</time>
      </trkpt>
      <trkpt lat="44.56963" lon="5.81248">
        <ele>1254.5</ele>
        <time>2013-10-13T07:14:22Z</time>
      </trkpt>
      <trkpt lat="44.56968" lon="5.81236">
        <ele>1255.2</ele>
        <time>2013-10-13T07:14:26Z</time>
      </trkpt>
      <trkpt lat="44.56966" lon="5.81224">
        <ele>1254.8</ele>
        <time>2013-10-13T07:14:30Z</time>
      </trkpt>
      <trkpt lat="44.56965" lon="5.81211">
        <ele>1256.8</ele>
        <time>2013-10-13T07:14:34Z</time>
      </trkpt>
      <trkpt lat="44.56965" lon="5.81197">
        <ele>1259.1</ele>
        <time>2013-10-13T07:14:40Z</time>
      </trkpt>
      <trkpt lat="44.56972" lon="5.81187">
        <ele>1260.4</ele>
        <time>2013-10-13T07:14:45Z</time>
      </trkpt>
      <trkpt lat="44.56982" lon="5.81186">
        <ele>1260.8</ele>
        <time>2013-10-13T07:14:50Z</time>
      </trkpt>
      <trkpt lat="44.56991" lon="5.81191">
        <ele>1262.3</ele>
        <time>2013-10-13T07:14:57Z</time>
      </trkpt>
      <trkpt lat="44.5701" lon="5.81199">
        <ele>1264</ele>
        <time>2013-10-13T07:15:07Z</time>
      </trkpt>
      <trkpt lat="44.5702" lon="5.81206">
        <ele>1264</ele>
        <time>2013-10-13T07:15:12Z</time>
      </trkpt>
      <trkpt lat="44.57028" lon="5.81214">
        <ele>1264.4</ele>
        <time>2013-10-13T07:15:17Z</time>
      </trkpt>
      <trkpt lat="44.57035" lon="5.81224">
        <ele>1264.8</ele>
        <time>2013-10-13T07:15:22Z</time>
      </trkpt>
      <trkpt lat="44.57044" lon="5.81232">
        <ele>1266.1</ele>
        <time>2013-10-13T07:15:27Z</time>
      </trkpt>
      <trkpt lat="44.57052" lon="5.81238">
        <ele>1267.3</ele>
        <time>2013-10-13T07:15:32Z</time>
      </trkpt>
      <trkpt lat="44.57062" lon="5.81239">
        <ele>1268.1</ele>
        <time>2013-10-13T07:15:38Z</time>
      </trkpt>
      <trkpt lat="44.57072" lon="5.81236">
        <ele>1268.9</ele>
        <time>2013-10-13T07:15:43Z</time>
      </trkpt>
      <trkpt lat="44.57081" lon="5.8123">
        <ele>1269.1</ele>
        <time>2013-10-13T07:15:47Z</time>
      </trkpt>
      <trkpt lat="44.57089" lon="5.81225">
        <ele>1269.9</ele>
        <time>2013-10-13T07:15:52Z</time>
      </trkpt>
      <trkpt lat="44.57097" lon="5.81218">
        <ele>1270.4</ele>
        <time>2013-10-13T07:15:57Z</time>
      </trkpt>
      <trkpt lat="44.57105" lon="5.81212">
        <ele>1270.6</ele>
        <time>2013-10-13T07:16:01Z</time>
      </trkpt>
      <trkpt lat="44.57122" lon="5.812">
        <ele>1273.6</ele>
        <time>2013-10-13T07:16:14Z</time>
      </trkpt>
      <trkpt lat="44.57132" lon="5.81195">
        <ele>1275.2</ele>
        <time>2013-10-13T07:16:19Z</time>
      </trkpt>
      <trkpt lat="44.5714" lon="5.81192">
        <ele>1275.5</ele>
        <time>2013-10-13T07:16:22Z</time>
      </trkpt>
      <trkpt lat="44.57151" lon="5.8119">
        <ele>1276.2</ele>
        <time>2013-10-13T07:16:26Z</time>
      </trkpt>
      <trkpt lat="44.57161" lon="5.8119">
        <ele>1277.2</ele>
        <time>2013-10-13T07:16:31Z</time>
      </trkpt>
      <trkpt lat="44.57171" lon="5.81193">
        <ele>1278.3</ele>
        <time>2013-10-13T07:16:37Z</time>
      </trkpt>
      <trkpt lat="44.5718" lon="5.81198">
        <ele>1278.6</ele>
        <time>2013-10-13T07:16:42Z</time>
      </trkpt>
      <trkpt lat="44.57189" lon="5.81201">
        <ele>1279.3</ele>
        <time>2013-10-13T07:16:47Z</time>
      </trkpt>
      <trkpt lat="44.57199" lon="5.81202">
        <ele>1280</ele>
        <time>2013-10-13T07:16:51Z</time>
      </trkpt>
      <trkpt lat="44.57208" lon="5.81201">
        <ele>1281.2</ele>
        <time>2013-10-13T07:16:56Z</time>
      </trkpt>
      <trkpt lat="44.57219" lon="5.812">
        <ele>1282.5</ele>
        <time>2013-10-13T07:17:01Z</time>
      </trkpt>
      <trkpt lat="44.57229" lon="5.81199">
        <ele>1284.2</ele>
        <time>2013-10-13T07:17:06Z</time>
      </trkpt>
      <trkpt lat="44.57246" lon="5.8119">
        <ele>1287.3</ele>
        <time>2013-10-13T07:17:18Z</time>
      </trkpt>
      <trkpt lat="44.57256" lon="5.81183">
        <ele>1288.5</ele>
        <time>2013-10-13T07:17:23Z</time>
      </trkpt>
      <trkpt lat="44.57264" lon="5.81176">
        <ele>1289.8</ele>
        <time>2013-10-13T07:17:29Z</time>
      </trkpt>
      <trkpt lat="44.57272" lon="5.81169">
        <ele>1290.7</ele>
        <time>2013-10-13T07:17:36Z</time>
      </trkpt>
      <trkpt lat="44.5728" lon="5.81162">
        <ele>1290.9</ele>
        <time>2013-10-13T07:17:43Z</time>
      </trkpt>
      <trkpt lat="44.57288" lon="5.81155">
        <ele>1291.6</ele>
        <time>2013-10-13T07:17:47Z</time>
      </trkpt>
      <trkpt lat="44.57297" lon="5.81146">
        <ele>1292.4</ele>
        <time>2013-10-13T07:17:51Z</time>
      </trkpt>
      <trkpt lat="44.57306" lon="5.81139">
        <ele>1292.8</ele>
        <time>2013-10-13T07:17:55Z</time>
      </trkpt>
      <trkpt lat="44.57314" lon="5.8113">
        <ele>1293.5</ele>
        <time>2013-10-13T07:18:04Z</time>
      </trkpt>
      <trkpt lat="44.57308" lon="5.81113">
        <ele>1293.9</ele>
        <time>2013-10-13T07:18:12Z</time>
      </trkpt>
      <trkpt lat="44.57324" lon="5.81096">
        <ele>1296.7</ele>
        <time>2013-10-13T07:18:25Z</time>
      </trkpt>
      <trkpt lat="44.5733" lon="5.81086">
        <ele>1297.7</ele>
        <time>2013-10-13T07:18:31Z</time>
      </trkpt>
      <trkpt lat="44.57339" lon="5.8108">
        <ele>1298.6</ele>
        <time>2013-10-13T07:18:36Z</time>
      </trkpt>
      <trkpt lat="44.57348" lon="5.81074">
        <ele>1298.9</ele>
        <time>2013-10-13T07:18:41Z</time>
      </trkpt>
      <trkpt lat="44.57356" lon="5.81066">
        <ele>1299.5</ele>
        <time>2013-10-13T07:18:47Z</time>
      </trkpt>
      <trkpt lat="44.57365" lon="5.81058">
        <ele>1300.8</ele>
        <time>2013-10-13T07:18:53Z</time>
      </trkpt>
      <trkpt lat="44.57371" lon="5.8105">
        <ele>1301.3</ele>
        <time>2013-10-13T07:18:59Z</time>
      </trkpt>
      <trkpt lat="44.57379" lon="5.81042">
        <ele>1304.5</ele>
        <time>2013-10-13T07:19:08Z</time>
      </trkpt>
      <trkpt lat="44.57387" lon="5.81036">
        <ele>1308.4</ele>
        <time>2013-10-13T07:19:19Z</time>
      </trkpt>
      <trkpt lat="44.57397" lon="5.81014">
        <ele>1310.6</ele>
        <time>2013-10-13T07:19:30Z</time>
      </trkpt>
      <trkpt lat="44.57407" lon="5.8101">
        <ele>1312.4</ele>
        <time>2013-10-13T07:19:36Z</time>
      </trkpt>
      <trkpt lat="44.57413" lon="5.81">
        <ele>1316.6</ele>
        <time>2013-10-13T07:19:52Z</time>
      </trkpt>
      <trkpt lat="44.57422" lon="5.80993">
        <ele>1317</ele>
        <time>2013-10-13T07:19:57Z</time>
      </trkpt>
      <trkpt lat="44.57434" lon="5.80989">
        <ele>1318.3</ele>
        <time>2013-10-13T07:20:00Z</time>
      </trkpt>
      <trkpt lat="44.57446" lon="5.80989">
        <ele>1318.7</ele>
        <time>2013-10-13T07:20:03Z</time>
      </trkpt>
      <trkpt lat="44.57458" lon="5.80993">
        <ele>1318.1</ele>
        <time>2013-10-13T07:20:05Z</time>
      </trkpt>
      <trkpt lat="44.57468" lon="5.81001">
        <ele>1317.9</ele>
        <time>2013-10-13T07:20:07Z</time>
      </trkpt>
      <trkpt lat="44.57476" lon="5.81008">
        <ele>1317.2</ele>
        <time>2013-10-13T07:20:09Z</time>
      </trkpt>
      <trkpt lat="44.57484" lon="5.81017">
        <ele>1317.1</ele>
        <time>2013-10-13T07:20:12Z</time>
      </trkpt>
      <trkpt lat="44.57492" lon="5.81026">
        <ele>1316.9</ele>
        <time>2013-10-13T07:20:16Z</time>
      </trkpt>
      <trkpt lat="44.57501" lon="5.81035">
        <ele>1317</ele>
        <time>2013-10-13T07:20:22Z</time>
      </trkpt>
      <trkpt lat="44.57519" lon="5.81036">
        <ele>1317.8</ele>
        <time>2013-10-13T07:20:31Z</time>
      </trkpt>
      <trkpt lat="44.57529" lon="5.81031">
        <ele>1318</ele>
        <time>2013-10-13T07:20:35Z</time>
      </trkpt>
      <trkpt lat="44.5754" lon="5.81036">
        <ele>1317.5</ele>
        <time>2013-10-13T07:20:39Z</time>
      </trkpt>
      <trkpt lat="44.5755" lon="5.81038">
        <ele>1317.5</ele>
        <time>2013-10-13T07:20:42Z</time>
      </trkpt>
      <trkpt lat="44.57562" lon="5.81034">
        <ele>1317.8</ele>
        <time>2013-10-13T07:20:45Z</time>
      </trkpt>
      <trkpt lat="44.57574" lon="5.8103">
        <ele>1318.4</ele>
        <time>2013-10-13T07:20:48Z</time>
      </trkpt>
      <trkpt lat="44.57584" lon="5.81025">
        <ele>1319.1</ele>
        <time>2013-10-13T07:20:51Z</time>
      </trkpt>
      <trkpt lat="44.57593" lon="5.81018">
        <ele>1319.3</ele>
        <time>2013-10-13T07:20:54Z</time>
      </trkpt>
      <trkpt lat="44.57601" lon="5.8101">
        <ele>1319.7</ele>
        <time>2013-10-13T07:20:57Z</time>
      </trkpt>
      <trkpt lat="44.57609" lon="5.81001">
        <ele>1320.1</ele>
        <time>2013-10-13T07:21:00Z</time>
      </trkpt>
      <trkpt lat="44.57614" lon="5.80991">
        <ele>1320.6</ele>
        <time>2013-10-13T07:21:03Z</time>
      </trkpt>
      <trkpt lat="44.5762" lon="5.80977">
        <ele>1321.2</ele>
        <time>2013-10-13T07:21:07Z</time>
      </trkpt>
      <trkpt lat="44.57625" lon="5.80962">
        <ele>1321.5</ele>
        <time>2013-10-13T07:21:11Z</time>
      </trkpt>
      <trkpt lat="44.57629" lon="5.80948">
        <ele>1321.6</ele>
        <time>2013-10-13T07:21:15Z</time>
      </trkpt>
      <trkpt lat="44.57635" lon="5.80938">
        <ele>1321.6</ele>
        <time>2013-10-13T07:21:19Z</time>
      </trkpt>
      <trkpt lat="44.57642" lon="5.80927">
        <ele>1321.8</ele>
        <time>2013-10-13T07:21:23Z</time>
      </trkpt>
      <trkpt lat="44.57788" lon="5.80754">
        <ele>1332.2</ele>
        <time>2013-10-13T07:23:23Z</time>
      </trkpt>
      <trkpt lat="44.5778" lon="5.80747">
        <ele>1332.8</ele>
        <time>2013-10-13T07:29:01Z</time>
      </trkpt>
      <trkpt lat="44.57769" lon="5.80769">
        <ele>1333.8</ele>
        <time>2013-10-13T07:29:21Z</time>
      </trkpt>
      <trkpt lat="44.57761" lon="5.80774">
        <ele>1334.8</ele>
        <time>2013-10-13T07:29:25Z</time>
      </trkpt>
      <trkpt lat="44.5775" lon="5.80774">
        <ele>1335.7</ele>
        <time>2013-10-13T07:29:30Z</time>
      </trkpt>
      <trkpt lat="44.57741" lon="5.80771">
        <ele>1336.4</ele>
        <time>2013-10-13T07:29:35Z</time>
      </trkpt>
      <trkpt lat="44.57732" lon="5.80768">
        <ele>1337.2</ele>
        <time>2013-10-13T07:29:40Z</time>
      </trkpt>
      <trkpt lat="44.57722" lon="5.80767">
        <ele>1338</ele>
        <time>2013-10-13T07:29:47Z</time>
      </trkpt>
      <trkpt lat="44.57714" lon="5.80764">
        <ele>1339.7</ele>
        <time>2013-10-13T07:29:54Z</time>
      </trkpt>
      <trkpt lat="44.57705" lon="5.80763">
        <ele>1342.8</ele>
        <time>2013-10-13T07:30:04Z</time>
      </trkpt>
      <trkpt lat="44.57688" lon="5.80769">
        <ele>1352.4</ele>
        <time>2013-10-13T07:30:56Z</time>
      </trkpt>
      <trkpt lat="44.57674" lon="5.80769">
        <ele>1352.7</ele>
        <time>2013-10-13T07:31:03Z</time>
      </trkpt>
      <trkpt lat="44.57663" lon="5.80771">
        <ele>1352.9</ele>
        <time>2013-10-13T07:31:08Z</time>
      </trkpt>
      <trkpt lat="44.57643" lon="5.80772">
        <ele>1355.3</ele>
        <time>2013-10-13T07:31:18Z</time>
      </trkpt>
      <trkpt lat="44.57633" lon="5.80776">
        <ele>1356.3</ele>
        <time>2013-10-13T07:31:24Z</time>
      </trkpt>
      <trkpt lat="44.57623" lon="5.8078">
        <ele>1357.7</ele>
        <time>2013-10-13T07:31:30Z</time>
      </trkpt>
      <trkpt lat="44.57613" lon="5.80784">
        <ele>1358.8</ele>
        <time>2013-10-13T07:31:35Z</time>
      </trkpt>
      <trkpt lat="44.57604" lon="5.80786">
        <ele>1360.5</ele>
        <time>2013-10-13T07:31:40Z</time>
      </trkpt>
      <trkpt lat="44.57594" lon="5.80791">
        <ele>1360.2</ele>
        <time>2013-10-13T07:31:46Z</time>
      </trkpt>
      <trkpt lat="44.57585" lon="5.80799">
        <ele>1360.8</ele>
        <time>2013-10-13T07:31:51Z</time>
      </trkpt>
      <trkpt lat="44.57576" lon="5.80806">
        <ele>1361.5</ele>
        <time>2013-10-13T07:31:56Z</time>
      </trkpt>
      <trkpt lat="44.57565" lon="5.80813">
        <ele>1361.6</ele>
        <time>2013-10-13T07:32:01Z</time>
      </trkpt>
      <trkpt lat="44.57554" lon="5.8082">
        <ele>1361.6</ele>
        <time>2013-10-13T07:32:05Z</time>
      </trkpt>
      <trkpt lat="44.57546" lon="5.80831">
        <ele>1361.8</ele>
        <time>2013-10-13T07:32:06Z</time>
      </trkpt>
      <trkpt lat="44.57535" lon="5.80836">
        <ele>1362.5</ele>
        <time>2013-10-13T07:32:09Z</time>
      </trkpt>
      <trkpt lat="44.57512" lon="5.80843">
        <ele>1362.9</ele>
        <time>2013-10-13T07:32:15Z</time>
      </trkpt>
      <trkpt lat="44.57503" lon="5.80846">
        <ele>1363.1</ele>
        <time>2013-10-13T07:32:17Z</time>
      </trkpt>
      <trkpt lat="44.57493" lon="5.80847">
        <ele>1363.3</ele>
        <time>2013-10-13T07:32:19Z</time>
      </trkpt>
      <trkpt lat="44.57481" lon="5.80845">
        <ele>1363.8</ele>
        <time>2013-10-13T07:32:22Z</time>
      </trkpt>
      <trkpt lat="44.57469" lon="5.80842">
        <ele>1364.5</ele>
        <time>2013-10-13T07:32:25Z</time>
      </trkpt>
      <trkpt lat="44.57457" lon="5.8084">
        <ele>1364.8</ele>
        <time>2013-10-13T07:32:28Z</time>
      </trkpt>
      <trkpt lat="44.57445" lon="5.80839">
        <ele>1365.3</ele>
        <time>2013-10-13T07:32:31Z</time>
      </trkpt>
      <trkpt lat="44.57435" lon="5.80836">
        <ele>1365.4</ele>
        <time>2013-10-13T07:32:34Z</time>
      </trkpt>
      <trkpt lat="44.57425" lon="5.80833">
        <ele>1365.7</ele>
        <time>2013-10-13T07:32:37Z</time>
      </trkpt>
      <trkpt lat="44.57414" lon="5.80831">
        <ele>1366</ele>
        <time>2013-10-13T07:32:40Z</time>
      </trkpt>
      <trkpt lat="44.57405" lon="5.8083">
        <ele>1366</ele>
        <time>2013-10-13T07:32:43Z</time>
      </trkpt>
      <trkpt lat="44.57396" lon="5.80829">
        <ele>1365.5</ele>
        <time>2013-10-13T07:32:47Z</time>
      </trkpt>
      <trkpt lat="44.57386" lon="5.8083">
        <ele>1365.5</ele>
        <time>2013-10-13T07:32:51Z</time>
      </trkpt>
      <trkpt lat="44.57375" lon="5.80831">
        <ele>1366.1</ele>
        <time>2013-10-13T07:32:56Z</time>
      </trkpt>
      <trkpt lat="44.57365" lon="5.8083">
        <ele>1366.8</ele>
        <time>2013-10-13T07:33:01Z</time>
      </trkpt>
      <trkpt lat="44.57356" lon="5.80827">
        <ele>1367.2</ele>
        <time>2013-10-13T07:33:06Z</time>
      </trkpt>
      <trkpt lat="44.57346" lon="5.80826">
        <ele>1367.3</ele>
        <time>2013-10-13T07:33:10Z</time>
      </trkpt>
      <trkpt lat="44.57327" lon="5.80827">
        <ele>1367</ele>
        <time>2013-10-13T07:33:16Z</time>
      </trkpt>
      <trkpt lat="44.57318" lon="5.80828">
        <ele>1367.2</ele>
        <time>2013-10-13T07:33:20Z</time>
      </trkpt>
      <trkpt lat="44.57308" lon="5.80829">
        <ele>1367.4</ele>
        <time>2013-10-13T07:33:24Z</time>
      </trkpt>
      <trkpt lat="44.57299" lon="5.80833">
        <ele>1368.6</ele>
        <time>2013-10-13T07:33:30Z</time>
      </trkpt>
      <trkpt lat="44.57287" lon="5.80836">
        <ele>1369.4</ele>
        <time>2013-10-13T07:33:35Z</time>
      </trkpt>
      <trkpt lat="44.57275" lon="5.80838">
        <ele>1369.8</ele>
        <time>2013-10-13T07:33:39Z</time>
      </trkpt>
      <trkpt lat="44.57266" lon="5.80839">
        <ele>1370.7</ele>
        <time>2013-10-13T07:33:42Z</time>
      </trkpt>
      <trkpt lat="44.57256" lon="5.8084">
        <ele>1371</ele>
        <time>2013-10-13T07:33:46Z</time>
      </trkpt>
      <trkpt lat="44.57246" lon="5.80843">
        <ele>1370.8</ele>
        <time>2013-10-13T07:33:50Z</time>
      </trkpt>
      <trkpt lat="44.57236" lon="5.8085">
        <ele>1371.8</ele>
        <time>2013-10-13T07:33:55Z</time>
      </trkpt>
      <trkpt lat="44.57229" lon="5.80859">
        <ele>1371.7</ele>
        <time>2013-10-13T07:34:01Z</time>
      </trkpt>
      <trkpt lat="44.57222" lon="5.80871">
        <ele>1371.2</ele>
        <time>2013-10-13T07:34:05Z</time>
      </trkpt>
      <trkpt lat="44.57213" lon="5.80884">
        <ele>1370.9</ele>
        <time>2013-10-13T07:34:08Z</time>
      </trkpt>
      <trkpt lat="44.57205" lon="5.80893">
        <ele>1371</ele>
        <time>2013-10-13T07:34:10Z</time>
      </trkpt>
      <trkpt lat="44.57198" lon="5.80902">
        <ele>1371.1</ele>
        <time>2013-10-13T07:34:12Z</time>
      </trkpt>
      <trkpt lat="44.57174" lon="5.80916">
        <ele>1370.3</ele>
        <time>2013-10-13T07:34:16Z</time>
      </trkpt>
      <trkpt lat="44.57166" lon="5.80922">
        <ele>1370.4</ele>
        <time>2013-10-13T07:34:18Z</time>
      </trkpt>
      <trkpt lat="44.57151" lon="5.80928">
        <ele>1369.6</ele>
        <time>2013-10-13T07:34:21Z</time>
      </trkpt>
      <trkpt lat="44.57143" lon="5.80932">
        <ele>1369.4</ele>
        <time>2013-10-13T07:34:23Z</time>
      </trkpt>
      <trkpt lat="44.57132" lon="5.80935">
        <ele>1369.1</ele>
        <time>2013-10-13T07:34:27Z</time>
      </trkpt>
      <trkpt lat="44.57121" lon="5.80931">
        <ele>1367.1</ele>
        <time>2013-10-13T07:34:31Z</time>
      </trkpt>
      <trkpt lat="44.57106" lon="5.80926">
        <ele>1366.7</ele>
        <time>2013-10-13T07:34:34Z</time>
      </trkpt>
      <trkpt lat="44.57095" lon="5.80918">
        <ele>1367.3</ele>
        <time>2013-10-13T07:34:36Z</time>
      </trkpt>
      <trkpt lat="44.57083" lon="5.80913">
        <ele>1367.6</ele>
        <time>2013-10-13T07:34:38Z</time>
      </trkpt>
      <trkpt lat="44.57072" lon="5.80911">
        <ele>1366.3</ele>
        <time>2013-10-13T07:34:40Z</time>
      </trkpt>
      <trkpt lat="44.57061" lon="5.80911">
        <ele>1364.6</ele>
        <time>2013-10-13T07:34:42Z</time>
      </trkpt>
      <trkpt lat="44.57049" lon="5.80913">
        <ele>1363.3</ele>
        <time>2013-10-13T07:34:44Z</time>
      </trkpt>
      <trkpt lat="44.57037" lon="5.80914">
        <ele>1362</ele>
        <time>2013-10-13T07:34:46Z</time>
      </trkpt>
      <trkpt lat="44.57024" lon="5.80916">
        <ele>1360.4</ele>
        <time>2013-10-13T07:34:48Z</time>
      </trkpt>
      <trkpt lat="44.57014" lon="5.80919">
        <ele>1359.4</ele>
        <time>2013-10-13T07:34:50Z</time>
      </trkpt>
      <trkpt lat="44.57003" lon="5.80922">
        <ele>1357.9</ele>
        <time>2013-10-13T07:34:52Z</time>
      </trkpt>
      <trkpt lat="44.56992" lon="5.80926">
        <ele>1356.7</ele>
        <time>2013-10-13T07:34:54Z</time>
      </trkpt>
      <trkpt lat="44.56982" lon="5.80927">
        <ele>1355.6</ele>
        <time>2013-10-13T07:34:56Z</time>
      </trkpt>
      <trkpt lat="44.56973" lon="5.80925">
        <ele>1354.6</ele>
        <time>2013-10-13T07:34:58Z</time>
      </trkpt>
      <trkpt lat="44.56963" lon="5.80922">
        <ele>1353.6</ele>
        <time>2013-10-13T07:35:00Z</time>
      </trkpt>
      <trkpt lat="44.56954" lon="5.80915">
        <ele>1352.2</ele>
        <time>2013-10-13T07:35:02Z</time>
      </trkpt>
      <trkpt lat="44.56944" lon="5.80905">
        <ele>1350.3</ele>
        <time>2013-10-13T07:35:05Z</time>
      </trkpt>
      <trkpt lat="44.56935" lon="5.80901">
        <ele>1347</ele>
        <time>2013-10-13T07:35:08Z</time>
      </trkpt>
      <trkpt lat="44.56926" lon="5.80897">
        <ele>1344.4</ele>
        <time>2013-10-13T07:35:12Z</time>
      </trkpt>
      <trkpt lat="44.56917" lon="5.80888">
        <ele>1340.4</ele>
        <time>2013-10-13T07:35:18Z</time>
      </trkpt>
      <trkpt lat="44.569" lon="5.8087">
        <ele>1337.6</ele>
        <time>2013-10-13T07:35:26Z</time>
      </trkpt>
      <trkpt lat="44.5689" lon="5.80862">
        <ele>1337.1</ele>
        <time>2013-10-13T07:35:30Z</time>
      </trkpt>
      <trkpt lat="44.56879" lon="5.80862">
        <ele>1332.9</ele>
        <time>2013-10-13T07:36:43Z</time>
      </trkpt>
      <trkpt lat="44.5686" lon="5.80848">
        <ele>1332</ele>
        <time>2013-10-13T07:36:48Z</time>
      </trkpt>
      <trkpt lat="44.5685" lon="5.80841">
        <ele>1331.8</ele>
        <time>2013-10-13T07:36:50Z</time>
      </trkpt>
      <trkpt lat="44.5684" lon="5.80834">
        <ele>1331.5</ele>
        <time>2013-10-13T07:36:52Z</time>
      </trkpt>
      <trkpt lat="44.56829" lon="5.80825">
        <ele>1331.1</ele>
        <time>2013-10-13T07:36:54Z</time>
      </trkpt>
      <trkpt lat="44.56816" lon="5.80814">
        <ele>1330.6</ele>
        <time>2013-10-13T07:36:56Z</time>
      </trkpt>
      <trkpt lat="44.56802" lon="5.80805">
        <ele>1330.2</ele>
        <time>2013-10-13T07:36:58Z</time>
      </trkpt>
      <trkpt lat="44.56791" lon="5.80797">
        <ele>1330.2</ele>
        <time>2013-10-13T07:37:00Z</time>
      </trkpt>
      <trkpt lat="44.56777" lon="5.80787">
        <ele>1329.9</ele>
        <time>2013-10-13T07:37:02Z</time>
      </trkpt>
      <trkpt lat="44.56765" lon="5.80781">
        <ele>1329.6</ele>
        <time>2013-10-13T07:37:04Z</time>
      </trkpt>
      <trkpt lat="44.56752" lon="5.80776">
        <ele>1329.5</ele>
        <time>2013-10-13T07:37:06Z</time>
      </trkpt>
      <trkpt lat="44.5674" lon="5.80773">
        <ele>1329.4</ele>
        <time>2013-10-13T07:37:08Z</time>
      </trkpt>
      <trkpt lat="44.56729" lon="5.8077">
        <ele>1329.3</ele>
        <time>2013-10-13T07:37:10Z</time>
      </trkpt>
      <trkpt lat="44.5672" lon="5.80771">
        <ele>1328.8</ele>
        <time>2013-10-13T07:37:12Z</time>
      </trkpt>
      <trkpt lat="44.56707" lon="5.80771">
        <ele>1328.4</ele>
        <time>2013-10-13T07:37:15Z</time>
      </trkpt>
      <trkpt lat="44.56698" lon="5.80771">
        <ele>1328.3</ele>
        <time>2013-10-13T07:37:18Z</time>
      </trkpt>
      <trkpt lat="44.56687" lon="5.80767">
        <ele>1328.3</ele>
        <time>2013-10-13T07:37:22Z</time>
      </trkpt>
      <trkpt lat="44.56677" lon="5.80765">
        <ele>1328.6</ele>
        <time>2013-10-13T07:37:25Z</time>
      </trkpt>
      <trkpt lat="44.56664" lon="5.80765">
        <ele>1328.2</ele>
        <time>2013-10-13T07:37:29Z</time>
      </trkpt>
      <trkpt lat="44.56652" lon="5.8076">
        <ele>1327.8</ele>
        <time>2013-10-13T07:37:33Z</time>
      </trkpt>
      <trkpt lat="44.56643" lon="5.80758">
        <ele>1328.1</ele>
        <time>2013-10-13T07:37:36Z</time>
      </trkpt>
      <trkpt lat="44.56634" lon="5.80758">
        <ele>1328.2</ele>
        <time>2013-10-13T07:37:39Z</time>
      </trkpt>
      <trkpt lat="44.56624" lon="5.80757">
        <ele>1328.9</ele>
        <time>2013-10-13T07:37:43Z</time>
      </trkpt>
      <trkpt lat="44.56605" lon="5.80751">
        <ele>1330.3</ele>
        <time>2013-10-13T07:37:51Z</time>
      </trkpt>
      <trkpt lat="44.56596" lon="5.80749">
        <ele>1331.1</ele>
        <time>2013-10-13T07:37:55Z</time>
      </trkpt>
      <trkpt lat="44.56586" lon="5.80748">
        <ele>1331.9</ele>
        <time>2013-10-13T07:38:00Z</time>
      </trkpt>
      <trkpt lat="44.56579" lon="5.80738">
        <ele>1332.5</ele>
        <time>2013-10-13T07:38:04Z</time>
      </trkpt>
      <trkpt lat="44.56571" lon="5.80725">
        <ele>1332.9</ele>
        <time>2013-10-13T07:38:08Z</time>
      </trkpt>
      <trkpt lat="44.56565" lon="5.80715">
        <ele>1332.9</ele>
        <time>2013-10-13T07:38:11Z</time>
      </trkpt>
      <trkpt lat="44.56563" lon="5.80701">
        <ele>1332.5</ele>
        <time>2013-10-13T07:38:15Z</time>
      </trkpt>
      <trkpt lat="44.5656" lon="5.80687">
        <ele>1332.6</ele>
        <time>2013-10-13T07:38:19Z</time>
      </trkpt>
      <trkpt lat="44.56563" lon="5.80673">
        <ele>1332.2</ele>
        <time>2013-10-13T07:38:23Z</time>
      </trkpt>
      <trkpt lat="44.5657" lon="5.80658">
        <ele>1331.6</ele>
        <time>2013-10-13T07:38:27Z</time>
      </trkpt>
      <trkpt lat="44.56579" lon="5.80649">
        <ele>1331.3</ele>
        <time>2013-10-13T07:38:29Z</time>
      </trkpt>
      <trkpt lat="44.56588" lon="5.80636">
        <ele>1330.5</ele>
        <time>2013-10-13T07:38:31Z</time>
      </trkpt>
      <trkpt lat="44.56597" lon="5.80623">
        <ele>1330.2</ele>
        <time>2013-10-13T07:38:33Z</time>
      </trkpt>
      <trkpt lat="44.56606" lon="5.80608">
        <ele>1330.1</ele>
        <time>2013-10-13T07:38:35Z</time>
      </trkpt>
      <trkpt lat="44.56614" lon="5.80593">
        <ele>1329.9</ele>
        <time>2013-10-13T07:38:37Z</time>
      </trkpt>
      <trkpt lat="44.56624" lon="5.80578">
        <ele>1330.1</ele>
        <time>2013-10-13T07:38:39Z</time>
      </trkpt>
      <trkpt lat="44.56634" lon="5.80564">
        <ele>1330.5</ele>
        <time>2013-10-13T07:38:41Z</time>
      </trkpt>
      <trkpt lat="44.5664" lon="5.80551">
        <ele>1330.8</ele>
        <time>2013-10-13T07:38:43Z</time>
      </trkpt>
      <trkpt lat="44.56648" lon="5.8054">
        <ele>1331</ele>
        <time>2013-10-13T07:38:45Z</time>
      </trkpt>
      <trkpt lat="44.56662" lon="5.8052">
        <ele>1331.2</ele>
        <time>2013-10-13T07:38:49Z</time>
      </trkpt>
      <trkpt lat="44.56671" lon="5.80509">
        <ele>1331.4</ele>
        <time>2013-10-13T07:38:52Z</time>
      </trkpt>
      <trkpt lat="44.56679" lon="5.80494">
        <ele>1331.7</ele>
        <time>2013-10-13T07:38:55Z</time>
      </trkpt>
      <trkpt lat="44.56689" lon="5.8048">
        <ele>1331.7</ele>
        <time>2013-10-13T07:38:58Z</time>
      </trkpt>
      <trkpt lat="44.56697" lon="5.80472">
        <ele>1331.8</ele>
        <time>2013-10-13T07:39:00Z</time>
      </trkpt>
      <trkpt lat="44.56705" lon="5.80464">
        <ele>1331.7</ele>
        <time>2013-10-13T07:39:02Z</time>
      </trkpt>
      <trkpt lat="44.56713" lon="5.80453">
        <ele>1331.5</ele>
        <time>2013-10-13T07:39:05Z</time>
      </trkpt>
      <trkpt lat="44.56722" lon="5.80442">
        <ele>1331.5</ele>
        <time>2013-10-13T07:39:08Z</time>
      </trkpt>
      <trkpt lat="44.56728" lon="5.80432">
        <ele>1330</ele>
        <time>2013-10-13T07:39:13Z</time>
      </trkpt>
      <trkpt lat="44.56719" lon="5.80427">
        <ele>1328.4</ele>
        <time>2013-10-13T07:39:17Z</time>
      </trkpt>
      <trkpt lat="44.56723" lon="5.80415">
        <ele>1327</ele>
        <time>2013-10-13T07:39:34Z</time>
      </trkpt>
      <trkpt lat="44.56729" lon="5.80406">
        <ele>1327.1</ele>
        <time>2013-10-13T07:39:40Z</time>
      </trkpt>
      <trkpt lat="44.56731" lon="5.80392">
        <ele>1326.8</ele>
        <time>2013-10-13T07:39:43Z</time>
      </trkpt>
      <trkpt lat="44.56736" lon="5.8038">
        <ele>1326.2</ele>
        <time>2013-10-13T07:39:47Z</time>
      </trkpt>
      <trkpt lat="44.56742" lon="5.8035">
        <ele>1325.8</ele>
        <time>2013-10-13T07:39:55Z</time>
      </trkpt>
      <trkpt lat="44.56741" lon="5.80335">
        <ele>1325.6</ele>
        <time>2013-10-13T07:39:59Z</time>
      </trkpt>
      <trkpt lat="44.56743" lon="5.80321">
        <ele>1326.9</ele>
        <time>2013-10-13T07:40:03Z</time>
      </trkpt>
      <trkpt lat="44.56737" lon="5.80307">
        <ele>1326.6</ele>
        <time>2013-10-13T07:40:07Z</time>
      </trkpt>
      <trkpt lat="44.5673" lon="5.80293">
        <ele>1326.3</ele>
        <time>2013-10-13T07:40:11Z</time>
      </trkpt>
      <trkpt lat="44.56723" lon="5.80283">
        <ele>1326.7</ele>
        <time>2013-10-13T07:40:14Z</time>
      </trkpt>
      <trkpt lat="44.56716" lon="5.80273">
        <ele>1325.5</ele>
        <time>2013-10-13T07:40:17Z</time>
      </trkpt>
      <trkpt lat="44.56712" lon="5.80261">
        <ele>1324.9</ele>
        <time>2013-10-13T07:40:20Z</time>
      </trkpt>
      <trkpt lat="44.56707" lon="5.80249">
        <ele>1324.4</ele>
        <time>2013-10-13T07:40:23Z</time>
      </trkpt>
      <trkpt lat="44.56701" lon="5.80237">
        <ele>1323.6</ele>
        <time>2013-10-13T07:40:26Z</time>
      </trkpt>
      <trkpt lat="44.56698" lon="5.80224">
        <ele>1322.7</ele>
        <time>2013-10-13T07:40:31Z</time>
      </trkpt>
      <trkpt lat="44.56698" lon="5.80209">
        <ele>1322.9</ele>
        <time>2013-10-13T07:40:38Z</time>
      </trkpt>
      <trkpt lat="44.56696" lon="5.80197">
        <ele>1323</ele>
        <time>2013-10-13T07:40:45Z</time>
      </trkpt>
      <trkpt lat="44.56695" lon="5.80183">
        <ele>1322.9</ele>
        <time>2013-10-13T07:40:52Z</time>
      </trkpt>
      <trkpt lat="44.56678" lon="5.8015">
        <ele>1322.5</ele>
        <time>2013-10-13T07:41:00Z</time>
      </trkpt>
      <trkpt lat="44.56671" lon="5.80141">
        <ele>1322.5</ele>
        <time>2013-10-13T07:41:05Z</time>
      </trkpt>
      <trkpt lat="44.56662" lon="5.80138">
        <ele>1322.7</ele>
        <time>2013-10-13T07:41:11Z</time>
      </trkpt>
      <trkpt lat="44.56654" lon="5.80144">
        <ele>1323.9</ele>
        <time>2013-10-13T07:41:28Z</time>
      </trkpt>
      <trkpt lat="44.56645" lon="5.80147">
        <ele>1323.8</ele>
        <time>2013-10-13T07:41:43Z</time>
      </trkpt>
      <trkpt lat="44.56635" lon="5.80149">
        <ele>1324.1</ele>
        <time>2013-10-13T07:42:22Z</time>
      </trkpt>
      <trkpt lat="44.56616" lon="5.80148">
        <ele>1327.9</ele>
        <time>2013-10-13T07:43:01Z</time>
      </trkpt>
      <trkpt lat="44.56605" lon="5.80147">
        <ele>1327.6</ele>
        <time>2013-10-13T07:43:07Z</time>
      </trkpt>
      <trkpt lat="44.56596" lon="5.80146">
        <ele>1327.1</ele>
        <time>2013-10-13T07:43:16Z</time>
      </trkpt>
      <trkpt lat="44.56587" lon="5.80147">
        <ele>1326.5</ele>
        <time>2013-10-13T07:43:30Z</time>
      </trkpt>
      <trkpt lat="44.56568" lon="5.80155">
        <ele>1325.5</ele>
        <time>2013-10-13T07:44:01Z</time>
      </trkpt>
      <trkpt lat="44.56559" lon="5.8016">
        <ele>1325.9</ele>
        <time>2013-10-13T07:44:09Z</time>
      </trkpt>
      <trkpt lat="44.56549" lon="5.80165">
        <ele>1326.5</ele>
        <time>2013-10-13T07:44:15Z</time>
      </trkpt>
      <trkpt lat="44.5654" lon="5.80168">
        <ele>1326.7</ele>
        <time>2013-10-13T07:44:21Z</time>
      </trkpt>
      <trkpt lat="44.56527" lon="5.80175">
        <ele>1327.5</ele>
        <time>2013-10-13T07:44:23Z</time>
      </trkpt>
      <trkpt lat="44.56517" lon="5.80174">
        <ele>1327.7</ele>
        <time>2013-10-13T07:44:27Z</time>
      </trkpt>
      <trkpt lat="44.56506" lon="5.80172">
        <ele>1327.5</ele>
        <time>2013-10-13T07:44:32Z</time>
      </trkpt>
      <trkpt lat="44.56488" lon="5.80167">
        <ele>1327.1</ele>
        <time>2013-10-13T07:44:42Z</time>
      </trkpt>
      <trkpt lat="44.56478" lon="5.80169">
        <ele>1327.9</ele>
        <time>2013-10-13T07:44:47Z</time>
      </trkpt>
      <trkpt lat="44.56468" lon="5.80172">
        <ele>1328.5</ele>
        <time>2013-10-13T07:44:53Z</time>
      </trkpt>
      <trkpt lat="44.56457" lon="5.80172">
        <ele>1329.3</ele>
        <time>2013-10-13T07:44:58Z</time>
      </trkpt>
      <trkpt lat="44.56447" lon="5.80171">
        <ele>1329.8</ele>
        <time>2013-10-13T07:45:01Z</time>
      </trkpt>
      <trkpt lat="44.56435" lon="5.8017">
        <ele>1329.6</ele>
        <time>2013-10-13T07:45:05Z</time>
      </trkpt>
      <trkpt lat="44.56426" lon="5.80169">
        <ele>1329.1</ele>
        <time>2013-10-13T07:45:08Z</time>
      </trkpt>
      <trkpt lat="44.56416" lon="5.80167">
        <ele>1328.6</ele>
        <time>2013-10-13T07:45:12Z</time>
      </trkpt>
      <trkpt lat="44.56405" lon="5.80164">
        <ele>1327.7</ele>
        <time>2013-10-13T07:45:16Z</time>
      </trkpt>
      <trkpt lat="44.56395" lon="5.8016">
        <ele>1326.8</ele>
        <time>2013-10-13T07:45:20Z</time>
      </trkpt>
      <trkpt lat="44.56385" lon="5.80158">
        <ele>1326.2</ele>
        <time>2013-10-13T07:45:24Z</time>
      </trkpt>
      <trkpt lat="44.56374" lon="5.80155">
        <ele>1325.6</ele>
        <time>2013-10-13T07:45:28Z</time>
      </trkpt>
      <trkpt lat="44.56364" lon="5.80156">
        <ele>1324.5</ele>
        <time>2013-10-13T07:45:32Z</time>
      </trkpt>
      <trkpt lat="44.56354" lon="5.80156">
        <ele>1323.4</ele>
        <time>2013-10-13T07:45:37Z</time>
      </trkpt>
      <trkpt lat="44.56335" lon="5.80154">
        <ele>1323</ele>
        <time>2013-10-13T07:45:43Z</time>
      </trkpt>
      <trkpt lat="44.56324" lon="5.80155">
        <ele>1323</ele>
        <time>2013-10-13T07:45:47Z</time>
      </trkpt>
      <trkpt lat="44.56315" lon="5.80156">
        <ele>1322.3</ele>
        <time>2013-10-13T07:45:52Z</time>
      </trkpt>
      <trkpt lat="44.56306" lon="5.80162">
        <ele>1320.6</ele>
        <time>2013-10-13T07:46:00Z</time>
      </trkpt>
      <trkpt lat="44.56297" lon="5.80162">
        <ele>1320.5</ele>
        <time>2013-10-13T07:46:29Z</time>
      </trkpt>
      <trkpt lat="44.56288" lon="5.80166">
        <ele>1319.8</ele>
        <time>2013-10-13T07:46:40Z</time>
      </trkpt>
      <trkpt lat="44.5627" lon="5.80177">
        <ele>1318.1</ele>
        <time>2013-10-13T07:46:58Z</time>
      </trkpt>
      <trkpt lat="44.56262" lon="5.80183">
        <ele>1318.6</ele>
        <time>2013-10-13T07:47:15Z</time>
      </trkpt>
      <trkpt lat="44.56258" lon="5.80195">
        <ele>1319.6</ele>
        <time>2013-10-13T07:47:29Z</time>
      </trkpt>
      <trkpt lat="44.5625" lon="5.80203">
        <ele>1319.7</ele>
        <time>2013-10-13T07:47:41Z</time>
      </trkpt>
      <trkpt lat="44.56234" lon="5.802">
        <ele>1319.9</ele>
        <time>2013-10-13T07:48:00Z</time>
      </trkpt>
      <trkpt lat="44.56225" lon="5.80199">
        <ele>1318.1</ele>
        <time>2013-10-13T07:48:12Z</time>
      </trkpt>
      <trkpt lat="44.56215" lon="5.80198">
        <ele>1318.7</ele>
        <time>2013-10-13T07:48:23Z</time>
      </trkpt>
      <trkpt lat="44.56204" lon="5.80199">
        <ele>1318.5</ele>
        <time>2013-10-13T07:48:29Z</time>
      </trkpt>
      <trkpt lat="44.56193" lon="5.802">
        <ele>1319.6</ele>
        <time>2013-10-13T07:48:31Z</time>
      </trkpt>
      <trkpt lat="44.56182" lon="5.802">
        <ele>1319.1</ele>
        <time>2013-10-13T07:48:36Z</time>
      </trkpt>
      <trkpt lat="44.56168" lon="5.802">
        <ele>1318.9</ele>
        <time>2013-10-13T07:48:40Z</time>
      </trkpt>
      <trkpt lat="44.56156" lon="5.802">
        <ele>1319.8</ele>
        <time>2013-10-13T07:48:42Z</time>
      </trkpt>
      <trkpt lat="44.56135" lon="5.80196">
        <ele>1319.5</ele>
        <time>2013-10-13T07:48:47Z</time>
      </trkpt>
      <trkpt lat="44.56125" lon="5.80193">
        <ele>1319.7</ele>
        <time>2013-10-13T07:48:50Z</time>
      </trkpt>
      <trkpt lat="44.56114" lon="5.80193">
        <ele>1320.2</ele>
        <time>2013-10-13T07:48:54Z</time>
      </trkpt>
      <trkpt lat="44.56105" lon="5.80193">
        <ele>1320.9</ele>
        <time>2013-10-13T07:48:56Z</time>
      </trkpt>
      <trkpt lat="44.56093" lon="5.80194">
        <ele>1320.9</ele>
        <time>2013-10-13T07:49:00Z</time>
      </trkpt>
      <trkpt lat="44.56083" lon="5.80194">
        <ele>1320.5</ele>
        <time>2013-10-13T07:49:04Z</time>
      </trkpt>
      <trkpt lat="44.56074" lon="5.80195">
        <ele>1319.6</ele>
        <time>2013-10-13T07:49:08Z</time>
      </trkpt>
      <trkpt lat="44.56065" lon="5.80199">
        <ele>1312.4</ele>
        <time>2013-10-13T07:49:32Z</time>
      </trkpt>
      <trkpt lat="44.56057" lon="5.80193">
        <ele>1312.4</ele>
        <time>2013-10-13T07:49:38Z</time>
      </trkpt>
      <trkpt lat="44.56048" lon="5.8019">
        <ele>1312.7</ele>
        <time>2013-10-13T07:49:41Z</time>
      </trkpt>
      <trkpt lat="44.56035" lon="5.80186">
        <ele>1313.7</ele>
        <time>2013-10-13T07:49:44Z</time>
      </trkpt>
      <trkpt lat="44.56013" lon="5.80183">
        <ele>1315.3</ele>
        <time>2013-10-13T07:49:49Z</time>
      </trkpt>
      <trkpt lat="44.56002" lon="5.80177">
        <ele>1315.2</ele>
        <time>2013-10-13T07:49:52Z</time>
      </trkpt>
      <trkpt lat="44.55992" lon="5.80172">
        <ele>1313.7</ele>
        <time>2013-10-13T07:49:55Z</time>
      </trkpt>
      <trkpt lat="44.55982" lon="5.80165">
        <ele>1312</ele>
        <time>2013-10-13T07:49:58Z</time>
      </trkpt>
      <trkpt lat="44.5597" lon="5.80159">
        <ele>1311.5</ele>
        <time>2013-10-13T07:50:00Z</time>
      </trkpt>
      <trkpt lat="44.55957" lon="5.80156">
        <ele>1311.8</ele>
        <time>2013-10-13T07:50:02Z</time>
      </trkpt>
      <trkpt lat="44.55942" lon="5.80153">
        <ele>1311.8</ele>
        <time>2013-10-13T07:50:04Z</time>
      </trkpt>
      <trkpt lat="44.5593" lon="5.80149">
        <ele>1312.2</ele>
        <time>2013-10-13T07:50:06Z</time>
      </trkpt>
      <trkpt lat="44.55918" lon="5.80143">
        <ele>1309.2</ele>
        <time>2013-10-13T07:50:09Z</time>
      </trkpt>
      <trkpt lat="44.5591" lon="5.80137">
        <ele>1309.3</ele>
        <time>2013-10-13T07:50:11Z</time>
      </trkpt>
      <trkpt lat="44.55901" lon="5.80128">
        <ele>1309.4</ele>
        <time>2013-10-13T07:50:14Z</time>
      </trkpt>
      <trkpt lat="44.55909" lon="5.80117">
        <ele>1309.8</ele>
        <time>2013-10-13T07:50:18Z</time>
      </trkpt>
      <trkpt lat="44.55915" lon="5.80105">
        <ele>1310.3</ele>
        <time>2013-10-13T07:50:22Z</time>
      </trkpt>
      <trkpt lat="44.5592" lon="5.80091">
        <ele>1310.1</ele>
        <time>2013-10-13T07:50:26Z</time>
      </trkpt>
      <trkpt lat="44.55927" lon="5.80077">
        <ele>1310.4</ele>
        <time>2013-10-13T07:50:30Z</time>
      </trkpt>
      <trkpt lat="44.55932" lon="5.80063">
        <ele>1310.8</ele>
        <time>2013-10-13T07:50:34Z</time>
      </trkpt>
      <trkpt lat="44.55937" lon="5.8005">
        <ele>1310.1</ele>
        <time>2013-10-13T07:50:38Z</time>
      </trkpt>
      <trkpt lat="44.55941" lon="5.80038">
        <ele>1309.7</ele>
        <time>2013-10-13T07:50:41Z</time>
      </trkpt>
      <trkpt lat="44.55942" lon="5.80024">
        <ele>1309.6</ele>
        <time>2013-10-13T07:50:45Z</time>
      </trkpt>
      <trkpt lat="44.55946" lon="5.79994">
        <ele>1308.5</ele>
        <time>2013-10-13T07:50:53Z</time>
      </trkpt>
      <trkpt lat="44.5595" lon="5.7998">
        <ele>1307.9</ele>
        <time>2013-10-13T07:50:58Z</time>
      </trkpt>
      <trkpt lat="44.55954" lon="5.79965">
        <ele>1307.2</ele>
        <time>2013-10-13T07:51:02Z</time>
      </trkpt>
      <trkpt lat="44.55961" lon="5.79953">
        <ele>1307.1</ele>
        <time>2013-10-13T07:51:05Z</time>
      </trkpt>
      <trkpt lat="44.55964" lon="5.79939">
        <ele>1306.8</ele>
        <time>2013-10-13T07:51:08Z</time>
      </trkpt>
      <trkpt lat="44.55967" lon="5.79927">
        <ele>1306.8</ele>
        <time>2013-10-13T07:51:10Z</time>
      </trkpt>
      <trkpt lat="44.5597" lon="5.79914">
        <ele>1306.7</ele>
        <time>2013-10-13T07:51:12Z</time>
      </trkpt>
      <trkpt lat="44.55973" lon="5.79902">
        <ele>1306.7</ele>
        <time>2013-10-13T07:51:14Z</time>
      </trkpt>
      <trkpt lat="44.55976" lon="5.79889">
        <ele>1306.6</ele>
        <time>2013-10-13T07:51:16Z</time>
      </trkpt>
      <trkpt lat="44.5598" lon="5.79876">
        <ele>1306.4</ele>
        <time>2013-10-13T07:51:18Z</time>
      </trkpt>
      <trkpt lat="44.55983" lon="5.7986">
        <ele>1306.3</ele>
        <time>2013-10-13T07:51:20Z</time>
      </trkpt>
      <trkpt lat="44.55985" lon="5.79846">
        <ele>1305.6</ele>
        <time>2013-10-13T07:51:22Z</time>
      </trkpt>
      <trkpt lat="44.55987" lon="5.79831">
        <ele>1304.9</ele>
        <time>2013-10-13T07:51:24Z</time>
      </trkpt>
      <trkpt lat="44.55988" lon="5.79814">
        <ele>1303.9</ele>
        <time>2013-10-13T07:51:26Z</time>
      </trkpt>
      <trkpt lat="44.55985" lon="5.79801">
        <ele>1303</ele>
        <time>2013-10-13T07:51:28Z</time>
      </trkpt>
      <trkpt lat="44.5598" lon="5.79785">
        <ele>1302.1</ele>
        <time>2013-10-13T07:51:31Z</time>
      </trkpt>
      <trkpt lat="44.55976" lon="5.79772">
        <ele>1301.5</ele>
        <time>2013-10-13T07:51:34Z</time>
      </trkpt>
      <trkpt lat="44.5597" lon="5.79761">
        <ele>1301</ele>
        <time>2013-10-13T07:51:37Z</time>
      </trkpt>
      <trkpt lat="44.5596" lon="5.79753">
        <ele>1300.5</ele>
        <time>2013-10-13T07:51:40Z</time>
      </trkpt>
      <trkpt lat="44.55951" lon="5.7975">
        <ele>1299.8</ele>
        <time>2013-10-13T07:51:42Z</time>
      </trkpt>
      <trkpt lat="44.55942" lon="5.7975">
        <ele>1298.8</ele>
        <time>2013-10-13T07:51:44Z</time>
      </trkpt>
      <trkpt lat="44.55931" lon="5.79748">
        <ele>1298.4</ele>
        <time>2013-10-13T07:51:47Z</time>
      </trkpt>
      <trkpt lat="44.55905" lon="5.79746">
        <ele>1297.4</ele>
        <time>2013-10-13T07:51:53Z</time>
      </trkpt>
      <trkpt lat="44.55894" lon="5.79743">
        <ele>1296.9</ele>
        <time>2013-10-13T07:51:56Z</time>
      </trkpt>
      <trkpt lat="44.55883" lon="5.79739">
        <ele>1295.7</ele>
        <time>2013-10-13T07:52:00Z</time>
      </trkpt>
      <trkpt lat="44.55874" lon="5.79734">
        <ele>1293</ele>
        <time>2013-10-13T07:52:04Z</time>
      </trkpt>
      <trkpt lat="44.55864" lon="5.79726">
        <ele>1291.2</ele>
        <time>2013-10-13T07:52:08Z</time>
      </trkpt>
      <trkpt lat="44.55856" lon="5.79717">
        <ele>1290.1</ele>
        <time>2013-10-13T07:52:13Z</time>
      </trkpt>
      <trkpt lat="44.5585" lon="5.79705">
        <ele>1287.7</ele>
        <time>2013-10-13T07:52:18Z</time>
      </trkpt>
      <trkpt lat="44.55842" lon="5.79695">
        <ele>1286.9</ele>
        <time>2013-10-13T07:52:23Z</time>
      </trkpt>
      <trkpt lat="44.55835" lon="5.79685">
        <ele>1286.4</ele>
        <time>2013-10-13T07:52:27Z</time>
      </trkpt>
      <trkpt lat="44.55828" lon="5.79676">
        <ele>1285.2</ele>
        <time>2013-10-13T07:52:31Z</time>
      </trkpt>
      <trkpt lat="44.55821" lon="5.79666">
        <ele>1284.7</ele>
        <time>2013-10-13T07:52:36Z</time>
      </trkpt>
      <trkpt lat="44.55813" lon="5.79657">
        <ele>1283.9</ele>
        <time>2013-10-13T07:52:40Z</time>
      </trkpt>
      <trkpt lat="44.55804" lon="5.79649">
        <ele>1283.2</ele>
        <time>2013-10-13T07:52:44Z</time>
      </trkpt>
      <trkpt lat="44.55796" lon="5.7964">
        <ele>1282.7</ele>
        <time>2013-10-13T07:52:48Z</time>
      </trkpt>
      <trkpt lat="44.55778" lon="5.79628">
        <ele>1282.5</ele>
        <time>2013-10-13T07:52:53Z</time>
      </trkpt>
      <trkpt lat="44.55766" lon="5.79621">
        <ele>1281.7</ele>
        <time>2013-10-13T07:52:56Z</time>
      </trkpt>
      <trkpt lat="44.55756" lon="5.79615">
        <ele>1281.2</ele>
        <time>2013-10-13T07:53:00Z</time>
      </trkpt>
      <trkpt lat="44.55745" lon="5.79614">
        <ele>1280.8</ele>
        <time>2013-10-13T07:53:04Z</time>
      </trkpt>
      <trkpt lat="44.55744" lon="5.79627">
        <ele>1273.3</ele>
        <time>2013-10-13T07:53:31Z</time>
      </trkpt>
      <trkpt lat="44.55745" lon="5.79641">
        <ele>1272.1</ele>
        <time>2013-10-13T07:53:39Z</time>
      </trkpt>
      <trkpt lat="44.55743" lon="5.79654">
        <ele>1270.4</ele>
        <time>2013-10-13T07:53:45Z</time>
      </trkpt>
      <trkpt lat="44.55741" lon="5.79667">
        <ele>1269.8</ele>
        <time>2013-10-13T07:53:50Z</time>
      </trkpt>
      <trkpt lat="44.55739" lon="5.79694">
        <ele>1267.3</ele>
        <time>2013-10-13T07:54:03Z</time>
      </trkpt>
      <trkpt lat="44.55741" lon="5.79708">
        <ele>1266.1</ele>
        <time>2013-10-13T07:54:09Z</time>
      </trkpt>
      <trkpt lat="44.55744" lon="5.79722">
        <ele>1264.2</ele>
        <time>2013-10-13T07:54:13Z</time>
      </trkpt>
      <trkpt lat="44.55747" lon="5.79736">
        <ele>1261.4</ele>
        <time>2013-10-13T07:54:17Z</time>
      </trkpt>
      <trkpt lat="44.55748" lon="5.79749">
        <ele>1260.8</ele>
        <time>2013-10-13T07:54:20Z</time>
      </trkpt>
      <trkpt lat="44.55746" lon="5.79763">
        <ele>1259.6</ele>
        <time>2013-10-13T07:54:23Z</time>
      </trkpt>
      <trkpt lat="44.55745" lon="5.79779">
        <ele>1258.5</ele>
        <time>2013-10-13T07:54:27Z</time>
      </trkpt>
      <trkpt lat="44.55744" lon="5.79792">
        <ele>1257.5</ele>
        <time>2013-10-13T07:54:32Z</time>
      </trkpt>
      <trkpt lat="44.55746" lon="5.79805">
        <ele>1256</ele>
        <time>2013-10-13T07:54:39Z</time>
      </trkpt>
      <trkpt lat="44.55746" lon="5.79818">
        <ele>1251.6</ele>
        <time>2013-10-13T07:54:46Z</time>
      </trkpt>
      <trkpt lat="44.5574" lon="5.79831">
        <ele>1250.9</ele>
        <time>2013-10-13T07:54:51Z</time>
      </trkpt>
      <trkpt lat="44.55726" lon="5.7985">
        <ele>1251.1</ele>
        <time>2013-10-13T07:55:01Z</time>
      </trkpt>
      <trkpt lat="44.5572" lon="5.79859">
        <ele>1249.5</ele>
        <time>2013-10-13T07:55:07Z</time>
      </trkpt>
      <trkpt lat="44.55715" lon="5.79872">
        <ele>1248.9</ele>
        <time>2013-10-13T07:55:12Z</time>
      </trkpt>
      <trkpt lat="44.5571" lon="5.79885">
        <ele>1248.4</ele>
        <time>2013-10-13T07:55:16Z</time>
      </trkpt>
      <trkpt lat="44.55707" lon="5.79899">
        <ele>1246.4</ele>
        <time>2013-10-13T07:55:19Z</time>
      </trkpt>
      <trkpt lat="44.55717" lon="5.79957">
        <ele>1246.4</ele>
        <time>2013-10-13T07:55:22Z</time>
      </trkpt>
      <trkpt lat="44.55715" lon="5.79977">
        <ele>1243.8</ele>
        <time>2013-10-13T07:55:24Z</time>
      </trkpt>
      <trkpt lat="44.55713" lon="5.79998">
        <ele>1239.2</ele>
        <time>2013-10-13T07:55:26Z</time>
      </trkpt>
      <trkpt lat="44.55712" lon="5.80011">
        <ele>1238.2</ele>
        <time>2013-10-13T07:55:28Z</time>
      </trkpt>
      <trkpt lat="44.55711" lon="5.80031">
        <ele>1233.5</ele>
        <time>2013-10-13T07:55:30Z</time>
      </trkpt>
      <trkpt lat="44.55711" lon="5.80046">
        <ele>1229.6</ele>
        <time>2013-10-13T07:55:32Z</time>
      </trkpt>
      <trkpt lat="44.55707" lon="5.80063">
        <ele>1226.5</ele>
        <time>2013-10-13T07:55:35Z</time>
      </trkpt>
      <trkpt lat="44.55703" lon="5.80076">
        <ele>1225.6</ele>
        <time>2013-10-13T07:55:38Z</time>
      </trkpt>
      <trkpt lat="44.55696" lon="5.80088">
        <ele>1223.8</ele>
        <time>2013-10-13T07:55:42Z</time>
      </trkpt>
      <trkpt lat="44.55687" lon="5.80098">
        <ele>1223.1</ele>
        <time>2013-10-13T07:55:45Z</time>
      </trkpt>
      <trkpt lat="44.55677" lon="5.80104">
        <ele>1222.8</ele>
        <time>2013-10-13T07:55:47Z</time>
      </trkpt>
      <trkpt lat="44.55668" lon="5.80115">
        <ele>1222.8</ele>
        <time>2013-10-13T07:55:50Z</time>
      </trkpt>
      <trkpt lat="44.5565" lon="5.80138">
        <ele>1222.8</ele>
        <time>2013-10-13T07:55:56Z</time>
      </trkpt>
      <trkpt lat="44.55642" lon="5.80149">
        <ele>1222.7</ele>
        <time>2013-10-13T07:55:59Z</time>
      </trkpt>
      <trkpt lat="44.55635" lon="5.8016">
        <ele>1222.6</ele>
        <time>2013-10-13T07:56:02Z</time>
      </trkpt>
      <trkpt lat="44.55626" lon="5.80169">
        <ele>1222.6</ele>
        <time>2013-10-13T07:56:05Z</time>
      </trkpt>
      <trkpt lat="44.55619" lon="5.80177">
        <ele>1222.6</ele>
        <time>2013-10-13T07:56:07Z</time>
      </trkpt>
      <trkpt lat="44.55609" lon="5.80186">
        <ele>1222.4</ele>
        <time>2013-10-13T07:56:10Z</time>
      </trkpt>
      <trkpt lat="44.55599" lon="5.80197">
        <ele>1222.3</ele>
        <time>2013-10-13T07:56:13Z</time>
      </trkpt>
      <trkpt lat="44.5559" lon="5.80208">
        <ele>1222.3</ele>
        <time>2013-10-13T07:56:16Z</time>
      </trkpt>
      <trkpt lat="44.55577" lon="5.80218">
        <ele>1222</ele>
        <time>2013-10-13T07:56:19Z</time>
      </trkpt>
      <trkpt lat="44.55567" lon="5.80225">
        <ele>1222</ele>
        <time>2013-10-13T07:56:21Z</time>
      </trkpt>
      <trkpt lat="44.55558" lon="5.80233">
        <ele>1220.2</ele>
        <time>2013-10-13T07:56:23Z</time>
      </trkpt>
      <trkpt lat="44.55547" lon="5.80238">
        <ele>1219.8</ele>
        <time>2013-10-13T07:56:26Z</time>
      </trkpt>
      <trkpt lat="44.55536" lon="5.80241">
        <ele>1219</ele>
        <time>2013-10-13T07:56:31Z</time>
      </trkpt>
      <trkpt lat="44.55524" lon="5.80243">
        <ele>1218</ele>
        <time>2013-10-13T07:56:36Z</time>
      </trkpt>
      <trkpt lat="44.55515" lon="5.80243">
        <ele>1217.6</ele>
        <time>2013-10-13T07:56:39Z</time>
      </trkpt>
      <trkpt lat="44.55504" lon="5.80245">
        <ele>1217.4</ele>
        <time>2013-10-13T07:56:42Z</time>
      </trkpt>
      <trkpt lat="44.55495" lon="5.8025">
        <ele>1216.5</ele>
        <time>2013-10-13T07:56:45Z</time>
      </trkpt>
      <trkpt lat="44.55487" lon="5.80259">
        <ele>1215.1</ele>
        <time>2013-10-13T07:56:48Z</time>
      </trkpt>
      <trkpt lat="44.55477" lon="5.80265">
        <ele>1214.1</ele>
        <time>2013-10-13T07:56:51Z</time>
      </trkpt>
      <trkpt lat="44.55453" lon="5.80278">
        <ele>1212.9</ele>
        <time>2013-10-13T07:56:57Z</time>
      </trkpt>
      <trkpt lat="44.55444" lon="5.80287">
        <ele>1212.1</ele>
        <time>2013-10-13T07:57:00Z</time>
      </trkpt>
      <trkpt lat="44.55435" lon="5.80298">
        <ele>1211.3</ele>
        <time>2013-10-13T07:57:03Z</time>
      </trkpt>
      <trkpt lat="44.55425" lon="5.80306">
        <ele>1211</ele>
        <time>2013-10-13T07:57:06Z</time>
      </trkpt>
      <trkpt lat="44.55416" lon="5.80315">
        <ele>1211</ele>
        <time>2013-10-13T07:57:10Z</time>
      </trkpt>
      <trkpt lat="44.5541" lon="5.80325">
        <ele>1211.5</ele>
        <time>2013-10-13T07:57:15Z</time>
      </trkpt>
      <trkpt lat="44.55399" lon="5.80328">
        <ele>1211.5</ele>
        <time>2013-10-13T07:57:23Z</time>
      </trkpt>
      <trkpt lat="44.55389" lon="5.80336">
        <ele>1211</ele>
        <time>2013-10-13T07:57:27Z</time>
      </trkpt>
      <trkpt lat="44.55381" lon="5.80343">
        <ele>1210.7</ele>
        <time>2013-10-13T07:57:29Z</time>
      </trkpt>
      <trkpt lat="44.5537" lon="5.80355">
        <ele>1210.1</ele>
        <time>2013-10-13T07:57:32Z</time>
      </trkpt>
      <trkpt lat="44.55361" lon="5.80367">
        <ele>1209.8</ele>
        <time>2013-10-13T07:57:35Z</time>
      </trkpt>
      <trkpt lat="44.5535" lon="5.80379">
        <ele>1209.4</ele>
        <time>2013-10-13T07:57:38Z</time>
      </trkpt>
      <trkpt lat="44.5534" lon="5.80389">
        <ele>1209</ele>
        <time>2013-10-13T07:57:41Z</time>
      </trkpt>
      <trkpt lat="44.55332" lon="5.804">
        <ele>1207.6</ele>
        <time>2013-10-13T07:57:44Z</time>
      </trkpt>
      <trkpt lat="44.55322" lon="5.80397">
        <ele>1181.5</ele>
        <time>2013-10-13T07:58:05Z</time>
      </trkpt>
      <trkpt lat="44.55297" lon="5.80393">
        <ele>1179</ele>
        <time>2013-10-13T07:58:12Z</time>
      </trkpt>
      <trkpt lat="44.55287" lon="5.80388">
        <ele>1175.8</ele>
        <time>2013-10-13T07:58:15Z</time>
      </trkpt>
      <trkpt lat="44.55276" lon="5.80386">
        <ele>1166.2</ele>
        <time>2013-10-13T07:58:20Z</time>
      </trkpt>
      <trkpt lat="44.55271" lon="5.80396">
        <ele>1154.2</ele>
        <time>2013-10-13T07:58:32Z</time>
      </trkpt>
      <trkpt lat="44.55262" lon="5.80388">
        <ele>1133.6</ele>
        <time>2013-10-13T07:59:16Z</time>
      </trkpt>
      <trkpt lat="44.55249" lon="5.80366">
        <ele>1131.5</ele>
        <time>2013-10-13T07:59:26Z</time>
      </trkpt>
      <trkpt lat="44.55242" lon="5.80356">
        <ele>1130.7</ele>
        <time>2013-10-13T07:59:30Z</time>
      </trkpt>
      <trkpt lat="44.55236" lon="5.80345">
        <ele>1128.8</ele>
        <time>2013-10-13T07:59:34Z</time>
      </trkpt>
      <trkpt lat="44.5523" lon="5.80335">
        <ele>1128.1</ele>
        <time>2013-10-13T07:59:39Z</time>
      </trkpt>
      <trkpt lat="44.55228" lon="5.80322">
        <ele>1120.7</ele>
        <time>2013-10-13T08:00:05Z</time>
      </trkpt>
      <trkpt lat="44.55223" lon="5.80311">
        <ele>1114.6</ele>
        <time>2013-10-13T08:00:29Z</time>
      </trkpt>
      <trkpt lat="44.55221" lon="5.80292">
        <ele>1106.5</ele>
        <time>2013-10-13T08:00:49Z</time>
      </trkpt>
      <trkpt lat="44.55215" lon="5.80281">
        <ele>1095.6</ele>
        <time>2013-10-13T08:01:16Z</time>
      </trkpt>
      <trkpt lat="44.55206" lon="5.80275">
        <ele>1095.5</ele>
        <time>2013-10-13T08:01:20Z</time>
      </trkpt>
      <trkpt lat="44.55195" lon="5.8027">
        <ele>1095.6</ele>
        <time>2013-10-13T08:01:24Z</time>
      </trkpt>
      <trkpt lat="44.55183" lon="5.80268">
        <ele>1095.5</ele>
        <time>2013-10-13T08:01:27Z</time>
      </trkpt>
      <trkpt lat="44.55173" lon="5.80268">
        <ele>1095.2</ele>
        <time>2013-10-13T08:01:30Z</time>
      </trkpt>
      <trkpt lat="44.55152" lon="5.80266">
        <ele>1093.9</ele>
        <time>2013-10-13T08:01:39Z</time>
      </trkpt>
      <trkpt lat="44.55142" lon="5.80267">
        <ele>1092.2</ele>
        <time>2013-10-13T08:01:45Z</time>
      </trkpt>
      <trkpt lat="44.55134" lon="5.80259">
        <ele>1080.2</ele>
        <time>2013-10-13T08:02:00Z</time>
      </trkpt>
      <trkpt lat="44.55134" lon="5.80246">
        <ele>1076.6</ele>
        <time>2013-10-13T08:02:09Z</time>
      </trkpt>
      <trkpt lat="44.55134" lon="5.80234">
        <ele>1075.3</ele>
        <time>2013-10-13T08:02:15Z</time>
      </trkpt>
      <trkpt lat="44.55138" lon="5.80221">
        <ele>1073.4</ele>
        <time>2013-10-13T08:02:28Z</time>
      </trkpt>
      <trkpt lat="44.55145" lon="5.80213">
        <ele>1072.2</ele>
        <time>2013-10-13T08:02:50Z</time>
      </trkpt>
      <trkpt lat="44.55154" lon="5.80191">
        <ele>1072.2</ele>
        <time>2013-10-13T08:03:10Z</time>
      </trkpt>
      <trkpt lat="44.55153" lon="5.80175">
        <ele>1071</ele>
        <time>2013-10-13T08:03:13Z</time>
      </trkpt>
      <trkpt lat="44.55154" lon="5.80158">
        <ele>1071.3</ele>
        <time>2013-10-13T08:03:16Z</time>
      </trkpt>
      <trkpt lat="44.55153" lon="5.80141">
        <ele>1070.6</ele>
        <time>2013-10-13T08:03:19Z</time>
      </trkpt>
      <trkpt lat="44.55147" lon="5.80129">
        <ele>1070.5</ele>
        <time>2013-10-13T08:03:22Z</time>
      </trkpt>
      <trkpt lat="44.55142" lon="5.8012">
        <ele>1070.7</ele>
        <time>2013-10-13T08:03:25Z</time>
      </trkpt>
      <trkpt lat="44.55132" lon="5.80114">
        <ele>1071.1</ele>
        <time>2013-10-13T08:03:28Z</time>
      </trkpt>
      <trkpt lat="44.55122" lon="5.80108">
        <ele>1071.2</ele>
        <time>2013-10-13T08:03:32Z</time>
      </trkpt>
      <trkpt lat="44.55115" lon="5.80097">
        <ele>1071.6</ele>
        <time>2013-10-13T08:03:36Z</time>
      </trkpt>
      <trkpt lat="44.55104" lon="5.80092">
        <ele>1072.1</ele>
        <time>2013-10-13T08:03:40Z</time>
      </trkpt>
      <trkpt lat="44.55093" lon="5.80091">
        <ele>1072</ele>
        <time>2013-10-13T08:03:44Z</time>
      </trkpt>
      <trkpt lat="44.55081" lon="5.80088">
        <ele>1072</ele>
        <time>2013-10-13T08:03:48Z</time>
      </trkpt>
      <trkpt lat="44.55069" lon="5.80087">
        <ele>1072</ele>
        <time>2013-10-13T08:03:51Z</time>
      </trkpt>
      <trkpt lat="44.55048" lon="5.80084">
        <ele>1072</ele>
        <time>2013-10-13T08:03:57Z</time>
      </trkpt>
      <trkpt lat="44.55038" lon="5.80084">
        <ele>1071.9</ele>
        <time>2013-10-13T08:04:02Z</time>
      </trkpt>
      <trkpt lat="44.5503" lon="5.80096">
        <ele>1071.9</ele>
        <time>2013-10-13T08:04:08Z</time>
      </trkpt>
      <trkpt lat="44.55028" lon="5.80109">
        <ele>1071.9</ele>
        <time>2013-10-13T08:04:11Z</time>
      </trkpt>
      <trkpt lat="44.55028" lon="5.80123">
        <ele>1071.8</ele>
        <time>2013-10-13T08:04:14Z</time>
      </trkpt>
      <trkpt lat="44.55022" lon="5.80133">
        <ele>1071.8</ele>
        <time>2013-10-13T08:04:18Z</time>
      </trkpt>
      <trkpt lat="44.55013" lon="5.80138">
        <ele>1071.7</ele>
        <time>2013-10-13T08:04:21Z</time>
      </trkpt>
      <trkpt lat="44.55003" lon="5.80137">
        <ele>1071.7</ele>
        <time>2013-10-13T08:04:23Z</time>
      </trkpt>
      <trkpt lat="44.54993" lon="5.80134">
        <ele>1071.6</ele>
        <time>2013-10-13T08:04:25Z</time>
      </trkpt>
      <trkpt lat="44.54981" lon="5.80128">
        <ele>1071.6</ele>
        <time>2013-10-13T08:04:28Z</time>
      </trkpt>
      <trkpt lat="44.5497" lon="5.8012">
        <ele>1071.6</ele>
        <time>2013-10-13T08:04:31Z</time>
      </trkpt>
      <trkpt lat="44.54959" lon="5.80109">
        <ele>1071.5</ele>
        <time>2013-10-13T08:04:35Z</time>
      </trkpt>
      <trkpt lat="44.54949" lon="5.80105">
        <ele>1071.5</ele>
        <time>2013-10-13T08:04:38Z</time>
      </trkpt>
      <trkpt lat="44.54938" lon="5.80102">
        <ele>1071.5</ele>
        <time>2013-10-13T08:04:41Z</time>
      </trkpt>
      <trkpt lat="44.54927" lon="5.80102">
        <ele>1071.4</ele>
        <time>2013-10-13T08:04:44Z</time>
      </trkpt>
      <trkpt lat="44.54918" lon="5.80104">
        <ele>1071.4</ele>
        <time>2013-10-13T08:04:46Z</time>
      </trkpt>
      <trkpt lat="44.54908" lon="5.80106">
        <ele>1071.4</ele>
        <time>2013-10-13T08:04:48Z</time>
      </trkpt>
      <trkpt lat="44.54896" lon="5.80108">
        <ele>1071.4</ele>
        <time>2013-10-13T08:04:50Z</time>
      </trkpt>
      <trkpt lat="44.54886" lon="5.80116">
        <ele>1071.3</ele>
        <time>2013-10-13T08:04:52Z</time>
      </trkpt>
      <trkpt lat="44.54866" lon="5.8014">
        <ele>1071.1</ele>
        <time>2013-10-13T08:04:56Z</time>
      </trkpt>
      <trkpt lat="44.54857" lon="5.80147">
        <ele>1071.1</ele>
        <time>2013-10-13T08:04:58Z</time>
      </trkpt>
      <trkpt lat="44.54846" lon="5.80156">
        <ele>1071</ele>
        <time>2013-10-13T08:05:00Z</time>
      </trkpt>
      <trkpt lat="44.54834" lon="5.80166">
        <ele>1070.9</ele>
        <time>2013-10-13T08:05:02Z</time>
      </trkpt>
      <trkpt lat="44.54822" lon="5.80177">
        <ele>1070.8</ele>
        <time>2013-10-13T08:05:04Z</time>
      </trkpt>
      <trkpt lat="44.54812" lon="5.80185">
        <ele>1070.8</ele>
        <time>2013-10-13T08:05:06Z</time>
      </trkpt>
      <trkpt lat="44.548" lon="5.80192">
        <ele>1070.9</ele>
        <time>2013-10-13T08:05:08Z</time>
      </trkpt>
      <trkpt lat="44.54788" lon="5.80196">
        <ele>1070.9</ele>
        <time>2013-10-13T08:05:10Z</time>
      </trkpt>
      <trkpt lat="44.54778" lon="5.80197">
        <ele>1070.8</ele>
        <time>2013-10-13T08:05:12Z</time>
      </trkpt>
      <trkpt lat="44.54768" lon="5.80187">
        <ele>1070.7</ele>
        <time>2013-10-13T08:05:15Z</time>
      </trkpt>
      <trkpt lat="44.54765" lon="5.80173">
        <ele>1070.7</ele>
        <time>2013-10-13T08:05:18Z</time>
      </trkpt>
      <trkpt lat="44.54755" lon="5.80169">
        <ele>1069.4</ele>
        <time>2013-10-13T08:05:25Z</time>
      </trkpt>
      <trkpt lat="44.54749" lon="5.80178">
        <ele>1059.7</ele>
        <time>2013-10-13T08:06:20Z</time>
      </trkpt>
      <trkpt lat="44.54727" lon="5.80191">
        <ele>1057.1</ele>
        <time>2013-10-13T08:06:26Z</time>
      </trkpt>
      <trkpt lat="44.54714" lon="5.80202">
        <ele>1054.5</ele>
        <time>2013-10-13T08:06:28Z</time>
      </trkpt>
      <trkpt lat="44.54703" lon="5.80211">
        <ele>1053.2</ele>
        <time>2013-10-13T08:06:30Z</time>
      </trkpt>
      <trkpt lat="44.54693" lon="5.80223">
        <ele>1050.4</ele>
        <time>2013-10-13T08:06:32Z</time>
      </trkpt>
      <trkpt lat="44.54683" lon="5.80232">
        <ele>1047.2</ele>
        <time>2013-10-13T08:06:34Z</time>
      </trkpt>
      <trkpt lat="44.54674" lon="5.80239">
        <ele>1043.9</ele>
        <time>2013-10-13T08:06:36Z</time>
      </trkpt>
      <trkpt lat="44.54665" lon="5.80248">
        <ele>1041</ele>
        <time>2013-10-13T08:06:38Z</time>
      </trkpt>
      <trkpt lat="44.54656" lon="5.80261">
        <ele>1038.2</ele>
        <time>2013-10-13T08:06:40Z</time>
      </trkpt>
      <trkpt lat="44.54649" lon="5.80275">
        <ele>1035.3</ele>
        <time>2013-10-13T08:06:42Z</time>
      </trkpt>
      <trkpt lat="44.54645" lon="5.8029">
        <ele>1032.9</ele>
        <time>2013-10-13T08:06:44Z</time>
      </trkpt>
      <trkpt lat="44.54637" lon="5.80301">
        <ele>1028.7</ele>
        <time>2013-10-13T08:06:47Z</time>
      </trkpt>
      <trkpt lat="44.54626" lon="5.80294">
        <ele>1006.3</ele>
        <time>2013-10-13T08:07:07Z</time>
      </trkpt>
      <trkpt lat="44.54617" lon="5.80296">
        <ele>1003.2</ele>
        <time>2013-10-13T08:07:09Z</time>
      </trkpt>
      <trkpt lat="44.54605" lon="5.80302">
        <ele>998.7</ele>
        <time>2013-10-13T08:07:11Z</time>
      </trkpt>
      <trkpt lat="44.54594" lon="5.80303">
        <ele>992.4</ele>
        <time>2013-10-13T08:07:13Z</time>
      </trkpt>
      <trkpt lat="44.54583" lon="5.80301">
        <ele>986</ele>
        <time>2013-10-13T08:07:15Z</time>
      </trkpt>
      <trkpt lat="44.54571" lon="5.80301">
        <ele>981.6</ele>
        <time>2013-10-13T08:07:17Z</time>
      </trkpt>
      <trkpt lat="44.54558" lon="5.80301">
        <ele>981</ele>
        <time>2013-10-13T08:07:19Z</time>
      </trkpt>
      <trkpt lat="44.54548" lon="5.803">
        <ele>980.4</ele>
        <time>2013-10-13T08:07:21Z</time>
      </trkpt>
      <trkpt lat="44.54528" lon="5.8029">
        <ele>933.4</ele>
        <time>2013-10-13T08:07:48Z</time>
      </trkpt>
      <trkpt lat="44.54517" lon="5.80291">
        <ele>932.9</ele>
        <time>2013-10-13T08:07:51Z</time>
      </trkpt>
      <trkpt lat="44.54504" lon="5.80297">
        <ele>930.1</ele>
        <time>2013-10-13T08:07:54Z</time>
      </trkpt>
      <trkpt lat="44.54493" lon="5.80303">
        <ele>928.3</ele>
        <time>2013-10-13T08:07:57Z</time>
      </trkpt>
      <trkpt lat="44.54481" lon="5.80307">
        <ele>927.2</ele>
        <time>2013-10-13T08:08:00Z</time>
      </trkpt>
      <trkpt lat="44.54472" lon="5.80308">
        <ele>926.7</ele>
        <time>2013-10-13T08:08:02Z</time>
      </trkpt>
      <trkpt lat="44.5446" lon="5.80309">
        <ele>926.2</ele>
        <time>2013-10-13T08:08:04Z</time>
      </trkpt>
      <trkpt lat="44.54446" lon="5.803">
        <ele>924</ele>
        <time>2013-10-13T08:08:06Z</time>
      </trkpt>
      <trkpt lat="44.54434" lon="5.80291">
        <ele>922.5</ele>
        <time>2013-10-13T08:08:08Z</time>
      </trkpt>
      <trkpt lat="44.54424" lon="5.80278">
        <ele>921.2</ele>
        <time>2013-10-13T08:08:10Z</time>
      </trkpt>
      <trkpt lat="44.54415" lon="5.80265">
        <ele>920.4</ele>
        <time>2013-10-13T08:08:12Z</time>
      </trkpt>
      <trkpt lat="44.54409" lon="5.80251">
        <ele>919.3</ele>
        <time>2013-10-13T08:08:14Z</time>
      </trkpt>
      <trkpt lat="44.54403" lon="5.8024">
        <ele>918.3</ele>
        <time>2013-10-13T08:08:16Z</time>
      </trkpt>
      <trkpt lat="44.54395" lon="5.80233">
        <ele>915.9</ele>
        <time>2013-10-13T08:08:19Z</time>
      </trkpt>
      <trkpt lat="44.54387" lon="5.8024">
        <ele>914.4</ele>
        <time>2013-10-13T08:08:21Z</time>
      </trkpt>
      <trkpt lat="44.5436" lon="5.80262">
        <ele>911.7</ele>
        <time>2013-10-13T08:08:25Z</time>
      </trkpt>
      <trkpt lat="44.54345" lon="5.80272">
        <ele>910.1</ele>
        <time>2013-10-13T08:08:27Z</time>
      </trkpt>
      <trkpt lat="44.5433" lon="5.80281">
        <ele>908.7</ele>
        <time>2013-10-13T08:08:29Z</time>
      </trkpt>
      <trkpt lat="44.54316" lon="5.80288">
        <ele>907.8</ele>
        <time>2013-10-13T08:08:31Z</time>
      </trkpt>
      <trkpt lat="44.54301" lon="5.80295">
        <ele>907.1</ele>
        <time>2013-10-13T08:08:33Z</time>
      </trkpt>
      <trkpt lat="44.54285" lon="5.803">
        <ele>905.7</ele>
        <time>2013-10-13T08:08:35Z</time>
      </trkpt>
      <trkpt lat="44.54276" lon="5.80302">
        <ele>904.7</ele>
        <time>2013-10-13T08:08:36Z</time>
      </trkpt>
      <trkpt lat="44.54258" lon="5.80307">
        <ele>902.7</ele>
        <time>2013-10-13T08:08:38Z</time>
      </trkpt>
      <trkpt lat="44.54242" lon="5.80316">
        <ele>901</ele>
        <time>2013-10-13T08:08:40Z</time>
      </trkpt>
      <trkpt lat="44.54228" lon="5.80325">
        <ele>900</ele>
        <time>2013-10-13T08:08:42Z</time>
      </trkpt>
      <trkpt lat="44.54215" lon="5.80332">
        <ele>898.8</ele>
        <time>2013-10-13T08:08:44Z</time>
      </trkpt>
      <trkpt lat="44.54202" lon="5.80332">
        <ele>897.1</ele>
        <time>2013-10-13T08:08:46Z</time>
      </trkpt>
      <trkpt lat="44.54188" lon="5.80328">
        <ele>895.7</ele>
        <time>2013-10-13T08:08:48Z</time>
      </trkpt>
      <trkpt lat="44.54173" lon="5.80322">
        <ele>894.4</ele>
        <time>2013-10-13T08:08:50Z</time>
      </trkpt>
      <trkpt lat="44.54156" lon="5.80318">
        <ele>893</ele>
        <time>2013-10-13T08:08:52Z</time>
      </trkpt>
      <trkpt lat="44.54138" lon="5.80314">
        <ele>892.1</ele>
        <time>2013-10-13T08:08:54Z</time>
      </trkpt>
      <trkpt lat="44.54121" lon="5.80311">
        <ele>891.1</ele>
        <time>2013-10-13T08:08:56Z</time>
      </trkpt>
      <trkpt lat="44.54104" lon="5.8031">
        <ele>890.1</ele>
        <time>2013-10-13T08:08:58Z</time>
      </trkpt>
      <trkpt lat="44.54089" lon="5.8031">
        <ele>889</ele>
        <time>2013-10-13T08:09:00Z</time>
      </trkpt>
      <trkpt lat="44.54074" lon="5.80311">
        <ele>887.9</ele>
        <time>2013-10-13T08:09:02Z</time>
      </trkpt>
      <trkpt lat="44.5406" lon="5.80315">
        <ele>886.8</ele>
        <time>2013-10-13T08:09:04Z</time>
      </trkpt>
      <trkpt lat="44.54044" lon="5.80321">
        <ele>886.5</ele>
        <time>2013-10-13T08:09:06Z</time>
      </trkpt>
      <trkpt lat="44.54028" lon="5.80325">
        <ele>886.2</ele>
        <time>2013-10-13T08:09:08Z</time>
      </trkpt>
      <trkpt lat="44.54011" lon="5.80327">
        <ele>886</ele>
        <time>2013-10-13T08:09:10Z</time>
      </trkpt>
      <trkpt lat="44.53993" lon="5.80329">
        <ele>885.6</ele>
        <time>2013-10-13T08:09:12Z</time>
      </trkpt>
      <trkpt lat="44.53976" lon="5.8033">
        <ele>885.5</ele>
        <time>2013-10-13T08:09:14Z</time>
      </trkpt>
      <trkpt lat="44.53959" lon="5.80328">
        <ele>885.5</ele>
        <time>2013-10-13T08:09:16Z</time>
      </trkpt>
      <trkpt lat="44.53943" lon="5.80324">
        <ele>885.4</ele>
        <time>2013-10-13T08:09:18Z</time>
      </trkpt>
      <trkpt lat="44.53929" lon="5.80321">
        <ele>885.3</ele>
        <time>2013-10-13T08:09:20Z</time>
      </trkpt>
      <trkpt lat="44.53917" lon="5.80323">
        <ele>885.4</ele>
        <time>2013-10-13T08:09:22Z</time>
      </trkpt>
      <trkpt lat="44.539" lon="5.80334">
        <ele>885.8</ele>
        <time>2013-10-13T08:09:28Z</time>
      </trkpt>
      <trkpt lat="44.53891" lon="5.80325">
        <ele>885.9</ele>
        <time>2013-10-13T08:09:33Z</time>
      </trkpt>
      <trkpt lat="44.53883" lon="5.80316">
        <ele>885.9</ele>
        <time>2013-10-13T08:09:36Z</time>
      </trkpt>
      <trkpt lat="44.53875" lon="5.80307">
        <ele>885.9</ele>
        <time>2013-10-13T08:09:39Z</time>
      </trkpt>
      <trkpt lat="44.53865" lon="5.803">
        <ele>885.9</ele>
        <time>2013-10-13T08:09:42Z</time>
      </trkpt>
      <trkpt lat="44.53855" lon="5.80291">
        <ele>885.9</ele>
        <time>2013-10-13T08:09:45Z</time>
      </trkpt>
      <trkpt lat="44.53844" lon="5.80288">
        <ele>886</ele>
        <time>2013-10-13T08:09:48Z</time>
      </trkpt>
      <trkpt lat="44.53835" lon="5.8029">
        <ele>886</ele>
        <time>2013-10-13T08:09:51Z</time>
      </trkpt>
      <trkpt lat="44.53825" lon="5.80296">
        <ele>886</ele>
        <time>2013-10-13T08:09:54Z</time>
      </trkpt>
      <trkpt lat="44.53814" lon="5.803">
        <ele>886.1</ele>
        <time>2013-10-13T08:09:57Z</time>
      </trkpt>
      <trkpt lat="44.53803" lon="5.80302">
        <ele>886.1</ele>
        <time>2013-10-13T08:10:00Z</time>
      </trkpt>
      <trkpt lat="44.53789" lon="5.80302">
        <ele>886.1</ele>
        <time>2013-10-13T08:10:03Z</time>
      </trkpt>
      <trkpt lat="44.5378" lon="5.803">
        <ele>886.1</ele>
        <time>2013-10-13T08:10:05Z</time>
      </trkpt>
      <trkpt lat="44.5377" lon="5.80297">
        <ele>886.1</ele>
        <time>2013-10-13T08:10:07Z</time>
      </trkpt>
      <trkpt lat="44.53761" lon="5.80294">
        <ele>886.1</ele>
        <time>2013-10-13T08:10:09Z</time>
      </trkpt>
      <trkpt lat="44.53751" lon="5.8029">
        <ele>886.1</ele>
        <time>2013-10-13T08:10:11Z</time>
      </trkpt>
      <trkpt lat="44.5374" lon="5.80286">
        <ele>886</ele>
        <time>2013-10-13T08:10:13Z</time>
      </trkpt>
      <trkpt lat="44.53727" lon="5.8028">
        <ele>886</ele>
        <time>2013-10-13T08:10:15Z</time>
      </trkpt>
      <trkpt lat="44.53715" lon="5.80275">
        <ele>885.9</ele>
        <time>2013-10-13T08:10:17Z</time>
      </trkpt>
      <trkpt lat="44.53705" lon="5.80268">
        <ele>885.3</ele>
        <time>2013-10-13T08:10:19Z</time>
      </trkpt>
      <trkpt lat="44.53694" lon="5.80262">
        <ele>883.9</ele>
        <time>2013-10-13T08:10:21Z</time>
      </trkpt>
      <trkpt lat="44.53683" lon="5.80256">
        <ele>881.2</ele>
        <time>2013-10-13T08:10:23Z</time>
      </trkpt>
      <trkpt lat="44.5366" lon="5.80245">
        <ele>876.1</ele>
        <time>2013-10-13T08:10:27Z</time>
      </trkpt>
      <trkpt lat="44.53647" lon="5.80241">
        <ele>873.8</ele>
        <time>2013-10-13T08:10:29Z</time>
      </trkpt>
      <trkpt lat="44.53633" lon="5.80237">
        <ele>871.9</ele>
        <time>2013-10-13T08:10:31Z</time>
      </trkpt>
      <trkpt lat="44.5362" lon="5.80234">
        <ele>870.2</ele>
        <time>2013-10-13T08:10:33Z</time>
      </trkpt>
      <trkpt lat="44.53607" lon="5.8023">
        <ele>868.7</ele>
        <time>2013-10-13T08:10:35Z</time>
      </trkpt>
      <trkpt lat="44.53593" lon="5.80227">
        <ele>866.5</ele>
        <time>2013-10-13T08:10:37Z</time>
      </trkpt>
      <trkpt lat="44.5358" lon="5.80226">
        <ele>864.9</ele>
        <time>2013-10-13T08:10:39Z</time>
      </trkpt>
      <trkpt lat="44.53568" lon="5.80226">
        <ele>863.6</ele>
        <time>2013-10-13T08:10:41Z</time>
      </trkpt>
      <trkpt lat="44.53556" lon="5.80227">
        <ele>863</ele>
        <time>2013-10-13T08:10:43Z</time>
      </trkpt>
      <trkpt lat="44.53544" lon="5.80228">
        <ele>861.6</ele>
        <time>2013-10-13T08:10:45Z</time>
      </trkpt>
      <trkpt lat="44.53531" lon="5.8023">
        <ele>859.9</ele>
        <time>2013-10-13T08:10:47Z</time>
      </trkpt>
      <trkpt lat="44.53518" lon="5.80234">
        <ele>858.9</ele>
        <time>2013-10-13T08:10:49Z</time>
      </trkpt>
      <trkpt lat="44.53505" lon="5.80241">
        <ele>858.1</ele>
        <time>2013-10-13T08:10:51Z</time>
      </trkpt>
      <trkpt lat="44.53493" lon="5.8025">
        <ele>857.1</ele>
        <time>2013-10-13T08:10:53Z</time>
      </trkpt>
      <trkpt lat="44.53481" lon="5.80258">
        <ele>855.6</ele>
        <time>2013-10-13T08:10:55Z</time>
      </trkpt>
      <trkpt lat="44.53469" lon="5.80267">
        <ele>854.6</ele>
        <time>2013-10-13T08:10:57Z</time>
      </trkpt>
      <trkpt lat="44.53456" lon="5.80276">
        <ele>853.5</ele>
        <time>2013-10-13T08:10:59Z</time>
      </trkpt>
      <trkpt lat="44.53443" lon="5.80285">
        <ele>852.7</ele>
        <time>2013-10-13T08:11:01Z</time>
      </trkpt>
      <trkpt lat="44.5343" lon="5.80294">
        <ele>852.1</ele>
        <time>2013-10-13T08:11:03Z</time>
      </trkpt>
      <trkpt lat="44.53417" lon="5.80303">
        <ele>851.1</ele>
        <time>2013-10-13T08:11:05Z</time>
      </trkpt>
      <trkpt lat="44.53403" lon="5.80311">
        <ele>849.9</ele>
        <time>2013-10-13T08:11:07Z</time>
      </trkpt>
      <trkpt lat="44.5339" lon="5.80319">
        <ele>848.9</ele>
        <time>2013-10-13T08:11:09Z</time>
      </trkpt>
      <trkpt lat="44.53376" lon="5.80328">
        <ele>848.2</ele>
        <time>2013-10-13T08:11:11Z</time>
      </trkpt>
      <trkpt lat="44.53362" lon="5.80337">
        <ele>847.6</ele>
        <time>2013-10-13T08:11:13Z</time>
      </trkpt>
      <trkpt lat="44.5335" lon="5.80345">
        <ele>846.9</ele>
        <time>2013-10-13T08:11:15Z</time>
      </trkpt>
      <trkpt lat="44.53342" lon="5.80352">
        <ele>845.7</ele>
        <time>2013-10-13T08:11:19Z</time>
      </trkpt>
      <trkpt lat="44.53333" lon="5.80349">
        <ele>844.8</ele>
        <time>2013-10-13T08:12:31Z</time>
      </trkpt>
      <trkpt lat="44.53322" lon="5.80319">
        <ele>841.4</ele>
        <time>2013-10-13T08:13:00Z</time>
      </trkpt>
      <trkpt lat="44.53321" lon="5.80303">
        <ele>841.5</ele>
        <time>2013-10-13T08:13:03Z</time>
      </trkpt>
      <trkpt lat="44.53321" lon="5.80287">
        <ele>842.2</ele>
        <time>2013-10-13T08:13:08Z</time>
      </trkpt>
      <trkpt lat="44.53321" lon="5.80274">
        <ele>842</ele>
        <time>2013-10-13T08:13:11Z</time>
      </trkpt>
      <trkpt lat="44.53318" lon="5.80262">
        <ele>841.8</ele>
        <time>2013-10-13T08:13:15Z</time>
      </trkpt>
      <trkpt lat="44.53314" lon="5.8025">
        <ele>841.7</ele>
        <time>2013-10-13T08:13:28Z</time>
      </trkpt>
      <trkpt lat="44.53319" lon="5.80239">
        <ele>842.2</ele>
        <time>2013-10-13T08:13:32Z</time>
      </trkpt>
      <trkpt lat="44.53338" lon="5.80228">
        <ele>841.3</ele>
        <time>2013-10-13T08:13:37Z</time>
      </trkpt>
      <trkpt lat="44.53349" lon="5.80223">
        <ele>841.4</ele>
        <time>2013-10-13T08:13:40Z</time>
      </trkpt>
      <trkpt lat="44.53358" lon="5.80219">
        <ele>841.5</ele>
        <time>2013-10-13T08:13:43Z</time>
      </trkpt>
      <trkpt lat="44.5337" lon="5.80217">
        <ele>841.1</ele>
        <time>2013-10-13T08:13:47Z</time>
      </trkpt>
      <trkpt lat="44.5338" lon="5.80215">
        <ele>840.5</ele>
        <time>2013-10-13T08:13:51Z</time>
      </trkpt>
      <trkpt lat="44.5339" lon="5.80211">
        <ele>840.3</ele>
        <time>2013-10-13T08:13:56Z</time>
      </trkpt>
      <trkpt lat="44.53399" lon="5.80204">
        <ele>840.4</ele>
        <time>2013-10-13T08:14:00Z</time>
      </trkpt>
      <trkpt lat="44.53407" lon="5.80195">
        <ele>840.8</ele>
        <time>2013-10-13T08:14:04Z</time>
      </trkpt>
      <trkpt lat="44.53413" lon="5.80185">
        <ele>841</ele>
        <time>2013-10-13T08:14:10Z</time>
      </trkpt>
      <trkpt lat="44.5342" lon="5.80174">
        <ele>841.7</ele>
        <time>2013-10-13T08:14:16Z</time>
      </trkpt>
      <trkpt lat="44.53425" lon="5.80161">
        <ele>842</ele>
        <time>2013-10-13T08:14:21Z</time>
      </trkpt>
      <trkpt lat="44.53431" lon="5.80151">
        <ele>842.7</ele>
        <time>2013-10-13T08:14:26Z</time>
      </trkpt>
      <trkpt lat="44.53438" lon="5.8014">
        <ele>842.8</ele>
        <time>2013-10-13T08:14:31Z</time>
      </trkpt>
      <trkpt lat="44.53444" lon="5.80129">
        <ele>842.8</ele>
        <time>2013-10-13T08:14:39Z</time>
      </trkpt>
      <trkpt lat="44.53451" lon="5.80104">
        <ele>842.8</ele>
        <time>2013-10-13T08:14:49Z</time>
      </trkpt>
      <trkpt lat="44.53455" lon="5.80091">
        <ele>842.8</ele>
        <time>2013-10-13T08:14:58Z</time>
      </trkpt>
      <trkpt lat="44.5346" lon="5.80081">
        <ele>843.4</ele>
        <time>2013-10-13T08:15:10Z</time>
      </trkpt>
      <trkpt lat="44.53464" lon="5.80069">
        <ele>843.8</ele>
        <time>2013-10-13T08:15:13Z</time>
      </trkpt>
      <trkpt lat="44.5347" lon="5.80056">
        <ele>843.8</ele>
        <time>2013-10-13T08:15:17Z</time>
      </trkpt>
      <trkpt lat="44.53475" lon="5.80043">
        <ele>843.8</ele>
        <time>2013-10-13T08:15:24Z</time>
      </trkpt>
      <trkpt lat="44.53479" lon="5.80029">
        <ele>847.6</ele>
        <time>2013-10-13T08:15:39Z</time>
      </trkpt>
      <trkpt lat="44.53485" lon="5.80017">
        <ele>848.1</ele>
        <time>2013-10-13T08:15:42Z</time>
      </trkpt>
      <trkpt lat="44.53493" lon="5.79994">
        <ele>848.1</ele>
        <time>2013-10-13T08:15:54Z</time>
      </trkpt>
      <trkpt lat="44.53499" lon="5.79982">
        <ele>861.3</ele>
        <time>2013-10-13T08:16:13Z</time>
      </trkpt>
      <trkpt lat="44.53507" lon="5.79973">
        <ele>861.1</ele>
        <time>2013-10-13T08:16:23Z</time>
      </trkpt>
      <trkpt lat="44.53513" lon="5.79963">
        <ele>861.1</ele>
        <time>2013-10-13T08:16:29Z</time>
      </trkpt>
      <trkpt lat="44.53521" lon="5.79957">
        <ele>861.1</ele>
        <time>2013-10-13T08:16:37Z</time>
      </trkpt>
      <trkpt lat="44.53529" lon="5.7995">
        <ele>861.1</ele>
        <time>2013-10-13T08:16:48Z</time>
      </trkpt>
      <trkpt lat="44.5354" lon="5.79925">
        <ele>867.6</ele>
        <time>2013-10-13T08:17:04Z</time>
      </trkpt>
      <trkpt lat="44.53546" lon="5.79915">
        <ele>867.6</ele>
        <time>2013-10-13T08:17:25Z</time>
      </trkpt>
      <trkpt lat="44.53552" lon="5.79906">
        <ele>867.6</ele>
        <time>2013-10-13T08:17:38Z</time>
      </trkpt>
      <trkpt lat="44.53551" lon="5.7989">
        <ele>881.1</ele>
        <time>2013-10-13T08:17:59Z</time>
      </trkpt>
      <trkpt lat="44.53548" lon="5.79864">
        <ele>881.4</ele>
        <time>2013-10-13T08:18:10Z</time>
      </trkpt>
      <trkpt lat="44.53548" lon="5.79851">
        <ele>881.4</ele>
        <time>2013-10-13T08:18:20Z</time>
      </trkpt>
      <trkpt lat="44.53547" lon="5.79838">
        <ele>881.4</ele>
        <time>2013-10-13T08:18:40Z</time>
      </trkpt>
      <trkpt lat="44.53552" lon="5.79825">
        <ele>887.1</ele>
        <time>2013-10-13T08:18:53Z</time>
      </trkpt>
      <trkpt lat="44.53557" lon="5.79815">
        <ele>887.3</ele>
        <time>2013-10-13T08:19:00Z</time>
      </trkpt>
      <trkpt lat="44.53568" lon="5.79793">
        <ele>887.3</ele>
        <time>2013-10-13T08:19:26Z</time>
      </trkpt>
      <trkpt lat="44.53574" lon="5.79783">
        <ele>895.2</ele>
        <time>2013-10-13T08:19:47Z</time>
      </trkpt>
      <trkpt lat="44.53579" lon="5.79772">
        <ele>895.2</ele>
        <time>2013-10-13T08:19:53Z</time>
      </trkpt>
      <trkpt lat="44.53585" lon="5.79761">
        <ele>895.2</ele>
        <time>2013-10-13T08:20:04Z</time>
      </trkpt>
      <trkpt lat="44.53592" lon="5.79738">
        <ele>903.9</ele>
        <time>2013-10-13T08:20:39Z</time>
      </trkpt>
      <trkpt lat="44.53591" lon="5.79724">
        <ele>903.8</ele>
        <time>2013-10-13T08:20:53Z</time>
      </trkpt>
      <trkpt lat="44.5359" lon="5.79709">
        <ele>903.8</ele>
        <time>2013-10-13T08:21:01Z</time>
      </trkpt>
      <trkpt lat="44.53588" lon="5.79693">
        <ele>907.9</ele>
        <time>2013-10-13T08:21:11Z</time>
      </trkpt>
      <trkpt lat="44.5359" lon="5.79665">
        <ele>908.2</ele>
        <time>2013-10-13T08:21:25Z</time>
      </trkpt>
      <trkpt lat="44.53594" lon="5.79651">
        <ele>908.3</ele>
        <time>2013-10-13T08:21:29Z</time>
      </trkpt>
      <trkpt lat="44.53599" lon="5.79639">
        <ele>908.6</ele>
        <time>2013-10-13T08:21:34Z</time>
      </trkpt>
      <trkpt lat="44.53605" lon="5.79628">
        <ele>909</ele>
        <time>2013-10-13T08:21:39Z</time>
      </trkpt>
      <trkpt lat="44.53603" lon="5.79615">
        <ele>910.3</ele>
        <time>2013-10-13T08:21:45Z</time>
      </trkpt>
      <trkpt lat="44.53604" lon="5.79601">
        <ele>911.1</ele>
        <time>2013-10-13T08:21:54Z</time>
      </trkpt>
      <trkpt lat="44.53607" lon="5.7959">
        <ele>911.2</ele>
        <time>2013-10-13T08:22:06Z</time>
      </trkpt>
      <trkpt lat="44.53618" lon="5.79586">
        <ele>913.5</ele>
        <time>2013-10-13T08:22:23Z</time>
      </trkpt>
      <trkpt lat="44.53636" lon="5.7957">
        <ele>913</ele>
        <time>2013-10-13T08:22:32Z</time>
      </trkpt>
      <trkpt lat="44.53645" lon="5.79561">
        <ele>912.6</ele>
        <time>2013-10-13T08:22:36Z</time>
      </trkpt>
      <trkpt lat="44.53654" lon="5.79552">
        <ele>913</ele>
        <time>2013-10-13T08:22:40Z</time>
      </trkpt>
      <trkpt lat="44.53663" lon="5.79543">
        <ele>913.8</ele>
        <time>2013-10-13T08:22:44Z</time>
      </trkpt>
      <trkpt lat="44.53672" lon="5.79533">
        <ele>915.6</ele>
        <time>2013-10-13T08:22:48Z</time>
      </trkpt>
      <trkpt lat="44.5368" lon="5.79524">
        <ele>916</ele>
        <time>2013-10-13T08:22:52Z</time>
      </trkpt>
      <trkpt lat="44.53686" lon="5.79513">
        <ele>916.3</ele>
        <time>2013-10-13T08:22:56Z</time>
      </trkpt>
      <trkpt lat="44.53692" lon="5.79501">
        <ele>916.8</ele>
        <time>2013-10-13T08:23:00Z</time>
      </trkpt>
      <trkpt lat="44.53695" lon="5.79486">
        <ele>916</ele>
        <time>2013-10-13T08:23:04Z</time>
      </trkpt>
      <trkpt lat="44.53698" lon="5.79473">
        <ele>916.4</ele>
        <time>2013-10-13T08:23:07Z</time>
      </trkpt>
      <trkpt lat="44.53696" lon="5.79459">
        <ele>917.2</ele>
        <time>2013-10-13T08:23:10Z</time>
      </trkpt>
      <trkpt lat="44.53689" lon="5.7945">
        <ele>918.5</ele>
        <time>2013-10-13T08:23:14Z</time>
      </trkpt>
      <trkpt lat="44.53685" lon="5.79438">
        <ele>919.6</ele>
        <time>2013-10-13T08:23:19Z</time>
      </trkpt>
      <trkpt lat="44.53679" lon="5.79426">
        <ele>920.2</ele>
        <time>2013-10-13T08:23:26Z</time>
      </trkpt>
      <trkpt lat="44.53666" lon="5.79408">
        <ele>924.1</ele>
        <time>2013-10-13T08:23:37Z</time>
      </trkpt>
      <trkpt lat="44.53669" lon="5.79395">
        <ele>924.5</ele>
        <time>2013-10-13T08:23:44Z</time>
      </trkpt>
      <trkpt lat="44.53679" lon="5.79389">
        <ele>924.3</ele>
        <time>2013-10-13T08:23:49Z</time>
      </trkpt>
      <trkpt lat="44.53686" lon="5.79378">
        <ele>922.9</ele>
        <time>2013-10-13T08:23:54Z</time>
      </trkpt>
      <trkpt lat="44.53686" lon="5.79364">
        <ele>921.4</ele>
        <time>2013-10-13T08:24:03Z</time>
      </trkpt>
      <trkpt lat="44.53683" lon="5.79352">
        <ele>921.3</ele>
        <time>2013-10-13T08:24:07Z</time>
      </trkpt>
      <trkpt lat="44.53675" lon="5.79343">
        <ele>921.2</ele>
        <time>2013-10-13T08:24:10Z</time>
      </trkpt>
      <trkpt lat="44.5367" lon="5.79331">
        <ele>921.2</ele>
        <time>2013-10-13T08:24:16Z</time>
      </trkpt>
      <trkpt lat="44.53666" lon="5.79319">
        <ele>920.9</ele>
        <time>2013-10-13T08:24:21Z</time>
      </trkpt>
      <trkpt lat="44.53663" lon="5.79304">
        <ele>920.3</ele>
        <time>2013-10-13T08:24:25Z</time>
      </trkpt>
      <trkpt lat="44.53663" lon="5.79291">
        <ele>920.3</ele>
        <time>2013-10-13T08:24:36Z</time>
      </trkpt>
      <trkpt lat="44.5366" lon="5.79266">
        <ele>922.9</ele>
        <time>2013-10-13T08:24:49Z</time>
      </trkpt>
      <trkpt lat="44.53654" lon="5.79255">
        <ele>923.2</ele>
        <time>2013-10-13T08:24:53Z</time>
      </trkpt>
      <trkpt lat="44.53645" lon="5.79245">
        <ele>923</ele>
        <time>2013-10-13T08:24:56Z</time>
      </trkpt>
      <trkpt lat="44.53639" lon="5.79235">
        <ele>923</ele>
        <time>2013-10-13T08:25:03Z</time>
      </trkpt>
      <trkpt lat="44.53638" lon="5.79222">
        <ele>923</ele>
        <time>2013-10-13T08:25:13Z</time>
      </trkpt>
      <trkpt lat="44.53633" lon="5.7921">
        <ele>925.1</ele>
        <time>2013-10-13T08:25:17Z</time>
      </trkpt>
      <trkpt lat="44.53628" lon="5.79198">
        <ele>925.3</ele>
        <time>2013-10-13T08:25:23Z</time>
      </trkpt>
      <trkpt lat="44.5362" lon="5.7919">
        <ele>925.3</ele>
        <time>2013-10-13T08:25:29Z</time>
      </trkpt>
      <trkpt lat="44.53612" lon="5.79182">
        <ele>928.8</ele>
        <time>2013-10-13T08:25:41Z</time>
      </trkpt>
      <trkpt lat="44.53617" lon="5.79154">
        <ele>928.3</ele>
        <time>2013-10-13T08:25:51Z</time>
      </trkpt>
      <trkpt lat="44.5362" lon="5.79139">
        <ele>928.6</ele>
        <time>2013-10-13T08:25:56Z</time>
      </trkpt>
      <trkpt lat="44.5363" lon="5.79138">
        <ele>927.6</ele>
        <time>2013-10-13T08:26:05Z</time>
      </trkpt>
      <trkpt lat="44.53639" lon="5.79135">
        <ele>927.6</ele>
        <time>2013-10-13T08:26:38Z</time>
      </trkpt>
      <trkpt lat="44.53644" lon="5.79123">
        <ele>917</ele>
        <time>2013-10-13T08:27:09Z</time>
      </trkpt>
      <trkpt lat="44.53647" lon="5.79094">
        <ele>912.1</ele>
        <time>2013-10-13T08:27:21Z</time>
      </trkpt>
      <trkpt lat="44.53639" lon="5.79012">
        <ele>911.3</ele>
        <time>2013-10-13T08:27:23Z</time>
      </trkpt>
      <trkpt lat="44.5364" lon="5.78995">
        <ele>910.6</ele>
        <time>2013-10-13T08:27:27Z</time>
      </trkpt>
      <trkpt lat="44.53639" lon="5.78981">
        <ele>910.7</ele>
        <time>2013-10-13T08:27:31Z</time>
      </trkpt>
      <trkpt lat="44.53637" lon="5.78952">
        <ele>913.1</ele>
        <time>2013-10-13T08:27:55Z</time>
      </trkpt>
      <trkpt lat="44.53643" lon="5.78936">
        <ele>913.3</ele>
        <time>2013-10-13T08:28:01Z</time>
      </trkpt>
      <trkpt lat="44.53647" lon="5.78925">
        <ele>913.4</ele>
        <time>2013-10-13T08:28:04Z</time>
      </trkpt>
      <trkpt lat="44.53651" lon="5.78913">
        <ele>913.6</ele>
        <time>2013-10-13T08:28:12Z</time>
      </trkpt>
      <trkpt lat="44.53662" lon="5.7889">
        <ele>914.5</ele>
        <time>2013-10-13T08:28:41Z</time>
      </trkpt>
      <trkpt lat="44.53666" lon="5.78874">
        <ele>914.5</ele>
        <time>2013-10-13T08:28:45Z</time>
      </trkpt>
      <trkpt lat="44.53669" lon="5.78861">
        <ele>914.6</ele>
        <time>2013-10-13T08:28:48Z</time>
      </trkpt>
      <trkpt lat="44.53673" lon="5.78847">
        <ele>914.6</ele>
        <time>2013-10-13T08:28:51Z</time>
      </trkpt>
      <trkpt lat="44.53676" lon="5.78833">
        <ele>914.7</ele>
        <time>2013-10-13T08:28:54Z</time>
      </trkpt>
      <trkpt lat="44.53676" lon="5.7882">
        <ele>914.7</ele>
        <time>2013-10-13T08:28:57Z</time>
      </trkpt>
      <trkpt lat="44.53673" lon="5.78806">
        <ele>914.7</ele>
        <time>2013-10-13T08:29:01Z</time>
      </trkpt>
      <trkpt lat="44.5367" lon="5.78791">
        <ele>914.7</ele>
        <time>2013-10-13T08:29:05Z</time>
      </trkpt>
      <trkpt lat="44.53669" lon="5.78776">
        <ele>914.7</ele>
        <time>2013-10-13T08:29:09Z</time>
      </trkpt>
      <trkpt lat="44.53662" lon="5.7876">
        <ele>914.7</ele>
        <time>2013-10-13T08:29:11Z</time>
      </trkpt>
      <trkpt lat="44.53656" lon="5.78728">
        <ele>910.9</ele>
        <time>2013-10-13T08:29:28Z</time>
      </trkpt>
      <trkpt lat="44.53657" lon="5.78694">
        <ele>908.5</ele>
        <time>2013-10-13T08:29:36Z</time>
      </trkpt>
      <trkpt lat="44.53655" lon="5.7868">
        <ele>907.3</ele>
        <time>2013-10-13T08:29:39Z</time>
      </trkpt>
      <trkpt lat="44.53657" lon="5.78663">
        <ele>906.5</ele>
        <time>2013-10-13T08:29:43Z</time>
      </trkpt>
      <trkpt lat="44.53654" lon="5.78648">
        <ele>905.9</ele>
        <time>2013-10-13T08:29:46Z</time>
      </trkpt>
      <trkpt lat="44.53655" lon="5.78634">
        <ele>905.1</ele>
        <time>2013-10-13T08:29:49Z</time>
      </trkpt>
      <trkpt lat="44.53657" lon="5.78622">
        <ele>904.9</ele>
        <time>2013-10-13T08:29:52Z</time>
      </trkpt>
      <trkpt lat="44.53654" lon="5.78606">
        <ele>906.3</ele>
        <time>2013-10-13T08:29:56Z</time>
      </trkpt>
      <trkpt lat="44.53651" lon="5.78592">
        <ele>906.7</ele>
        <time>2013-10-13T08:30:05Z</time>
      </trkpt>
      <trkpt lat="44.53659" lon="5.78578">
        <ele>906.1</ele>
        <time>2013-10-13T08:30:08Z</time>
      </trkpt>
      <trkpt lat="44.53664" lon="5.78566">
        <ele>906</ele>
        <time>2013-10-13T08:30:11Z</time>
      </trkpt>
      <trkpt lat="44.53662" lon="5.78549">
        <ele>907</ele>
        <time>2013-10-13T08:30:15Z</time>
      </trkpt>
      <trkpt lat="44.53659" lon="5.78532">
        <ele>907.6</ele>
        <time>2013-10-13T08:30:18Z</time>
      </trkpt>
      <trkpt lat="44.5365" lon="5.78511">
        <ele>907.8</ele>
        <time>2013-10-13T08:30:19Z</time>
      </trkpt>
      <trkpt lat="44.53653" lon="5.78499">
        <ele>908.2</ele>
        <time>2013-10-13T08:30:21Z</time>
      </trkpt>
      <trkpt lat="44.53659" lon="5.78487">
        <ele>908.7</ele>
        <time>2013-10-13T08:30:24Z</time>
      </trkpt>
      <trkpt lat="44.53662" lon="5.78474">
        <ele>908.9</ele>
        <time>2013-10-13T08:30:26Z</time>
      </trkpt>
      <trkpt lat="44.53663" lon="5.78459">
        <ele>909.2</ele>
        <time>2013-10-13T08:30:28Z</time>
      </trkpt>
      <trkpt lat="44.53661" lon="5.7843">
        <ele>909.8</ele>
        <time>2013-10-13T08:30:34Z</time>
      </trkpt>
      <trkpt lat="44.53659" lon="5.78417">
        <ele>910</ele>
        <time>2013-10-13T08:30:37Z</time>
      </trkpt>
      <trkpt lat="44.53657" lon="5.78402">
        <ele>910.3</ele>
        <time>2013-10-13T08:30:40Z</time>
      </trkpt>
      <trkpt lat="44.53654" lon="5.78389">
        <ele>910.5</ele>
        <time>2013-10-13T08:30:43Z</time>
      </trkpt>
      <trkpt lat="44.53653" lon="5.78375">
        <ele>910.7</ele>
        <time>2013-10-13T08:30:46Z</time>
      </trkpt>
      <trkpt lat="44.53654" lon="5.78356">
        <ele>910.9</ele>
        <time>2013-10-13T08:30:49Z</time>
      </trkpt>
      <trkpt lat="44.53656" lon="5.78342">
        <ele>911</ele>
        <time>2013-10-13T08:30:51Z</time>
      </trkpt>
      <trkpt lat="44.53655" lon="5.78324">
        <ele>911.1</ele>
        <time>2013-10-13T08:30:53Z</time>
      </trkpt>
      <trkpt lat="44.53655" lon="5.78309">
        <ele>911.2</ele>
        <time>2013-10-13T08:30:55Z</time>
      </trkpt>
      <trkpt lat="44.53654" lon="5.78291">
        <ele>911.4</ele>
        <time>2013-10-13T08:30:58Z</time>
      </trkpt>
      <trkpt lat="44.53647" lon="5.78275">
        <ele>911.5</ele>
        <time>2013-10-13T08:31:01Z</time>
      </trkpt>
      <trkpt lat="44.53642" lon="5.78263">
        <ele>911.6</ele>
        <time>2013-10-13T08:31:03Z</time>
      </trkpt>
      <trkpt lat="44.53634" lon="5.78251">
        <ele>911.7</ele>
        <time>2013-10-13T08:31:06Z</time>
      </trkpt>
      <trkpt lat="44.53627" lon="5.78242">
        <ele>911.8</ele>
        <time>2013-10-13T08:31:09Z</time>
      </trkpt>
      <trkpt lat="44.53621" lon="5.78232">
        <ele>911.9</ele>
        <time>2013-10-13T08:31:12Z</time>
      </trkpt>
      <trkpt lat="44.53617" lon="5.78217">
        <ele>912.1</ele>
        <time>2013-10-13T08:31:17Z</time>
      </trkpt>
      <trkpt lat="44.53622" lon="5.78205">
        <ele>912.2</ele>
        <time>2013-10-13T08:31:22Z</time>
      </trkpt>
      <trkpt lat="44.53625" lon="5.78188">
        <ele>912.3</ele>
        <time>2013-10-13T08:31:27Z</time>
      </trkpt>
      <trkpt lat="44.53624" lon="5.78174">
        <ele>912.3</ele>
        <time>2013-10-13T08:31:30Z</time>
      </trkpt>
      <trkpt lat="44.53617" lon="5.78142">
        <ele>912.4</ele>
        <time>2013-10-13T08:31:36Z</time>
      </trkpt>
      <trkpt lat="44.5361" lon="5.78132">
        <ele>912.4</ele>
        <time>2013-10-13T08:31:39Z</time>
      </trkpt>
      <trkpt lat="44.53603" lon="5.7812">
        <ele>912.4</ele>
        <time>2013-10-13T08:31:42Z</time>
      </trkpt>
      <trkpt lat="44.53592" lon="5.7811">
        <ele>912.5</ele>
        <time>2013-10-13T08:31:45Z</time>
      </trkpt>
      <trkpt lat="44.53583" lon="5.78101">
        <ele>912.5</ele>
        <time>2013-10-13T08:31:47Z</time>
      </trkpt>
      <trkpt lat="44.53573" lon="5.78092">
        <ele>912.5</ele>
        <time>2013-10-13T08:31:49Z</time>
      </trkpt>
      <trkpt lat="44.53565" lon="5.78084">
        <ele>912.5</ele>
        <time>2013-10-13T08:31:51Z</time>
      </trkpt>
      <trkpt lat="44.53555" lon="5.78076">
        <ele>912.5</ele>
        <time>2013-10-13T08:31:54Z</time>
      </trkpt>
      <trkpt lat="44.53543" lon="5.78066">
        <ele>912.4</ele>
        <time>2013-10-13T08:32:29Z</time>
      </trkpt>
      <trkpt lat="44.53535" lon="5.78059">
        <ele>912.3</ele>
        <time>2013-10-13T08:32:33Z</time>
      </trkpt>
      <trkpt lat="44.53517" lon="5.78042">
        <ele>912.4</ele>
        <time>2013-10-13T08:32:41Z</time>
      </trkpt>
      <trkpt lat="44.53509" lon="5.78035">
        <ele>912.3</ele>
        <time>2013-10-13T08:32:44Z</time>
      </trkpt>
      <trkpt lat="44.535" lon="5.78028">
        <ele>912.4</ele>
        <time>2013-10-13T08:32:47Z</time>
      </trkpt>
      <trkpt lat="44.53491" lon="5.78019">
        <ele>912.4</ele>
        <time>2013-10-13T08:32:50Z</time>
      </trkpt>
      <trkpt lat="44.53481" lon="5.78011">
        <ele>912.4</ele>
        <time>2013-10-13T08:32:53Z</time>
      </trkpt>
      <trkpt lat="44.53472" lon="5.78002">
        <ele>912.4</ele>
        <time>2013-10-13T08:32:56Z</time>
      </trkpt>
      <trkpt lat="44.53462" lon="5.77993">
        <ele>912.4</ele>
        <time>2013-10-13T08:32:59Z</time>
      </trkpt>
      <trkpt lat="44.53451" lon="5.77985">
        <ele>912.4</ele>
        <time>2013-10-13T08:33:02Z</time>
      </trkpt>
      <trkpt lat="44.53441" lon="5.77978">
        <ele>912.3</ele>
        <time>2013-10-13T08:33:05Z</time>
      </trkpt>
      <trkpt lat="44.53433" lon="5.7797">
        <ele>912.4</ele>
        <time>2013-10-13T08:33:08Z</time>
      </trkpt>
      <trkpt lat="44.53424" lon="5.77963">
        <ele>912.4</ele>
        <time>2013-10-13T08:33:11Z</time>
      </trkpt>
      <trkpt lat="44.53415" lon="5.77953">
        <ele>912.4</ele>
        <time>2013-10-13T08:33:14Z</time>
      </trkpt>
      <trkpt lat="44.53406" lon="5.77941">
        <ele>912.4</ele>
        <time>2013-10-13T08:33:17Z</time>
      </trkpt>
      <trkpt lat="44.53398" lon="5.77929">
        <ele>912.4</ele>
        <time>2013-10-13T08:33:20Z</time>
      </trkpt>
      <trkpt lat="44.53389" lon="5.77919">
        <ele>912.3</ele>
        <time>2013-10-13T08:33:23Z</time>
      </trkpt>
      <trkpt lat="44.53379" lon="5.7791">
        <ele>912.3</ele>
        <time>2013-10-13T08:33:26Z</time>
      </trkpt>
      <trkpt lat="44.5337" lon="5.77899">
        <ele>912.3</ele>
        <time>2013-10-13T08:33:29Z</time>
      </trkpt>
      <trkpt lat="44.53363" lon="5.7789">
        <ele>912.3</ele>
        <time>2013-10-13T08:33:32Z</time>
      </trkpt>
      <trkpt lat="44.53355" lon="5.7788">
        <ele>912.4</ele>
        <time>2013-10-13T08:33:35Z</time>
      </trkpt>
      <trkpt lat="44.53339" lon="5.7786">
        <ele>912.4</ele>
        <time>2013-10-13T08:33:41Z</time>
      </trkpt>
      <trkpt lat="44.53332" lon="5.7785">
        <ele>912.4</ele>
        <time>2013-10-13T08:33:44Z</time>
      </trkpt>
      <trkpt lat="44.53324" lon="5.7784">
        <ele>912.4</ele>
        <time>2013-10-13T08:33:48Z</time>
      </trkpt>
      <trkpt lat="44.53315" lon="5.77831">
        <ele>912.4</ele>
        <time>2013-10-13T08:33:51Z</time>
      </trkpt>
      <trkpt lat="44.53304" lon="5.77822">
        <ele>912.4</ele>
        <time>2013-10-13T08:33:54Z</time>
      </trkpt>
      <trkpt lat="44.53294" lon="5.77814">
        <ele>912.5</ele>
        <time>2013-10-13T08:33:57Z</time>
      </trkpt>
      <trkpt lat="44.53285" lon="5.77807">
        <ele>912.5</ele>
        <time>2013-10-13T08:34:00Z</time>
      </trkpt>
      <trkpt lat="44.53276" lon="5.77799">
        <ele>912.4</ele>
        <time>2013-10-13T08:34:03Z</time>
      </trkpt>
      <trkpt lat="44.53268" lon="5.7779">
        <ele>912.4</ele>
        <time>2013-10-13T08:34:06Z</time>
      </trkpt>
      <trkpt lat="44.53261" lon="5.77781">
        <ele>912.3</ele>
        <time>2013-10-13T08:34:09Z</time>
      </trkpt>
      <trkpt lat="44.53251" lon="5.77772">
        <ele>912.3</ele>
        <time>2013-10-13T08:34:12Z</time>
      </trkpt>
      <trkpt lat="44.53241" lon="5.77765">
        <ele>912.3</ele>
        <time>2013-10-13T08:34:15Z</time>
      </trkpt>
      <trkpt lat="44.5323" lon="5.7776">
        <ele>912.3</ele>
        <time>2013-10-13T08:34:18Z</time>
      </trkpt>
      <trkpt lat="44.5322" lon="5.77757">
        <ele>912.3</ele>
        <time>2013-10-13T08:34:21Z</time>
      </trkpt>
      <trkpt lat="44.53208" lon="5.77756">
        <ele>912.3</ele>
        <time>2013-10-13T08:34:24Z</time>
      </trkpt>
      <trkpt lat="44.53195" lon="5.77754">
        <ele>912.3</ele>
        <time>2013-10-13T08:34:27Z</time>
      </trkpt>
      <trkpt lat="44.53185" lon="5.7775">
        <ele>912.3</ele>
        <time>2013-10-13T08:34:29Z</time>
      </trkpt>
      <trkpt lat="44.53176" lon="5.77742">
        <ele>912.3</ele>
        <time>2013-10-13T08:34:31Z</time>
      </trkpt>
      <trkpt lat="44.53167" lon="5.77734">
        <ele>912.2</ele>
        <time>2013-10-13T08:34:33Z</time>
      </trkpt>
      <trkpt lat="44.53158" lon="5.77725">
        <ele>912.2</ele>
        <time>2013-10-13T08:34:35Z</time>
      </trkpt>
      <trkpt lat="44.53141" lon="5.77709">
        <ele>912.1</ele>
        <time>2013-10-13T08:34:39Z</time>
      </trkpt>
      <trkpt lat="44.53132" lon="5.77702">
        <ele>912.2</ele>
        <time>2013-10-13T08:34:41Z</time>
      </trkpt>
      <trkpt lat="44.53125" lon="5.77695">
        <ele>912.2</ele>
        <time>2013-10-13T08:34:43Z</time>
      </trkpt>
      <trkpt lat="44.53117" lon="5.77686">
        <ele>912.1</ele>
        <time>2013-10-13T08:34:45Z</time>
      </trkpt>
      <trkpt lat="44.53109" lon="5.77675">
        <ele>912.1</ele>
        <time>2013-10-13T08:34:48Z</time>
      </trkpt>
      <trkpt lat="44.53101" lon="5.77662">
        <ele>912</ele>
        <time>2013-10-13T08:34:51Z</time>
      </trkpt>
      <trkpt lat="44.53094" lon="5.77653">
        <ele>912</ele>
        <time>2013-10-13T08:34:53Z</time>
      </trkpt>
      <trkpt lat="44.53086" lon="5.7764">
        <ele>911.9</ele>
        <time>2013-10-13T08:34:56Z</time>
      </trkpt>
      <trkpt lat="44.53077" lon="5.7763">
        <ele>912</ele>
        <time>2013-10-13T08:34:59Z</time>
      </trkpt>
      <trkpt lat="44.53069" lon="5.77622">
        <ele>911.9</ele>
        <time>2013-10-13T08:35:01Z</time>
      </trkpt>
      <trkpt lat="44.53061" lon="5.77613">
        <ele>911.8</ele>
        <time>2013-10-13T08:35:03Z</time>
      </trkpt>
      <trkpt lat="44.53049" lon="5.77604">
        <ele>911.8</ele>
        <time>2013-10-13T08:35:06Z</time>
      </trkpt>
      <trkpt lat="44.53039" lon="5.77592">
        <ele>911.7</ele>
        <time>2013-10-13T08:35:09Z</time>
      </trkpt>
      <trkpt lat="44.53031" lon="5.77579">
        <ele>911.7</ele>
        <time>2013-10-13T08:35:12Z</time>
      </trkpt>
      <trkpt lat="44.53028" lon="5.77568">
        <ele>911.6</ele>
        <time>2013-10-13T08:35:14Z</time>
      </trkpt>
      <trkpt lat="44.53023" lon="5.77556">
        <ele>911.6</ele>
        <time>2013-10-13T08:35:16Z</time>
      </trkpt>
      <trkpt lat="44.53019" lon="5.77542">
        <ele>911.7</ele>
        <time>2013-10-13T08:35:18Z</time>
      </trkpt>
      <trkpt lat="44.53013" lon="5.77529">
        <ele>911.7</ele>
        <time>2013-10-13T08:35:20Z</time>
      </trkpt>
      <trkpt lat="44.53006" lon="5.77516">
        <ele>911.7</ele>
        <time>2013-10-13T08:35:22Z</time>
      </trkpt>
      <trkpt lat="44.52998" lon="5.77504">
        <ele>911.7</ele>
        <time>2013-10-13T08:35:24Z</time>
      </trkpt>
      <trkpt lat="44.52989" lon="5.77496">
        <ele>911.7</ele>
        <time>2013-10-13T08:35:26Z</time>
      </trkpt>
      <trkpt lat="44.52976" lon="5.77491">
        <ele>911.7</ele>
        <time>2013-10-13T08:35:29Z</time>
      </trkpt>
      <trkpt lat="44.52965" lon="5.77485">
        <ele>911.7</ele>
        <time>2013-10-13T08:35:32Z</time>
      </trkpt>
      <trkpt lat="44.52954" lon="5.77475">
        <ele>911.6</ele>
        <time>2013-10-13T08:35:35Z</time>
      </trkpt>
      <trkpt lat="44.52948" lon="5.77467">
        <ele>911.6</ele>
        <time>2013-10-13T08:35:37Z</time>
      </trkpt>
      <trkpt lat="44.52931" lon="5.77445">
        <ele>911.6</ele>
        <time>2013-10-13T08:35:42Z</time>
      </trkpt>
      <trkpt lat="44.52925" lon="5.77431">
        <ele>911.7</ele>
        <time>2013-10-13T08:35:45Z</time>
      </trkpt>
      <trkpt lat="44.52917" lon="5.77418">
        <ele>911.6</ele>
        <time>2013-10-13T08:35:48Z</time>
      </trkpt>
      <trkpt lat="44.52908" lon="5.77406">
        <ele>911.5</ele>
        <time>2013-10-13T08:35:51Z</time>
      </trkpt>
      <trkpt lat="44.52897" lon="5.774">
        <ele>911.5</ele>
        <time>2013-10-13T08:35:55Z</time>
      </trkpt>
      <trkpt lat="44.52886" lon="5.77398">
        <ele>911.5</ele>
        <time>2013-10-13T08:35:58Z</time>
      </trkpt>
      <trkpt lat="44.52873" lon="5.77397">
        <ele>911.6</ele>
        <time>2013-10-13T08:36:01Z</time>
      </trkpt>
      <trkpt lat="44.52864" lon="5.77395">
        <ele>911.6</ele>
        <time>2013-10-13T08:36:03Z</time>
      </trkpt>
      <trkpt lat="44.52854" lon="5.77391">
        <ele>911.5</ele>
        <time>2013-10-13T08:36:05Z</time>
      </trkpt>
      <trkpt lat="44.52845" lon="5.77385">
        <ele>911.5</ele>
        <time>2013-10-13T08:36:07Z</time>
      </trkpt>
      <trkpt lat="44.52837" lon="5.77379">
        <ele>911.4</ele>
        <time>2013-10-13T08:36:09Z</time>
      </trkpt>
      <trkpt lat="44.52829" lon="5.77372">
        <ele>911.4</ele>
        <time>2013-10-13T08:36:11Z</time>
      </trkpt>
      <trkpt lat="44.52821" lon="5.77365">
        <ele>911.4</ele>
        <time>2013-10-13T08:36:13Z</time>
      </trkpt>
      <trkpt lat="44.5281" lon="5.77355">
        <ele>911.4</ele>
        <time>2013-10-13T08:36:16Z</time>
      </trkpt>
      <trkpt lat="44.52799" lon="5.77348">
        <ele>911.4</ele>
        <time>2013-10-13T08:36:19Z</time>
      </trkpt>
      <trkpt lat="44.52787" lon="5.77341">
        <ele>911.4</ele>
        <time>2013-10-13T08:36:22Z</time>
      </trkpt>
      <trkpt lat="44.52775" lon="5.77336">
        <ele>911.3</ele>
        <time>2013-10-13T08:36:25Z</time>
      </trkpt>
      <trkpt lat="44.52763" lon="5.77332">
        <ele>911.2</ele>
        <time>2013-10-13T08:36:28Z</time>
      </trkpt>
      <trkpt lat="44.52752" lon="5.77328">
        <ele>911.1</ele>
        <time>2013-10-13T08:36:31Z</time>
      </trkpt>
      <trkpt lat="44.52741" lon="5.77324">
        <ele>911.1</ele>
        <time>2013-10-13T08:36:34Z</time>
      </trkpt>
      <trkpt lat="44.52733" lon="5.77319">
        <ele>911.1</ele>
        <time>2013-10-13T08:36:36Z</time>
      </trkpt>
      <trkpt lat="44.52727" lon="5.7731">
        <ele>911</ele>
        <time>2013-10-13T08:36:39Z</time>
      </trkpt>
      <trkpt lat="44.52744" lon="5.77282">
        <ele>908.7</ele>
        <time>2013-10-13T08:36:44Z</time>
      </trkpt>
      <trkpt lat="44.52752" lon="5.77269">
        <ele>908</ele>
        <time>2013-10-13T08:36:46Z</time>
      </trkpt>
      <trkpt lat="44.52762" lon="5.77255">
        <ele>907.2</ele>
        <time>2013-10-13T08:36:48Z</time>
      </trkpt>
      <trkpt lat="44.52772" lon="5.77241">
        <ele>906.6</ele>
        <time>2013-10-13T08:36:50Z</time>
      </trkpt>
      <trkpt lat="44.52783" lon="5.77225">
        <ele>905.9</ele>
        <time>2013-10-13T08:36:52Z</time>
      </trkpt>
      <trkpt lat="44.52794" lon="5.77209">
        <ele>905.1</ele>
        <time>2013-10-13T08:36:54Z</time>
      </trkpt>
      <trkpt lat="44.52806" lon="5.77193">
        <ele>903.9</ele>
        <time>2013-10-13T08:36:56Z</time>
      </trkpt>
      <trkpt lat="44.5282" lon="5.77176">
        <ele>902.9</ele>
        <time>2013-10-13T08:36:58Z</time>
      </trkpt>
      <trkpt lat="44.52827" lon="5.77168">
        <ele>902</ele>
        <time>2013-10-13T08:36:59Z</time>
      </trkpt>
      <trkpt lat="44.52839" lon="5.77151">
        <ele>900.8</ele>
        <time>2013-10-13T08:37:01Z</time>
      </trkpt>
      <trkpt lat="44.52847" lon="5.77132">
        <ele>899.3</ele>
        <time>2013-10-13T08:37:03Z</time>
      </trkpt>
      <trkpt lat="44.52851" lon="5.7711">
        <ele>898.4</ele>
        <time>2013-10-13T08:37:05Z</time>
      </trkpt>
      <trkpt lat="44.52854" lon="5.77089">
        <ele>898.6</ele>
        <time>2013-10-13T08:37:07Z</time>
      </trkpt>
      <trkpt lat="44.52854" lon="5.7707">
        <ele>898.9</ele>
        <time>2013-10-13T08:37:09Z</time>
      </trkpt>
      <trkpt lat="44.52855" lon="5.77053">
        <ele>898.2</ele>
        <time>2013-10-13T08:37:11Z</time>
      </trkpt>
      <trkpt lat="44.52856" lon="5.77037">
        <ele>897.3</ele>
        <time>2013-10-13T08:37:13Z</time>
      </trkpt>
      <trkpt lat="44.52854" lon="5.77024">
        <ele>896.8</ele>
        <time>2013-10-13T08:37:15Z</time>
      </trkpt>
      <trkpt lat="44.52861" lon="5.77016">
        <ele>896</ele>
        <time>2013-10-13T08:37:19Z</time>
      </trkpt>
      <trkpt lat="44.52869" lon="5.77005">
        <ele>895.1</ele>
        <time>2013-10-13T08:37:24Z</time>
      </trkpt>
      <trkpt lat="44.52882" lon="5.77005">
        <ele>892</ele>
        <time>2013-10-13T08:37:28Z</time>
      </trkpt>
      <trkpt lat="44.52889" lon="5.77013">
        <ele>891.5</ele>
        <time>2013-10-13T08:37:31Z</time>
      </trkpt>
      <trkpt lat="44.52897" lon="5.77019">
        <ele>880.9</ele>
        <time>2013-10-13T08:37:33Z</time>
      </trkpt>
      <trkpt lat="44.52908" lon="5.77027">
        <ele>869.4</ele>
        <time>2013-10-13T08:37:35Z</time>
      </trkpt>
      <trkpt lat="44.52917" lon="5.77035">
        <ele>861.5</ele>
        <time>2013-10-13T08:37:37Z</time>
      </trkpt>
      <trkpt lat="44.52926" lon="5.77048">
        <ele>855.5</ele>
        <time>2013-10-13T08:37:40Z</time>
      </trkpt>
      <trkpt lat="44.52948" lon="5.77068">
        <ele>839.6</ele>
        <time>2013-10-13T08:37:46Z</time>
      </trkpt>
      <trkpt lat="44.52959" lon="5.77079">
        <ele>831.8</ele>
        <time>2013-10-13T08:37:49Z</time>
      </trkpt>
      <trkpt lat="44.52966" lon="5.77086">
        <ele>826.7</ele>
        <time>2013-10-13T08:37:51Z</time>
      </trkpt>
      <trkpt lat="44.52974" lon="5.77095">
        <ele>818.8</ele>
        <time>2013-10-13T08:37:53Z</time>
      </trkpt>
      <trkpt lat="44.52983" lon="5.77102">
        <ele>809.4</ele>
        <time>2013-10-13T08:37:55Z</time>
      </trkpt>
      <trkpt lat="44.5299" lon="5.77111">
        <ele>803.6</ele>
        <time>2013-10-13T08:37:57Z</time>
      </trkpt>
      <trkpt lat="44.53" lon="5.77121">
        <ele>797.4</ele>
        <time>2013-10-13T08:38:00Z</time>
      </trkpt>
      <trkpt lat="44.53008" lon="5.77133">
        <ele>793.7</ele>
        <time>2013-10-13T08:38:03Z</time>
      </trkpt>
      <trkpt lat="44.53018" lon="5.77143">
        <ele>791</ele>
        <time>2013-10-13T08:38:06Z</time>
      </trkpt>
      <trkpt lat="44.53027" lon="5.77154">
        <ele>789.2</ele>
        <time>2013-10-13T08:38:09Z</time>
      </trkpt>
      <trkpt lat="44.53036" lon="5.77165">
        <ele>787.6</ele>
        <time>2013-10-13T08:38:12Z</time>
      </trkpt>
      <trkpt lat="44.53046" lon="5.77176">
        <ele>786.2</ele>
        <time>2013-10-13T08:38:15Z</time>
      </trkpt>
      <trkpt lat="44.53056" lon="5.77187">
        <ele>785</ele>
        <time>2013-10-13T08:38:18Z</time>
      </trkpt>
      <trkpt lat="44.53067" lon="5.77199">
        <ele>784.8</ele>
        <time>2013-10-13T08:38:21Z</time>
      </trkpt>
      <trkpt lat="44.53077" lon="5.7721">
        <ele>784.7</ele>
        <time>2013-10-13T08:38:24Z</time>
      </trkpt>
      <trkpt lat="44.53084" lon="5.77219">
        <ele>784.7</ele>
        <time>2013-10-13T08:38:26Z</time>
      </trkpt>
      <trkpt lat="44.53091" lon="5.77228">
        <ele>784.5</ele>
        <time>2013-10-13T08:38:28Z</time>
      </trkpt>
      <trkpt lat="44.53101" lon="5.77239">
        <ele>784.6</ele>
        <time>2013-10-13T08:38:31Z</time>
      </trkpt>
      <trkpt lat="44.5311" lon="5.7725">
        <ele>784.4</ele>
        <time>2013-10-13T08:38:34Z</time>
      </trkpt>
      <trkpt lat="44.53118" lon="5.77261">
        <ele>783.8</ele>
        <time>2013-10-13T08:38:37Z</time>
      </trkpt>
      <trkpt lat="44.53126" lon="5.77275">
        <ele>784.2</ele>
        <time>2013-10-13T08:38:40Z</time>
      </trkpt>
      <trkpt lat="44.53135" lon="5.77287">
        <ele>783.9</ele>
        <time>2013-10-13T08:38:43Z</time>
      </trkpt>
      <trkpt lat="44.53153" lon="5.77306">
        <ele>783.6</ele>
        <time>2013-10-13T08:38:48Z</time>
      </trkpt>
      <trkpt lat="44.53162" lon="5.77319">
        <ele>784.3</ele>
        <time>2013-10-13T08:38:51Z</time>
      </trkpt>
      <trkpt lat="44.53171" lon="5.77333">
        <ele>784.9</ele>
        <time>2013-10-13T08:38:54Z</time>
      </trkpt>
      <trkpt lat="44.53177" lon="5.77342">
        <ele>784.6</ele>
        <time>2013-10-13T08:38:56Z</time>
      </trkpt>
      <trkpt lat="44.53184" lon="5.77351">
        <ele>784.2</ele>
        <time>2013-10-13T08:38:58Z</time>
      </trkpt>
      <trkpt lat="44.53191" lon="5.77361">
        <ele>784</ele>
        <time>2013-10-13T08:39:00Z</time>
      </trkpt>
      <trkpt lat="44.53198" lon="5.77369">
        <ele>784.3</ele>
        <time>2013-10-13T08:39:02Z</time>
      </trkpt>
      <trkpt lat="44.53206" lon="5.77379">
        <ele>784.3</ele>
        <time>2013-10-13T08:39:05Z</time>
      </trkpt>
      <trkpt lat="44.53213" lon="5.7739">
        <ele>784.2</ele>
        <time>2013-10-13T08:39:07Z</time>
      </trkpt>
      <trkpt lat="44.5322" lon="5.77401">
        <ele>783.7</ele>
        <time>2013-10-13T08:39:09Z</time>
      </trkpt>
      <trkpt lat="44.53228" lon="5.7741">
        <ele>783.6</ele>
        <time>2013-10-13T08:39:11Z</time>
      </trkpt>
      <trkpt lat="44.53236" lon="5.77417">
        <ele>784</ele>
        <time>2013-10-13T08:39:13Z</time>
      </trkpt>
      <trkpt lat="44.53246" lon="5.77431">
        <ele>783.7</ele>
        <time>2013-10-13T08:39:16Z</time>
      </trkpt>
      <trkpt lat="44.53255" lon="5.77444">
        <ele>784.2</ele>
        <time>2013-10-13T08:39:19Z</time>
      </trkpt>
      <trkpt lat="44.53265" lon="5.77456">
        <ele>784</ele>
        <time>2013-10-13T08:39:22Z</time>
      </trkpt>
      <trkpt lat="44.53271" lon="5.77466">
        <ele>783.8</ele>
        <time>2013-10-13T08:39:24Z</time>
      </trkpt>
      <trkpt lat="44.53281" lon="5.77477">
        <ele>783</ele>
        <time>2013-10-13T08:39:27Z</time>
      </trkpt>
      <trkpt lat="44.5329" lon="5.77489">
        <ele>782.6</ele>
        <time>2013-10-13T08:39:30Z</time>
      </trkpt>
      <trkpt lat="44.53299" lon="5.77498">
        <ele>782.7</ele>
        <time>2013-10-13T08:39:32Z</time>
      </trkpt>
      <trkpt lat="44.53307" lon="5.77508">
        <ele>783.3</ele>
        <time>2013-10-13T08:39:34Z</time>
      </trkpt>
      <trkpt lat="44.53314" lon="5.7752">
        <ele>783.4</ele>
        <time>2013-10-13T08:39:36Z</time>
      </trkpt>
      <trkpt lat="44.53321" lon="5.77531">
        <ele>783.5</ele>
        <time>2013-10-13T08:39:38Z</time>
      </trkpt>
      <trkpt lat="44.53331" lon="5.77543">
        <ele>783.7</ele>
        <time>2013-10-13T08:39:41Z</time>
      </trkpt>
      <trkpt lat="44.53338" lon="5.77551">
        <ele>783.7</ele>
        <time>2013-10-13T08:39:43Z</time>
      </trkpt>
      <trkpt lat="44.53346" lon="5.77561">
        <ele>783.5</ele>
        <time>2013-10-13T08:39:45Z</time>
      </trkpt>
      <trkpt lat="44.53359" lon="5.77582">
        <ele>782.9</ele>
        <time>2013-10-13T08:39:49Z</time>
      </trkpt>
      <trkpt lat="44.53369" lon="5.77593">
        <ele>783.2</ele>
        <time>2013-10-13T08:39:52Z</time>
      </trkpt>
      <trkpt lat="44.53376" lon="5.77609">
        <ele>783.2</ele>
        <time>2013-10-13T08:39:55Z</time>
      </trkpt>
      <trkpt lat="44.53384" lon="5.77619">
        <ele>783.2</ele>
        <time>2013-10-13T08:39:57Z</time>
      </trkpt>
      <trkpt lat="44.53391" lon="5.77627">
        <ele>783.2</ele>
        <time>2013-10-13T08:39:59Z</time>
      </trkpt>
      <trkpt lat="44.53398" lon="5.77635">
        <ele>783.3</ele>
        <time>2013-10-13T08:40:01Z</time>
      </trkpt>
      <trkpt lat="44.53406" lon="5.77642">
        <ele>783.1</ele>
        <time>2013-10-13T08:40:03Z</time>
      </trkpt>
      <trkpt lat="44.53414" lon="5.77652">
        <ele>782.9</ele>
        <time>2013-10-13T08:40:05Z</time>
      </trkpt>
      <trkpt lat="44.5342" lon="5.77662">
        <ele>783.1</ele>
        <time>2013-10-13T08:40:07Z</time>
      </trkpt>
      <trkpt lat="44.5343" lon="5.77676">
        <ele>783.1</ele>
        <time>2013-10-13T08:40:10Z</time>
      </trkpt>
      <trkpt lat="44.53438" lon="5.77685">
        <ele>782.9</ele>
        <time>2013-10-13T08:40:12Z</time>
      </trkpt>
      <trkpt lat="44.53445" lon="5.77692">
        <ele>782.8</ele>
        <time>2013-10-13T08:40:14Z</time>
      </trkpt>
      <trkpt lat="44.53455" lon="5.77705">
        <ele>782.9</ele>
        <time>2013-10-13T08:40:17Z</time>
      </trkpt>
      <trkpt lat="44.53463" lon="5.77714">
        <ele>782.9</ele>
        <time>2013-10-13T08:40:19Z</time>
      </trkpt>
      <trkpt lat="44.5347" lon="5.77724">
        <ele>783.3</ele>
        <time>2013-10-13T08:40:21Z</time>
      </trkpt>
      <trkpt lat="44.53477" lon="5.77734">
        <ele>783.6</ele>
        <time>2013-10-13T08:40:23Z</time>
      </trkpt>
      <trkpt lat="44.53484" lon="5.77743">
        <ele>783.9</ele>
        <time>2013-10-13T08:40:25Z</time>
      </trkpt>
      <trkpt lat="44.53491" lon="5.77752">
        <ele>784.3</ele>
        <time>2013-10-13T08:40:27Z</time>
      </trkpt>
      <trkpt lat="44.53499" lon="5.77758">
        <ele>784.6</ele>
        <time>2013-10-13T08:40:29Z</time>
      </trkpt>
      <trkpt lat="44.53506" lon="5.77767">
        <ele>784.4</ele>
        <time>2013-10-13T08:40:31Z</time>
      </trkpt>
      <trkpt lat="44.53515" lon="5.7778">
        <ele>784.2</ele>
        <time>2013-10-13T08:40:34Z</time>
      </trkpt>
      <trkpt lat="44.53522" lon="5.77789">
        <ele>784.2</ele>
        <time>2013-10-13T08:40:36Z</time>
      </trkpt>
      <trkpt lat="44.5353" lon="5.77796">
        <ele>784.5</ele>
        <time>2013-10-13T08:40:38Z</time>
      </trkpt>
      <trkpt lat="44.53538" lon="5.77803">
        <ele>784.6</ele>
        <time>2013-10-13T08:40:40Z</time>
      </trkpt>
      <trkpt lat="44.53546" lon="5.77811">
        <ele>785.1</ele>
        <time>2013-10-13T08:40:42Z</time>
      </trkpt>
      <trkpt lat="44.53554" lon="5.77819">
        <ele>785.3</ele>
        <time>2013-10-13T08:40:44Z</time>
      </trkpt>
      <trkpt lat="44.53562" lon="5.77827">
        <ele>785.7</ele>
        <time>2013-10-13T08:40:46Z</time>
      </trkpt>
      <trkpt lat="44.53582" lon="5.77843">
        <ele>786.4</ele>
        <time>2013-10-13T08:40:51Z</time>
      </trkpt>
      <trkpt lat="44.53594" lon="5.7785">
        <ele>786.8</ele>
        <time>2013-10-13T08:40:54Z</time>
      </trkpt>
      <trkpt lat="44.53605" lon="5.7786">
        <ele>787</ele>
        <time>2013-10-13T08:40:57Z</time>
      </trkpt>
      <trkpt lat="44.53614" lon="5.77865">
        <ele>786.9</ele>
        <time>2013-10-13T08:40:59Z</time>
      </trkpt>
      <trkpt lat="44.53626" lon="5.77871">
        <ele>786.8</ele>
        <time>2013-10-13T08:41:02Z</time>
      </trkpt>
      <trkpt lat="44.53639" lon="5.77877">
        <ele>786.7</ele>
        <time>2013-10-13T08:41:05Z</time>
      </trkpt>
      <trkpt lat="44.53651" lon="5.77883">
        <ele>786.6</ele>
        <time>2013-10-13T08:41:08Z</time>
      </trkpt>
      <trkpt lat="44.5366" lon="5.77886">
        <ele>786.7</ele>
        <time>2013-10-13T08:41:10Z</time>
      </trkpt>
      <trkpt lat="44.53673" lon="5.77891">
        <ele>786.8</ele>
        <time>2013-10-13T08:41:13Z</time>
      </trkpt>
      <trkpt lat="44.53686" lon="5.77897">
        <ele>786.8</ele>
        <time>2013-10-13T08:41:16Z</time>
      </trkpt>
      <trkpt lat="44.53696" lon="5.77899">
        <ele>787</ele>
        <time>2013-10-13T08:41:18Z</time>
      </trkpt>
      <trkpt lat="44.53707" lon="5.77899">
        <ele>787.2</ele>
        <time>2013-10-13T08:41:20Z</time>
      </trkpt>
      <trkpt lat="44.53717" lon="5.77901">
        <ele>787.2</ele>
        <time>2013-10-13T08:41:22Z</time>
      </trkpt>
      <trkpt lat="44.53727" lon="5.77903">
        <ele>787.8</ele>
        <time>2013-10-13T08:41:24Z</time>
      </trkpt>
      <trkpt lat="44.53738" lon="5.77902">
        <ele>787.9</ele>
        <time>2013-10-13T08:41:26Z</time>
      </trkpt>
      <trkpt lat="44.53751" lon="5.77905">
        <ele>788.2</ele>
        <time>2013-10-13T08:41:29Z</time>
      </trkpt>
      <trkpt lat="44.53764" lon="5.77908">
        <ele>788.2</ele>
        <time>2013-10-13T08:41:32Z</time>
      </trkpt>
      <trkpt lat="44.53774" lon="5.7791">
        <ele>787.9</ele>
        <time>2013-10-13T08:41:34Z</time>
      </trkpt>
      <trkpt lat="44.53783" lon="5.77913">
        <ele>787.8</ele>
        <time>2013-10-13T08:41:36Z</time>
      </trkpt>
      <trkpt lat="44.53793" lon="5.77916">
        <ele>787.9</ele>
        <time>2013-10-13T08:41:38Z</time>
      </trkpt>
      <trkpt lat="44.53802" lon="5.77917">
        <ele>787.8</ele>
        <time>2013-10-13T08:41:40Z</time>
      </trkpt>
      <trkpt lat="44.53811" lon="5.77919">
        <ele>788.1</ele>
        <time>2013-10-13T08:41:42Z</time>
      </trkpt>
      <trkpt lat="44.5382" lon="5.77921">
        <ele>788.6</ele>
        <time>2013-10-13T08:41:44Z</time>
      </trkpt>
      <trkpt lat="44.53834" lon="5.77922">
        <ele>789.3</ele>
        <time>2013-10-13T08:41:47Z</time>
      </trkpt>
      <trkpt lat="44.53857" lon="5.77919">
        <ele>789.4</ele>
        <time>2013-10-13T08:41:51Z</time>
      </trkpt>
      <trkpt lat="44.53871" lon="5.77918">
        <ele>789.4</ele>
        <time>2013-10-13T08:41:54Z</time>
      </trkpt>
      <trkpt lat="44.53883" lon="5.77916">
        <ele>789.7</ele>
        <time>2013-10-13T08:41:56Z</time>
      </trkpt>
      <trkpt lat="44.53895" lon="5.77914">
        <ele>790</ele>
        <time>2013-10-13T08:41:58Z</time>
      </trkpt>
      <trkpt lat="44.53906" lon="5.77912">
        <ele>790.2</ele>
        <time>2013-10-13T08:42:00Z</time>
      </trkpt>
      <trkpt lat="44.53918" lon="5.77908">
        <ele>790.8</ele>
        <time>2013-10-13T08:42:02Z</time>
      </trkpt>
      <trkpt lat="44.53929" lon="5.77907">
        <ele>791.3</ele>
        <time>2013-10-13T08:42:04Z</time>
      </trkpt>
      <trkpt lat="44.53941" lon="5.7791">
        <ele>791.4</ele>
        <time>2013-10-13T08:42:07Z</time>
      </trkpt>
      <trkpt lat="44.5395" lon="5.77918">
        <ele>790.9</ele>
        <time>2013-10-13T08:42:10Z</time>
      </trkpt>
      <trkpt lat="44.53959" lon="5.77926">
        <ele>790.8</ele>
        <time>2013-10-13T08:42:13Z</time>
      </trkpt>
      <trkpt lat="44.53968" lon="5.7793">
        <ele>790.7</ele>
        <time>2013-10-13T08:42:16Z</time>
      </trkpt>
      <trkpt lat="44.53979" lon="5.77931">
        <ele>791</ele>
        <time>2013-10-13T08:42:19Z</time>
      </trkpt>
      <trkpt lat="44.53991" lon="5.77934">
        <ele>791.3</ele>
        <time>2013-10-13T08:42:22Z</time>
      </trkpt>
      <trkpt lat="44.54001" lon="5.77934">
        <ele>791.2</ele>
        <time>2013-10-13T08:42:24Z</time>
      </trkpt>
      <trkpt lat="44.54011" lon="5.77935">
        <ele>791.2</ele>
        <time>2013-10-13T08:42:26Z</time>
      </trkpt>
      <trkpt lat="44.54023" lon="5.77937">
        <ele>791.6</ele>
        <time>2013-10-13T08:42:29Z</time>
      </trkpt>
      <trkpt lat="44.54033" lon="5.77937">
        <ele>792</ele>
        <time>2013-10-13T08:42:31Z</time>
      </trkpt>
      <trkpt lat="44.54044" lon="5.77938">
        <ele>791.8</ele>
        <time>2013-10-13T08:42:34Z</time>
      </trkpt>
      <trkpt lat="44.54055" lon="5.77936">
        <ele>790.9</ele>
        <time>2013-10-13T08:42:36Z</time>
      </trkpt>
      <trkpt lat="44.54069" lon="5.77931">
        <ele>790.8</ele>
        <time>2013-10-13T08:42:38Z</time>
      </trkpt>
      <trkpt lat="44.54083" lon="5.77926">
        <ele>791.1</ele>
        <time>2013-10-13T08:42:40Z</time>
      </trkpt>
      <trkpt lat="44.54094" lon="5.77924">
        <ele>791.2</ele>
        <time>2013-10-13T08:42:42Z</time>
      </trkpt>
      <trkpt lat="44.54088" lon="5.77914">
        <ele>791.3</ele>
        <time>2013-10-13T08:42:51Z</time>
      </trkpt>
      <trkpt lat="44.54076" lon="5.77885">
        <ele>790.7</ele>
        <time>2013-10-13T08:42:57Z</time>
      </trkpt>
      <trkpt lat="44.54085" lon="5.77875">
        <ele>791</ele>
        <time>2013-10-13T08:43:00Z</time>
      </trkpt>
      <trkpt lat="44.54093" lon="5.7787">
        <ele>791.3</ele>
        <time>2013-10-13T08:43:04Z</time>
      </trkpt>
      <trkpt lat="44.54099" lon="5.77858">
        <ele>791.2</ele>
        <time>2013-10-13T08:43:13Z</time>
      </trkpt>
      <trkpt lat="44.54111" lon="5.77866">
        <ele>795.5</ele>
        <time>2013-10-13T08:50:03Z</time>
      </trkpt>
      <trkpt lat="44.54092" lon="5.77857">
        <ele>795.7</ele>
        <time>2013-10-13T08:50:13Z</time>
      </trkpt>
      <trkpt lat="44.54083" lon="5.77843">
        <ele>795.9</ele>
        <time>2013-10-13T08:50:16Z</time>
      </trkpt>
      <trkpt lat="44.54077" lon="5.77831">
        <ele>796</ele>
        <time>2013-10-13T08:50:18Z</time>
      </trkpt>
      <trkpt lat="44.54072" lon="5.77818">
        <ele>796.1</ele>
        <time>2013-10-13T08:50:20Z</time>
      </trkpt>
      <trkpt lat="44.54072" lon="5.77803">
        <ele>795.8</ele>
        <time>2013-10-13T08:50:23Z</time>
      </trkpt>
      <trkpt lat="44.5408" lon="5.77796">
        <ele>795.5</ele>
        <time>2013-10-13T08:50:25Z</time>
      </trkpt>
      <trkpt lat="44.54091" lon="5.77789">
        <ele>795.5</ele>
        <time>2013-10-13T08:50:27Z</time>
      </trkpt>
      <trkpt lat="44.54101" lon="5.77781">
        <ele>795.5</ele>
        <time>2013-10-13T08:50:29Z</time>
      </trkpt>
      <trkpt lat="44.54111" lon="5.77774">
        <ele>795.5</ele>
        <time>2013-10-13T08:50:31Z</time>
      </trkpt>
      <trkpt lat="44.5412" lon="5.77769">
        <ele>795.6</ele>
        <time>2013-10-13T08:50:33Z</time>
      </trkpt>
      <trkpt lat="44.54129" lon="5.77759">
        <ele>795.7</ele>
        <time>2013-10-13T08:50:36Z</time>
      </trkpt>
      <trkpt lat="44.54137" lon="5.77751">
        <ele>795.6</ele>
        <time>2013-10-13T08:50:39Z</time>
      </trkpt>
      <trkpt lat="44.54147" lon="5.77741">
        <ele>795.6</ele>
        <time>2013-10-13T08:50:43Z</time>
      </trkpt>
      <trkpt lat="44.54156" lon="5.77732">
        <ele>795.5</ele>
        <time>2013-10-13T08:50:47Z</time>
      </trkpt>
      <trkpt lat="44.54166" lon="5.77723">
        <ele>795.5</ele>
        <time>2013-10-13T08:50:51Z</time>
      </trkpt>
      <trkpt lat="44.54175" lon="5.77714">
        <ele>795.5</ele>
        <time>2013-10-13T08:50:54Z</time>
      </trkpt>
      <trkpt lat="44.54182" lon="5.77706">
        <ele>795.7</ele>
        <time>2013-10-13T08:50:57Z</time>
      </trkpt>
      <trkpt lat="44.54192" lon="5.77698">
        <ele>796</ele>
        <time>2013-10-13T08:51:00Z</time>
      </trkpt>
      <trkpt lat="44.54201" lon="5.77689">
        <ele>796.3</ele>
        <time>2013-10-13T08:51:04Z</time>
      </trkpt>
      <trkpt lat="44.54219" lon="5.77679">
        <ele>796.4</ele>
        <time>2013-10-13T08:51:12Z</time>
      </trkpt>
      <trkpt lat="44.5423" lon="5.77674">
        <ele>796.1</ele>
        <time>2013-10-13T08:51:39Z</time>
      </trkpt>
      <trkpt lat="44.54239" lon="5.7767">
        <ele>796.2</ele>
        <time>2013-10-13T08:51:43Z</time>
      </trkpt>
      <trkpt lat="44.54249" lon="5.7767">
        <ele>796.2</ele>
        <time>2013-10-13T08:51:49Z</time>
      </trkpt>
      <trkpt lat="44.54258" lon="5.77674">
        <ele>796.3</ele>
        <time>2013-10-13T08:51:59Z</time>
      </trkpt>
      <trkpt lat="44.54266" lon="5.77682">
        <ele>796.3</ele>
        <time>2013-10-13T08:52:10Z</time>
      </trkpt>
      <trkpt lat="44.54284" lon="5.7769">
        <ele>796.7</ele>
        <time>2013-10-13T08:52:20Z</time>
      </trkpt>
      <trkpt lat="44.54294" lon="5.77692">
        <ele>796.7</ele>
        <time>2013-10-13T08:52:27Z</time>
      </trkpt>
      <trkpt lat="44.54361" lon="5.77683">
        <ele>796.1</ele>
        <time>2013-10-13T08:52:41Z</time>
      </trkpt>
      <trkpt lat="44.54369" lon="5.77691">
        <ele>796.1</ele>
        <time>2013-10-13T08:52:45Z</time>
      </trkpt>
      <trkpt lat="44.54407" lon="5.77726">
        <ele>796.1</ele>
        <time>2013-10-13T08:53:09Z</time>
      </trkpt>
      <trkpt lat="44.54417" lon="5.77732">
        <ele>796</ele>
        <time>2013-10-13T08:53:13Z</time>
      </trkpt>
      <trkpt lat="44.54441" lon="5.77737">
        <ele>795.9</ele>
        <time>2013-10-13T08:53:19Z</time>
      </trkpt>
      <trkpt lat="44.54454" lon="5.77738">
        <ele>796</ele>
        <time>2013-10-13T08:53:22Z</time>
      </trkpt>
      <trkpt lat="44.54462" lon="5.77744">
        <ele>796.2</ele>
        <time>2013-10-13T08:53:25Z</time>
      </trkpt>
      <trkpt lat="44.54472" lon="5.77755">
        <ele>796.5</ele>
        <time>2013-10-13T08:53:28Z</time>
      </trkpt>
      <trkpt lat="44.54483" lon="5.77763">
        <ele>796.4</ele>
        <time>2013-10-13T08:53:31Z</time>
      </trkpt>
      <trkpt lat="44.54491" lon="5.77767">
        <ele>796.5</ele>
        <time>2013-10-13T08:53:34Z</time>
      </trkpt>
      <trkpt lat="44.54503" lon="5.77773">
        <ele>796.5</ele>
        <time>2013-10-13T08:53:38Z</time>
      </trkpt>
      <trkpt lat="44.54515" lon="5.77771">
        <ele>796.4</ele>
        <time>2013-10-13T08:53:41Z</time>
      </trkpt>
      <trkpt lat="44.54525" lon="5.77769">
        <ele>796.3</ele>
        <time>2013-10-13T08:53:44Z</time>
      </trkpt>
      <trkpt lat="44.54535" lon="5.77773">
        <ele>795.8</ele>
        <time>2013-10-13T08:53:47Z</time>
      </trkpt>
      <trkpt lat="44.54543" lon="5.77778">
        <ele>795.8</ele>
        <time>2013-10-13T08:53:50Z</time>
      </trkpt>
      <trkpt lat="44.54557" lon="5.77784">
        <ele>795.5</ele>
        <time>2013-10-13T08:53:53Z</time>
      </trkpt>
      <trkpt lat="44.54566" lon="5.77787">
        <ele>795.3</ele>
        <time>2013-10-13T08:53:55Z</time>
      </trkpt>
      <trkpt lat="44.54577" lon="5.77791">
        <ele>795.1</ele>
        <time>2013-10-13T08:53:58Z</time>
      </trkpt>
      <trkpt lat="44.54588" lon="5.77796">
        <ele>795.1</ele>
        <time>2013-10-13T08:54:05Z</time>
      </trkpt>
      <trkpt lat="44.54595" lon="5.77806">
        <ele>795</ele>
        <time>2013-10-13T08:54:09Z</time>
      </trkpt>
      <trkpt lat="44.54603" lon="5.77811">
        <ele>794.9</ele>
        <time>2013-10-13T08:54:12Z</time>
      </trkpt>
      <trkpt lat="44.54613" lon="5.77818">
        <ele>795</ele>
        <time>2013-10-13T08:54:16Z</time>
      </trkpt>
      <trkpt lat="44.54631" lon="5.77822">
        <ele>795.2</ele>
        <time>2013-10-13T08:54:22Z</time>
      </trkpt>
      <trkpt lat="44.54641" lon="5.77822">
        <ele>795.7</ele>
        <time>2013-10-13T08:54:26Z</time>
      </trkpt>
      <trkpt lat="44.54651" lon="5.77818">
        <ele>795.7</ele>
        <time>2013-10-13T08:54:29Z</time>
      </trkpt>
      <trkpt lat="44.54662" lon="5.77815">
        <ele>795.9</ele>
        <time>2013-10-13T08:54:32Z</time>
      </trkpt>
      <trkpt lat="44.54672" lon="5.77814">
        <ele>796.1</ele>
        <time>2013-10-13T08:54:35Z</time>
      </trkpt>
      <trkpt lat="44.54683" lon="5.77815">
        <ele>796</ele>
        <time>2013-10-13T08:54:38Z</time>
      </trkpt>
      <trkpt lat="44.54693" lon="5.77812">
        <ele>796.1</ele>
        <time>2013-10-13T08:54:41Z</time>
      </trkpt>
      <trkpt lat="44.54702" lon="5.7781">
        <ele>796.4</ele>
        <time>2013-10-13T08:54:44Z</time>
      </trkpt>
      <trkpt lat="44.54712" lon="5.77806">
        <ele>796.5</ele>
        <time>2013-10-13T08:54:48Z</time>
      </trkpt>
      <trkpt lat="44.54722" lon="5.77803">
        <ele>796.6</ele>
        <time>2013-10-13T08:54:52Z</time>
      </trkpt>
      <trkpt lat="44.54732" lon="5.77802">
        <ele>796.6</ele>
        <time>2013-10-13T08:54:56Z</time>
      </trkpt>
      <trkpt lat="44.54745" lon="5.77802">
        <ele>797</ele>
        <time>2013-10-13T08:55:00Z</time>
      </trkpt>
      <trkpt lat="44.54756" lon="5.77802">
        <ele>797.2</ele>
        <time>2013-10-13T08:55:02Z</time>
      </trkpt>
      <trkpt lat="44.54766" lon="5.778">
        <ele>797.1</ele>
        <time>2013-10-13T08:55:04Z</time>
      </trkpt>
      <trkpt lat="44.54776" lon="5.77799">
        <ele>797.3</ele>
        <time>2013-10-13T08:55:07Z</time>
      </trkpt>
      <trkpt lat="44.54785" lon="5.77796">
        <ele>797.6</ele>
        <time>2013-10-13T08:55:09Z</time>
      </trkpt>
      <trkpt lat="44.54796" lon="5.77793">
        <ele>797.8</ele>
        <time>2013-10-13T08:55:12Z</time>
      </trkpt>
      <trkpt lat="44.54807" lon="5.77789">
        <ele>797.6</ele>
        <time>2013-10-13T08:55:15Z</time>
      </trkpt>
      <trkpt lat="44.54818" lon="5.77785">
        <ele>797.7</ele>
        <time>2013-10-13T08:55:18Z</time>
      </trkpt>
      <trkpt lat="44.5484" lon="5.77776">
        <ele>798.3</ele>
        <time>2013-10-13T08:55:24Z</time>
      </trkpt>
      <trkpt lat="44.54853" lon="5.77768">
        <ele>798.5</ele>
        <time>2013-10-13T08:55:27Z</time>
      </trkpt>
      <trkpt lat="44.54863" lon="5.77762">
        <ele>798.8</ele>
        <time>2013-10-13T08:55:29Z</time>
      </trkpt>
      <trkpt lat="44.54873" lon="5.77755">
        <ele>799</ele>
        <time>2013-10-13T08:55:31Z</time>
      </trkpt>
      <trkpt lat="44.54881" lon="5.77749">
        <ele>799.3</ele>
        <time>2013-10-13T08:55:33Z</time>
      </trkpt>
      <trkpt lat="44.54893" lon="5.77741">
        <ele>800.2</ele>
        <time>2013-10-13T08:55:36Z</time>
      </trkpt>
      <trkpt lat="44.54903" lon="5.77732">
        <ele>801.1</ele>
        <time>2013-10-13T08:55:39Z</time>
      </trkpt>
      <trkpt lat="44.54913" lon="5.77725">
        <ele>801.8</ele>
        <time>2013-10-13T08:55:42Z</time>
      </trkpt>
      <trkpt lat="44.54924" lon="5.77718">
        <ele>802.3</ele>
        <time>2013-10-13T08:55:45Z</time>
      </trkpt>
      <trkpt lat="44.54935" lon="5.77706">
        <ele>803.3</ele>
        <time>2013-10-13T08:55:48Z</time>
      </trkpt>
      <trkpt lat="44.54946" lon="5.77696">
        <ele>804.7</ele>
        <time>2013-10-13T08:55:51Z</time>
      </trkpt>
      <trkpt lat="44.54954" lon="5.77689">
        <ele>806.2</ele>
        <time>2013-10-13T08:55:53Z</time>
      </trkpt>
      <trkpt lat="44.54964" lon="5.7768">
        <ele>807.1</ele>
        <time>2013-10-13T08:55:56Z</time>
      </trkpt>
      <trkpt lat="44.54975" lon="5.77669">
        <ele>808</ele>
        <time>2013-10-13T08:55:59Z</time>
      </trkpt>
      <trkpt lat="44.54984" lon="5.77664">
        <ele>807.8</ele>
        <time>2013-10-13T08:56:01Z</time>
      </trkpt>
      <trkpt lat="44.54992" lon="5.77657">
        <ele>808.4</ele>
        <time>2013-10-13T08:56:03Z</time>
      </trkpt>
      <trkpt lat="44.55002" lon="5.77646">
        <ele>808.9</ele>
        <time>2013-10-13T08:56:06Z</time>
      </trkpt>
      <trkpt lat="44.55009" lon="5.77638">
        <ele>809.3</ele>
        <time>2013-10-13T08:56:08Z</time>
      </trkpt>
      <trkpt lat="44.55017" lon="5.77631">
        <ele>810.2</ele>
        <time>2013-10-13T08:56:10Z</time>
      </trkpt>
      <trkpt lat="44.55025" lon="5.7762">
        <ele>810.6</ele>
        <time>2013-10-13T08:56:13Z</time>
      </trkpt>
      <trkpt lat="44.55031" lon="5.77611">
        <ele>810.1</ele>
        <time>2013-10-13T08:56:16Z</time>
      </trkpt>
      <trkpt lat="44.55042" lon="5.776">
        <ele>810.4</ele>
        <time>2013-10-13T08:56:19Z</time>
      </trkpt>
      <trkpt lat="44.55059" lon="5.77581">
        <ele>811.6</ele>
        <time>2013-10-13T08:56:25Z</time>
      </trkpt>
      <trkpt lat="44.55067" lon="5.7757">
        <ele>812.1</ele>
        <time>2013-10-13T08:56:28Z</time>
      </trkpt>
      <trkpt lat="44.55075" lon="5.77558">
        <ele>812.7</ele>
        <time>2013-10-13T08:56:31Z</time>
      </trkpt>
      <trkpt lat="44.55082" lon="5.77545">
        <ele>813.4</ele>
        <time>2013-10-13T08:56:34Z</time>
      </trkpt>
      <trkpt lat="44.55087" lon="5.77533">
        <ele>813.2</ele>
        <time>2013-10-13T08:56:37Z</time>
      </trkpt>
      <trkpt lat="44.55094" lon="5.7752">
        <ele>813.2</ele>
        <time>2013-10-13T08:56:40Z</time>
      </trkpt>
      <trkpt lat="44.55099" lon="5.77504">
        <ele>812.6</ele>
        <time>2013-10-13T08:56:43Z</time>
      </trkpt>
      <trkpt lat="44.55107" lon="5.7749">
        <ele>811.9</ele>
        <time>2013-10-13T08:56:46Z</time>
      </trkpt>
      <trkpt lat="44.55115" lon="5.77481">
        <ele>812.1</ele>
        <time>2013-10-13T08:56:49Z</time>
      </trkpt>
      <trkpt lat="44.5512" lon="5.77469">
        <ele>812.6</ele>
        <time>2013-10-13T08:56:59Z</time>
      </trkpt>
      <trkpt lat="44.55122" lon="5.77456">
        <ele>810.3</ele>
        <time>2013-10-13T08:57:06Z</time>
      </trkpt>
      <trkpt lat="44.55128" lon="5.77444">
        <ele>811</ele>
        <time>2013-10-13T08:57:15Z</time>
      </trkpt>
      <trkpt lat="44.55133" lon="5.77433">
        <ele>811</ele>
        <time>2013-10-13T08:57:23Z</time>
      </trkpt>
      <trkpt lat="44.55137" lon="5.77408">
        <ele>814.4</ele>
        <time>2013-10-13T08:57:39Z</time>
      </trkpt>
      <trkpt lat="44.55137" lon="5.77395">
        <ele>814.4</ele>
        <time>2013-10-13T08:57:48Z</time>
      </trkpt>
      <trkpt lat="44.55137" lon="5.77382">
        <ele>814.4</ele>
        <time>2013-10-13T08:58:04Z</time>
      </trkpt>
      <trkpt lat="44.55139" lon="5.77367">
        <ele>821.9</ele>
        <time>2013-10-13T08:58:16Z</time>
      </trkpt>
      <trkpt lat="44.55138" lon="5.77354">
        <ele>821.9</ele>
        <time>2013-10-13T08:58:21Z</time>
      </trkpt>
      <trkpt lat="44.55136" lon="5.77341">
        <ele>821.9</ele>
        <time>2013-10-13T08:58:29Z</time>
      </trkpt>
      <trkpt lat="44.55139" lon="5.77313">
        <ele>827.3</ele>
        <time>2013-10-13T08:58:54Z</time>
      </trkpt>
      <trkpt lat="44.55141" lon="5.77299">
        <ele>827.3</ele>
        <time>2013-10-13T08:58:58Z</time>
      </trkpt>
      <trkpt lat="44.55143" lon="5.77286">
        <ele>827.3</ele>
        <time>2013-10-13T08:59:13Z</time>
      </trkpt>
      <trkpt lat="44.55146" lon="5.77274">
        <ele>827.3</ele>
        <time>2013-10-13T08:59:37Z</time>
      </trkpt>
      <trkpt lat="44.55149" lon="5.77247">
        <ele>838.9</ele>
        <time>2013-10-13T08:59:51Z</time>
      </trkpt>
      <trkpt lat="44.55153" lon="5.77234">
        <ele>840.1</ele>
        <time>2013-10-13T08:59:58Z</time>
      </trkpt>
      <trkpt lat="44.55158" lon="5.77223">
        <ele>841.2</ele>
        <time>2013-10-13T09:00:03Z</time>
      </trkpt>
      <trkpt lat="44.55165" lon="5.77211">
        <ele>842.1</ele>
        <time>2013-10-13T09:00:09Z</time>
      </trkpt>
      <trkpt lat="44.55164" lon="5.77198">
        <ele>842.9</ele>
        <time>2013-10-13T09:00:28Z</time>
      </trkpt>
      <trkpt lat="44.5515" lon="5.77168">
        <ele>843.4</ele>
        <time>2013-10-13T09:00:30Z</time>
      </trkpt>
      <trkpt lat="44.55154" lon="5.77156">
        <ele>843.8</ele>
        <time>2013-10-13T09:00:51Z</time>
      </trkpt>
      <trkpt lat="44.55158" lon="5.77127">
        <ele>848</ele>
        <time>2013-10-13T09:01:01Z</time>
      </trkpt>
      <trkpt lat="44.55158" lon="5.77113">
        <ele>848</ele>
        <time>2013-10-13T09:01:04Z</time>
      </trkpt>
      <trkpt lat="44.55161" lon="5.77099">
        <ele>849.8</ele>
        <time>2013-10-13T09:01:09Z</time>
      </trkpt>
      <trkpt lat="44.55158" lon="5.77082">
        <ele>850.3</ele>
        <time>2013-10-13T09:01:12Z</time>
      </trkpt>
      <trkpt lat="44.55158" lon="5.77067">
        <ele>854.6</ele>
        <time>2013-10-13T09:01:48Z</time>
      </trkpt>
      <trkpt lat="44.55157" lon="5.77052">
        <ele>854.9</ele>
        <time>2013-10-13T09:01:50Z</time>
      </trkpt>
      <trkpt lat="44.55155" lon="5.77039">
        <ele>854.9</ele>
        <time>2013-10-13T09:01:53Z</time>
      </trkpt>
      <trkpt lat="44.55155" lon="5.77013">
        <ele>854.9</ele>
        <time>2013-10-13T09:02:11Z</time>
      </trkpt>
      <trkpt lat="44.55159" lon="5.76997">
        <ele>862.3</ele>
        <time>2013-10-13T09:02:16Z</time>
      </trkpt>
      <trkpt lat="44.55162" lon="5.7698">
        <ele>864</ele>
        <time>2013-10-13T09:02:20Z</time>
      </trkpt>
      <trkpt lat="44.55163" lon="5.76966">
        <ele>864</ele>
        <time>2013-10-13T09:02:25Z</time>
      </trkpt>
      <trkpt lat="44.55166" lon="5.76954">
        <ele>867</ele>
        <time>2013-10-13T09:02:31Z</time>
      </trkpt>
      <trkpt lat="44.55163" lon="5.76932">
        <ele>867.2</ele>
        <time>2013-10-13T09:02:33Z</time>
      </trkpt>
      <trkpt lat="44.55161" lon="5.76918">
        <ele>868.1</ele>
        <time>2013-10-13T09:02:39Z</time>
      </trkpt>
      <trkpt lat="44.55161" lon="5.76905">
        <ele>868.2</ele>
        <time>2013-10-13T09:02:44Z</time>
      </trkpt>
      <trkpt lat="44.55159" lon="5.76889">
        <ele>869.7</ele>
        <time>2013-10-13T09:02:56Z</time>
      </trkpt>
      <trkpt lat="44.55145" lon="5.76864">
        <ele>871</ele>
        <time>2013-10-13T09:03:02Z</time>
      </trkpt>
      <trkpt lat="44.55142" lon="5.76851">
        <ele>871</ele>
        <time>2013-10-13T09:03:06Z</time>
      </trkpt>
      <trkpt lat="44.55139" lon="5.76838">
        <ele>870.9</ele>
        <time>2013-10-13T09:03:10Z</time>
      </trkpt>
      <trkpt lat="44.55135" lon="5.76824">
        <ele>869.9</ele>
        <time>2013-10-13T09:03:15Z</time>
      </trkpt>
      <trkpt lat="44.55126" lon="5.76804">
        <ele>872.6</ele>
        <time>2013-10-13T09:03:25Z</time>
      </trkpt>
      <trkpt lat="44.55124" lon="5.76789">
        <ele>873.2</ele>
        <time>2013-10-13T09:03:30Z</time>
      </trkpt>
      <trkpt lat="44.55121" lon="5.76759">
        <ele>877.4</ele>
        <time>2013-10-13T09:03:41Z</time>
      </trkpt>
      <trkpt lat="44.55114" lon="5.76738">
        <ele>879.4</ele>
        <time>2013-10-13T09:03:51Z</time>
      </trkpt>
      <trkpt lat="44.55109" lon="5.76727">
        <ele>880.9</ele>
        <time>2013-10-13T09:03:56Z</time>
      </trkpt>
      <trkpt lat="44.55116" lon="5.76716">
        <ele>884.4</ele>
        <time>2013-10-13T09:04:07Z</time>
      </trkpt>
      <trkpt lat="44.5513" lon="5.76691">
        <ele>883.9</ele>
        <time>2013-10-13T09:04:14Z</time>
      </trkpt>
      <trkpt lat="44.55137" lon="5.7668">
        <ele>883.9</ele>
        <time>2013-10-13T09:04:19Z</time>
      </trkpt>
      <trkpt lat="44.55144" lon="5.76671">
        <ele>884.1</ele>
        <time>2013-10-13T09:04:32Z</time>
      </trkpt>
      <trkpt lat="44.55151" lon="5.76664">
        <ele>884.1</ele>
        <time>2013-10-13T09:04:44Z</time>
      </trkpt>
      <trkpt lat="44.55157" lon="5.76654">
        <ele>888.1</ele>
        <time>2013-10-13T09:04:49Z</time>
      </trkpt>
      <trkpt lat="44.55162" lon="5.7664">
        <ele>888.2</ele>
        <time>2013-10-13T09:04:52Z</time>
      </trkpt>
      <trkpt lat="44.55157" lon="5.76609">
        <ele>890.2</ele>
        <time>2013-10-13T09:04:57Z</time>
      </trkpt>
      <trkpt lat="44.55163" lon="5.76599">
        <ele>890.1</ele>
        <time>2013-10-13T09:05:01Z</time>
      </trkpt>
      <trkpt lat="44.55167" lon="5.76588">
        <ele>890.4</ele>
        <time>2013-10-13T09:05:06Z</time>
      </trkpt>
      <trkpt lat="44.55173" lon="5.76573">
        <ele>891.9</ele>
        <time>2013-10-13T09:05:13Z</time>
      </trkpt>
      <trkpt lat="44.55187" lon="5.76556">
        <ele>894.9</ele>
        <time>2013-10-13T09:05:28Z</time>
      </trkpt>
      <trkpt lat="44.55199" lon="5.7654">
        <ele>895.3</ele>
        <time>2013-10-13T09:05:30Z</time>
      </trkpt>
      <trkpt lat="44.55207" lon="5.76533">
        <ele>895.7</ele>
        <time>2013-10-13T09:05:33Z</time>
      </trkpt>
      <trkpt lat="44.55215" lon="5.76525">
        <ele>894.9</ele>
        <time>2013-10-13T09:05:36Z</time>
      </trkpt>
      <trkpt lat="44.55223" lon="5.76514">
        <ele>895.3</ele>
        <time>2013-10-13T09:05:40Z</time>
      </trkpt>
      <trkpt lat="44.55228" lon="5.76502">
        <ele>896.7</ele>
        <time>2013-10-13T09:05:44Z</time>
      </trkpt>
      <trkpt lat="44.55235" lon="5.76493">
        <ele>897.2</ele>
        <time>2013-10-13T09:05:48Z</time>
      </trkpt>
      <trkpt lat="44.55243" lon="5.76487">
        <ele>899.5</ele>
        <time>2013-10-13T09:05:57Z</time>
      </trkpt>
      <trkpt lat="44.55256" lon="5.76478">
        <ele>899.9</ele>
        <time>2013-10-13T09:06:00Z</time>
      </trkpt>
      <trkpt lat="44.55267" lon="5.76471">
        <ele>899.3</ele>
        <time>2013-10-13T09:06:04Z</time>
      </trkpt>
      <trkpt lat="44.55275" lon="5.7646">
        <ele>898.5</ele>
        <time>2013-10-13T09:06:08Z</time>
      </trkpt>
      <trkpt lat="44.55283" lon="5.7645">
        <ele>897.6</ele>
        <time>2013-10-13T09:06:13Z</time>
      </trkpt>
      <trkpt lat="44.55292" lon="5.7644">
        <ele>898.8</ele>
        <time>2013-10-13T09:06:17Z</time>
      </trkpt>
      <trkpt lat="44.5531" lon="5.7642">
        <ele>900.5</ele>
        <time>2013-10-13T09:06:22Z</time>
      </trkpt>
      <trkpt lat="44.55318" lon="5.76406">
        <ele>900.8</ele>
        <time>2013-10-13T09:06:25Z</time>
      </trkpt>
      <trkpt lat="44.55328" lon="5.76396">
        <ele>901.2</ele>
        <time>2013-10-13T09:06:28Z</time>
      </trkpt>
      <trkpt lat="44.55338" lon="5.76394">
        <ele>901.8</ele>
        <time>2013-10-13T09:06:31Z</time>
      </trkpt>
      <trkpt lat="44.55349" lon="5.76391">
        <ele>901.9</ele>
        <time>2013-10-13T09:06:34Z</time>
      </trkpt>
      <trkpt lat="44.55356" lon="5.764">
        <ele>902</ele>
        <time>2013-10-13T09:06:38Z</time>
      </trkpt>
      <trkpt lat="44.55364" lon="5.7641">
        <ele>903</ele>
        <time>2013-10-13T09:06:43Z</time>
      </trkpt>
      <trkpt lat="44.55373" lon="5.76419">
        <ele>904.5</ele>
        <time>2013-10-13T09:06:47Z</time>
      </trkpt>
      <trkpt lat="44.55382" lon="5.76421">
        <ele>905</ele>
        <time>2013-10-13T09:07:00Z</time>
      </trkpt>
      <trkpt lat="44.55392" lon="5.76421">
        <ele>909</ele>
        <time>2013-10-13T09:07:10Z</time>
      </trkpt>
      <trkpt lat="44.55401" lon="5.76415">
        <ele>909.3</ele>
        <time>2013-10-13T09:07:13Z</time>
      </trkpt>
      <trkpt lat="44.55409" lon="5.76407">
        <ele>909.8</ele>
        <time>2013-10-13T09:07:16Z</time>
      </trkpt>
      <trkpt lat="44.55418" lon="5.76398">
        <ele>910.5</ele>
        <time>2013-10-13T09:07:20Z</time>
      </trkpt>
      <trkpt lat="44.55435" lon="5.76382">
        <ele>910.9</ele>
        <time>2013-10-13T09:07:27Z</time>
      </trkpt>
      <trkpt lat="44.55443" lon="5.76374">
        <ele>910.9</ele>
        <time>2013-10-13T09:07:37Z</time>
      </trkpt>
      <trkpt lat="44.55454" lon="5.76373">
        <ele>914.7</ele>
        <time>2013-10-13T09:07:42Z</time>
      </trkpt>
      <trkpt lat="44.55465" lon="5.76374">
        <ele>914.7</ele>
        <time>2013-10-13T09:07:47Z</time>
      </trkpt>
      <trkpt lat="44.55477" lon="5.7637">
        <ele>914</ele>
        <time>2013-10-13T09:07:51Z</time>
      </trkpt>
      <trkpt lat="44.55487" lon="5.76364">
        <ele>913.9</ele>
        <time>2013-10-13T09:07:54Z</time>
      </trkpt>
      <trkpt lat="44.55495" lon="5.76356">
        <ele>913.4</ele>
        <time>2013-10-13T09:07:56Z</time>
      </trkpt>
      <trkpt lat="44.55504" lon="5.76348">
        <ele>912.6</ele>
        <time>2013-10-13T09:07:59Z</time>
      </trkpt>
      <trkpt lat="44.55514" lon="5.76338">
        <ele>911.9</ele>
        <time>2013-10-13T09:08:02Z</time>
      </trkpt>
      <trkpt lat="44.55521" lon="5.76329">
        <ele>911.7</ele>
        <time>2013-10-13T09:08:05Z</time>
      </trkpt>
      <trkpt lat="44.55529" lon="5.76318">
        <ele>912.4</ele>
        <time>2013-10-13T09:08:09Z</time>
      </trkpt>
      <trkpt lat="44.55536" lon="5.76308">
        <ele>912.1</ele>
        <time>2013-10-13T09:08:12Z</time>
      </trkpt>
      <trkpt lat="44.55544" lon="5.76296">
        <ele>912.7</ele>
        <time>2013-10-13T09:08:16Z</time>
      </trkpt>
      <trkpt lat="44.55552" lon="5.76285">
        <ele>913.2</ele>
        <time>2013-10-13T09:08:20Z</time>
      </trkpt>
      <trkpt lat="44.55559" lon="5.76273">
        <ele>912.6</ele>
        <time>2013-10-13T09:08:23Z</time>
      </trkpt>
      <trkpt lat="44.55577" lon="5.76226">
        <ele>911.5</ele>
        <time>2013-10-13T09:08:26Z</time>
      </trkpt>
      <trkpt lat="44.55585" lon="5.76215">
        <ele>911.5</ele>
        <time>2013-10-13T09:08:29Z</time>
      </trkpt>
      <trkpt lat="44.55591" lon="5.76204">
        <ele>910.9</ele>
        <time>2013-10-13T09:08:32Z</time>
      </trkpt>
      <trkpt lat="44.55598" lon="5.76189">
        <ele>910.6</ele>
        <time>2013-10-13T09:08:35Z</time>
      </trkpt>
      <trkpt lat="44.55602" lon="5.76177">
        <ele>909.9</ele>
        <time>2013-10-13T09:08:38Z</time>
      </trkpt>
      <trkpt lat="44.55605" lon="5.76165">
        <ele>908.9</ele>
        <time>2013-10-13T09:08:41Z</time>
      </trkpt>
      <trkpt lat="44.55605" lon="5.76151">
        <ele>907.7</ele>
        <time>2013-10-13T09:08:44Z</time>
      </trkpt>
      <trkpt lat="44.55602" lon="5.76135">
        <ele>907</ele>
        <time>2013-10-13T09:08:47Z</time>
      </trkpt>
      <trkpt lat="44.55597" lon="5.7612">
        <ele>906.5</ele>
        <time>2013-10-13T09:08:49Z</time>
      </trkpt>
      <trkpt lat="44.55592" lon="5.761">
        <ele>906.4</ele>
        <time>2013-10-13T09:08:51Z</time>
      </trkpt>
      <trkpt lat="44.55584" lon="5.7608">
        <ele>906.4</ele>
        <time>2013-10-13T09:08:53Z</time>
      </trkpt>
      <trkpt lat="44.55577" lon="5.76071">
        <ele>907</ele>
        <time>2013-10-13T09:08:56Z</time>
      </trkpt>
      <trkpt lat="44.55588" lon="5.76049">
        <ele>912</ele>
        <time>2013-10-13T09:09:34Z</time>
      </trkpt>
      <trkpt lat="44.55606" lon="5.76063">
        <ele>914.3</ele>
        <time>2013-10-13T09:10:00Z</time>
      </trkpt>
      <trkpt lat="44.55615" lon="5.76056">
        <ele>914.2</ele>
        <time>2013-10-13T09:10:03Z</time>
      </trkpt>
      <trkpt lat="44.55625" lon="5.76047">
        <ele>914.2</ele>
        <time>2013-10-13T09:10:05Z</time>
      </trkpt>
      <trkpt lat="44.55633" lon="5.7604">
        <ele>914.2</ele>
        <time>2013-10-13T09:10:08Z</time>
      </trkpt>
      <trkpt lat="44.5564" lon="5.76032">
        <ele>914.2</ele>
        <time>2013-10-13T09:10:26Z</time>
      </trkpt>
      <trkpt lat="44.55649" lon="5.76032">
        <ele>914.2</ele>
        <time>2013-10-13T09:10:34Z</time>
      </trkpt>
      <trkpt lat="44.5566" lon="5.76031">
        <ele>919</ele>
        <time>2013-10-13T09:10:46Z</time>
      </trkpt>
      <trkpt lat="44.55679" lon="5.76024">
        <ele>919.8</ele>
        <time>2013-10-13T09:10:56Z</time>
      </trkpt>
      <trkpt lat="44.55693" lon="5.76021">
        <ele>927.7</ele>
        <time>2013-10-13T09:11:42Z</time>
      </trkpt>
      <trkpt lat="44.55703" lon="5.76014">
        <ele>927</ele>
        <time>2013-10-13T09:11:44Z</time>
      </trkpt>
      <trkpt lat="44.55721" lon="5.75998">
        <ele>926.9</ele>
        <time>2013-10-13T09:11:45Z</time>
      </trkpt>
      <trkpt lat="44.55731" lon="5.7599">
        <ele>926.9</ele>
        <time>2013-10-13T09:11:47Z</time>
      </trkpt>
      <trkpt lat="44.55734" lon="5.75963">
        <ele>927.9</ele>
        <time>2013-10-13T09:11:55Z</time>
      </trkpt>
      <trkpt lat="44.55729" lon="5.7595">
        <ele>928.2</ele>
        <time>2013-10-13T09:11:59Z</time>
      </trkpt>
      <trkpt lat="44.55722" lon="5.7594">
        <ele>928.7</ele>
        <time>2013-10-13T09:12:01Z</time>
      </trkpt>
      <trkpt lat="44.5572" lon="5.75927">
        <ele>929.9</ele>
        <time>2013-10-13T09:12:07Z</time>
      </trkpt>
      <trkpt lat="44.55712" lon="5.75918">
        <ele>931.5</ele>
        <time>2013-10-13T09:12:13Z</time>
      </trkpt>
      <trkpt lat="44.55706" lon="5.75908">
        <ele>934</ele>
        <time>2013-10-13T09:12:19Z</time>
      </trkpt>
      <trkpt lat="44.55701" lon="5.75896">
        <ele>935.5</ele>
        <time>2013-10-13T09:12:26Z</time>
      </trkpt>
      <trkpt lat="44.55697" lon="5.75884">
        <ele>935.8</ele>
        <time>2013-10-13T09:12:47Z</time>
      </trkpt>
      <trkpt lat="44.55694" lon="5.75862">
        <ele>938.8</ele>
        <time>2013-10-13T09:12:55Z</time>
      </trkpt>
      <trkpt lat="44.55691" lon="5.75833">
        <ele>939.6</ele>
        <time>2013-10-13T09:13:01Z</time>
      </trkpt>
      <trkpt lat="44.55691" lon="5.75817">
        <ele>946.1</ele>
        <time>2013-10-13T09:13:26Z</time>
      </trkpt>
      <trkpt lat="44.55697" lon="5.75793">
        <ele>947.3</ele>
        <time>2013-10-13T09:13:29Z</time>
      </trkpt>
      <trkpt lat="44.55702" lon="5.75778">
        <ele>947.3</ele>
        <time>2013-10-13T09:13:32Z</time>
      </trkpt>
      <trkpt lat="44.55706" lon="5.75767">
        <ele>951.3</ele>
        <time>2013-10-13T09:13:52Z</time>
      </trkpt>
      <trkpt lat="44.55719" lon="5.75722">
        <ele>951.9</ele>
        <time>2013-10-13T09:13:56Z</time>
      </trkpt>
      <trkpt lat="44.55731" lon="5.75696">
        <ele>951.8</ele>
        <time>2013-10-13T09:14:05Z</time>
      </trkpt>
      <trkpt lat="44.55736" lon="5.75682">
        <ele>951.1</ele>
        <time>2013-10-13T09:14:09Z</time>
      </trkpt>
      <trkpt lat="44.55742" lon="5.75672">
        <ele>951.2</ele>
        <time>2013-10-13T09:14:12Z</time>
      </trkpt>
      <trkpt lat="44.55749" lon="5.75662">
        <ele>950.5</ele>
        <time>2013-10-13T09:14:15Z</time>
      </trkpt>
      <trkpt lat="44.55756" lon="5.75652">
        <ele>950</ele>
        <time>2013-10-13T09:14:18Z</time>
      </trkpt>
      <trkpt lat="44.55761" lon="5.7564">
        <ele>950.6</ele>
        <time>2013-10-13T09:14:21Z</time>
      </trkpt>
      <trkpt lat="44.55764" lon="5.75628">
        <ele>948.4</ele>
        <time>2013-10-13T09:14:24Z</time>
      </trkpt>
      <trkpt lat="44.55767" lon="5.75614">
        <ele>948.2</ele>
        <time>2013-10-13T09:14:27Z</time>
      </trkpt>
      <trkpt lat="44.55767" lon="5.756">
        <ele>947.4</ele>
        <time>2013-10-13T09:14:30Z</time>
      </trkpt>
      <trkpt lat="44.55766" lon="5.75587">
        <ele>949.3</ele>
        <time>2013-10-13T09:14:33Z</time>
      </trkpt>
      <trkpt lat="44.55763" lon="5.75574">
        <ele>949.7</ele>
        <time>2013-10-13T09:14:36Z</time>
      </trkpt>
      <trkpt lat="44.55757" lon="5.75558">
        <ele>950.3</ele>
        <time>2013-10-13T09:14:39Z</time>
      </trkpt>
      <trkpt lat="44.55752" lon="5.75543">
        <ele>952.4</ele>
        <time>2013-10-13T09:14:42Z</time>
      </trkpt>
      <trkpt lat="44.55749" lon="5.75529">
        <ele>953.1</ele>
        <time>2013-10-13T09:14:45Z</time>
      </trkpt>
      <trkpt lat="44.55746" lon="5.75515">
        <ele>953.7</ele>
        <time>2013-10-13T09:14:49Z</time>
      </trkpt>
      <trkpt lat="44.55745" lon="5.75502">
        <ele>954.4</ele>
        <time>2013-10-13T09:14:53Z</time>
      </trkpt>
      <trkpt lat="44.55745" lon="5.75484">
        <ele>956</ele>
        <time>2013-10-13T09:14:57Z</time>
      </trkpt>
      <trkpt lat="44.55738" lon="5.75458">
        <ele>956.9</ele>
        <time>2013-10-13T09:15:03Z</time>
      </trkpt>
      <trkpt lat="44.55736" lon="5.75444">
        <ele>957.8</ele>
        <time>2013-10-13T09:15:07Z</time>
      </trkpt>
      <trkpt lat="44.55736" lon="5.7543">
        <ele>957.8</ele>
        <time>2013-10-13T09:15:10Z</time>
      </trkpt>
      <trkpt lat="44.55735" lon="5.75414">
        <ele>957.7</ele>
        <time>2013-10-13T09:15:14Z</time>
      </trkpt>
      <trkpt lat="44.55732" lon="5.754">
        <ele>958</ele>
        <time>2013-10-13T09:15:17Z</time>
      </trkpt>
      <trkpt lat="44.55729" lon="5.75386">
        <ele>959.4</ele>
        <time>2013-10-13T09:15:22Z</time>
      </trkpt>
      <trkpt lat="44.55728" lon="5.75374">
        <ele>961.2</ele>
        <time>2013-10-13T09:15:26Z</time>
      </trkpt>
      <trkpt lat="44.55723" lon="5.75362">
        <ele>961.7</ele>
        <time>2013-10-13T09:15:30Z</time>
      </trkpt>
      <trkpt lat="44.55718" lon="5.75351">
        <ele>961.7</ele>
        <time>2013-10-13T09:15:33Z</time>
      </trkpt>
      <trkpt lat="44.55713" lon="5.75339">
        <ele>962.2</ele>
        <time>2013-10-13T09:15:36Z</time>
      </trkpt>
      <trkpt lat="44.55707" lon="5.75328">
        <ele>962.6</ele>
        <time>2013-10-13T09:15:38Z</time>
      </trkpt>
      <trkpt lat="44.55702" lon="5.75313">
        <ele>963</ele>
        <time>2013-10-13T09:15:41Z</time>
      </trkpt>
      <trkpt lat="44.55696" lon="5.75301">
        <ele>963</ele>
        <time>2013-10-13T09:15:43Z</time>
      </trkpt>
      <trkpt lat="44.55687" lon="5.7529">
        <ele>962.4</ele>
        <time>2013-10-13T09:15:45Z</time>
      </trkpt>
      <trkpt lat="44.55677" lon="5.7528">
        <ele>962.2</ele>
        <time>2013-10-13T09:15:47Z</time>
      </trkpt>
      <trkpt lat="44.55667" lon="5.75271">
        <ele>961.7</ele>
        <time>2013-10-13T09:15:49Z</time>
      </trkpt>
      <trkpt lat="44.55657" lon="5.7526">
        <ele>961.1</ele>
        <time>2013-10-13T09:15:51Z</time>
      </trkpt>
      <trkpt lat="44.55645" lon="5.75251">
        <ele>960.1</ele>
        <time>2013-10-13T09:15:53Z</time>
      </trkpt>
      <trkpt lat="44.55632" lon="5.75245">
        <ele>959.1</ele>
        <time>2013-10-13T09:15:55Z</time>
      </trkpt>
      <trkpt lat="44.55623" lon="5.75239">
        <ele>958.7</ele>
        <time>2013-10-13T09:15:57Z</time>
      </trkpt>
      <trkpt lat="44.55613" lon="5.7523">
        <ele>958.1</ele>
        <time>2013-10-13T09:16:00Z</time>
      </trkpt>
      <trkpt lat="44.5561" lon="5.75205">
        <ele>959.5</ele>
        <time>2013-10-13T09:16:07Z</time>
      </trkpt>
      <trkpt lat="44.55607" lon="5.75193">
        <ele>959.3</ele>
        <time>2013-10-13T09:16:12Z</time>
      </trkpt>
      <trkpt lat="44.55605" lon="5.75179">
        <ele>959.6</ele>
        <time>2013-10-13T09:16:17Z</time>
      </trkpt>
      <trkpt lat="44.55599" lon="5.75169">
        <ele>960.3</ele>
        <time>2013-10-13T09:16:23Z</time>
      </trkpt>
      <trkpt lat="44.55589" lon="5.75163">
        <ele>962</ele>
        <time>2013-10-13T09:16:29Z</time>
      </trkpt>
      <trkpt lat="44.55582" lon="5.75173">
        <ele>966.3</ele>
        <time>2013-10-13T09:16:37Z</time>
      </trkpt>
      <trkpt lat="44.55573" lon="5.7518">
        <ele>968.4</ele>
        <time>2013-10-13T09:16:44Z</time>
      </trkpt>
      <trkpt lat="44.55564" lon="5.75188">
        <ele>970.9</ele>
        <time>2013-10-13T09:17:05Z</time>
      </trkpt>
      <trkpt lat="44.55551" lon="5.75209">
        <ele>972.7</ele>
        <time>2013-10-13T09:17:11Z</time>
      </trkpt>
      <trkpt lat="44.55542" lon="5.75225">
        <ele>973</ele>
        <time>2013-10-13T09:17:13Z</time>
      </trkpt>
      <trkpt lat="44.55542" lon="5.75239">
        <ele>973.6</ele>
        <time>2013-10-13T09:17:19Z</time>
      </trkpt>
      <trkpt lat="44.55541" lon="5.75254">
        <ele>974.1</ele>
        <time>2013-10-13T09:17:25Z</time>
      </trkpt>
      <trkpt lat="44.55538" lon="5.75267">
        <ele>975.5</ele>
        <time>2013-10-13T09:17:30Z</time>
      </trkpt>
      <trkpt lat="44.55534" lon="5.75278">
        <ele>977</ele>
        <time>2013-10-13T09:17:35Z</time>
      </trkpt>
      <trkpt lat="44.55526" lon="5.75287">
        <ele>977.5</ele>
        <time>2013-10-13T09:17:41Z</time>
      </trkpt>
      <trkpt lat="44.55517" lon="5.75299">
        <ele>978.9</ele>
        <time>2013-10-13T09:17:49Z</time>
      </trkpt>
      <trkpt lat="44.55508" lon="5.75309">
        <ele>980.6</ele>
        <time>2013-10-13T09:17:54Z</time>
      </trkpt>
      <trkpt lat="44.55495" lon="5.75333">
        <ele>988.5</ele>
        <time>2013-10-13T09:18:24Z</time>
      </trkpt>
      <trkpt lat="44.55485" lon="5.7536">
        <ele>988.2</ele>
        <time>2013-10-13T09:18:30Z</time>
      </trkpt>
      <trkpt lat="44.55479" lon="5.75374">
        <ele>991.9</ele>
        <time>2013-10-13T09:18:52Z</time>
      </trkpt>
      <trkpt lat="44.55473" lon="5.75388">
        <ele>992.2</ele>
        <time>2013-10-13T09:18:54Z</time>
      </trkpt>
      <trkpt lat="44.55469" lon="5.75399">
        <ele>992.2</ele>
        <time>2013-10-13T09:18:58Z</time>
      </trkpt>
      <trkpt lat="44.55465" lon="5.75412">
        <ele>997.7</ele>
        <time>2013-10-13T09:19:24Z</time>
      </trkpt>
      <trkpt lat="44.5546" lon="5.7543">
        <ele>997.8</ele>
        <time>2013-10-13T09:19:26Z</time>
      </trkpt>
      <trkpt lat="44.55452" lon="5.75463">
        <ele>1000.6</ele>
        <time>2013-10-13T09:19:38Z</time>
      </trkpt>
      <trkpt lat="44.55447" lon="5.75477">
        <ele>1001.4</ele>
        <time>2013-10-13T09:19:41Z</time>
      </trkpt>
      <trkpt lat="44.55439" lon="5.75485">
        <ele>1003.3</ele>
        <time>2013-10-13T09:19:47Z</time>
      </trkpt>
      <trkpt lat="44.55429" lon="5.75486">
        <ele>1004.9</ele>
        <time>2013-10-13T09:19:53Z</time>
      </trkpt>
      <trkpt lat="44.55419" lon="5.75487">
        <ele>1005.5</ele>
        <time>2013-10-13T09:19:58Z</time>
      </trkpt>
      <trkpt lat="44.5541" lon="5.75489">
        <ele>1006.1</ele>
        <time>2013-10-13T09:20:03Z</time>
      </trkpt>
      <trkpt lat="44.55403" lon="5.75497">
        <ele>1007.1</ele>
        <time>2013-10-13T09:20:08Z</time>
      </trkpt>
      <trkpt lat="44.55398" lon="5.7551">
        <ele>1008.2</ele>
        <time>2013-10-13T09:20:14Z</time>
      </trkpt>
      <trkpt lat="44.55394" lon="5.75522">
        <ele>1008.5</ele>
        <time>2013-10-13T09:20:19Z</time>
      </trkpt>
      <trkpt lat="44.55387" lon="5.75531">
        <ele>1008.2</ele>
        <time>2013-10-13T09:20:25Z</time>
      </trkpt>
      <trkpt lat="44.55379" lon="5.75539">
        <ele>1009</ele>
        <time>2013-10-13T09:20:30Z</time>
      </trkpt>
      <trkpt lat="44.55357" lon="5.75557">
        <ele>1008.7</ele>
        <time>2013-10-13T09:20:44Z</time>
      </trkpt>
      <trkpt lat="44.55349" lon="5.75565">
        <ele>1010.6</ele>
        <time>2013-10-13T09:20:49Z</time>
      </trkpt>
      <trkpt lat="44.5534" lon="5.75571">
        <ele>1012.7</ele>
        <time>2013-10-13T09:20:54Z</time>
      </trkpt>
      <trkpt lat="44.55331" lon="5.75578">
        <ele>1015</ele>
        <time>2013-10-13T09:20:59Z</time>
      </trkpt>
      <trkpt lat="44.55323" lon="5.75586">
        <ele>1016.5</ele>
        <time>2013-10-13T09:21:05Z</time>
      </trkpt>
      <trkpt lat="44.55311" lon="5.75599">
        <ele>1018.6</ele>
        <time>2013-10-13T09:21:16Z</time>
      </trkpt>
      <trkpt lat="44.55283" lon="5.75629">
        <ele>1020.9</ele>
        <time>2013-10-13T09:21:41Z</time>
      </trkpt>
      <trkpt lat="44.55262" lon="5.75633">
        <ele>1026</ele>
        <time>2013-10-13T09:22:12Z</time>
      </trkpt>
      <trkpt lat="44.55249" lon="5.7563">
        <ele>1025.8</ele>
        <time>2013-10-13T09:22:15Z</time>
      </trkpt>
      <trkpt lat="44.55238" lon="5.75626">
        <ele>1026.3</ele>
        <time>2013-10-13T09:22:17Z</time>
      </trkpt>
      <trkpt lat="44.55229" lon="5.75623">
        <ele>1027.1</ele>
        <time>2013-10-13T09:22:21Z</time>
      </trkpt>
      <trkpt lat="44.55219" lon="5.75619">
        <ele>1028.1</ele>
        <time>2013-10-13T09:22:29Z</time>
      </trkpt>
      <trkpt lat="44.5521" lon="5.75615">
        <ele>1028.1</ele>
        <time>2013-10-13T09:22:33Z</time>
      </trkpt>
      <trkpt lat="44.55201" lon="5.75609">
        <ele>1031</ele>
        <time>2013-10-13T09:22:48Z</time>
      </trkpt>
      <trkpt lat="44.55185" lon="5.75598">
        <ele>1031.3</ele>
        <time>2013-10-13T09:22:57Z</time>
      </trkpt>
      <trkpt lat="44.55175" lon="5.75598">
        <ele>1036.2</ele>
        <time>2013-10-13T09:23:30Z</time>
      </trkpt>
      <trkpt lat="44.55161" lon="5.75603">
        <ele>1036.4</ele>
        <time>2013-10-13T09:23:32Z</time>
      </trkpt>
      <trkpt lat="44.55151" lon="5.75607">
        <ele>1036.4</ele>
        <time>2013-10-13T09:23:35Z</time>
      </trkpt>
      <trkpt lat="44.55144" lon="5.75616">
        <ele>1044.1</ele>
        <time>2013-10-13T09:23:58Z</time>
      </trkpt>
      <trkpt lat="44.55133" lon="5.75665">
        <ele>1044.8</ele>
        <time>2013-10-13T09:24:02Z</time>
      </trkpt>
      <trkpt lat="44.55127" lon="5.75676">
        <ele>1046.4</ele>
        <time>2013-10-13T09:24:09Z</time>
      </trkpt>
      <trkpt lat="44.55122" lon="5.75687">
        <ele>1047.9</ele>
        <time>2013-10-13T09:24:25Z</time>
      </trkpt>
      <trkpt lat="44.55117" lon="5.75701">
        <ele>1055.6</ele>
        <time>2013-10-13T09:24:47Z</time>
      </trkpt>
      <trkpt lat="44.55103" lon="5.75752">
        <ele>1055.8</ele>
        <time>2013-10-13T09:24:49Z</time>
      </trkpt>
      <trkpt lat="44.55102" lon="5.75765">
        <ele>1056.3</ele>
        <time>2013-10-13T09:24:53Z</time>
      </trkpt>
      <trkpt lat="44.55098" lon="5.75778">
        <ele>1057.4</ele>
        <time>2013-10-13T09:24:58Z</time>
      </trkpt>
      <trkpt lat="44.55094" lon="5.7579">
        <ele>1057.5</ele>
        <time>2013-10-13T09:25:04Z</time>
      </trkpt>
      <trkpt lat="44.55083" lon="5.75814">
        <ele>1058.5</ele>
        <time>2013-10-13T09:25:15Z</time>
      </trkpt>
      <trkpt lat="44.55077" lon="5.75825">
        <ele>1059</ele>
        <time>2013-10-13T09:25:21Z</time>
      </trkpt>
      <trkpt lat="44.55072" lon="5.75835">
        <ele>1059.7</ele>
        <time>2013-10-13T09:25:32Z</time>
      </trkpt>
      <trkpt lat="44.55062" lon="5.75861">
        <ele>1066</ele>
        <time>2013-10-13T09:26:05Z</time>
      </trkpt>
      <trkpt lat="44.55054" lon="5.75887">
        <ele>1070.7</ele>
        <time>2013-10-13T09:26:22Z</time>
      </trkpt>
      <trkpt lat="44.55054" lon="5.759">
        <ele>1069.8</ele>
        <time>2013-10-13T09:26:24Z</time>
      </trkpt>
      <trkpt lat="44.55054" lon="5.75917">
        <ele>1069.7</ele>
        <time>2013-10-13T09:26:25Z</time>
      </trkpt>
      <trkpt lat="44.55054" lon="5.75933">
        <ele>1069.7</ele>
        <time>2013-10-13T09:26:28Z</time>
      </trkpt>
      <trkpt lat="44.55046" lon="5.75956">
        <ele>1070.6</ele>
        <time>2013-10-13T09:26:48Z</time>
      </trkpt>
      <trkpt lat="44.55038" lon="5.75969">
        <ele>1070.7</ele>
        <time>2013-10-13T09:26:50Z</time>
      </trkpt>
      <trkpt lat="44.55029" lon="5.75981">
        <ele>1070.5</ele>
        <time>2013-10-13T09:26:53Z</time>
      </trkpt>
      <trkpt lat="44.55023" lon="5.75993">
        <ele>1070.8</ele>
        <time>2013-10-13T09:26:56Z</time>
      </trkpt>
      <trkpt lat="44.55015" lon="5.76007">
        <ele>1074.7</ele>
        <time>2013-10-13T09:27:16Z</time>
      </trkpt>
      <trkpt lat="44.55007" lon="5.76036">
        <ele>1076.6</ele>
        <time>2013-10-13T09:27:22Z</time>
      </trkpt>
      <trkpt lat="44.54994" lon="5.76054">
        <ele>1086</ele>
        <time>2013-10-13T09:27:49Z</time>
      </trkpt>
      <trkpt lat="44.54984" lon="5.76061">
        <ele>1086.1</ele>
        <time>2013-10-13T09:27:51Z</time>
      </trkpt>
      <trkpt lat="44.54975" lon="5.76067">
        <ele>1086.2</ele>
        <time>2013-10-13T09:27:54Z</time>
      </trkpt>
      <trkpt lat="44.5496" lon="5.76081">
        <ele>1092.5</ele>
        <time>2013-10-13T09:28:23Z</time>
      </trkpt>
      <trkpt lat="44.54942" lon="5.76099">
        <ele>1092.6</ele>
        <time>2013-10-13T09:28:30Z</time>
      </trkpt>
      <trkpt lat="44.54935" lon="5.76109">
        <ele>1095.9</ele>
        <time>2013-10-13T09:28:47Z</time>
      </trkpt>
      <trkpt lat="44.54931" lon="5.76122">
        <ele>1095.7</ele>
        <time>2013-10-13T09:29:12Z</time>
      </trkpt>
      <trkpt lat="44.54926" lon="5.76133">
        <ele>1095.7</ele>
        <time>2013-10-13T09:29:18Z</time>
      </trkpt>
      <trkpt lat="44.54919" lon="5.76143">
        <ele>1101.4</ele>
        <time>2013-10-13T09:29:21Z</time>
      </trkpt>
      <trkpt lat="44.54909" lon="5.76157">
        <ele>1101.8</ele>
        <time>2013-10-13T09:29:34Z</time>
      </trkpt>
      <trkpt lat="44.54893" lon="5.76175">
        <ele>1102.7</ele>
        <time>2013-10-13T09:29:51Z</time>
      </trkpt>
      <trkpt lat="44.54886" lon="5.76183">
        <ele>1102.5</ele>
        <time>2013-10-13T09:29:53Z</time>
      </trkpt>
      <trkpt lat="44.54879" lon="5.76193">
        <ele>1102.9</ele>
        <time>2013-10-13T09:29:54Z</time>
      </trkpt>
      <trkpt lat="44.54871" lon="5.76203">
        <ele>1102.9</ele>
        <time>2013-10-13T09:29:57Z</time>
      </trkpt>
      <trkpt lat="44.54863" lon="5.76212">
        <ele>1112.5</ele>
        <time>2013-10-13T09:30:26Z</time>
      </trkpt>
      <trkpt lat="44.54852" lon="5.76223">
        <ele>1112.6</ele>
        <time>2013-10-13T09:30:51Z</time>
      </trkpt>
      <trkpt lat="44.54837" lon="5.76237">
        <ele>1112.6</ele>
        <time>2013-10-13T09:33:54Z</time>
      </trkpt>
      <trkpt lat="44.54818" lon="5.7625">
        <ele>1120.9</ele>
        <time>2013-10-13T09:34:38Z</time>
      </trkpt>
      <trkpt lat="44.54808" lon="5.76258">
        <ele>1120.9</ele>
        <time>2013-10-13T09:34:41Z</time>
      </trkpt>
      <trkpt lat="44.54799" lon="5.76264">
        <ele>1124</ele>
        <time>2013-10-13T09:36:22Z</time>
      </trkpt>
      <trkpt lat="44.54773" lon="5.76281">
        <ele>1124.5</ele>
        <time>2013-10-13T09:36:26Z</time>
      </trkpt>
      <trkpt lat="44.54765" lon="5.7629">
        <ele>1124.1</ele>
        <time>2013-10-13T09:36:30Z</time>
      </trkpt>
      <trkpt lat="44.54759" lon="5.76299">
        <ele>1124.1</ele>
        <time>2013-10-13T09:36:33Z</time>
      </trkpt>
      <trkpt lat="44.54752" lon="5.76311">
        <ele>1129.9</ele>
        <time>2013-10-13T09:37:05Z</time>
      </trkpt>
      <trkpt lat="44.54744" lon="5.76327">
        <ele>1130.8</ele>
        <time>2013-10-13T09:37:07Z</time>
      </trkpt>
      <trkpt lat="44.54738" lon="5.76338">
        <ele>1130.8</ele>
        <time>2013-10-13T09:37:15Z</time>
      </trkpt>
      <trkpt lat="44.54731" lon="5.76349">
        <ele>1139.5</ele>
        <time>2013-10-13T09:38:05Z</time>
      </trkpt>
      <trkpt lat="44.54709" lon="5.76368">
        <ele>1140.4</ele>
        <time>2013-10-13T09:38:09Z</time>
      </trkpt>
      <trkpt lat="44.54702" lon="5.76375">
        <ele>1140.4</ele>
        <time>2013-10-13T09:38:40Z</time>
      </trkpt>
      <trkpt lat="44.54683" lon="5.76389">
        <ele>1148</ele>
        <time>2013-10-13T09:38:48Z</time>
      </trkpt>
      <trkpt lat="44.54674" lon="5.76395">
        <ele>1148</ele>
        <time>2013-10-13T09:38:51Z</time>
      </trkpt>
      <trkpt lat="44.54662" lon="5.76401">
        <ele>1151.8</ele>
        <time>2013-10-13T09:39:23Z</time>
      </trkpt>
      <trkpt lat="44.54645" lon="5.76411">
        <ele>1151.7</ele>
        <time>2013-10-13T09:39:26Z</time>
      </trkpt>
      <trkpt lat="44.54635" lon="5.76417">
        <ele>1151.7</ele>
        <time>2013-10-13T09:39:29Z</time>
      </trkpt>
      <trkpt lat="44.54626" lon="5.7642">
        <ele>1154.6</ele>
        <time>2013-10-13T09:39:56Z</time>
      </trkpt>
      <trkpt lat="44.54607" lon="5.76421">
        <ele>1155.2</ele>
        <time>2013-10-13T09:39:59Z</time>
      </trkpt>
      <trkpt lat="44.54598" lon="5.76422">
        <ele>1155.2</ele>
        <time>2013-10-13T09:40:01Z</time>
      </trkpt>
      <trkpt lat="44.54589" lon="5.76423">
        <ele>1155.2</ele>
        <time>2013-10-13T09:40:14Z</time>
      </trkpt>
      <trkpt lat="44.54578" lon="5.7642">
        <ele>1162.6</ele>
        <time>2013-10-13T09:40:28Z</time>
      </trkpt>
      <trkpt lat="44.54556" lon="5.76416">
        <ele>1163</ele>
        <time>2013-10-13T09:40:49Z</time>
      </trkpt>
      <trkpt lat="44.54546" lon="5.76418">
        <ele>1166.4</ele>
        <time>2013-10-13T09:41:03Z</time>
      </trkpt>
      <trkpt lat="44.54504" lon="5.76423">
        <ele>1166.2</ele>
        <time>2013-10-13T09:41:05Z</time>
      </trkpt>
      <trkpt lat="44.54495" lon="5.76418">
        <ele>1166.4</ele>
        <time>2013-10-13T09:41:09Z</time>
      </trkpt>
      <trkpt lat="44.54483" lon="5.76416">
        <ele>1166.4</ele>
        <time>2013-10-13T09:41:13Z</time>
      </trkpt>
      <trkpt lat="44.54473" lon="5.76412">
        <ele>1165.4</ele>
        <time>2013-10-13T09:41:16Z</time>
      </trkpt>
      <trkpt lat="44.54462" lon="5.76407">
        <ele>1165.3</ele>
        <time>2013-10-13T09:41:19Z</time>
      </trkpt>
      <trkpt lat="44.54451" lon="5.76402">
        <ele>1164.7</ele>
        <time>2013-10-13T09:41:22Z</time>
      </trkpt>
      <trkpt lat="44.54442" lon="5.76396">
        <ele>1163.8</ele>
        <time>2013-10-13T09:41:25Z</time>
      </trkpt>
      <trkpt lat="44.54431" lon="5.76387">
        <ele>1162.4</ele>
        <time>2013-10-13T09:41:28Z</time>
      </trkpt>
      <trkpt lat="44.54422" lon="5.76388">
        <ele>1159.4</ele>
        <time>2013-10-13T09:41:31Z</time>
      </trkpt>
      <trkpt lat="44.54401" lon="5.76392">
        <ele>1142.2</ele>
        <time>2013-10-13T09:41:47Z</time>
      </trkpt>
      <trkpt lat="44.54392" lon="5.76401">
        <ele>1139.4</ele>
        <time>2013-10-13T09:41:50Z</time>
      </trkpt>
      <trkpt lat="44.54381" lon="5.76411">
        <ele>1137.3</ele>
        <time>2013-10-13T09:41:53Z</time>
      </trkpt>
      <trkpt lat="44.54372" lon="5.76424">
        <ele>1136.5</ele>
        <time>2013-10-13T09:41:56Z</time>
      </trkpt>
      <trkpt lat="44.54362" lon="5.76434">
        <ele>1137.7</ele>
        <time>2013-10-13T09:41:59Z</time>
      </trkpt>
      <trkpt lat="44.54351" lon="5.76445">
        <ele>1137.3</ele>
        <time>2013-10-13T09:42:02Z</time>
      </trkpt>
      <trkpt lat="44.54343" lon="5.76454">
        <ele>1136.8</ele>
        <time>2013-10-13T09:42:05Z</time>
      </trkpt>
      <trkpt lat="44.54335" lon="5.76462">
        <ele>1136</ele>
        <time>2013-10-13T09:42:07Z</time>
      </trkpt>
      <trkpt lat="44.54322" lon="5.76473">
        <ele>1134.8</ele>
        <time>2013-10-13T09:42:09Z</time>
      </trkpt>
      <trkpt lat="44.54306" lon="5.76484">
        <ele>1132.9</ele>
        <time>2013-10-13T09:42:11Z</time>
      </trkpt>
      <trkpt lat="44.54306" lon="5.76469">
        <ele>1131.1</ele>
        <time>2013-10-13T09:42:14Z</time>
      </trkpt>
      <trkpt lat="44.54307" lon="5.76453">
        <ele>1130</ele>
        <time>2013-10-13T09:42:17Z</time>
      </trkpt>
      <trkpt lat="44.5431" lon="5.76437">
        <ele>1128.8</ele>
        <time>2013-10-13T09:42:20Z</time>
      </trkpt>
      <trkpt lat="44.54313" lon="5.76424">
        <ele>1128.2</ele>
        <time>2013-10-13T09:42:23Z</time>
      </trkpt>
      <trkpt lat="44.54315" lon="5.76411">
        <ele>1128</ele>
        <time>2013-10-13T09:42:26Z</time>
      </trkpt>
      <trkpt lat="44.54312" lon="5.76397">
        <ele>1125</ele>
        <time>2013-10-13T09:42:31Z</time>
      </trkpt>
      <trkpt lat="44.5431" lon="5.76383">
        <ele>1124</ele>
        <time>2013-10-13T09:42:35Z</time>
      </trkpt>
      <trkpt lat="44.54292" lon="5.76369">
        <ele>1117.8</ele>
        <time>2013-10-13T09:42:44Z</time>
      </trkpt>
      <trkpt lat="44.54283" lon="5.76363">
        <ele>1116.8</ele>
        <time>2013-10-13T09:42:47Z</time>
      </trkpt>
      <trkpt lat="44.54273" lon="5.7636">
        <ele>1114.9</ele>
        <time>2013-10-13T09:42:51Z</time>
      </trkpt>
      <trkpt lat="44.54262" lon="5.76357">
        <ele>1113.6</ele>
        <time>2013-10-13T09:42:54Z</time>
      </trkpt>
      <trkpt lat="44.54251" lon="5.76352">
        <ele>1111.4</ele>
        <time>2013-10-13T09:42:57Z</time>
      </trkpt>
      <trkpt lat="44.5424" lon="5.76346">
        <ele>1110.4</ele>
        <time>2013-10-13T09:42:59Z</time>
      </trkpt>
      <trkpt lat="44.54231" lon="5.76341">
        <ele>1109.1</ele>
        <time>2013-10-13T09:43:01Z</time>
      </trkpt>
      <trkpt lat="44.5422" lon="5.76337">
        <ele>1107.4</ele>
        <time>2013-10-13T09:43:04Z</time>
      </trkpt>
      <trkpt lat="44.54211" lon="5.76334">
        <ele>1105.5</ele>
        <time>2013-10-13T09:43:07Z</time>
      </trkpt>
      <trkpt lat="44.542" lon="5.76329">
        <ele>1102.3</ele>
        <time>2013-10-13T09:43:11Z</time>
      </trkpt>
      <trkpt lat="44.54191" lon="5.76325">
        <ele>1100.1</ele>
        <time>2013-10-13T09:43:15Z</time>
      </trkpt>
      <trkpt lat="44.54181" lon="5.7632">
        <ele>1096</ele>
        <time>2013-10-13T09:43:20Z</time>
      </trkpt>
      <trkpt lat="44.54172" lon="5.76313">
        <ele>1092</ele>
        <time>2013-10-13T09:43:24Z</time>
      </trkpt>
      <trkpt lat="44.54162" lon="5.76312">
        <ele>1086.6</ele>
        <time>2013-10-13T09:43:30Z</time>
      </trkpt>
      <trkpt lat="44.54152" lon="5.76307">
        <ele>1067.6</ele>
        <time>2013-10-13T09:44:21Z</time>
      </trkpt>
      <trkpt lat="44.54131" lon="5.76305">
        <ele>1064.3</ele>
        <time>2013-10-13T09:44:31Z</time>
      </trkpt>
      <trkpt lat="44.54119" lon="5.76303">
        <ele>1063.5</ele>
        <time>2013-10-13T09:44:34Z</time>
      </trkpt>
      <trkpt lat="44.5411" lon="5.76301">
        <ele>1062.5</ele>
        <time>2013-10-13T09:44:36Z</time>
      </trkpt>
      <trkpt lat="44.54098" lon="5.76298">
        <ele>1061.3</ele>
        <time>2013-10-13T09:44:38Z</time>
      </trkpt>
      <trkpt lat="44.54088" lon="5.76294">
        <ele>1060.6</ele>
        <time>2013-10-13T09:44:40Z</time>
      </trkpt>
      <trkpt lat="44.54079" lon="5.76289">
        <ele>1058.8</ele>
        <time>2013-10-13T09:44:42Z</time>
      </trkpt>
      <trkpt lat="44.54066" lon="5.76281">
        <ele>1057.3</ele>
        <time>2013-10-13T09:44:45Z</time>
      </trkpt>
      <trkpt lat="44.54057" lon="5.76276">
        <ele>1055.9</ele>
        <time>2013-10-13T09:44:47Z</time>
      </trkpt>
      <trkpt lat="44.54044" lon="5.76265">
        <ele>1054.5</ele>
        <time>2013-10-13T09:44:49Z</time>
      </trkpt>
      <trkpt lat="44.54035" lon="5.76253">
        <ele>1052.2</ele>
        <time>2013-10-13T09:44:52Z</time>
      </trkpt>
      <trkpt lat="44.54025" lon="5.76243">
        <ele>1050.9</ele>
        <time>2013-10-13T09:44:55Z</time>
      </trkpt>
      <trkpt lat="44.54013" lon="5.76238">
        <ele>1049.5</ele>
        <time>2013-10-13T09:44:58Z</time>
      </trkpt>
      <trkpt lat="44.54002" lon="5.76228">
        <ele>1047.6</ele>
        <time>2013-10-13T09:45:01Z</time>
      </trkpt>
      <trkpt lat="44.53994" lon="5.76223">
        <ele>1045.6</ele>
        <time>2013-10-13T09:45:03Z</time>
      </trkpt>
      <trkpt lat="44.53985" lon="5.76214">
        <ele>1043.2</ele>
        <time>2013-10-13T09:45:06Z</time>
      </trkpt>
      <trkpt lat="44.53974" lon="5.76212">
        <ele>1041.4</ele>
        <time>2013-10-13T09:45:09Z</time>
      </trkpt>
      <trkpt lat="44.5396" lon="5.7621">
        <ele>1039.4</ele>
        <time>2013-10-13T09:45:12Z</time>
      </trkpt>
      <trkpt lat="44.5395" lon="5.76206">
        <ele>1038.1</ele>
        <time>2013-10-13T09:45:14Z</time>
      </trkpt>
      <trkpt lat="44.53939" lon="5.76202">
        <ele>1037</ele>
        <time>2013-10-13T09:45:16Z</time>
      </trkpt>
      <trkpt lat="44.53929" lon="5.76197">
        <ele>1035.7</ele>
        <time>2013-10-13T09:45:18Z</time>
      </trkpt>
      <trkpt lat="44.53919" lon="5.76193">
        <ele>1034.7</ele>
        <time>2013-10-13T09:45:20Z</time>
      </trkpt>
      <trkpt lat="44.53908" lon="5.76186">
        <ele>1032</ele>
        <time>2013-10-13T09:45:23Z</time>
      </trkpt>
      <trkpt lat="44.53892" lon="5.76168">
        <ele>1028.8</ele>
        <time>2013-10-13T09:45:28Z</time>
      </trkpt>
      <trkpt lat="44.53885" lon="5.76159">
        <ele>1026.8</ele>
        <time>2013-10-13T09:45:30Z</time>
      </trkpt>
      <trkpt lat="44.53875" lon="5.76152">
        <ele>1025.7</ele>
        <time>2013-10-13T09:45:32Z</time>
      </trkpt>
      <trkpt lat="44.53864" lon="5.76143">
        <ele>1025.1</ele>
        <time>2013-10-13T09:45:34Z</time>
      </trkpt>
      <trkpt lat="44.53854" lon="5.76133">
        <ele>1023.4</ele>
        <time>2013-10-13T09:45:36Z</time>
      </trkpt>
      <trkpt lat="44.53845" lon="5.76122">
        <ele>1022.3</ele>
        <time>2013-10-13T09:45:38Z</time>
      </trkpt>
      <trkpt lat="44.53835" lon="5.76112">
        <ele>1021.1</ele>
        <time>2013-10-13T09:45:40Z</time>
      </trkpt>
      <trkpt lat="44.53827" lon="5.76102">
        <ele>1019.6</ele>
        <time>2013-10-13T09:45:42Z</time>
      </trkpt>
      <trkpt lat="44.53823" lon="5.7609">
        <ele>1017.8</ele>
        <time>2013-10-13T09:45:44Z</time>
      </trkpt>
      <trkpt lat="44.5382" lon="5.76078">
        <ele>1016.2</ele>
        <time>2013-10-13T09:45:46Z</time>
      </trkpt>
      <trkpt lat="44.53815" lon="5.76067">
        <ele>1015.3</ele>
        <time>2013-10-13T09:45:48Z</time>
      </trkpt>
      <trkpt lat="44.53809" lon="5.76054">
        <ele>1013.8</ele>
        <time>2013-10-13T09:45:50Z</time>
      </trkpt>
      <trkpt lat="44.53803" lon="5.7604">
        <ele>1012.4</ele>
        <time>2013-10-13T09:45:52Z</time>
      </trkpt>
      <trkpt lat="44.53796" lon="5.76023">
        <ele>1010.7</ele>
        <time>2013-10-13T09:45:54Z</time>
      </trkpt>
      <trkpt lat="44.53791" lon="5.76007">
        <ele>1009</ele>
        <time>2013-10-13T09:45:56Z</time>
      </trkpt>
      <trkpt lat="44.53786" lon="5.75992">
        <ele>1008.5</ele>
        <time>2013-10-13T09:45:58Z</time>
      </trkpt>
      <trkpt lat="44.5378" lon="5.75979">
        <ele>1007.8</ele>
        <time>2013-10-13T09:46:00Z</time>
      </trkpt>
      <trkpt lat="44.53774" lon="5.75968">
        <ele>1006.5</ele>
        <time>2013-10-13T09:46:02Z</time>
      </trkpt>
      <trkpt lat="44.53766" lon="5.75957">
        <ele>1005.9</ele>
        <time>2013-10-13T09:46:04Z</time>
      </trkpt>
      <trkpt lat="44.53758" lon="5.75945">
        <ele>1004.8</ele>
        <time>2013-10-13T09:46:06Z</time>
      </trkpt>
      <trkpt lat="44.53753" lon="5.75931">
        <ele>1002.9</ele>
        <time>2013-10-13T09:46:08Z</time>
      </trkpt>
      <trkpt lat="44.53749" lon="5.75918">
        <ele>1001.9</ele>
        <time>2013-10-13T09:46:10Z</time>
      </trkpt>
      <trkpt lat="44.53744" lon="5.75907">
        <ele>1001.1</ele>
        <time>2013-10-13T09:46:12Z</time>
      </trkpt>
      <trkpt lat="44.53737" lon="5.75896">
        <ele>1000.6</ele>
        <time>2013-10-13T09:46:14Z</time>
      </trkpt>
      <trkpt lat="44.5373" lon="5.75885">
        <ele>999.8</ele>
        <time>2013-10-13T09:46:16Z</time>
      </trkpt>
      <trkpt lat="44.53723" lon="5.75873">
        <ele>998.4</ele>
        <time>2013-10-13T09:46:18Z</time>
      </trkpt>
      <trkpt lat="44.53717" lon="5.75861">
        <ele>997.3</ele>
        <time>2013-10-13T09:46:20Z</time>
      </trkpt>
      <trkpt lat="44.53711" lon="5.75849">
        <ele>996.1</ele>
        <time>2013-10-13T09:46:22Z</time>
      </trkpt>
      <trkpt lat="44.53705" lon="5.75837">
        <ele>995.2</ele>
        <time>2013-10-13T09:46:24Z</time>
      </trkpt>
      <trkpt lat="44.53699" lon="5.75812">
        <ele>992.5</ele>
        <time>2013-10-13T09:46:28Z</time>
      </trkpt>
      <trkpt lat="44.53696" lon="5.758">
        <ele>991.4</ele>
        <time>2013-10-13T09:46:30Z</time>
      </trkpt>
      <trkpt lat="44.53696" lon="5.75786">
        <ele>990.2</ele>
        <time>2013-10-13T09:46:32Z</time>
      </trkpt>
      <trkpt lat="44.53694" lon="5.75774">
        <ele>988.9</ele>
        <time>2013-10-13T09:46:34Z</time>
      </trkpt>
      <trkpt lat="44.53685" lon="5.75764">
        <ele>986.7</ele>
        <time>2013-10-13T09:46:37Z</time>
      </trkpt>
      <trkpt lat="44.53675" lon="5.75759">
        <ele>984.8</ele>
        <time>2013-10-13T09:46:40Z</time>
      </trkpt>
      <trkpt lat="44.53666" lon="5.75747">
        <ele>983.1</ele>
        <time>2013-10-13T09:46:43Z</time>
      </trkpt>
      <trkpt lat="44.53661" lon="5.75734">
        <ele>982.2</ele>
        <time>2013-10-13T09:46:45Z</time>
      </trkpt>
      <trkpt lat="44.53653" lon="5.75722">
        <ele>980.9</ele>
        <time>2013-10-13T09:46:48Z</time>
      </trkpt>
      <trkpt lat="44.53641" lon="5.75713">
        <ele>979.2</ele>
        <time>2013-10-13T09:46:51Z</time>
      </trkpt>
      <trkpt lat="44.53633" lon="5.75705">
        <ele>977.8</ele>
        <time>2013-10-13T09:46:53Z</time>
      </trkpt>
      <trkpt lat="44.53626" lon="5.75696">
        <ele>976.4</ele>
        <time>2013-10-13T09:46:55Z</time>
      </trkpt>
      <trkpt lat="44.53618" lon="5.75686">
        <ele>975.3</ele>
        <time>2013-10-13T09:46:57Z</time>
      </trkpt>
      <trkpt lat="44.5361" lon="5.75674">
        <ele>974.1</ele>
        <time>2013-10-13T09:46:59Z</time>
      </trkpt>
      <trkpt lat="44.53601" lon="5.75662">
        <ele>973.2</ele>
        <time>2013-10-13T09:47:01Z</time>
      </trkpt>
      <trkpt lat="44.53594" lon="5.75651">
        <ele>972.5</ele>
        <time>2013-10-13T09:47:03Z</time>
      </trkpt>
      <trkpt lat="44.5359" lon="5.75639">
        <ele>971.8</ele>
        <time>2013-10-13T09:47:05Z</time>
      </trkpt>
      <trkpt lat="44.53587" lon="5.75625">
        <ele>971.1</ele>
        <time>2013-10-13T09:47:08Z</time>
      </trkpt>
      <trkpt lat="44.53577" lon="5.75616">
        <ele>968.5</ele>
        <time>2013-10-13T09:47:11Z</time>
      </trkpt>
      <trkpt lat="44.53566" lon="5.75614">
        <ele>966.9</ele>
        <time>2013-10-13T09:47:13Z</time>
      </trkpt>
      <trkpt lat="44.53556" lon="5.75607">
        <ele>966.1</ele>
        <time>2013-10-13T09:47:15Z</time>
      </trkpt>
      <trkpt lat="44.53547" lon="5.75599">
        <ele>965.2</ele>
        <time>2013-10-13T09:47:17Z</time>
      </trkpt>
      <trkpt lat="44.53536" lon="5.75593">
        <ele>964.1</ele>
        <time>2013-10-13T09:47:19Z</time>
      </trkpt>
      <trkpt lat="44.53525" lon="5.75587">
        <ele>963.3</ele>
        <time>2013-10-13T09:47:21Z</time>
      </trkpt>
      <trkpt lat="44.53515" lon="5.75581">
        <ele>962.7</ele>
        <time>2013-10-13T09:47:23Z</time>
      </trkpt>
      <trkpt lat="44.53506" lon="5.75574">
        <ele>962.2</ele>
        <time>2013-10-13T09:47:25Z</time>
      </trkpt>
      <trkpt lat="44.53488" lon="5.75557">
        <ele>960.3</ele>
        <time>2013-10-13T09:47:31Z</time>
      </trkpt>
      <trkpt lat="44.53478" lon="5.75559">
        <ele>960.7</ele>
        <time>2013-10-13T09:47:36Z</time>
      </trkpt>
      <trkpt lat="44.53465" lon="5.75558">
        <ele>960.9</ele>
        <time>2013-10-13T09:47:39Z</time>
      </trkpt>
      <trkpt lat="44.53453" lon="5.75555">
        <ele>961.1</ele>
        <time>2013-10-13T09:47:41Z</time>
      </trkpt>
      <trkpt lat="44.53438" lon="5.7555">
        <ele>961</ele>
        <time>2013-10-13T09:47:43Z</time>
      </trkpt>
      <trkpt lat="44.53425" lon="5.75546">
        <ele>959.9</ele>
        <time>2013-10-13T09:47:45Z</time>
      </trkpt>
      <trkpt lat="44.53411" lon="5.75547">
        <ele>957.9</ele>
        <time>2013-10-13T09:47:47Z</time>
      </trkpt>
      <trkpt lat="44.53397" lon="5.75549">
        <ele>955.5</ele>
        <time>2013-10-13T09:47:49Z</time>
      </trkpt>
      <trkpt lat="44.53385" lon="5.75548">
        <ele>953.7</ele>
        <time>2013-10-13T09:47:51Z</time>
      </trkpt>
      <trkpt lat="44.53376" lon="5.7555">
        <ele>952.1</ele>
        <time>2013-10-13T09:47:53Z</time>
      </trkpt>
      <trkpt lat="44.53366" lon="5.75552">
        <ele>950.6</ele>
        <time>2013-10-13T09:47:55Z</time>
      </trkpt>
      <trkpt lat="44.53365" lon="5.75535">
        <ele>940.6</ele>
        <time>2013-10-13T09:48:21Z</time>
      </trkpt>
      <trkpt lat="44.53367" lon="5.75522">
        <ele>939.3</ele>
        <time>2013-10-13T09:48:24Z</time>
      </trkpt>
      <trkpt lat="44.53368" lon="5.75507">
        <ele>938.3</ele>
        <time>2013-10-13T09:48:27Z</time>
      </trkpt>
      <trkpt lat="44.53375" lon="5.75479">
        <ele>935.7</ele>
        <time>2013-10-13T09:48:32Z</time>
      </trkpt>
      <trkpt lat="44.5338" lon="5.75465">
        <ele>934.7</ele>
        <time>2013-10-13T09:48:35Z</time>
      </trkpt>
      <trkpt lat="44.53387" lon="5.75453">
        <ele>933.6</ele>
        <time>2013-10-13T09:48:39Z</time>
      </trkpt>
      <trkpt lat="44.53389" lon="5.7544">
        <ele>932.5</ele>
        <time>2013-10-13T09:48:44Z</time>
      </trkpt>
      <trkpt lat="44.53388" lon="5.75427">
        <ele>930.2</ele>
        <time>2013-10-13T09:48:50Z</time>
      </trkpt>
      <trkpt lat="44.53385" lon="5.75412">
        <ele>927.9</ele>
        <time>2013-10-13T09:48:55Z</time>
      </trkpt>
      <trkpt lat="44.53379" lon="5.75402">
        <ele>925.6</ele>
        <time>2013-10-13T09:49:00Z</time>
      </trkpt>
      <trkpt lat="44.53369" lon="5.75397">
        <ele>911.6</ele>
        <time>2013-10-13T09:49:52Z</time>
      </trkpt>
      <trkpt lat="44.53346" lon="5.75408">
        <ele>911.3</ele>
        <time>2013-10-13T09:49:58Z</time>
      </trkpt>
      <trkpt lat="44.53339" lon="5.754">
        <ele>909.5</ele>
        <time>2013-10-13T09:50:03Z</time>
      </trkpt>
      <trkpt lat="44.53329" lon="5.754">
        <ele>907.5</ele>
        <time>2013-10-13T09:50:17Z</time>
      </trkpt>
      <trkpt lat="44.53319" lon="5.75402">
        <ele>907.1</ele>
        <time>2013-10-13T09:50:22Z</time>
      </trkpt>
      <trkpt lat="44.53311" lon="5.75394">
        <ele>906.7</ele>
        <time>2013-10-13T09:50:26Z</time>
      </trkpt>
      <trkpt lat="44.53304" lon="5.75383">
        <ele>906.4</ele>
        <time>2013-10-13T09:50:30Z</time>
      </trkpt>
      <trkpt lat="44.53297" lon="5.75373">
        <ele>906</ele>
        <time>2013-10-13T09:50:35Z</time>
      </trkpt>
      <trkpt lat="44.5329" lon="5.7536">
        <ele>905.9</ele>
        <time>2013-10-13T09:50:39Z</time>
      </trkpt>
      <trkpt lat="44.53275" lon="5.75361">
        <ele>902.4</ele>
        <time>2013-10-13T09:51:20Z</time>
      </trkpt>
      <trkpt lat="44.53258" lon="5.75347">
        <ele>902.4</ele>
        <time>2013-10-13T09:51:27Z</time>
      </trkpt>
      <trkpt lat="44.53249" lon="5.7535">
        <ele>902.4</ele>
        <time>2013-10-13T09:51:32Z</time>
      </trkpt>
      <trkpt lat="44.53239" lon="5.75358">
        <ele>903.5</ele>
        <time>2013-10-13T09:51:37Z</time>
      </trkpt>
      <trkpt lat="44.5323" lon="5.75364">
        <ele>904.2</ele>
        <time>2013-10-13T09:51:40Z</time>
      </trkpt>
      <trkpt lat="44.53221" lon="5.75365">
        <ele>904.9</ele>
        <time>2013-10-13T09:51:43Z</time>
      </trkpt>
      <trkpt lat="44.53211" lon="5.75365">
        <ele>904.7</ele>
        <time>2013-10-13T09:51:48Z</time>
      </trkpt>
      <trkpt lat="44.53202" lon="5.75372">
        <ele>905.2</ele>
        <time>2013-10-13T09:51:55Z</time>
      </trkpt>
      <trkpt lat="44.53193" lon="5.75372">
        <ele>905.8</ele>
        <time>2013-10-13T09:51:58Z</time>
      </trkpt>
      <trkpt lat="44.53183" lon="5.75371">
        <ele>905.4</ele>
        <time>2013-10-13T09:52:01Z</time>
      </trkpt>
      <trkpt lat="44.53171" lon="5.75377">
        <ele>905.7</ele>
        <time>2013-10-13T09:52:05Z</time>
      </trkpt>
      <trkpt lat="44.53158" lon="5.75377">
        <ele>905.5</ele>
        <time>2013-10-13T09:52:08Z</time>
      </trkpt>
      <trkpt lat="44.53149" lon="5.75378">
        <ele>905.6</ele>
        <time>2013-10-13T09:52:10Z</time>
      </trkpt>
      <trkpt lat="44.53138" lon="5.75383">
        <ele>905.4</ele>
        <time>2013-10-13T09:52:13Z</time>
      </trkpt>
      <trkpt lat="44.53128" lon="5.75386">
        <ele>904.4</ele>
        <time>2013-10-13T09:52:16Z</time>
      </trkpt>
      <trkpt lat="44.53117" lon="5.75389">
        <ele>902.9</ele>
        <time>2013-10-13T09:52:20Z</time>
      </trkpt>
      <trkpt lat="44.53107" lon="5.75386">
        <ele>901.7</ele>
        <time>2013-10-13T09:52:24Z</time>
      </trkpt>
      <trkpt lat="44.53092" lon="5.75368">
        <ele>901.3</ele>
        <time>2013-10-13T09:52:32Z</time>
      </trkpt>
      <trkpt lat="44.53089" lon="5.7538">
        <ele>900</ele>
        <time>2013-10-13T09:52:40Z</time>
      </trkpt>
      <trkpt lat="44.53083" lon="5.7539">
        <ele>899.1</ele>
        <time>2013-10-13T09:52:44Z</time>
      </trkpt>
      <trkpt lat="44.53075" lon="5.75403">
        <ele>893.9</ele>
        <time>2013-10-13T09:53:09Z</time>
      </trkpt>
      <trkpt lat="44.53073" lon="5.75416">
        <ele>886.7</ele>
        <time>2013-10-13T09:54:15Z</time>
      </trkpt>
      <trkpt lat="44.53061" lon="5.75441">
        <ele>884.9</ele>
        <time>2013-10-13T09:54:22Z</time>
      </trkpt>
      <trkpt lat="44.53053" lon="5.75453">
        <ele>885.2</ele>
        <time>2013-10-13T09:54:25Z</time>
      </trkpt>
      <trkpt lat="44.53043" lon="5.75461">
        <ele>884.9</ele>
        <time>2013-10-13T09:54:28Z</time>
      </trkpt>
      <trkpt lat="44.53035" lon="5.75464">
        <ele>882.9</ele>
        <time>2013-10-13T09:54:35Z</time>
      </trkpt>
      <trkpt lat="44.53025" lon="5.75467">
        <ele>880.6</ele>
        <time>2013-10-13T09:54:44Z</time>
      </trkpt>
      <trkpt lat="44.53017" lon="5.75472">
        <ele>880.6</ele>
        <time>2013-10-13T09:54:49Z</time>
      </trkpt>
      <trkpt lat="44.53007" lon="5.75479">
        <ele>879.9</ele>
        <time>2013-10-13T09:54:54Z</time>
      </trkpt>
      <trkpt lat="44.52997" lon="5.75487">
        <ele>879.5</ele>
        <time>2013-10-13T09:54:57Z</time>
      </trkpt>
      <trkpt lat="44.5299" lon="5.75496">
        <ele>878.9</ele>
        <time>2013-10-13T09:54:59Z</time>
      </trkpt>
      <trkpt lat="44.5298" lon="5.75501">
        <ele>878.9</ele>
        <time>2013-10-13T09:55:03Z</time>
      </trkpt>
      <trkpt lat="44.52971" lon="5.75512">
        <ele>878.8</ele>
        <time>2013-10-13T09:55:06Z</time>
      </trkpt>
      <trkpt lat="44.5297" lon="5.75527">
        <ele>875.6</ele>
        <time>2013-10-13T09:55:15Z</time>
      </trkpt>
      <trkpt lat="44.52964" lon="5.75539">
        <ele>873.3</ele>
        <time>2013-10-13T09:55:20Z</time>
      </trkpt>
      <trkpt lat="44.52941" lon="5.75549">
        <ele>871.7</ele>
        <time>2013-10-13T09:55:26Z</time>
      </trkpt>
      <trkpt lat="44.52931" lon="5.75556">
        <ele>871</ele>
        <time>2013-10-13T09:55:28Z</time>
      </trkpt>
      <trkpt lat="44.52919" lon="5.75566">
        <ele>870.3</ele>
        <time>2013-10-13T09:55:30Z</time>
      </trkpt>
      <trkpt lat="44.52906" lon="5.75574">
        <ele>869.6</ele>
        <time>2013-10-13T09:55:32Z</time>
      </trkpt>
      <trkpt lat="44.52868" lon="5.75601">
        <ele>869.4</ele>
        <time>2013-10-13T09:55:34Z</time>
      </trkpt>
      <trkpt lat="44.52855" lon="5.7561">
        <ele>870.2</ele>
        <time>2013-10-13T09:55:36Z</time>
      </trkpt>
      <trkpt lat="44.52842" lon="5.75616">
        <ele>870.4</ele>
        <time>2013-10-13T09:55:38Z</time>
      </trkpt>
      <trkpt lat="44.52833" lon="5.75622">
        <ele>869.6</ele>
        <time>2013-10-13T09:55:40Z</time>
      </trkpt>
      <trkpt lat="44.52824" lon="5.75636">
        <ele>865.7</ele>
        <time>2013-10-13T09:55:43Z</time>
      </trkpt>
      <trkpt lat="44.52817" lon="5.75646">
        <ele>863.3</ele>
        <time>2013-10-13T09:55:45Z</time>
      </trkpt>
      <trkpt lat="44.52811" lon="5.75657">
        <ele>861.1</ele>
        <time>2013-10-13T09:55:47Z</time>
      </trkpt>
      <trkpt lat="44.52806" lon="5.75669">
        <ele>857.7</ele>
        <time>2013-10-13T09:55:50Z</time>
      </trkpt>
      <trkpt lat="44.52799" lon="5.75677">
        <ele>855.6</ele>
        <time>2013-10-13T09:55:53Z</time>
      </trkpt>
      <trkpt lat="44.52788" lon="5.75686">
        <ele>855.6</ele>
        <time>2013-10-13T09:55:56Z</time>
      </trkpt>
      <trkpt lat="44.52776" lon="5.75695">
        <ele>855.3</ele>
        <time>2013-10-13T09:55:58Z</time>
      </trkpt>
      <trkpt lat="44.52765" lon="5.75705">
        <ele>854.6</ele>
        <time>2013-10-13T09:56:00Z</time>
      </trkpt>
      <trkpt lat="44.52738" lon="5.75724">
        <ele>854.8</ele>
        <time>2013-10-13T09:56:01Z</time>
      </trkpt>
      <trkpt lat="44.52723" lon="5.75728">
        <ele>854.6</ele>
        <time>2013-10-13T09:56:03Z</time>
      </trkpt>
      <trkpt lat="44.52708" lon="5.75731">
        <ele>853.3</ele>
        <time>2013-10-13T09:56:05Z</time>
      </trkpt>
      <trkpt lat="44.52694" lon="5.75729">
        <ele>852.5</ele>
        <time>2013-10-13T09:56:07Z</time>
      </trkpt>
      <trkpt lat="44.52684" lon="5.75723">
        <ele>850.7</ele>
        <time>2013-10-13T09:56:09Z</time>
      </trkpt>
      <trkpt lat="44.52676" lon="5.75709">
        <ele>846.9</ele>
        <time>2013-10-13T09:56:12Z</time>
      </trkpt>
      <trkpt lat="44.52669" lon="5.75696">
        <ele>844.2</ele>
        <time>2013-10-13T09:56:15Z</time>
      </trkpt>
      <trkpt lat="44.52668" lon="5.7568">
        <ele>841</ele>
        <time>2013-10-13T09:56:30Z</time>
      </trkpt>
      <trkpt lat="44.52653" lon="5.75657">
        <ele>842.2</ele>
        <time>2013-10-13T09:56:39Z</time>
      </trkpt>
      <trkpt lat="44.52647" lon="5.75645">
        <ele>841.8</ele>
        <time>2013-10-13T09:56:42Z</time>
      </trkpt>
      <trkpt lat="44.52639" lon="5.75628">
        <ele>841.7</ele>
        <time>2013-10-13T09:56:45Z</time>
      </trkpt>
      <trkpt lat="44.52633" lon="5.75617">
        <ele>841.4</ele>
        <time>2013-10-13T09:56:47Z</time>
      </trkpt>
      <trkpt lat="44.52626" lon="5.75608">
        <ele>841.2</ele>
        <time>2013-10-13T09:56:49Z</time>
      </trkpt>
      <trkpt lat="44.52615" lon="5.75596">
        <ele>840.8</ele>
        <time>2013-10-13T09:56:51Z</time>
      </trkpt>
      <trkpt lat="44.52603" lon="5.75585">
        <ele>840.4</ele>
        <time>2013-10-13T09:56:53Z</time>
      </trkpt>
      <trkpt lat="44.52591" lon="5.75574">
        <ele>839.7</ele>
        <time>2013-10-13T09:56:55Z</time>
      </trkpt>
      <trkpt lat="44.52579" lon="5.75562">
        <ele>839</ele>
        <time>2013-10-13T09:56:57Z</time>
      </trkpt>
      <trkpt lat="44.52567" lon="5.75548">
        <ele>838.2</ele>
        <time>2013-10-13T09:56:59Z</time>
      </trkpt>
      <trkpt lat="44.52559" lon="5.75531">
        <ele>837.8</ele>
        <time>2013-10-13T09:57:01Z</time>
      </trkpt>
      <trkpt lat="44.52553" lon="5.75514">
        <ele>837</ele>
        <time>2013-10-13T09:57:03Z</time>
      </trkpt>
      <trkpt lat="44.52549" lon="5.75499">
        <ele>836.3</ele>
        <time>2013-10-13T09:57:05Z</time>
      </trkpt>
      <trkpt lat="44.52545" lon="5.75484">
        <ele>836</ele>
        <time>2013-10-13T09:57:08Z</time>
      </trkpt>
      <trkpt lat="44.52541" lon="5.75471">
        <ele>835.9</ele>
        <time>2013-10-13T09:57:10Z</time>
      </trkpt>
      <trkpt lat="44.52537" lon="5.75457">
        <ele>835.7</ele>
        <time>2013-10-13T09:57:12Z</time>
      </trkpt>
      <trkpt lat="44.52531" lon="5.75443">
        <ele>835.2</ele>
        <time>2013-10-13T09:57:15Z</time>
      </trkpt>
      <trkpt lat="44.52524" lon="5.75432">
        <ele>835</ele>
        <time>2013-10-13T09:57:18Z</time>
      </trkpt>
      <trkpt lat="44.52517" lon="5.75423">
        <ele>833.5</ele>
        <time>2013-10-13T09:57:21Z</time>
      </trkpt>
      <trkpt lat="44.52509" lon="5.75412">
        <ele>832.9</ele>
        <time>2013-10-13T09:57:24Z</time>
      </trkpt>
      <trkpt lat="44.52503" lon="5.75402">
        <ele>832.5</ele>
        <time>2013-10-13T09:57:26Z</time>
      </trkpt>
      <trkpt lat="44.52493" lon="5.75392">
        <ele>832</ele>
        <time>2013-10-13T09:57:29Z</time>
      </trkpt>
      <trkpt lat="44.5248" lon="5.75383">
        <ele>830.8</ele>
        <time>2013-10-13T09:57:32Z</time>
      </trkpt>
      <trkpt lat="44.5246" lon="5.75368">
        <ele>829.1</ele>
        <time>2013-10-13T09:57:36Z</time>
      </trkpt>
      <trkpt lat="44.52452" lon="5.75361">
        <ele>828.7</ele>
        <time>2013-10-13T09:57:38Z</time>
      </trkpt>
      <trkpt lat="44.52444" lon="5.75352">
        <ele>828.3</ele>
        <time>2013-10-13T09:57:40Z</time>
      </trkpt>
      <trkpt lat="44.52433" lon="5.75339">
        <ele>827.3</ele>
        <time>2013-10-13T09:57:42Z</time>
      </trkpt>
      <trkpt lat="44.52421" lon="5.75323">
        <ele>824.8</ele>
        <time>2013-10-13T09:57:44Z</time>
      </trkpt>
      <trkpt lat="44.52393" lon="5.75291">
        <ele>825</ele>
        <time>2013-10-13T09:57:45Z</time>
      </trkpt>
      <trkpt lat="44.52377" lon="5.7529">
        <ele>821.7</ele>
        <time>2013-10-13T09:57:47Z</time>
      </trkpt>
      <trkpt lat="44.52359" lon="5.75298">
        <ele>816</ele>
        <time>2013-10-13T09:57:49Z</time>
      </trkpt>
      <trkpt lat="44.5235" lon="5.75301">
        <ele>814.7</ele>
        <time>2013-10-13T09:57:50Z</time>
      </trkpt>
      <trkpt lat="44.5234" lon="5.75305">
        <ele>813.9</ele>
        <time>2013-10-13T09:57:51Z</time>
      </trkpt>
      <trkpt lat="44.52329" lon="5.75311">
        <ele>812.6</ele>
        <time>2013-10-13T09:57:52Z</time>
      </trkpt>
      <trkpt lat="44.5232" lon="5.75321">
        <ele>810.8</ele>
        <time>2013-10-13T09:57:53Z</time>
      </trkpt>
      <trkpt lat="44.52311" lon="5.75331">
        <ele>808.6</ele>
        <time>2013-10-13T09:57:54Z</time>
      </trkpt>
      <trkpt lat="44.52298" lon="5.75346">
        <ele>805.8</ele>
        <time>2013-10-13T09:57:56Z</time>
      </trkpt>
      <trkpt lat="44.52297" lon="5.75327">
        <ele>800.2</ele>
        <time>2013-10-13T09:58:00Z</time>
      </trkpt>
      <trkpt lat="44.52295" lon="5.75302">
        <ele>797.6</ele>
        <time>2013-10-13T09:58:02Z</time>
      </trkpt>
      <trkpt lat="44.52287" lon="5.75281">
        <ele>796.2</ele>
        <time>2013-10-13T09:58:04Z</time>
      </trkpt>
      <trkpt lat="44.52279" lon="5.75273">
        <ele>794</ele>
        <time>2013-10-13T09:58:05Z</time>
      </trkpt>
      <trkpt lat="44.52268" lon="5.7527">
        <ele>792.1</ele>
        <time>2013-10-13T09:58:06Z</time>
      </trkpt>
      <trkpt lat="44.52257" lon="5.75269">
        <ele>790.8</ele>
        <time>2013-10-13T09:58:07Z</time>
      </trkpt>
      <trkpt lat="44.52245" lon="5.75268">
        <ele>789.8</ele>
        <time>2013-10-13T09:58:08Z</time>
      </trkpt>
      <trkpt lat="44.52236" lon="5.75266">
        <ele>788.6</ele>
        <time>2013-10-13T09:58:09Z</time>
      </trkpt>
      <trkpt lat="44.5222" lon="5.75261">
        <ele>785.9</ele>
        <time>2013-10-13T09:58:11Z</time>
      </trkpt>
      <trkpt lat="44.52207" lon="5.75253">
        <ele>784.8</ele>
        <time>2013-10-13T09:58:13Z</time>
      </trkpt>
      <trkpt lat="44.52197" lon="5.75244">
        <ele>783.9</ele>
        <time>2013-10-13T09:58:15Z</time>
      </trkpt>
      <trkpt lat="44.52188" lon="5.75234">
        <ele>782.8</ele>
        <time>2013-10-13T09:58:17Z</time>
      </trkpt>
      <trkpt lat="44.52181" lon="5.75224">
        <ele>782.1</ele>
        <time>2013-10-13T09:58:19Z</time>
      </trkpt>
      <trkpt lat="44.52174" lon="5.75215">
        <ele>781.7</ele>
        <time>2013-10-13T09:58:21Z</time>
      </trkpt>
      <trkpt lat="44.52164" lon="5.75203">
        <ele>781.2</ele>
        <time>2013-10-13T09:58:24Z</time>
      </trkpt>
      <trkpt lat="44.52157" lon="5.7519">
        <ele>780.9</ele>
        <time>2013-10-13T09:58:27Z</time>
      </trkpt>
      <trkpt lat="44.52149" lon="5.75181">
        <ele>780.9</ele>
        <time>2013-10-13T09:58:32Z</time>
      </trkpt>
      <trkpt lat="44.5214" lon="5.75188">
        <ele>780.9</ele>
        <time>2013-10-13T09:58:38Z</time>
      </trkpt>
      <trkpt lat="44.52126" lon="5.75211">
        <ele>780</ele>
        <time>2013-10-13T09:58:44Z</time>
      </trkpt>
      <trkpt lat="44.52116" lon="5.75222">
        <ele>779.9</ele>
        <time>2013-10-13T09:58:47Z</time>
      </trkpt>
      <trkpt lat="44.52107" lon="5.75234">
        <ele>780</ele>
        <time>2013-10-13T09:58:50Z</time>
      </trkpt>
      <trkpt lat="44.52097" lon="5.75244">
        <ele>780.2</ele>
        <time>2013-10-13T09:58:53Z</time>
      </trkpt>
      <trkpt lat="44.52088" lon="5.75253">
        <ele>780.7</ele>
        <time>2013-10-13T09:58:56Z</time>
      </trkpt>
      <trkpt lat="44.52083" lon="5.75263">
        <ele>779.7</ele>
        <time>2013-10-13T09:59:00Z</time>
      </trkpt>
      <trkpt lat="44.52078" lon="5.75274">
        <ele>779.2</ele>
        <time>2013-10-13T09:59:03Z</time>
      </trkpt>
      <trkpt lat="44.52074" lon="5.75287">
        <ele>778.7</ele>
        <time>2013-10-13T09:59:06Z</time>
      </trkpt>
      <trkpt lat="44.5207" lon="5.75301">
        <ele>778.6</ele>
        <time>2013-10-13T09:59:09Z</time>
      </trkpt>
      <trkpt lat="44.52064" lon="5.75314">
        <ele>778.1</ele>
        <time>2013-10-13T09:59:12Z</time>
      </trkpt>
      <trkpt lat="44.52057" lon="5.75328">
        <ele>777.1</ele>
        <time>2013-10-13T09:59:15Z</time>
      </trkpt>
      <trkpt lat="44.52052" lon="5.7534">
        <ele>777.2</ele>
        <time>2013-10-13T09:59:17Z</time>
      </trkpt>
      <trkpt lat="44.52045" lon="5.75354">
        <ele>777.7</ele>
        <time>2013-10-13T09:59:19Z</time>
      </trkpt>
      <trkpt lat="44.52037" lon="5.75367">
        <ele>777.4</ele>
        <time>2013-10-13T09:59:21Z</time>
      </trkpt>
      <trkpt lat="44.52028" lon="5.7538">
        <ele>775.9</ele>
        <time>2013-10-13T09:59:23Z</time>
      </trkpt>
      <trkpt lat="44.52018" lon="5.75392">
        <ele>775</ele>
        <time>2013-10-13T09:59:25Z</time>
      </trkpt>
      <trkpt lat="44.5201" lon="5.75401">
        <ele>774.1</ele>
        <time>2013-10-13T09:59:27Z</time>
      </trkpt>
      <trkpt lat="44.52002" lon="5.75411">
        <ele>773.5</ele>
        <time>2013-10-13T09:59:29Z</time>
      </trkpt>
      <trkpt lat="44.51994" lon="5.7542">
        <ele>773.3</ele>
        <time>2013-10-13T09:59:31Z</time>
      </trkpt>
      <trkpt lat="44.51986" lon="5.75428">
        <ele>773.1</ele>
        <time>2013-10-13T09:59:33Z</time>
      </trkpt>
      <trkpt lat="44.51974" lon="5.75438">
        <ele>772</ele>
        <time>2013-10-13T09:59:36Z</time>
      </trkpt>
      <trkpt lat="44.51967" lon="5.75445">
        <ele>771.9</ele>
        <time>2013-10-13T09:59:38Z</time>
      </trkpt>
      <trkpt lat="44.51958" lon="5.7545">
        <ele>771.8</ele>
        <time>2013-10-13T09:59:41Z</time>
      </trkpt>
      <trkpt lat="44.51965" lon="5.75471">
        <ele>771.5</ele>
        <time>2013-10-13T09:59:51Z</time>
      </trkpt>
      <trkpt lat="44.51976" lon="5.75474">
        <ele>770.9</ele>
        <time>2013-10-13T09:59:54Z</time>
      </trkpt>
      <trkpt lat="44.51988" lon="5.75478">
        <ele>770.1</ele>
        <time>2013-10-13T09:59:57Z</time>
      </trkpt>
      <trkpt lat="44.52" lon="5.75483">
        <ele>769.5</ele>
        <time>2013-10-13T10:00:00Z</time>
      </trkpt>
      <trkpt lat="44.52013" lon="5.75488">
        <ele>769.4</ele>
        <time>2013-10-13T10:00:03Z</time>
      </trkpt>
      <trkpt lat="44.52026" lon="5.75492">
        <ele>769.7</ele>
        <time>2013-10-13T10:00:06Z</time>
      </trkpt>
      <trkpt lat="44.52039" lon="5.75494">
        <ele>768.7</ele>
        <time>2013-10-13T10:00:09Z</time>
      </trkpt>
      <trkpt lat="44.52051" lon="5.75498">
        <ele>768.5</ele>
        <time>2013-10-13T10:00:12Z</time>
      </trkpt>
      <trkpt lat="44.52063" lon="5.75502">
        <ele>768.6</ele>
        <time>2013-10-13T10:00:15Z</time>
      </trkpt>
      <trkpt lat="44.52072" lon="5.75507">
        <ele>768.4</ele>
        <time>2013-10-13T10:00:17Z</time>
      </trkpt>
      <trkpt lat="44.52081" lon="5.75511">
        <ele>768.4</ele>
        <time>2013-10-13T10:00:19Z</time>
      </trkpt>
      <trkpt lat="44.5209" lon="5.75517">
        <ele>768</ele>
        <time>2013-10-13T10:00:21Z</time>
      </trkpt>
      <trkpt lat="44.52101" lon="5.75522">
        <ele>768.7</ele>
        <time>2013-10-13T10:00:24Z</time>
      </trkpt>
      <trkpt lat="44.52112" lon="5.75526">
        <ele>768.9</ele>
        <time>2013-10-13T10:00:27Z</time>
      </trkpt>
      <trkpt lat="44.52103" lon="5.75536">
        <ele>767.4</ele>
        <time>2013-10-13T10:00:33Z</time>
      </trkpt>
      <trkpt lat="44.5209" lon="5.75532">
        <ele>766.7</ele>
        <time>2013-10-13T10:00:36Z</time>
      </trkpt>
      <trkpt lat="44.52081" lon="5.75528">
        <ele>766.5</ele>
        <time>2013-10-13T10:00:38Z</time>
      </trkpt>
      <trkpt lat="44.52072" lon="5.75523">
        <ele>766.2</ele>
        <time>2013-10-13T10:00:40Z</time>
      </trkpt>
      <trkpt lat="44.52064" lon="5.75518">
        <ele>766.3</ele>
        <time>2013-10-13T10:00:42Z</time>
      </trkpt>
      <trkpt lat="44.52044" lon="5.75511">
        <ele>765.1</ele>
        <time>2013-10-13T10:00:51Z</time>
      </trkpt>
      <trkpt lat="44.52022" lon="5.75547">
        <ele>766.9</ele>
        <time>2013-10-13T10:01:21Z</time>
      </trkpt>
      <trkpt lat="44.52008" lon="5.75555">
        <ele>765.9</ele>
        <time>2013-10-13T10:01:31Z</time>
      </trkpt>
      <trkpt lat="44.51997" lon="5.75553">
        <ele>765.7</ele>
        <time>2013-10-13T10:01:36Z</time>
      </trkpt>
      <trkpt lat="44.51987" lon="5.75553">
        <ele>764.9</ele>
        <time>2013-10-13T10:01:40Z</time>
      </trkpt>
      <trkpt lat="44.51976" lon="5.75552">
        <ele>764.3</ele>
        <time>2013-10-13T10:01:44Z</time>
      </trkpt>
      <trkpt lat="44.51953" lon="5.75553">
        <ele>764.7</ele>
        <time>2013-10-13T10:01:53Z</time>
      </trkpt>
      <trkpt lat="44.51942" lon="5.75553">
        <ele>765.1</ele>
        <time>2013-10-13T10:01:57Z</time>
      </trkpt>
      <trkpt lat="44.51932" lon="5.75555">
        <ele>765</ele>
        <time>2013-10-13T10:02:01Z</time>
      </trkpt>
      <trkpt lat="44.51922" lon="5.75562">
        <ele>763.5</ele>
        <time>2013-10-13T10:02:06Z</time>
      </trkpt>
      <trkpt lat="44.51915" lon="5.75569">
        <ele>762</ele>
        <time>2013-10-13T10:02:09Z</time>
      </trkpt>
      <trkpt lat="44.51907" lon="5.75577">
        <ele>761.9</ele>
        <time>2013-10-13T10:02:12Z</time>
      </trkpt>
      <trkpt lat="44.519" lon="5.75587">
        <ele>762</ele>
        <time>2013-10-13T10:02:15Z</time>
      </trkpt>
      <trkpt lat="44.51894" lon="5.756">
        <ele>762.4</ele>
        <time>2013-10-13T10:02:18Z</time>
      </trkpt>
      <trkpt lat="44.51887" lon="5.75613">
        <ele>762.6</ele>
        <time>2013-10-13T10:02:21Z</time>
      </trkpt>
      <trkpt lat="44.5188" lon="5.75626">
        <ele>762.8</ele>
        <time>2013-10-13T10:02:24Z</time>
      </trkpt>
      <trkpt lat="44.51874" lon="5.7564">
        <ele>762.9</ele>
        <time>2013-10-13T10:02:27Z</time>
      </trkpt>
      <trkpt lat="44.51869" lon="5.75651">
        <ele>762.9</ele>
        <time>2013-10-13T10:02:30Z</time>
      </trkpt>
      <trkpt lat="44.51863" lon="5.75661">
        <ele>763</ele>
        <time>2013-10-13T10:02:34Z</time>
      </trkpt>
      <trkpt lat="44.51853" lon="5.7566">
        <ele>764.6</ele>
        <time>2013-10-13T10:04:29Z</time>
      </trkpt>
      <trkpt lat="44.51829" lon="5.75671">
        <ele>764.1</ele>
        <time>2013-10-13T10:04:36Z</time>
      </trkpt>
      <trkpt lat="44.51816" lon="5.75681">
        <ele>762.9</ele>
        <time>2013-10-13T10:04:43Z</time>
      </trkpt>
      <trkpt lat="44.51805" lon="5.75687">
        <ele>762.1</ele>
        <time>2013-10-13T10:04:47Z</time>
      </trkpt>
      <trkpt lat="44.51797" lon="5.75695">
        <ele>761.1</ele>
        <time>2013-10-13T10:04:51Z</time>
      </trkpt>
      <trkpt lat="44.51786" lon="5.75702">
        <ele>760.8</ele>
        <time>2013-10-13T10:04:55Z</time>
      </trkpt>
      <trkpt lat="44.51778" lon="5.75708">
        <ele>761.6</ele>
        <time>2013-10-13T10:04:57Z</time>
      </trkpt>
      <trkpt lat="44.51768" lon="5.75716">
        <ele>762.3</ele>
        <time>2013-10-13T10:04:59Z</time>
      </trkpt>
      <trkpt lat="44.51758" lon="5.75722">
        <ele>763.1</ele>
        <time>2013-10-13T10:05:01Z</time>
      </trkpt>
      <trkpt lat="44.51749" lon="5.75727">
        <ele>763.4</ele>
        <time>2013-10-13T10:05:03Z</time>
      </trkpt>
      <trkpt lat="44.51739" lon="5.75731">
        <ele>764.4</ele>
        <time>2013-10-13T10:05:05Z</time>
      </trkpt>
      <trkpt lat="44.51726" lon="5.75732">
        <ele>765</ele>
        <time>2013-10-13T10:05:08Z</time>
      </trkpt>
      <trkpt lat="44.51715" lon="5.7573">
        <ele>765</ele>
        <time>2013-10-13T10:05:11Z</time>
      </trkpt>
      <trkpt lat="44.51705" lon="5.75723">
        <ele>764.1</ele>
        <time>2013-10-13T10:05:14Z</time>
      </trkpt>
      <trkpt lat="44.51697" lon="5.75714">
        <ele>763.4</ele>
        <time>2013-10-13T10:05:17Z</time>
      </trkpt>
      <trkpt lat="44.51686" lon="5.75705">
        <ele>763.3</ele>
        <time>2013-10-13T10:05:20Z</time>
      </trkpt>
      <trkpt lat="44.51676" lon="5.75695">
        <ele>763</ele>
        <time>2013-10-13T10:05:23Z</time>
      </trkpt>
      <trkpt lat="44.51667" lon="5.75684">
        <ele>763.1</ele>
        <time>2013-10-13T10:05:26Z</time>
      </trkpt>
      <trkpt lat="44.51658" lon="5.75676">
        <ele>763.1</ele>
        <time>2013-10-13T10:05:29Z</time>
      </trkpt>
      <trkpt lat="44.51648" lon="5.75664">
        <ele>763.2</ele>
        <time>2013-10-13T10:05:32Z</time>
      </trkpt>
      <trkpt lat="44.51625" lon="5.75645">
        <ele>762.9</ele>
        <time>2013-10-13T10:05:38Z</time>
      </trkpt>
      <trkpt lat="44.51616" lon="5.75635">
        <ele>762.3</ele>
        <time>2013-10-13T10:05:41Z</time>
      </trkpt>
      <trkpt lat="44.51607" lon="5.75628">
        <ele>761.4</ele>
        <time>2013-10-13T10:05:44Z</time>
      </trkpt>
      <trkpt lat="44.51597" lon="5.7562">
        <ele>761.9</ele>
        <time>2013-10-13T10:05:47Z</time>
      </trkpt>
      <trkpt lat="44.51587" lon="5.75615">
        <ele>762.7</ele>
        <time>2013-10-13T10:05:50Z</time>
      </trkpt>
      <trkpt lat="44.51579" lon="5.75607">
        <ele>762.5</ele>
        <time>2013-10-13T10:05:53Z</time>
      </trkpt>
      <trkpt lat="44.51582" lon="5.75593">
        <ele>762.8</ele>
        <time>2013-10-13T10:05:58Z</time>
      </trkpt>
      <trkpt lat="44.51588" lon="5.75583">
        <ele>763.3</ele>
        <time>2013-10-13T10:06:01Z</time>
      </trkpt>
      <trkpt lat="44.51595" lon="5.7557">
        <ele>763.8</ele>
        <time>2013-10-13T10:06:04Z</time>
      </trkpt>
      <trkpt lat="44.51602" lon="5.75553">
        <ele>764.4</ele>
        <time>2013-10-13T10:06:07Z</time>
      </trkpt>
      <trkpt lat="44.51607" lon="5.75541">
        <ele>765.3</ele>
        <time>2013-10-13T10:06:09Z</time>
      </trkpt>
      <trkpt lat="44.51613" lon="5.7553">
        <ele>765.8</ele>
        <time>2013-10-13T10:06:11Z</time>
      </trkpt>
      <trkpt lat="44.51619" lon="5.75519">
        <ele>765.2</ele>
        <time>2013-10-13T10:06:13Z</time>
      </trkpt>
      <trkpt lat="44.51609" lon="5.75527">
        <ele>762.4</ele>
        <time>2013-10-13T10:06:18Z</time>
      </trkpt>
      <trkpt lat="44.51602" lon="5.75537">
        <ele>761.7</ele>
        <time>2013-10-13T10:06:21Z</time>
      </trkpt>
      <trkpt lat="44.51593" lon="5.75547">
        <ele>760.3</ele>
        <time>2013-10-13T10:06:25Z</time>
      </trkpt>
      <trkpt lat="44.51582" lon="5.75559">
        <ele>759.9</ele>
        <time>2013-10-13T10:13:23Z</time>
      </trkpt>
      <trkpt lat="44.51565" lon="5.75579">
        <ele>761.4</ele>
        <time>2013-10-13T10:13:30Z</time>
      </trkpt>
      <trkpt lat="44.51563" lon="5.75593">
        <ele>763.2</ele>
        <time>2013-10-13T10:13:38Z</time>
      </trkpt>
      <trkpt lat="44.51574" lon="5.75592">
        <ele>762</ele>
        <time>2013-10-13T10:13:44Z</time>
      </trkpt>
      <trkpt lat="44.51563" lon="5.75599">
        <ele>763.1</ele>
        <time>2013-10-13T10:13:49Z</time>
      </trkpt>
      <trkpt lat="44.51554" lon="5.75608">
        <ele>764.5</ele>
        <time>2013-10-13T10:13:53Z</time>
      </trkpt>
      <trkpt lat="44.51547" lon="5.75615">
        <ele>766</ele>
        <time>2013-10-13T10:13:57Z</time>
      </trkpt>
      <trkpt lat="44.51538" lon="5.7562">
        <ele>766.9</ele>
        <time>2013-10-13T10:14:01Z</time>
      </trkpt>
      <trkpt lat="44.51527" lon="5.75621">
        <ele>766.2</ele>
        <time>2013-10-13T10:14:06Z</time>
      </trkpt>
      <trkpt lat="44.51518" lon="5.75619">
        <ele>767.7</ele>
        <time>2013-10-13T10:14:09Z</time>
      </trkpt>
      <trkpt lat="44.5151" lon="5.75615">
        <ele>768.7</ele>
        <time>2013-10-13T10:14:12Z</time>
      </trkpt>
      <trkpt lat="44.51499" lon="5.75609">
        <ele>770.4</ele>
        <time>2013-10-13T10:14:16Z</time>
      </trkpt>
      <trkpt lat="44.51488" lon="5.75604">
        <ele>770.9</ele>
        <time>2013-10-13T10:14:20Z</time>
      </trkpt>
      <trkpt lat="44.51479" lon="5.75604">
        <ele>770.3</ele>
        <time>2013-10-13T10:14:23Z</time>
      </trkpt>
      <trkpt lat="44.5147" lon="5.75607">
        <ele>770.8</ele>
        <time>2013-10-13T10:14:26Z</time>
      </trkpt>
      <trkpt lat="44.51454" lon="5.75621">
        <ele>770.3</ele>
        <time>2013-10-13T10:14:33Z</time>
      </trkpt>
      <trkpt lat="44.51446" lon="5.75633">
        <ele>769.7</ele>
        <time>2013-10-13T10:14:37Z</time>
      </trkpt>
      <trkpt lat="44.51437" lon="5.75644">
        <ele>770.2</ele>
        <time>2013-10-13T10:14:41Z</time>
      </trkpt>
      <trkpt lat="44.51428" lon="5.75651">
        <ele>771.1</ele>
        <time>2013-10-13T10:14:45Z</time>
      </trkpt>
      <trkpt lat="44.5142" lon="5.7566">
        <ele>772.3</ele>
        <time>2013-10-13T10:14:49Z</time>
      </trkpt>
      <trkpt lat="44.51413" lon="5.75667">
        <ele>773.5</ele>
        <time>2013-10-13T10:14:52Z</time>
      </trkpt>
      <trkpt lat="44.51404" lon="5.75674">
        <ele>774.9</ele>
        <time>2013-10-13T10:14:55Z</time>
      </trkpt>
      <trkpt lat="44.51396" lon="5.75679">
        <ele>776</ele>
        <time>2013-10-13T10:14:58Z</time>
      </trkpt>
      <trkpt lat="44.51385" lon="5.75682">
        <ele>777.3</ele>
        <time>2013-10-13T10:15:02Z</time>
      </trkpt>
      <trkpt lat="44.51376" lon="5.75683">
        <ele>777.5</ele>
        <time>2013-10-13T10:15:07Z</time>
      </trkpt>
      <trkpt lat="44.51364" lon="5.75683">
        <ele>777.7</ele>
        <time>2013-10-13T10:15:13Z</time>
      </trkpt>
      <trkpt lat="44.51355" lon="5.75683">
        <ele>777.9</ele>
        <time>2013-10-13T10:15:16Z</time>
      </trkpt>
      <trkpt lat="44.51346" lon="5.75683">
        <ele>778.2</ele>
        <time>2013-10-13T10:15:19Z</time>
      </trkpt>
      <trkpt lat="44.51336" lon="5.75684">
        <ele>778.5</ele>
        <time>2013-10-13T10:15:24Z</time>
      </trkpt>
      <trkpt lat="44.51328" lon="5.75676">
        <ele>781.5</ele>
        <time>2013-10-13T10:16:01Z</time>
      </trkpt>
      <trkpt lat="44.51325" lon="5.75638">
        <ele>781.4</ele>
        <time>2013-10-13T10:16:04Z</time>
      </trkpt>
      <trkpt lat="44.51323" lon="5.75625">
        <ele>781.4</ele>
        <time>2013-10-13T10:16:16Z</time>
      </trkpt>
      <trkpt lat="44.51326" lon="5.75613">
        <ele>780.3</ele>
        <time>2013-10-13T10:16:28Z</time>
      </trkpt>
      <trkpt lat="44.51339" lon="5.75604">
        <ele>780.1</ele>
        <time>2013-10-13T10:16:30Z</time>
      </trkpt>
      <trkpt lat="44.51347" lon="5.75598">
        <ele>780.1</ele>
        <time>2013-10-13T10:16:33Z</time>
      </trkpt>
      <trkpt lat="44.51356" lon="5.75592">
        <ele>779.9</ele>
        <time>2013-10-13T10:16:38Z</time>
      </trkpt>
      <trkpt lat="44.51365" lon="5.7559">
        <ele>782.8</ele>
        <time>2013-10-13T10:16:42Z</time>
      </trkpt>
      <trkpt lat="44.51376" lon="5.75584">
        <ele>783.9</ele>
        <time>2013-10-13T10:16:46Z</time>
      </trkpt>
      <trkpt lat="44.51384" lon="5.75578">
        <ele>783.9</ele>
        <time>2013-10-13T10:16:50Z</time>
      </trkpt>
      <trkpt lat="44.51399" lon="5.75569">
        <ele>783.7</ele>
        <time>2013-10-13T10:16:56Z</time>
      </trkpt>
      <trkpt lat="44.51408" lon="5.75563">
        <ele>783.7</ele>
        <time>2013-10-13T10:17:00Z</time>
      </trkpt>
      <trkpt lat="44.51413" lon="5.7555">
        <ele>782.1</ele>
        <time>2013-10-13T10:17:06Z</time>
      </trkpt>
      <trkpt lat="44.51405" lon="5.75526">
        <ele>783.1</ele>
        <time>2013-10-13T10:17:18Z</time>
      </trkpt>
      <trkpt lat="44.51404" lon="5.75511">
        <ele>783.1</ele>
        <time>2013-10-13T10:17:20Z</time>
      </trkpt>
      <trkpt lat="44.51398" lon="5.75499">
        <ele>783.1</ele>
        <time>2013-10-13T10:17:27Z</time>
      </trkpt>
      <trkpt lat="44.51395" lon="5.75484">
        <ele>783.3</ele>
        <time>2013-10-13T10:17:30Z</time>
      </trkpt>
      <trkpt lat="44.51392" lon="5.75468">
        <ele>783.3</ele>
        <time>2013-10-13T10:17:33Z</time>
      </trkpt>
      <trkpt lat="44.51388" lon="5.75456">
        <ele>780.4</ele>
        <time>2013-10-13T10:17:41Z</time>
      </trkpt>
      <trkpt lat="44.51382" lon="5.75445">
        <ele>780.3</ele>
        <time>2013-10-13T10:17:57Z</time>
      </trkpt>
      <trkpt lat="44.51374" lon="5.75433">
        <ele>781.1</ele>
        <time>2013-10-13T10:18:07Z</time>
      </trkpt>
      <trkpt lat="44.51355" lon="5.75415">
        <ele>781</ele>
        <time>2013-10-13T10:18:13Z</time>
      </trkpt>
      <trkpt lat="44.51346" lon="5.75404">
        <ele>782.4</ele>
        <time>2013-10-13T10:18:22Z</time>
      </trkpt>
      <trkpt lat="44.51326" lon="5.7539">
        <ele>783.4</ele>
        <time>2013-10-13T10:18:24Z</time>
      </trkpt>
      <trkpt lat="44.51318" lon="5.75384">
        <ele>784.1</ele>
        <time>2013-10-13T10:18:50Z</time>
      </trkpt>
      <trkpt lat="44.5131" lon="5.75375">
        <ele>791.1</ele>
        <time>2013-10-13T10:19:02Z</time>
      </trkpt>
      <trkpt lat="44.51301" lon="5.75365">
        <ele>790.9</ele>
        <time>2013-10-13T10:19:06Z</time>
      </trkpt>
      <trkpt lat="44.51293" lon="5.75357">
        <ele>791.5</ele>
        <time>2013-10-13T10:19:09Z</time>
      </trkpt>
      <trkpt lat="44.51279" lon="5.75337">
        <ele>792.4</ele>
        <time>2013-10-13T10:19:17Z</time>
      </trkpt>
      <trkpt lat="44.51273" lon="5.75326">
        <ele>793.5</ele>
        <time>2013-10-13T10:19:21Z</time>
      </trkpt>
      <trkpt lat="44.51267" lon="5.75315">
        <ele>794.7</ele>
        <time>2013-10-13T10:19:25Z</time>
      </trkpt>
      <trkpt lat="44.51259" lon="5.75302">
        <ele>793.6</ele>
        <time>2013-10-13T10:19:29Z</time>
      </trkpt>
      <trkpt lat="44.51253" lon="5.75291">
        <ele>793.3</ele>
        <time>2013-10-13T10:19:33Z</time>
      </trkpt>
      <trkpt lat="44.51246" lon="5.75278">
        <ele>792.6</ele>
        <time>2013-10-13T10:19:37Z</time>
      </trkpt>
      <trkpt lat="44.51238" lon="5.75266">
        <ele>792.8</ele>
        <time>2013-10-13T10:19:40Z</time>
      </trkpt>
      <trkpt lat="44.51231" lon="5.75256">
        <ele>793.3</ele>
        <time>2013-10-13T10:19:43Z</time>
      </trkpt>
      <trkpt lat="44.51221" lon="5.75246">
        <ele>793</ele>
        <time>2013-10-13T10:19:48Z</time>
      </trkpt>
      <trkpt lat="44.51214" lon="5.75239">
        <ele>793</ele>
        <time>2013-10-13T10:19:58Z</time>
      </trkpt>
      <trkpt lat="44.51206" lon="5.7523">
        <ele>791.2</ele>
        <time>2013-10-13T10:20:20Z</time>
      </trkpt>
      <trkpt lat="44.51194" lon="5.75207">
        <ele>789.8</ele>
        <time>2013-10-13T10:20:30Z</time>
      </trkpt>
      <trkpt lat="44.5119" lon="5.75195">
        <ele>790</ele>
        <time>2013-10-13T10:20:35Z</time>
      </trkpt>
      <trkpt lat="44.51184" lon="5.75185">
        <ele>790</ele>
        <time>2013-10-13T10:20:41Z</time>
      </trkpt>
      <trkpt lat="44.51179" lon="5.75173">
        <ele>789.9</ele>
        <time>2013-10-13T10:21:28Z</time>
      </trkpt>
      <trkpt lat="44.51167" lon="5.75147">
        <ele>789.3</ele>
        <time>2013-10-13T10:21:34Z</time>
      </trkpt>
      <trkpt lat="44.5116" lon="5.75139">
        <ele>789.5</ele>
        <time>2013-10-13T10:21:38Z</time>
      </trkpt>
      <trkpt lat="44.51153" lon="5.75131">
        <ele>789.2</ele>
        <time>2013-10-13T10:21:48Z</time>
      </trkpt>
      <trkpt lat="44.51146" lon="5.75122">
        <ele>789.2</ele>
        <time>2013-10-13T10:21:54Z</time>
      </trkpt>
      <trkpt lat="44.51138" lon="5.75115">
        <ele>797.5</ele>
        <time>2013-10-13T10:22:13Z</time>
      </trkpt>
      <trkpt lat="44.51117" lon="5.75097">
        <ele>797.6</ele>
        <time>2013-10-13T10:22:15Z</time>
      </trkpt>
      <trkpt lat="44.51113" lon="5.75085">
        <ele>796.5</ele>
        <time>2013-10-13T10:22:19Z</time>
      </trkpt>
      <trkpt lat="44.51109" lon="5.75074">
        <ele>795.5</ele>
        <time>2013-10-13T10:22:22Z</time>
      </trkpt>
      <trkpt lat="44.51104" lon="5.75062">
        <ele>794.7</ele>
        <time>2013-10-13T10:22:26Z</time>
      </trkpt>
      <trkpt lat="44.51105" lon="5.75042">
        <ele>791.5</ele>
        <time>2013-10-13T10:22:37Z</time>
      </trkpt>
      <trkpt lat="44.51108" lon="5.75016">
        <ele>790.5</ele>
        <time>2013-10-13T10:22:46Z</time>
      </trkpt>
      <trkpt lat="44.51115" lon="5.75007">
        <ele>790</ele>
        <time>2013-10-13T10:22:48Z</time>
      </trkpt>
      <trkpt lat="44.51124" lon="5.74999">
        <ele>788.8</ele>
        <time>2013-10-13T10:22:50Z</time>
      </trkpt>
      <trkpt lat="44.51125" lon="5.74985">
        <ele>787.9</ele>
        <time>2013-10-13T10:22:53Z</time>
      </trkpt>
      <trkpt lat="44.51122" lon="5.74972">
        <ele>787.7</ele>
        <time>2013-10-13T10:22:56Z</time>
      </trkpt>
      <trkpt lat="44.51117" lon="5.7496">
        <ele>786.8</ele>
        <time>2013-10-13T10:23:00Z</time>
      </trkpt>
      <trkpt lat="44.51114" lon="5.74947">
        <ele>785.6</ele>
        <time>2013-10-13T10:23:03Z</time>
      </trkpt>
      <trkpt lat="44.51109" lon="5.74933">
        <ele>785</ele>
        <time>2013-10-13T10:23:07Z</time>
      </trkpt>
      <trkpt lat="44.51107" lon="5.7492">
        <ele>784.4</ele>
        <time>2013-10-13T10:23:11Z</time>
      </trkpt>
      <trkpt lat="44.51108" lon="5.74906">
        <ele>783.8</ele>
        <time>2013-10-13T10:23:14Z</time>
      </trkpt>
      <trkpt lat="44.51114" lon="5.74895">
        <ele>783.6</ele>
        <time>2013-10-13T10:23:17Z</time>
      </trkpt>
      <trkpt lat="44.5112" lon="5.74881">
        <ele>782.4</ele>
        <time>2013-10-13T10:23:20Z</time>
      </trkpt>
      <trkpt lat="44.51122" lon="5.74868">
        <ele>780.8</ele>
        <time>2013-10-13T10:23:22Z</time>
      </trkpt>
      <trkpt lat="44.51123" lon="5.74853">
        <ele>778.5</ele>
        <time>2013-10-13T10:23:25Z</time>
      </trkpt>
      <trkpt lat="44.51123" lon="5.74839">
        <ele>777</ele>
        <time>2013-10-13T10:23:29Z</time>
      </trkpt>
      <trkpt lat="44.5113" lon="5.74827">
        <ele>774.1</ele>
        <time>2013-10-13T10:23:34Z</time>
      </trkpt>
      <trkpt lat="44.51132" lon="5.74813">
        <ele>772.2</ele>
        <time>2013-10-13T10:23:38Z</time>
      </trkpt>
      <trkpt lat="44.51132" lon="5.74787">
        <ele>768.4</ele>
        <time>2013-10-13T10:23:44Z</time>
      </trkpt>
      <trkpt lat="44.51131" lon="5.7477">
        <ele>767.3</ele>
        <time>2013-10-13T10:23:47Z</time>
      </trkpt>
      <trkpt lat="44.5113" lon="5.74751">
        <ele>766</ele>
        <time>2013-10-13T10:23:50Z</time>
      </trkpt>
      <trkpt lat="44.5113" lon="5.74732">
        <ele>764</ele>
        <time>2013-10-13T10:23:53Z</time>
      </trkpt>
      <trkpt lat="44.51129" lon="5.74719">
        <ele>763.2</ele>
        <time>2013-10-13T10:23:55Z</time>
      </trkpt>
      <trkpt lat="44.51128" lon="5.74705">
        <ele>762.8</ele>
        <time>2013-10-13T10:23:57Z</time>
      </trkpt>
      <trkpt lat="44.51128" lon="5.74687">
        <ele>761.7</ele>
        <time>2013-10-13T10:24:00Z</time>
      </trkpt>
      <trkpt lat="44.51126" lon="5.74672">
        <ele>761.3</ele>
        <time>2013-10-13T10:24:02Z</time>
      </trkpt>
      <trkpt lat="44.51124" lon="5.74657">
        <ele>761.1</ele>
        <time>2013-10-13T10:24:04Z</time>
      </trkpt>
      <trkpt lat="44.51123" lon="5.74642">
        <ele>760.6</ele>
        <time>2013-10-13T10:24:06Z</time>
      </trkpt>
      <trkpt lat="44.51121" lon="5.74627">
        <ele>760.4</ele>
        <time>2013-10-13T10:24:08Z</time>
      </trkpt>
      <trkpt lat="44.51121" lon="5.74611">
        <ele>760.1</ele>
        <time>2013-10-13T10:24:10Z</time>
      </trkpt>
      <trkpt lat="44.51119" lon="5.74596">
        <ele>759.6</ele>
        <time>2013-10-13T10:24:12Z</time>
      </trkpt>
      <trkpt lat="44.51118" lon="5.74582">
        <ele>759.2</ele>
        <time>2013-10-13T10:24:14Z</time>
      </trkpt>
      <trkpt lat="44.51115" lon="5.74567">
        <ele>759.3</ele>
        <time>2013-10-13T10:24:16Z</time>
      </trkpt>
      <trkpt lat="44.51114" lon="5.74554">
        <ele>759.2</ele>
        <time>2013-10-13T10:24:18Z</time>
      </trkpt>
      <trkpt lat="44.51113" lon="5.7454">
        <ele>759.4</ele>
        <time>2013-10-13T10:24:20Z</time>
      </trkpt>
      <trkpt lat="44.51112" lon="5.74526">
        <ele>759.3</ele>
        <time>2013-10-13T10:24:22Z</time>
      </trkpt>
      <trkpt lat="44.5111" lon="5.74511">
        <ele>759.3</ele>
        <time>2013-10-13T10:24:24Z</time>
      </trkpt>
      <trkpt lat="44.51109" lon="5.74498">
        <ele>758.9</ele>
        <time>2013-10-13T10:24:26Z</time>
      </trkpt>
      <trkpt lat="44.51107" lon="5.74483">
        <ele>758.8</ele>
        <time>2013-10-13T10:24:28Z</time>
      </trkpt>
      <trkpt lat="44.51106" lon="5.7447">
        <ele>758.6</ele>
        <time>2013-10-13T10:24:30Z</time>
      </trkpt>
      <trkpt lat="44.51104" lon="5.74456">
        <ele>758.4</ele>
        <time>2013-10-13T10:24:32Z</time>
      </trkpt>
      <trkpt lat="44.51102" lon="5.74442">
        <ele>758.1</ele>
        <time>2013-10-13T10:24:34Z</time>
      </trkpt>
      <trkpt lat="44.511" lon="5.74429">
        <ele>758.2</ele>
        <time>2013-10-13T10:24:36Z</time>
      </trkpt>
      <trkpt lat="44.51098" lon="5.74414">
        <ele>759.4</ele>
        <time>2013-10-13T10:24:40Z</time>
      </trkpt>
      <trkpt lat="44.51098" lon="5.74385">
        <ele>759</ele>
        <time>2013-10-13T10:24:48Z</time>
      </trkpt>
      <trkpt lat="44.51097" lon="5.74372">
        <ele>758.1</ele>
        <time>2013-10-13T10:24:51Z</time>
      </trkpt>
      <trkpt lat="44.51096" lon="5.74358">
        <ele>758</ele>
        <time>2013-10-13T10:24:54Z</time>
      </trkpt>
      <trkpt lat="44.51094" lon="5.74343">
        <ele>757.7</ele>
        <time>2013-10-13T10:24:57Z</time>
      </trkpt>
      <trkpt lat="44.51092" lon="5.74329">
        <ele>757.1</ele>
        <time>2013-10-13T10:25:01Z</time>
      </trkpt>
      <trkpt lat="44.51091" lon="5.74314">
        <ele>756.8</ele>
        <time>2013-10-13T10:25:05Z</time>
      </trkpt>
      <trkpt lat="44.51089" lon="5.74298">
        <ele>756</ele>
        <time>2013-10-13T10:25:09Z</time>
      </trkpt>
      <trkpt lat="44.51087" lon="5.74284">
        <ele>755.6</ele>
        <time>2013-10-13T10:25:12Z</time>
      </trkpt>
      <trkpt lat="44.51085" lon="5.74271">
        <ele>755.3</ele>
        <time>2013-10-13T10:25:15Z</time>
      </trkpt>
      <trkpt lat="44.51082" lon="5.74259">
        <ele>754.6</ele>
        <time>2013-10-13T10:25:18Z</time>
      </trkpt>
      <trkpt lat="44.51079" lon="5.74243">
        <ele>754.1</ele>
        <time>2013-10-13T10:25:22Z</time>
      </trkpt>
      <trkpt lat="44.51077" lon="5.74227">
        <ele>753.3</ele>
        <time>2013-10-13T10:25:25Z</time>
      </trkpt>
      <trkpt lat="44.51073" lon="5.7421">
        <ele>752.6</ele>
        <time>2013-10-13T10:25:28Z</time>
      </trkpt>
      <trkpt lat="44.51068" lon="5.74194">
        <ele>752.1</ele>
        <time>2013-10-13T10:25:31Z</time>
      </trkpt>
      <trkpt lat="44.51064" lon="5.74179">
        <ele>752.5</ele>
        <time>2013-10-13T10:25:34Z</time>
      </trkpt>
      <trkpt lat="44.51061" lon="5.74164">
        <ele>752.2</ele>
        <time>2013-10-13T10:25:37Z</time>
      </trkpt>
      <trkpt lat="44.51058" lon="5.7415">
        <ele>752</ele>
        <time>2013-10-13T10:25:40Z</time>
      </trkpt>
      <trkpt lat="44.51062" lon="5.74193">
        <ele>750.4</ele>
        <time>2013-10-13T10:26:22Z</time>
      </trkpt>
      <trkpt lat="44.51062" lon="5.74206">
        <ele>749.8</ele>
        <time>2013-10-13T10:26:26Z</time>
      </trkpt>
      <trkpt lat="44.5106" lon="5.74221">
        <ele>748.8</ele>
        <time>2013-10-13T10:26:29Z</time>
      </trkpt>
      <trkpt lat="44.51062" lon="5.74236">
        <ele>747.3</ele>
        <time>2013-10-13T10:26:32Z</time>
      </trkpt>
      <trkpt lat="44.51062" lon="5.74253">
        <ele>746.8</ele>
        <time>2013-10-13T10:26:35Z</time>
      </trkpt>
      <trkpt lat="44.5106" lon="5.74268">
        <ele>746.6</ele>
        <time>2013-10-13T10:26:38Z</time>
      </trkpt>
      <trkpt lat="44.51051" lon="5.74278">
        <ele>746.2</ele>
        <time>2013-10-13T10:26:41Z</time>
      </trkpt>
      <trkpt lat="44.5103" lon="5.74269">
        <ele>744.7</ele>
        <time>2013-10-13T10:26:47Z</time>
      </trkpt>
      <trkpt lat="44.51019" lon="5.7426">
        <ele>744.7</ele>
        <time>2013-10-13T10:26:50Z</time>
      </trkpt>
      <trkpt lat="44.51009" lon="5.7425">
        <ele>744.4</ele>
        <time>2013-10-13T10:26:53Z</time>
      </trkpt>
      <trkpt lat="44.50999" lon="5.74236">
        <ele>744</ele>
        <time>2013-10-13T10:26:56Z</time>
      </trkpt>
      <trkpt lat="44.50992" lon="5.74228">
        <ele>744</ele>
        <time>2013-10-13T10:26:58Z</time>
      </trkpt>
      <trkpt lat="44.50984" lon="5.74221">
        <ele>744.1</ele>
        <time>2013-10-13T10:27:00Z</time>
      </trkpt>
      <trkpt lat="44.50976" lon="5.74216">
        <ele>744.1</ele>
        <time>2013-10-13T10:27:02Z</time>
      </trkpt>
      <trkpt lat="44.50967" lon="5.74211">
        <ele>743.9</ele>
        <time>2013-10-13T10:27:04Z</time>
      </trkpt>
      <trkpt lat="44.50958" lon="5.74206">
        <ele>743.9</ele>
        <time>2013-10-13T10:27:06Z</time>
      </trkpt>
      <trkpt lat="44.5095" lon="5.742">
        <ele>743.9</ele>
        <time>2013-10-13T10:27:08Z</time>
      </trkpt>
      <trkpt lat="44.50943" lon="5.7419">
        <ele>743.9</ele>
        <time>2013-10-13T10:27:10Z</time>
      </trkpt>
      <trkpt lat="44.50941" lon="5.74177">
        <ele>743.9</ele>
        <time>2013-10-13T10:27:12Z</time>
      </trkpt>
      <trkpt lat="44.50942" lon="5.74164">
        <ele>743.6</ele>
        <time>2013-10-13T10:27:14Z</time>
      </trkpt>
      <trkpt lat="44.50943" lon="5.74146">
        <ele>743.9</ele>
        <time>2013-10-13T10:27:17Z</time>
      </trkpt>
      <trkpt lat="44.50943" lon="5.74129">
        <ele>744.4</ele>
        <time>2013-10-13T10:27:20Z</time>
      </trkpt>
      <trkpt lat="44.50936" lon="5.74119">
        <ele>746.3</ele>
        <time>2013-10-13T10:27:34Z</time>
      </trkpt>
      <trkpt lat="44.5093" lon="5.74106">
        <ele>746.4</ele>
        <time>2013-10-13T10:27:38Z</time>
      </trkpt>
      <trkpt lat="44.50924" lon="5.74094">
        <ele>745.8</ele>
        <time>2013-10-13T10:27:41Z</time>
      </trkpt>
      <trkpt lat="44.50917" lon="5.7408">
        <ele>745</ele>
        <time>2013-10-13T10:27:44Z</time>
      </trkpt>
      <trkpt lat="44.50905" lon="5.74056">
        <ele>744</ele>
        <time>2013-10-13T10:27:50Z</time>
      </trkpt>
      <trkpt lat="44.50899" lon="5.74046">
        <ele>743.7</ele>
        <time>2013-10-13T10:27:53Z</time>
      </trkpt>
      <trkpt lat="44.50892" lon="5.74034">
        <ele>743.6</ele>
        <time>2013-10-13T10:27:57Z</time>
      </trkpt>
      <trkpt lat="44.50886" lon="5.74022">
        <ele>743.5</ele>
        <time>2013-10-13T10:28:01Z</time>
      </trkpt>
      <trkpt lat="44.50879" lon="5.74012">
        <ele>743.2</ele>
        <time>2013-10-13T10:28:04Z</time>
      </trkpt>
      <trkpt lat="44.50874" lon="5.73998">
        <ele>743.3</ele>
        <time>2013-10-13T10:28:07Z</time>
      </trkpt>
      <trkpt lat="44.50868" lon="5.73984">
        <ele>743.4</ele>
        <time>2013-10-13T10:28:10Z</time>
      </trkpt>
      <trkpt lat="44.50861" lon="5.73969">
        <ele>743.8</ele>
        <time>2013-10-13T10:28:13Z</time>
      </trkpt>
      <trkpt lat="44.50858" lon="5.73957">
        <ele>743.7</ele>
        <time>2013-10-13T10:28:16Z</time>
      </trkpt>
      <trkpt lat="44.50855" lon="5.73944">
        <ele>743.3</ele>
        <time>2013-10-13T10:28:21Z</time>
      </trkpt>
      <trkpt lat="44.50845" lon="5.73937">
        <ele>743.4</ele>
        <time>2013-10-13T10:28:25Z</time>
      </trkpt>
      <trkpt lat="44.50835" lon="5.73934">
        <ele>743.4</ele>
        <time>2013-10-13T10:28:29Z</time>
      </trkpt>
      <trkpt lat="44.50823" lon="5.73931">
        <ele>742.8</ele>
        <time>2013-10-13T10:28:33Z</time>
      </trkpt>
      <trkpt lat="44.50812" lon="5.73924">
        <ele>742.6</ele>
        <time>2013-10-13T10:28:36Z</time>
      </trkpt>
      <trkpt lat="44.50803" lon="5.73914">
        <ele>742.5</ele>
        <time>2013-10-13T10:28:39Z</time>
      </trkpt>
      <trkpt lat="44.50793" lon="5.73905">
        <ele>742.6</ele>
        <time>2013-10-13T10:28:42Z</time>
      </trkpt>
      <trkpt lat="44.50784" lon="5.73897">
        <ele>742.6</ele>
        <time>2013-10-13T10:28:45Z</time>
      </trkpt>
      <trkpt lat="44.50766" lon="5.73889">
        <ele>742.1</ele>
        <time>2013-10-13T10:28:52Z</time>
      </trkpt>
      <trkpt lat="44.50757" lon="5.73892">
        <ele>742</ele>
        <time>2013-10-13T10:28:55Z</time>
      </trkpt>
      <trkpt lat="44.50745" lon="5.73899">
        <ele>742</ele>
        <time>2013-10-13T10:28:58Z</time>
      </trkpt>
      <trkpt lat="44.50735" lon="5.73904">
        <ele>742.5</ele>
        <time>2013-10-13T10:29:01Z</time>
      </trkpt>
      <trkpt lat="44.50726" lon="5.73908">
        <ele>742.7</ele>
        <time>2013-10-13T10:29:04Z</time>
      </trkpt>
      <trkpt lat="44.50715" lon="5.73913">
        <ele>742.8</ele>
        <time>2013-10-13T10:29:08Z</time>
      </trkpt>
      <trkpt lat="44.50703" lon="5.73914">
        <ele>742.8</ele>
        <time>2013-10-13T10:29:12Z</time>
      </trkpt>
      <trkpt lat="44.50693" lon="5.73914">
        <ele>742.8</ele>
        <time>2013-10-13T10:29:16Z</time>
      </trkpt>
      <trkpt lat="44.50682" lon="5.73911">
        <ele>742.7</ele>
        <time>2013-10-13T10:29:20Z</time>
      </trkpt>
      <trkpt lat="44.50671" lon="5.73907">
        <ele>742.8</ele>
        <time>2013-10-13T10:29:23Z</time>
      </trkpt>
      <trkpt lat="44.50663" lon="5.73898">
        <ele>742.6</ele>
        <time>2013-10-13T10:29:26Z</time>
      </trkpt>
      <trkpt lat="44.50655" lon="5.73887">
        <ele>742.8</ele>
        <time>2013-10-13T10:29:30Z</time>
      </trkpt>
      <trkpt lat="44.50647" lon="5.73876">
        <ele>742.3</ele>
        <time>2013-10-13T10:29:33Z</time>
      </trkpt>
      <trkpt lat="44.50639" lon="5.73866">
        <ele>742.2</ele>
        <time>2013-10-13T10:29:36Z</time>
      </trkpt>
      <trkpt lat="44.5063" lon="5.73854">
        <ele>741.9</ele>
        <time>2013-10-13T10:29:39Z</time>
      </trkpt>
      <trkpt lat="44.50621" lon="5.73842">
        <ele>741.7</ele>
        <time>2013-10-13T10:29:42Z</time>
      </trkpt>
      <trkpt lat="44.50611" lon="5.73829">
        <ele>741.4</ele>
        <time>2013-10-13T10:29:45Z</time>
      </trkpt>
      <trkpt lat="44.50596" lon="5.73808">
        <ele>741.9</ele>
        <time>2013-10-13T10:29:52Z</time>
      </trkpt>
      <trkpt lat="44.50586" lon="5.73797">
        <ele>743.2</ele>
        <time>2013-10-13T10:29:57Z</time>
      </trkpt>
      <trkpt lat="44.50576" lon="5.73785">
        <ele>742.5</ele>
        <time>2013-10-13T10:30:00Z</time>
      </trkpt>
      <trkpt lat="44.50568" lon="5.73778">
        <ele>742.8</ele>
        <time>2013-10-13T10:30:02Z</time>
      </trkpt>
      <trkpt lat="44.50557" lon="5.73775">
        <ele>742.6</ele>
        <time>2013-10-13T10:30:04Z</time>
      </trkpt>
      <trkpt lat="44.50547" lon="5.73774">
        <ele>742.4</ele>
        <time>2013-10-13T10:30:06Z</time>
      </trkpt>
      <trkpt lat="44.50536" lon="5.73774">
        <ele>742</ele>
        <time>2013-10-13T10:30:08Z</time>
      </trkpt>
      <trkpt lat="44.50525" lon="5.73775">
        <ele>741.6</ele>
        <time>2013-10-13T10:30:10Z</time>
      </trkpt>
      <trkpt lat="44.50514" lon="5.73774">
        <ele>741.3</ele>
        <time>2013-10-13T10:30:12Z</time>
      </trkpt>
      <trkpt lat="44.50504" lon="5.73772">
        <ele>741.4</ele>
        <time>2013-10-13T10:30:14Z</time>
      </trkpt>
      <trkpt lat="44.50494" lon="5.73771">
        <ele>741.1</ele>
        <time>2013-10-13T10:30:16Z</time>
      </trkpt>
      <trkpt lat="44.50485" lon="5.73769">
        <ele>741.1</ele>
        <time>2013-10-13T10:30:18Z</time>
      </trkpt>
      <trkpt lat="44.50476" lon="5.73768">
        <ele>741</ele>
        <time>2013-10-13T10:30:20Z</time>
      </trkpt>
      <trkpt lat="44.50467" lon="5.73766">
        <ele>741.1</ele>
        <time>2013-10-13T10:30:22Z</time>
      </trkpt>
      <trkpt lat="44.50457" lon="5.73763">
        <ele>740.9</ele>
        <time>2013-10-13T10:30:24Z</time>
      </trkpt>
      <trkpt lat="44.50448" lon="5.73758">
        <ele>741.4</ele>
        <time>2013-10-13T10:30:26Z</time>
      </trkpt>
      <trkpt lat="44.50438" lon="5.73754">
        <ele>741.2</ele>
        <time>2013-10-13T10:30:28Z</time>
      </trkpt>
      <trkpt lat="44.50428" lon="5.73751">
        <ele>740.7</ele>
        <time>2013-10-13T10:30:30Z</time>
      </trkpt>
      <trkpt lat="44.50418" lon="5.73751">
        <ele>740.3</ele>
        <time>2013-10-13T10:30:32Z</time>
      </trkpt>
      <trkpt lat="44.50408" lon="5.73752">
        <ele>740</ele>
        <time>2013-10-13T10:30:34Z</time>
      </trkpt>
      <trkpt lat="44.50397" lon="5.73753">
        <ele>739.9</ele>
        <time>2013-10-13T10:30:36Z</time>
      </trkpt>
      <trkpt lat="44.50388" lon="5.73755">
        <ele>739.7</ele>
        <time>2013-10-13T10:30:38Z</time>
      </trkpt>
      <trkpt lat="44.50378" lon="5.73755">
        <ele>739.4</ele>
        <time>2013-10-13T10:30:40Z</time>
      </trkpt>
      <trkpt lat="44.50367" lon="5.73751">
        <ele>738.3</ele>
        <time>2013-10-13T10:30:43Z</time>
      </trkpt>
      <trkpt lat="44.50355" lon="5.73745">
        <ele>738</ele>
        <time>2013-10-13T10:30:46Z</time>
      </trkpt>
      <trkpt lat="44.50335" lon="5.73746">
        <ele>736.4</ele>
        <time>2013-10-13T10:30:54Z</time>
      </trkpt>
      <trkpt lat="44.50334" lon="5.73763">
        <ele>735.6</ele>
        <time>2013-10-13T10:30:58Z</time>
      </trkpt>
      <trkpt lat="44.50336" lon="5.73779">
        <ele>735.5</ele>
        <time>2013-10-13T10:31:01Z</time>
      </trkpt>
      <trkpt lat="44.50337" lon="5.73795">
        <ele>735.1</ele>
        <time>2013-10-13T10:31:04Z</time>
      </trkpt>
      <trkpt lat="44.50338" lon="5.73811">
        <ele>735</ele>
        <time>2013-10-13T10:31:07Z</time>
      </trkpt>
      <trkpt lat="44.50338" lon="5.73828">
        <ele>734.9</ele>
        <time>2013-10-13T10:31:10Z</time>
      </trkpt>
      <trkpt lat="44.50338" lon="5.73846">
        <ele>735</ele>
        <time>2013-10-13T10:31:13Z</time>
      </trkpt>
      <trkpt lat="44.50337" lon="5.73859">
        <ele>735.3</ele>
        <time>2013-10-13T10:31:15Z</time>
      </trkpt>
      <trkpt lat="44.50338" lon="5.73872">
        <ele>735.5</ele>
        <time>2013-10-13T10:31:17Z</time>
      </trkpt>
      <trkpt lat="44.50338" lon="5.73885">
        <ele>735.7</ele>
        <time>2013-10-13T10:31:19Z</time>
      </trkpt>
      <trkpt lat="44.50338" lon="5.73903">
        <ele>735.8</ele>
        <time>2013-10-13T10:31:22Z</time>
      </trkpt>
      <trkpt lat="44.50339" lon="5.7392">
        <ele>736.2</ele>
        <time>2013-10-13T10:31:25Z</time>
      </trkpt>
      <trkpt lat="44.50338" lon="5.73937">
        <ele>736.3</ele>
        <time>2013-10-13T10:31:28Z</time>
      </trkpt>
      <trkpt lat="44.50334" lon="5.73953">
        <ele>736.5</ele>
        <time>2013-10-13T10:31:31Z</time>
      </trkpt>
      <trkpt lat="44.5033" lon="5.73967">
        <ele>736.4</ele>
        <time>2013-10-13T10:31:34Z</time>
      </trkpt>
      <trkpt lat="44.50327" lon="5.7398">
        <ele>736.6</ele>
        <time>2013-10-13T10:31:37Z</time>
      </trkpt>
      <trkpt lat="44.50322" lon="5.73992">
        <ele>736.7</ele>
        <time>2013-10-13T10:31:41Z</time>
      </trkpt>
      <trkpt lat="44.50312" lon="5.73988">
        <ele>735.8</ele>
        <time>2013-10-13T10:31:44Z</time>
      </trkpt>
      <trkpt lat="44.50301" lon="5.73982">
        <ele>735.3</ele>
        <time>2013-10-13T10:31:47Z</time>
      </trkpt>
      <trkpt lat="44.50276" lon="5.7397">
        <ele>735</ele>
        <time>2013-10-13T10:31:53Z</time>
      </trkpt>
      <trkpt lat="44.50266" lon="5.73968">
        <ele>735</ele>
        <time>2013-10-13T10:31:55Z</time>
      </trkpt>
      <trkpt lat="44.50257" lon="5.73966">
        <ele>735</ele>
        <time>2013-10-13T10:31:57Z</time>
      </trkpt>
      <trkpt lat="44.50248" lon="5.73965">
        <ele>735.1</ele>
        <time>2013-10-13T10:31:59Z</time>
      </trkpt>
      <trkpt lat="44.50239" lon="5.73963">
        <ele>734.9</ele>
        <time>2013-10-13T10:32:01Z</time>
      </trkpt>
      <trkpt lat="44.5023" lon="5.73962">
        <ele>734.9</ele>
        <time>2013-10-13T10:32:03Z</time>
      </trkpt>
      <trkpt lat="44.50221" lon="5.73961">
        <ele>734.7</ele>
        <time>2013-10-13T10:32:05Z</time>
      </trkpt>
      <trkpt lat="44.50211" lon="5.73961">
        <ele>734.5</ele>
        <time>2013-10-13T10:32:07Z</time>
      </trkpt>
      <trkpt lat="44.50201" lon="5.73962">
        <ele>734.3</ele>
        <time>2013-10-13T10:32:09Z</time>
      </trkpt>
      <trkpt lat="44.50191" lon="5.73964">
        <ele>734.4</ele>
        <time>2013-10-13T10:32:11Z</time>
      </trkpt>
      <trkpt lat="44.50181" lon="5.73967">
        <ele>734.5</ele>
        <time>2013-10-13T10:32:13Z</time>
      </trkpt>
      <trkpt lat="44.50172" lon="5.7397">
        <ele>734.6</ele>
        <time>2013-10-13T10:32:15Z</time>
      </trkpt>
      <trkpt lat="44.50163" lon="5.73974">
        <ele>734.7</ele>
        <time>2013-10-13T10:32:17Z</time>
      </trkpt>
      <trkpt lat="44.50154" lon="5.73978">
        <ele>734.7</ele>
        <time>2013-10-13T10:32:19Z</time>
      </trkpt>
      <trkpt lat="44.50145" lon="5.73982">
        <ele>734.7</ele>
        <time>2013-10-13T10:32:21Z</time>
      </trkpt>
      <trkpt lat="44.50136" lon="5.73986">
        <ele>734.7</ele>
        <time>2013-10-13T10:32:23Z</time>
      </trkpt>
      <trkpt lat="44.50127" lon="5.73989">
        <ele>734.7</ele>
        <time>2013-10-13T10:32:25Z</time>
      </trkpt>
      <trkpt lat="44.50117" lon="5.73992">
        <ele>734.6</ele>
        <time>2013-10-13T10:32:27Z</time>
      </trkpt>
      <trkpt lat="44.50108" lon="5.73993">
        <ele>734.6</ele>
        <time>2013-10-13T10:32:29Z</time>
      </trkpt>
      <trkpt lat="44.50098" lon="5.73994">
        <ele>734.5</ele>
        <time>2013-10-13T10:32:31Z</time>
      </trkpt>
      <trkpt lat="44.50089" lon="5.73995">
        <ele>734.4</ele>
        <time>2013-10-13T10:32:33Z</time>
      </trkpt>
      <trkpt lat="44.50079" lon="5.73997">
        <ele>734.5</ele>
        <time>2013-10-13T10:32:35Z</time>
      </trkpt>
      <trkpt lat="44.5007" lon="5.74001">
        <ele>734.5</ele>
        <time>2013-10-13T10:32:37Z</time>
      </trkpt>
      <trkpt lat="44.50062" lon="5.74003">
        <ele>734.5</ele>
        <time>2013-10-13T10:32:39Z</time>
      </trkpt>
      <trkpt lat="44.50052" lon="5.74004">
        <ele>734.5</ele>
        <time>2013-10-13T10:32:41Z</time>
      </trkpt>
      <trkpt lat="44.50043" lon="5.74001">
        <ele>734.5</ele>
        <time>2013-10-13T10:32:43Z</time>
      </trkpt>
      <trkpt lat="44.50034" lon="5.73997">
        <ele>734.3</ele>
        <time>2013-10-13T10:32:45Z</time>
      </trkpt>
      <trkpt lat="44.50024" lon="5.73992">
        <ele>734.4</ele>
        <time>2013-10-13T10:32:47Z</time>
      </trkpt>
      <trkpt lat="44.50015" lon="5.73987">
        <ele>734.8</ele>
        <time>2013-10-13T10:32:49Z</time>
      </trkpt>
      <trkpt lat="44.49997" lon="5.73974">
        <ele>734.6</ele>
        <time>2013-10-13T10:32:53Z</time>
      </trkpt>
      <trkpt lat="44.49987" lon="5.7397">
        <ele>734.5</ele>
        <time>2013-10-13T10:32:55Z</time>
      </trkpt>
      <trkpt lat="44.49976" lon="5.73969">
        <ele>734.4</ele>
        <time>2013-10-13T10:32:57Z</time>
      </trkpt>
      <trkpt lat="44.49965" lon="5.73969">
        <ele>734.4</ele>
        <time>2013-10-13T10:32:59Z</time>
      </trkpt>
      <trkpt lat="44.49954" lon="5.73969">
        <ele>734.2</ele>
        <time>2013-10-13T10:33:01Z</time>
      </trkpt>
      <trkpt lat="44.49943" lon="5.73966">
        <ele>733.7</ele>
        <time>2013-10-13T10:33:03Z</time>
      </trkpt>
      <trkpt lat="44.49931" lon="5.73962">
        <ele>733.2</ele>
        <time>2013-10-13T10:33:05Z</time>
      </trkpt>
      <trkpt lat="44.49918" lon="5.73958">
        <ele>732.8</ele>
        <time>2013-10-13T10:33:07Z</time>
      </trkpt>
      <trkpt lat="44.49906" lon="5.73953">
        <ele>732.4</ele>
        <time>2013-10-13T10:33:09Z</time>
      </trkpt>
      <trkpt lat="44.49894" lon="5.73948">
        <ele>732.2</ele>
        <time>2013-10-13T10:33:11Z</time>
      </trkpt>
      <trkpt lat="44.49882" lon="5.73944">
        <ele>732</ele>
        <time>2013-10-13T10:33:13Z</time>
      </trkpt>
      <trkpt lat="44.49871" lon="5.7394">
        <ele>731.8</ele>
        <time>2013-10-13T10:33:15Z</time>
      </trkpt>
      <trkpt lat="44.4986" lon="5.73937">
        <ele>731.7</ele>
        <time>2013-10-13T10:33:17Z</time>
      </trkpt>
      <trkpt lat="44.49849" lon="5.73934">
        <ele>731.5</ele>
        <time>2013-10-13T10:33:19Z</time>
      </trkpt>
      <trkpt lat="44.49838" lon="5.73931">
        <ele>731.4</ele>
        <time>2013-10-13T10:33:21Z</time>
      </trkpt>
      <trkpt lat="44.49827" lon="5.7393">
        <ele>731.3</ele>
        <time>2013-10-13T10:33:23Z</time>
      </trkpt>
      <trkpt lat="44.49816" lon="5.73928">
        <ele>731.2</ele>
        <time>2013-10-13T10:33:25Z</time>
      </trkpt>
      <trkpt lat="44.49804" lon="5.73926">
        <ele>731.2</ele>
        <time>2013-10-13T10:33:27Z</time>
      </trkpt>
      <trkpt lat="44.49793" lon="5.73921">
        <ele>731.2</ele>
        <time>2013-10-13T10:33:29Z</time>
      </trkpt>
      <trkpt lat="44.49782" lon="5.73915">
        <ele>731.1</ele>
        <time>2013-10-13T10:33:31Z</time>
      </trkpt>
      <trkpt lat="44.49772" lon="5.73908">
        <ele>730.8</ele>
        <time>2013-10-13T10:33:33Z</time>
      </trkpt>
      <trkpt lat="44.49761" lon="5.73902">
        <ele>730.7</ele>
        <time>2013-10-13T10:33:35Z</time>
      </trkpt>
      <trkpt lat="44.49751" lon="5.73895">
        <ele>730.7</ele>
        <time>2013-10-13T10:33:37Z</time>
      </trkpt>
      <trkpt lat="44.4974" lon="5.73889">
        <ele>730.8</ele>
        <time>2013-10-13T10:33:39Z</time>
      </trkpt>
      <trkpt lat="44.49731" lon="5.73883">
        <ele>730.9</ele>
        <time>2013-10-13T10:33:41Z</time>
      </trkpt>
      <trkpt lat="44.49721" lon="5.73878">
        <ele>730.9</ele>
        <time>2013-10-13T10:33:43Z</time>
      </trkpt>
      <trkpt lat="44.49711" lon="5.73873">
        <ele>731</ele>
        <time>2013-10-13T10:33:45Z</time>
      </trkpt>
      <trkpt lat="44.49701" lon="5.73867">
        <ele>730.8</ele>
        <time>2013-10-13T10:33:47Z</time>
      </trkpt>
      <trkpt lat="44.49691" lon="5.73862">
        <ele>730.9</ele>
        <time>2013-10-13T10:33:49Z</time>
      </trkpt>
      <trkpt lat="44.49681" lon="5.73856">
        <ele>730.7</ele>
        <time>2013-10-13T10:33:51Z</time>
      </trkpt>
      <trkpt lat="44.4966" lon="5.73846">
        <ele>730.7</ele>
        <time>2013-10-13T10:33:55Z</time>
      </trkpt>
      <trkpt lat="44.49649" lon="5.73841">
        <ele>730.4</ele>
        <time>2013-10-13T10:33:57Z</time>
      </trkpt>
      <trkpt lat="44.49638" lon="5.73839">
        <ele>730.2</ele>
        <time>2013-10-13T10:33:59Z</time>
      </trkpt>
      <trkpt lat="44.49627" lon="5.73838">
        <ele>730.1</ele>
        <time>2013-10-13T10:34:01Z</time>
      </trkpt>
      <trkpt lat="44.49617" lon="5.73837">
        <ele>730</ele>
        <time>2013-10-13T10:34:03Z</time>
      </trkpt>
      <trkpt lat="44.49606" lon="5.73834">
        <ele>729.8</ele>
        <time>2013-10-13T10:34:05Z</time>
      </trkpt>
      <trkpt lat="44.49596" lon="5.73828">
        <ele>729.6</ele>
        <time>2013-10-13T10:34:07Z</time>
      </trkpt>
      <trkpt lat="44.49587" lon="5.7382">
        <ele>729.6</ele>
        <time>2013-10-13T10:34:09Z</time>
      </trkpt>
      <trkpt lat="44.49579" lon="5.73811">
        <ele>729.5</ele>
        <time>2013-10-13T10:34:11Z</time>
      </trkpt>
      <trkpt lat="44.49571" lon="5.73801">
        <ele>729</ele>
        <time>2013-10-13T10:34:13Z</time>
      </trkpt>
      <trkpt lat="44.49563" lon="5.7379">
        <ele>728.8</ele>
        <time>2013-10-13T10:34:15Z</time>
      </trkpt>
      <trkpt lat="44.49556" lon="5.73779">
        <ele>728.7</ele>
        <time>2013-10-13T10:34:17Z</time>
      </trkpt>
      <trkpt lat="44.49549" lon="5.73769">
        <ele>728.5</ele>
        <time>2013-10-13T10:34:19Z</time>
      </trkpt>
      <trkpt lat="44.49542" lon="5.73758">
        <ele>728.4</ele>
        <time>2013-10-13T10:34:21Z</time>
      </trkpt>
      <trkpt lat="44.49537" lon="5.73746">
        <ele>728.3</ele>
        <time>2013-10-13T10:34:23Z</time>
      </trkpt>
      <trkpt lat="44.49532" lon="5.73735">
        <ele>728.2</ele>
        <time>2013-10-13T10:34:25Z</time>
      </trkpt>
      <trkpt lat="44.49528" lon="5.73723">
        <ele>728</ele>
        <time>2013-10-13T10:34:27Z</time>
      </trkpt>
      <trkpt lat="44.49522" lon="5.73708">
        <ele>727.8</ele>
        <time>2013-10-13T10:34:30Z</time>
      </trkpt>
      <trkpt lat="44.49512" lon="5.73712">
        <ele>727.5</ele>
        <time>2013-10-13T10:34:34Z</time>
      </trkpt>
      <trkpt lat="44.49506" lon="5.73728">
        <ele>726.7</ele>
        <time>2013-10-13T10:34:37Z</time>
      </trkpt>
      <trkpt lat="44.49503" lon="5.73744">
        <ele>726.6</ele>
        <time>2013-10-13T10:34:40Z</time>
      </trkpt>
      <trkpt lat="44.49501" lon="5.73761">
        <ele>726.8</ele>
        <time>2013-10-13T10:34:43Z</time>
      </trkpt>
      <trkpt lat="44.49501" lon="5.73778">
        <ele>726.8</ele>
        <time>2013-10-13T10:34:46Z</time>
      </trkpt>
      <trkpt lat="44.49503" lon="5.73795">
        <ele>727.3</ele>
        <time>2013-10-13T10:34:49Z</time>
      </trkpt>
      <trkpt lat="44.49506" lon="5.7381">
        <ele>727.9</ele>
        <time>2013-10-13T10:34:52Z</time>
      </trkpt>
      <trkpt lat="44.49516" lon="5.73838">
        <ele>729.2</ele>
        <time>2013-10-13T10:34:58Z</time>
      </trkpt>
      <trkpt lat="44.49519" lon="5.73852">
        <ele>730.3</ele>
        <time>2013-10-13T10:35:01Z</time>
      </trkpt>
      <trkpt lat="44.49523" lon="5.73865">
        <ele>731.3</ele>
        <time>2013-10-13T10:35:05Z</time>
      </trkpt>
      <trkpt lat="44.49526" lon="5.73877">
        <ele>732.4</ele>
        <time>2013-10-13T10:35:09Z</time>
      </trkpt>
      <trkpt lat="44.4953" lon="5.73889">
        <ele>733</ele>
        <time>2013-10-13T10:35:13Z</time>
      </trkpt>
      <trkpt lat="44.49537" lon="5.73898">
        <ele>733.5</ele>
        <time>2013-10-13T10:35:17Z</time>
      </trkpt>
      <trkpt lat="44.49543" lon="5.7391">
        <ele>735.1</ele>
        <time>2013-10-13T10:35:22Z</time>
      </trkpt>
      <trkpt lat="44.49537" lon="5.73919">
        <ele>735.8</ele>
        <time>2013-10-13T10:35:26Z</time>
      </trkpt>
      <trkpt lat="44.49528" lon="5.73914">
        <ele>735.4</ele>
        <time>2013-10-13T10:35:29Z</time>
      </trkpt>
      <trkpt lat="44.49518" lon="5.7391">
        <ele>735</ele>
        <time>2013-10-13T10:35:32Z</time>
      </trkpt>
      <trkpt lat="44.49508" lon="5.73909">
        <ele>734.9</ele>
        <time>2013-10-13T10:35:35Z</time>
      </trkpt>
      <trkpt lat="44.49499" lon="5.73911">
        <ele>734.8</ele>
        <time>2013-10-13T10:35:38Z</time>
      </trkpt>
      <trkpt lat="44.49489" lon="5.73914">
        <ele>734.8</ele>
        <time>2013-10-13T10:35:41Z</time>
      </trkpt>
      <trkpt lat="44.49478" lon="5.73917">
        <ele>734.8</ele>
        <time>2013-10-13T10:35:44Z</time>
      </trkpt>
      <trkpt lat="44.49467" lon="5.7392">
        <ele>734.8</ele>
        <time>2013-10-13T10:35:47Z</time>
      </trkpt>
      <trkpt lat="44.49456" lon="5.73923">
        <ele>734.9</ele>
        <time>2013-10-13T10:35:50Z</time>
      </trkpt>
      <trkpt lat="44.49445" lon="5.73927">
        <ele>735</ele>
        <time>2013-10-13T10:35:53Z</time>
      </trkpt>
      <trkpt lat="44.49423" lon="5.73934">
        <ele>735.2</ele>
        <time>2013-10-13T10:35:59Z</time>
      </trkpt>
      <trkpt lat="44.49412" lon="5.73939">
        <ele>735.1</ele>
        <time>2013-10-13T10:36:02Z</time>
      </trkpt>
      <trkpt lat="44.494" lon="5.73944">
        <ele>735.3</ele>
        <time>2013-10-13T10:36:05Z</time>
      </trkpt>
      <trkpt lat="44.49388" lon="5.73948">
        <ele>735.4</ele>
        <time>2013-10-13T10:36:08Z</time>
      </trkpt>
      <trkpt lat="44.49376" lon="5.73951">
        <ele>735.5</ele>
        <time>2013-10-13T10:36:11Z</time>
      </trkpt>
      <trkpt lat="44.49365" lon="5.73955">
        <ele>735.5</ele>
        <time>2013-10-13T10:36:14Z</time>
      </trkpt>
      <trkpt lat="44.49353" lon="5.73957">
        <ele>735.4</ele>
        <time>2013-10-13T10:36:17Z</time>
      </trkpt>
      <trkpt lat="44.4934" lon="5.7396">
        <ele>735.4</ele>
        <time>2013-10-13T10:36:20Z</time>
      </trkpt>
      <trkpt lat="44.49328" lon="5.73962">
        <ele>735.4</ele>
        <time>2013-10-13T10:36:23Z</time>
      </trkpt>
      <trkpt lat="44.49317" lon="5.73962">
        <ele>735.4</ele>
        <time>2013-10-13T10:36:26Z</time>
      </trkpt>
      <trkpt lat="44.49306" lon="5.73961">
        <ele>735.1</ele>
        <time>2013-10-13T10:36:29Z</time>
      </trkpt>
      <trkpt lat="44.49293" lon="5.73959">
        <ele>734.7</ele>
        <time>2013-10-13T10:36:32Z</time>
      </trkpt>
      <trkpt lat="44.4928" lon="5.73957">
        <ele>734.1</ele>
        <time>2013-10-13T10:36:35Z</time>
      </trkpt>
      <trkpt lat="44.4927" lon="5.73954">
        <ele>733.6</ele>
        <time>2013-10-13T10:36:37Z</time>
      </trkpt>
      <trkpt lat="44.4926" lon="5.73951">
        <ele>733.2</ele>
        <time>2013-10-13T10:36:39Z</time>
      </trkpt>
      <trkpt lat="44.4925" lon="5.73948">
        <ele>733.1</ele>
        <time>2013-10-13T10:36:41Z</time>
      </trkpt>
      <trkpt lat="44.4924" lon="5.73947">
        <ele>733.2</ele>
        <time>2013-10-13T10:36:43Z</time>
      </trkpt>
      <trkpt lat="44.49227" lon="5.73953">
        <ele>733.8</ele>
        <time>2013-10-13T10:36:46Z</time>
      </trkpt>
      <trkpt lat="44.49215" lon="5.7396">
        <ele>734.4</ele>
        <time>2013-10-13T10:36:49Z</time>
      </trkpt>
      <trkpt lat="44.49203" lon="5.73966">
        <ele>735.1</ele>
        <time>2013-10-13T10:36:52Z</time>
      </trkpt>
      <trkpt lat="44.49192" lon="5.73973">
        <ele>735.9</ele>
        <time>2013-10-13T10:36:55Z</time>
      </trkpt>
      <trkpt lat="44.49179" lon="5.73992">
        <ele>735.4</ele>
        <time>2013-10-13T10:37:01Z</time>
      </trkpt>
      <trkpt lat="44.49178" lon="5.74007">
        <ele>735.2</ele>
        <time>2013-10-13T10:37:04Z</time>
      </trkpt>
      <trkpt lat="44.4918" lon="5.74024">
        <ele>735.3</ele>
        <time>2013-10-13T10:37:07Z</time>
      </trkpt>
      <trkpt lat="44.49186" lon="5.74039">
        <ele>735.5</ele>
        <time>2013-10-13T10:37:10Z</time>
      </trkpt>
      <trkpt lat="44.49191" lon="5.74055">
        <ele>735.4</ele>
        <time>2013-10-13T10:37:13Z</time>
      </trkpt>
      <trkpt lat="44.49196" lon="5.74072">
        <ele>735.9</ele>
        <time>2013-10-13T10:37:16Z</time>
      </trkpt>
      <trkpt lat="44.49201" lon="5.74088">
        <ele>735.9</ele>
        <time>2013-10-13T10:37:19Z</time>
      </trkpt>
      <trkpt lat="44.49204" lon="5.74105">
        <ele>736.1</ele>
        <time>2013-10-13T10:37:22Z</time>
      </trkpt>
      <trkpt lat="44.49205" lon="5.74121">
        <ele>736.4</ele>
        <time>2013-10-13T10:37:25Z</time>
      </trkpt>
      <trkpt lat="44.49205" lon="5.74139">
        <ele>736.6</ele>
        <time>2013-10-13T10:37:28Z</time>
      </trkpt>
      <trkpt lat="44.49205" lon="5.74156">
        <ele>737</ele>
        <time>2013-10-13T10:37:31Z</time>
      </trkpt>
      <trkpt lat="44.49204" lon="5.74173">
        <ele>737.6</ele>
        <time>2013-10-13T10:37:34Z</time>
      </trkpt>
      <trkpt lat="44.49201" lon="5.74191">
        <ele>738.1</ele>
        <time>2013-10-13T10:37:37Z</time>
      </trkpt>
      <trkpt lat="44.49198" lon="5.74209">
        <ele>738.3</ele>
        <time>2013-10-13T10:37:40Z</time>
      </trkpt>
      <trkpt lat="44.49193" lon="5.74225">
        <ele>738.1</ele>
        <time>2013-10-13T10:37:43Z</time>
      </trkpt>
      <trkpt lat="44.49189" lon="5.74243">
        <ele>738</ele>
        <time>2013-10-13T10:37:46Z</time>
      </trkpt>
      <trkpt lat="44.49182" lon="5.74259">
        <ele>738.5</ele>
        <time>2013-10-13T10:37:49Z</time>
      </trkpt>
      <trkpt lat="44.49178" lon="5.7427">
        <ele>738.9</ele>
        <time>2013-10-13T10:37:51Z</time>
      </trkpt>
      <trkpt lat="44.49172" lon="5.74281">
        <ele>739</ele>
        <time>2013-10-13T10:37:53Z</time>
      </trkpt>
      <trkpt lat="44.49167" lon="5.74293">
        <ele>739.5</ele>
        <time>2013-10-13T10:37:55Z</time>
      </trkpt>
      <trkpt lat="44.49162" lon="5.74305">
        <ele>739.7</ele>
        <time>2013-10-13T10:37:57Z</time>
      </trkpt>
      <trkpt lat="44.49153" lon="5.74331">
        <ele>739.1</ele>
        <time>2013-10-13T10:38:01Z</time>
      </trkpt>
      <trkpt lat="44.49148" lon="5.74344">
        <ele>739.1</ele>
        <time>2013-10-13T10:38:03Z</time>
      </trkpt>
      <trkpt lat="44.49143" lon="5.74357">
        <ele>739.4</ele>
        <time>2013-10-13T10:38:05Z</time>
      </trkpt>
      <trkpt lat="44.49139" lon="5.7437">
        <ele>740</ele>
        <time>2013-10-13T10:38:07Z</time>
      </trkpt>
      <trkpt lat="44.49132" lon="5.74386">
        <ele>740.1</ele>
        <time>2013-10-13T10:38:10Z</time>
      </trkpt>
      <trkpt lat="44.49125" lon="5.74402">
        <ele>740</ele>
        <time>2013-10-13T10:38:13Z</time>
      </trkpt>
      <trkpt lat="44.4912" lon="5.74412">
        <ele>739.5</ele>
        <time>2013-10-13T10:38:15Z</time>
      </trkpt>
      <trkpt lat="44.49113" lon="5.74428">
        <ele>739.6</ele>
        <time>2013-10-13T10:38:18Z</time>
      </trkpt>
      <trkpt lat="44.49106" lon="5.74443">
        <ele>739.1</ele>
        <time>2013-10-13T10:38:21Z</time>
      </trkpt>
      <trkpt lat="44.491" lon="5.74455">
        <ele>739.4</ele>
        <time>2013-10-13T10:38:23Z</time>
      </trkpt>
      <trkpt lat="44.49094" lon="5.74467">
        <ele>739.3</ele>
        <time>2013-10-13T10:38:25Z</time>
      </trkpt>
      <trkpt lat="44.49088" lon="5.7448">
        <ele>739.3</ele>
        <time>2013-10-13T10:38:27Z</time>
      </trkpt>
      <trkpt lat="44.49082" lon="5.74492">
        <ele>739.3</ele>
        <time>2013-10-13T10:38:29Z</time>
      </trkpt>
      <trkpt lat="44.49076" lon="5.74504">
        <ele>739.4</ele>
        <time>2013-10-13T10:38:31Z</time>
      </trkpt>
      <trkpt lat="44.49071" lon="5.74516">
        <ele>739.7</ele>
        <time>2013-10-13T10:38:33Z</time>
      </trkpt>
      <trkpt lat="44.49066" lon="5.74527">
        <ele>739.8</ele>
        <time>2013-10-13T10:38:35Z</time>
      </trkpt>
      <trkpt lat="44.49061" lon="5.74537">
        <ele>740.1</ele>
        <time>2013-10-13T10:38:37Z</time>
      </trkpt>
      <trkpt lat="44.49055" lon="5.74548">
        <ele>740.2</ele>
        <time>2013-10-13T10:38:39Z</time>
      </trkpt>
      <trkpt lat="44.4905" lon="5.74559">
        <ele>740.7</ele>
        <time>2013-10-13T10:38:41Z</time>
      </trkpt>
      <trkpt lat="44.49045" lon="5.7457">
        <ele>741.1</ele>
        <time>2013-10-13T10:38:43Z</time>
      </trkpt>
      <trkpt lat="44.49038" lon="5.74585">
        <ele>741.3</ele>
        <time>2013-10-13T10:38:46Z</time>
      </trkpt>
      <trkpt lat="44.4903" lon="5.74599">
        <ele>740.9</ele>
        <time>2013-10-13T10:38:49Z</time>
      </trkpt>
      <trkpt lat="44.49022" lon="5.74613">
        <ele>740.7</ele>
        <time>2013-10-13T10:38:52Z</time>
      </trkpt>
      <trkpt lat="44.49016" lon="5.74623">
        <ele>740.9</ele>
        <time>2013-10-13T10:38:54Z</time>
      </trkpt>
      <trkpt lat="44.4901" lon="5.74633">
        <ele>740.9</ele>
        <time>2013-10-13T10:38:56Z</time>
      </trkpt>
      <trkpt lat="44.49003" lon="5.74643">
        <ele>741.3</ele>
        <time>2013-10-13T10:38:58Z</time>
      </trkpt>
      <trkpt lat="44.4899" lon="5.74661">
        <ele>741.6</ele>
        <time>2013-10-13T10:39:02Z</time>
      </trkpt>
      <trkpt lat="44.48982" lon="5.7467">
        <ele>741.9</ele>
        <time>2013-10-13T10:39:04Z</time>
      </trkpt>
      <trkpt lat="44.48975" lon="5.74679">
        <ele>742</ele>
        <time>2013-10-13T10:39:06Z</time>
      </trkpt>
      <trkpt lat="44.48967" lon="5.74689">
        <ele>742.1</ele>
        <time>2013-10-13T10:39:08Z</time>
      </trkpt>
      <trkpt lat="44.48959" lon="5.74699">
        <ele>742.4</ele>
        <time>2013-10-13T10:39:10Z</time>
      </trkpt>
      <trkpt lat="44.48952" lon="5.74709">
        <ele>742.7</ele>
        <time>2013-10-13T10:39:12Z</time>
      </trkpt>
      <trkpt lat="44.48944" lon="5.74719">
        <ele>742.9</ele>
        <time>2013-10-13T10:39:14Z</time>
      </trkpt>
      <trkpt lat="44.48936" lon="5.74728">
        <ele>743.1</ele>
        <time>2013-10-13T10:39:16Z</time>
      </trkpt>
      <trkpt lat="44.48928" lon="5.74738">
        <ele>742.9</ele>
        <time>2013-10-13T10:39:18Z</time>
      </trkpt>
      <trkpt lat="44.48919" lon="5.74748">
        <ele>742.8</ele>
        <time>2013-10-13T10:39:20Z</time>
      </trkpt>
      <trkpt lat="44.48911" lon="5.74757">
        <ele>742.7</ele>
        <time>2013-10-13T10:39:22Z</time>
      </trkpt>
      <trkpt lat="44.48903" lon="5.74767">
        <ele>742.5</ele>
        <time>2013-10-13T10:39:24Z</time>
      </trkpt>
      <trkpt lat="44.48895" lon="5.74777">
        <ele>742.5</ele>
        <time>2013-10-13T10:39:26Z</time>
      </trkpt>
      <trkpt lat="44.48887" lon="5.74787">
        <ele>742.9</ele>
        <time>2013-10-13T10:39:28Z</time>
      </trkpt>
      <trkpt lat="44.48879" lon="5.74798">
        <ele>743.3</ele>
        <time>2013-10-13T10:39:30Z</time>
      </trkpt>
      <trkpt lat="44.48871" lon="5.74808">
        <ele>743.5</ele>
        <time>2013-10-13T10:39:32Z</time>
      </trkpt>
      <trkpt lat="44.48863" lon="5.74817">
        <ele>743.4</ele>
        <time>2013-10-13T10:39:34Z</time>
      </trkpt>
      <trkpt lat="44.48855" lon="5.74827">
        <ele>743.2</ele>
        <time>2013-10-13T10:39:36Z</time>
      </trkpt>
      <trkpt lat="44.48846" lon="5.74837">
        <ele>743.5</ele>
        <time>2013-10-13T10:39:38Z</time>
      </trkpt>
      <trkpt lat="44.48838" lon="5.74848">
        <ele>743.5</ele>
        <time>2013-10-13T10:39:40Z</time>
      </trkpt>
      <trkpt lat="44.4883" lon="5.74858">
        <ele>743.5</ele>
        <time>2013-10-13T10:39:42Z</time>
      </trkpt>
      <trkpt lat="44.48822" lon="5.74869">
        <ele>743.7</ele>
        <time>2013-10-13T10:39:44Z</time>
      </trkpt>
      <trkpt lat="44.48814" lon="5.74878">
        <ele>743.8</ele>
        <time>2013-10-13T10:39:46Z</time>
      </trkpt>
      <trkpt lat="44.48807" lon="5.74888">
        <ele>743.9</ele>
        <time>2013-10-13T10:39:48Z</time>
      </trkpt>
      <trkpt lat="44.48799" lon="5.74898">
        <ele>744.3</ele>
        <time>2013-10-13T10:39:50Z</time>
      </trkpt>
      <trkpt lat="44.48791" lon="5.74908">
        <ele>744.8</ele>
        <time>2013-10-13T10:39:52Z</time>
      </trkpt>
      <trkpt lat="44.48783" lon="5.74917">
        <ele>744.9</ele>
        <time>2013-10-13T10:39:54Z</time>
      </trkpt>
      <trkpt lat="44.48776" lon="5.74927">
        <ele>745.5</ele>
        <time>2013-10-13T10:39:56Z</time>
      </trkpt>
      <trkpt lat="44.48768" lon="5.74936">
        <ele>745.8</ele>
        <time>2013-10-13T10:39:58Z</time>
      </trkpt>
      <trkpt lat="44.48762" lon="5.74944">
        <ele>746</ele>
        <time>2013-10-13T10:40:00Z</time>
      </trkpt>
      <trkpt lat="44.48741" lon="5.74969">
        <ele>746</ele>
        <time>2013-10-13T10:40:06Z</time>
      </trkpt>
      <trkpt lat="44.48733" lon="5.74978">
        <ele>746.6</ele>
        <time>2013-10-13T10:40:08Z</time>
      </trkpt>
      <trkpt lat="44.48726" lon="5.74988">
        <ele>747.3</ele>
        <time>2013-10-13T10:40:10Z</time>
      </trkpt>
      <trkpt lat="44.4872" lon="5.74998">
        <ele>748.1</ele>
        <time>2013-10-13T10:40:12Z</time>
      </trkpt>
      <trkpt lat="44.48713" lon="5.75008">
        <ele>748.4</ele>
        <time>2013-10-13T10:40:14Z</time>
      </trkpt>
      <trkpt lat="44.48707" lon="5.75018">
        <ele>749.2</ele>
        <time>2013-10-13T10:40:16Z</time>
      </trkpt>
      <trkpt lat="44.48701" lon="5.75029">
        <ele>750.1</ele>
        <time>2013-10-13T10:40:18Z</time>
      </trkpt>
      <trkpt lat="44.48693" lon="5.75042">
        <ele>750.7</ele>
        <time>2013-10-13T10:40:21Z</time>
      </trkpt>
      <trkpt lat="44.48685" lon="5.75055">
        <ele>751.8</ele>
        <time>2013-10-13T10:40:24Z</time>
      </trkpt>
      <trkpt lat="44.48678" lon="5.75067">
        <ele>752.1</ele>
        <time>2013-10-13T10:40:27Z</time>
      </trkpt>
      <trkpt lat="44.4867" lon="5.7508">
        <ele>752.5</ele>
        <time>2013-10-13T10:40:30Z</time>
      </trkpt>
      <trkpt lat="44.48662" lon="5.75093">
        <ele>753.2</ele>
        <time>2013-10-13T10:40:33Z</time>
      </trkpt>
      <trkpt lat="44.48654" lon="5.75105">
        <ele>753.9</ele>
        <time>2013-10-13T10:40:36Z</time>
      </trkpt>
      <trkpt lat="44.48646" lon="5.75118">
        <ele>754.7</ele>
        <time>2013-10-13T10:40:39Z</time>
      </trkpt>
      <trkpt lat="44.48638" lon="5.75132">
        <ele>755.5</ele>
        <time>2013-10-13T10:40:42Z</time>
      </trkpt>
      <trkpt lat="44.4863" lon="5.75144">
        <ele>755.7</ele>
        <time>2013-10-13T10:40:45Z</time>
      </trkpt>
      <trkpt lat="44.48622" lon="5.75156">
        <ele>756</ele>
        <time>2013-10-13T10:40:48Z</time>
      </trkpt>
      <trkpt lat="44.48615" lon="5.75168">
        <ele>755.9</ele>
        <time>2013-10-13T10:40:51Z</time>
      </trkpt>
      <trkpt lat="44.48608" lon="5.75181">
        <ele>756</ele>
        <time>2013-10-13T10:40:54Z</time>
      </trkpt>
      <trkpt lat="44.486" lon="5.75194">
        <ele>756</ele>
        <time>2013-10-13T10:40:57Z</time>
      </trkpt>
      <trkpt lat="44.48591" lon="5.75207">
        <ele>755.9</ele>
        <time>2013-10-13T10:41:00Z</time>
      </trkpt>
      <trkpt lat="44.48581" lon="5.75219">
        <ele>755.7</ele>
        <time>2013-10-13T10:41:03Z</time>
      </trkpt>
      <trkpt lat="44.48565" lon="5.75233">
        <ele>755.7</ele>
        <time>2013-10-13T10:41:07Z</time>
      </trkpt>
      <trkpt lat="44.48557" lon="5.75239">
        <ele>755.7</ele>
        <time>2013-10-13T10:41:09Z</time>
      </trkpt>
      <trkpt lat="44.48549" lon="5.75245">
        <ele>756</ele>
        <time>2013-10-13T10:41:11Z</time>
      </trkpt>
      <trkpt lat="44.4854" lon="5.75251">
        <ele>756.1</ele>
        <time>2013-10-13T10:41:13Z</time>
      </trkpt>
      <trkpt lat="44.48531" lon="5.75257">
        <ele>756.1</ele>
        <time>2013-10-13T10:41:15Z</time>
      </trkpt>
      <trkpt lat="44.48522" lon="5.75263">
        <ele>756</ele>
        <time>2013-10-13T10:41:17Z</time>
      </trkpt>
      <trkpt lat="44.48512" lon="5.75268">
        <ele>755.8</ele>
        <time>2013-10-13T10:41:19Z</time>
      </trkpt>
      <trkpt lat="44.48502" lon="5.75272">
        <ele>755.6</ele>
        <time>2013-10-13T10:41:21Z</time>
      </trkpt>
      <trkpt lat="44.48492" lon="5.75275">
        <ele>755.6</ele>
        <time>2013-10-13T10:41:23Z</time>
      </trkpt>
      <trkpt lat="44.48482" lon="5.75279">
        <ele>755.8</ele>
        <time>2013-10-13T10:41:25Z</time>
      </trkpt>
      <trkpt lat="44.48472" lon="5.75282">
        <ele>755.9</ele>
        <time>2013-10-13T10:41:27Z</time>
      </trkpt>
      <trkpt lat="44.48463" lon="5.75288">
        <ele>756.1</ele>
        <time>2013-10-13T10:41:29Z</time>
      </trkpt>
      <trkpt lat="44.48453" lon="5.75293">
        <ele>756.2</ele>
        <time>2013-10-13T10:41:31Z</time>
      </trkpt>
      <trkpt lat="44.48445" lon="5.753">
        <ele>756.4</ele>
        <time>2013-10-13T10:41:33Z</time>
      </trkpt>
      <trkpt lat="44.48436" lon="5.75308">
        <ele>756.8</ele>
        <time>2013-10-13T10:41:35Z</time>
      </trkpt>
      <trkpt lat="44.48428" lon="5.75315">
        <ele>757.2</ele>
        <time>2013-10-13T10:41:37Z</time>
      </trkpt>
      <trkpt lat="44.48417" lon="5.75326">
        <ele>757.5</ele>
        <time>2013-10-13T10:41:40Z</time>
      </trkpt>
      <trkpt lat="44.48408" lon="5.75337">
        <ele>757.7</ele>
        <time>2013-10-13T10:41:43Z</time>
      </trkpt>
      <trkpt lat="44.48399" lon="5.75348">
        <ele>758.1</ele>
        <time>2013-10-13T10:41:46Z</time>
      </trkpt>
      <trkpt lat="44.48392" lon="5.7536">
        <ele>758.5</ele>
        <time>2013-10-13T10:41:49Z</time>
      </trkpt>
      <trkpt lat="44.48385" lon="5.75372">
        <ele>759</ele>
        <time>2013-10-13T10:41:52Z</time>
      </trkpt>
      <trkpt lat="44.48379" lon="5.75384">
        <ele>759.6</ele>
        <time>2013-10-13T10:41:55Z</time>
      </trkpt>
      <trkpt lat="44.48373" lon="5.75396">
        <ele>760.1</ele>
        <time>2013-10-13T10:41:58Z</time>
      </trkpt>
      <trkpt lat="44.48368" lon="5.75408">
        <ele>760.7</ele>
        <time>2013-10-13T10:42:01Z</time>
      </trkpt>
      <trkpt lat="44.48364" lon="5.7542">
        <ele>761.3</ele>
        <time>2013-10-13T10:42:04Z</time>
      </trkpt>
      <trkpt lat="44.48363" lon="5.75448">
        <ele>762.2</ele>
        <time>2013-10-13T10:42:11Z</time>
      </trkpt>
      <trkpt lat="44.48368" lon="5.75461">
        <ele>763</ele>
        <time>2013-10-13T10:42:16Z</time>
      </trkpt>
      <trkpt lat="44.48374" lon="5.75471">
        <ele>763.6</ele>
        <time>2013-10-13T10:42:21Z</time>
      </trkpt>
      <trkpt lat="44.48383" lon="5.75481">
        <ele>764.1</ele>
        <time>2013-10-13T10:42:27Z</time>
      </trkpt>
      <trkpt lat="44.48392" lon="5.75488">
        <ele>764.7</ele>
        <time>2013-10-13T10:42:31Z</time>
      </trkpt>
      <trkpt lat="44.48401" lon="5.75495">
        <ele>765.4</ele>
        <time>2013-10-13T10:42:35Z</time>
      </trkpt>
      <trkpt lat="44.48411" lon="5.75501">
        <ele>766</ele>
        <time>2013-10-13T10:42:39Z</time>
      </trkpt>
      <trkpt lat="44.4842" lon="5.75507">
        <ele>766.3</ele>
        <time>2013-10-13T10:42:43Z</time>
      </trkpt>
      <trkpt lat="44.4843" lon="5.75514">
        <ele>766.8</ele>
        <time>2013-10-13T10:42:48Z</time>
      </trkpt>
      <trkpt lat="44.48436" lon="5.75523">
        <ele>766.8</ele>
        <time>2013-10-13T10:43:09Z</time>
      </trkpt>
      <trkpt lat="44.48446" lon="5.75549">
        <ele>769.5</ele>
        <time>2013-10-13T10:43:20Z</time>
      </trkpt>
      <trkpt lat="44.48448" lon="5.75562">
        <ele>769.5</ele>
        <time>2013-10-13T10:43:26Z</time>
      </trkpt>
      <trkpt lat="44.4845" lon="5.75576">
        <ele>769.5</ele>
        <time>2013-10-13T10:43:32Z</time>
      </trkpt>
      <trkpt lat="44.48452" lon="5.7559">
        <ele>769.5</ele>
        <time>2013-10-13T10:43:38Z</time>
      </trkpt>
      <trkpt lat="44.48452" lon="5.75603">
        <ele>774.8</ele>
        <time>2013-10-13T10:43:42Z</time>
      </trkpt>
      <trkpt lat="44.4845" lon="5.75615">
        <ele>775.6</ele>
        <time>2013-10-13T10:43:46Z</time>
      </trkpt>
      <trkpt lat="44.48447" lon="5.75628">
        <ele>775.6</ele>
        <time>2013-10-13T10:43:50Z</time>
      </trkpt>
      <trkpt lat="44.48444" lon="5.75642">
        <ele>775.6</ele>
        <time>2013-10-13T10:43:55Z</time>
      </trkpt>
      <trkpt lat="44.48439" lon="5.75655">
        <ele>777.2</ele>
        <time>2013-10-13T10:44:03Z</time>
      </trkpt>
      <trkpt lat="44.48428" lon="5.75666">
        <ele>777.4</ele>
        <time>2013-10-13T10:44:06Z</time>
      </trkpt>
      <trkpt lat="44.48455" lon="5.75659">
        <ele>797.8</ele>
        <time>2013-10-13T10:45:32Z</time>
      </trkpt>
      <trkpt lat="44.48509" lon="5.75663">
        <ele>800</ele>
        <time>2013-10-13T10:47:09Z</time>
      </trkpt>
      <trkpt lat="44.48517" lon="5.75668">
        <ele>800</ele>
        <time>2013-10-13T10:47:39Z</time>
      </trkpt>
      <trkpt lat="44.48526" lon="5.75661">
        <ele>802.2</ele>
        <time>2013-10-13T10:47:43Z</time>
      </trkpt>
      <trkpt lat="44.48533" lon="5.75649">
        <ele>801.9</ele>
        <time>2013-10-13T10:47:47Z</time>
      </trkpt>
      <trkpt lat="44.4854" lon="5.75639">
        <ele>801.9</ele>
        <time>2013-10-13T10:47:53Z</time>
      </trkpt>
      <trkpt lat="44.48558" lon="5.75632">
        <ele>796.8</ele>
        <time>2013-10-13T10:48:19Z</time>
      </trkpt>
      <trkpt lat="44.48567" lon="5.75637">
        <ele>796.5</ele>
        <time>2013-10-13T10:48:22Z</time>
      </trkpt>
      <trkpt lat="44.48576" lon="5.75642">
        <ele>796.5</ele>
        <time>2013-10-13T10:48:28Z</time>
      </trkpt>
      <trkpt lat="44.48586" lon="5.75647">
        <ele>793.5</ele>
        <time>2013-10-13T10:48:45Z</time>
      </trkpt>
      <trkpt lat="44.48594" lon="5.7565">
        <ele>795.3</ele>
        <time>2013-10-13T10:49:36Z</time>
      </trkpt>
      <trkpt lat="44.48614" lon="5.75648">
        <ele>795.5</ele>
        <time>2013-10-13T10:49:49Z</time>
      </trkpt>
      <trkpt lat="44.48621" lon="5.75659">
        <ele>795.7</ele>
        <time>2013-10-13T10:49:53Z</time>
      </trkpt>
      <trkpt lat="44.48629" lon="5.75669">
        <ele>793.1</ele>
        <time>2013-10-13T10:50:15Z</time>
      </trkpt>
      <trkpt lat="44.48639" lon="5.75673">
        <ele>791.8</ele>
        <time>2013-10-13T10:50:17Z</time>
      </trkpt>
      <trkpt lat="44.48648" lon="5.75675">
        <ele>791.7</ele>
        <time>2013-10-13T10:50:19Z</time>
      </trkpt>
      <trkpt lat="44.48661" lon="5.75678">
        <ele>791.5</ele>
        <time>2013-10-13T10:50:24Z</time>
      </trkpt>
      <trkpt lat="44.48673" lon="5.75681">
        <ele>791.5</ele>
        <time>2013-10-13T10:50:27Z</time>
      </trkpt>
      <trkpt lat="44.48683" lon="5.75682">
        <ele>791.5</ele>
        <time>2013-10-13T10:50:30Z</time>
      </trkpt>
      <trkpt lat="44.48695" lon="5.75684">
        <ele>791.5</ele>
        <time>2013-10-13T10:50:34Z</time>
      </trkpt>
      <trkpt lat="44.48704" lon="5.75685">
        <ele>785.6</ele>
        <time>2013-10-13T10:50:37Z</time>
      </trkpt>
      <trkpt lat="44.48724" lon="5.75687">
        <ele>785.1</ele>
        <time>2013-10-13T10:50:43Z</time>
      </trkpt>
      <trkpt lat="44.48739" lon="5.7569">
        <ele>786.9</ele>
        <time>2013-10-13T10:50:55Z</time>
      </trkpt>
      <trkpt lat="44.48759" lon="5.75692">
        <ele>787.8</ele>
        <time>2013-10-13T10:50:57Z</time>
      </trkpt>
      <trkpt lat="44.48771" lon="5.75695">
        <ele>788.1</ele>
        <time>2013-10-13T10:51:13Z</time>
      </trkpt>
      <trkpt lat="44.48782" lon="5.75699">
        <ele>788.1</ele>
        <time>2013-10-13T10:51:16Z</time>
      </trkpt>
      <trkpt lat="44.48792" lon="5.75702">
        <ele>790.4</ele>
        <time>2013-10-13T10:51:18Z</time>
      </trkpt>
      <trkpt lat="44.48801" lon="5.75703">
        <ele>791.5</ele>
        <time>2013-10-13T10:51:31Z</time>
      </trkpt>
      <trkpt lat="44.48814" lon="5.75706">
        <ele>790.5</ele>
        <time>2013-10-13T10:51:33Z</time>
      </trkpt>
      <trkpt lat="44.48824" lon="5.7571">
        <ele>790.9</ele>
        <time>2013-10-13T10:51:35Z</time>
      </trkpt>
      <trkpt lat="44.48834" lon="5.75714">
        <ele>790.9</ele>
        <time>2013-10-13T10:51:37Z</time>
      </trkpt>
      <trkpt lat="44.48847" lon="5.75719">
        <ele>790.9</ele>
        <time>2013-10-13T10:51:44Z</time>
      </trkpt>
      <trkpt lat="44.48871" lon="5.75725">
        <ele>794.1</ele>
        <time>2013-10-13T10:51:48Z</time>
      </trkpt>
      <trkpt lat="44.48881" lon="5.75727">
        <ele>794.6</ele>
        <time>2013-10-13T10:51:50Z</time>
      </trkpt>
      <trkpt lat="44.48891" lon="5.7573">
        <ele>795.2</ele>
        <time>2013-10-13T10:51:52Z</time>
      </trkpt>
      <trkpt lat="44.49" lon="5.7574">
        <ele>795.8</ele>
        <time>2013-10-13T10:51:54Z</time>
      </trkpt>
      <trkpt lat="44.4904" lon="5.75751">
        <ele>800.1</ele>
        <time>2013-10-13T10:52:11Z</time>
      </trkpt>
      <trkpt lat="44.49048" lon="5.75755">
        <ele>800.2</ele>
        <time>2013-10-13T10:52:14Z</time>
      </trkpt>
      <trkpt lat="44.49084" lon="5.75766">
        <ele>802.4</ele>
        <time>2013-10-13T10:52:28Z</time>
      </trkpt>
      <trkpt lat="44.49127" lon="5.75781">
        <ele>807.1</ele>
        <time>2013-10-13T10:52:44Z</time>
      </trkpt>
      <trkpt lat="44.49167" lon="5.75802">
        <ele>815</ele>
        <time>2013-10-13T10:53:01Z</time>
      </trkpt>
      <trkpt lat="44.4925" lon="5.75836">
        <ele>823.7</ele>
        <time>2013-10-13T10:53:34Z</time>
      </trkpt>
      <trkpt lat="44.49261" lon="5.75836">
        <ele>824.1</ele>
        <time>2013-10-13T10:53:37Z</time>
      </trkpt>
      <trkpt lat="44.49297" lon="5.7584">
        <ele>828.3</ele>
        <time>2013-10-13T10:53:51Z</time>
      </trkpt>
      <trkpt lat="44.49311" lon="5.75839">
        <ele>829.9</ele>
        <time>2013-10-13T10:53:56Z</time>
      </trkpt>
      <trkpt lat="44.49321" lon="5.75837">
        <ele>830.1</ele>
        <time>2013-10-13T10:53:58Z</time>
      </trkpt>
      <trkpt lat="44.49336" lon="5.75837">
        <ele>830.2</ele>
        <time>2013-10-13T10:54:00Z</time>
      </trkpt>
      <trkpt lat="44.4935" lon="5.75839">
        <ele>830.1</ele>
        <time>2013-10-13T10:54:02Z</time>
      </trkpt>
      <trkpt lat="44.49377" lon="5.7584">
        <ele>831.8</ele>
        <time>2013-10-13T10:54:06Z</time>
      </trkpt>
      <trkpt lat="44.49391" lon="5.7584">
        <ele>832.5</ele>
        <time>2013-10-13T10:54:08Z</time>
      </trkpt>
      <trkpt lat="44.49405" lon="5.75842">
        <ele>832.9</ele>
        <time>2013-10-13T10:54:11Z</time>
      </trkpt>
      <trkpt lat="44.49415" lon="5.75842">
        <ele>834.3</ele>
        <time>2013-10-13T10:54:13Z</time>
      </trkpt>
      <trkpt lat="44.49427" lon="5.75845">
        <ele>835.3</ele>
        <time>2013-10-13T10:54:15Z</time>
      </trkpt>
      <trkpt lat="44.49444" lon="5.75845">
        <ele>839</ele>
        <time>2013-10-13T10:54:17Z</time>
      </trkpt>
      <trkpt lat="44.49459" lon="5.75846">
        <ele>842.5</ele>
        <time>2013-10-13T10:54:19Z</time>
      </trkpt>
      <trkpt lat="44.49468" lon="5.75846">
        <ele>844.9</ele>
        <time>2013-10-13T10:54:20Z</time>
      </trkpt>
      <trkpt lat="44.49477" lon="5.75847">
        <ele>848</ele>
        <time>2013-10-13T10:54:22Z</time>
      </trkpt>
      <trkpt lat="44.49486" lon="5.75852">
        <ele>860.7</ele>
        <time>2013-10-13T10:54:33Z</time>
      </trkpt>
      <trkpt lat="44.49497" lon="5.75853">
        <ele>863</ele>
        <time>2013-10-13T10:54:37Z</time>
      </trkpt>
      <trkpt lat="44.49508" lon="5.75854">
        <ele>874.6</ele>
        <time>2013-10-13T10:54:57Z</time>
      </trkpt>
      <trkpt lat="44.49545" lon="5.75847">
        <ele>877.6</ele>
        <time>2013-10-13T10:55:37Z</time>
      </trkpt>
      <trkpt lat="44.49577" lon="5.75851">
        <ele>883.8</ele>
        <time>2013-10-13T10:55:43Z</time>
      </trkpt>
      <trkpt lat="44.49611" lon="5.75857">
        <ele>883.8</ele>
        <time>2013-10-13T10:55:51Z</time>
      </trkpt>
      <trkpt lat="44.49623" lon="5.75856">
        <ele>884</ele>
        <time>2013-10-13T10:55:54Z</time>
      </trkpt>
      <trkpt lat="44.49633" lon="5.75857">
        <ele>884</ele>
        <time>2013-10-13T10:55:56Z</time>
      </trkpt>
      <trkpt lat="44.49645" lon="5.75858">
        <ele>884.3</ele>
        <time>2013-10-13T10:55:58Z</time>
      </trkpt>
      <trkpt lat="44.49654" lon="5.75858">
        <ele>884.3</ele>
        <time>2013-10-13T10:56:00Z</time>
      </trkpt>
      <trkpt lat="44.49663" lon="5.75859">
        <ele>884.5</ele>
        <time>2013-10-13T10:56:02Z</time>
      </trkpt>
      <trkpt lat="44.49672" lon="5.75864">
        <ele>885.2</ele>
        <time>2013-10-13T10:56:06Z</time>
      </trkpt>
      <trkpt lat="44.49678" lon="5.75874">
        <ele>885.4</ele>
        <time>2013-10-13T10:56:11Z</time>
      </trkpt>
      <trkpt lat="44.49687" lon="5.75882">
        <ele>885.9</ele>
        <time>2013-10-13T10:56:15Z</time>
      </trkpt>
      <trkpt lat="44.497" lon="5.7589">
        <ele>887.8</ele>
        <time>2013-10-13T10:56:22Z</time>
      </trkpt>
      <trkpt lat="44.49711" lon="5.75896">
        <ele>887.5</ele>
        <time>2013-10-13T10:56:26Z</time>
      </trkpt>
      <trkpt lat="44.49726" lon="5.75898">
        <ele>887.3</ele>
        <time>2013-10-13T10:56:33Z</time>
      </trkpt>
      <trkpt lat="44.49739" lon="5.75897">
        <ele>887.4</ele>
        <time>2013-10-13T10:56:35Z</time>
      </trkpt>
      <trkpt lat="44.49754" lon="5.759">
        <ele>887.6</ele>
        <time>2013-10-13T10:56:37Z</time>
      </trkpt>
      <trkpt lat="44.49767" lon="5.75902">
        <ele>887.8</ele>
        <time>2013-10-13T10:56:39Z</time>
      </trkpt>
      <trkpt lat="44.49794" lon="5.75902">
        <ele>888.2</ele>
        <time>2013-10-13T10:56:44Z</time>
      </trkpt>
      <trkpt lat="44.49804" lon="5.75899">
        <ele>889.8</ele>
        <time>2013-10-13T10:56:49Z</time>
      </trkpt>
      <trkpt lat="44.49813" lon="5.75894">
        <ele>890.7</ele>
        <time>2013-10-13T10:56:57Z</time>
      </trkpt>
      <trkpt lat="44.49823" lon="5.75891">
        <ele>892.4</ele>
        <time>2013-10-13T10:57:06Z</time>
      </trkpt>
      <trkpt lat="44.49833" lon="5.75888">
        <ele>893.2</ele>
        <time>2013-10-13T10:57:10Z</time>
      </trkpt>
      <trkpt lat="44.49843" lon="5.75884">
        <ele>893.7</ele>
        <time>2013-10-13T10:57:15Z</time>
      </trkpt>
      <trkpt lat="44.49853" lon="5.75882">
        <ele>894.2</ele>
        <time>2013-10-13T10:57:19Z</time>
      </trkpt>
      <trkpt lat="44.49863" lon="5.75878">
        <ele>894.9</ele>
        <time>2013-10-13T10:57:24Z</time>
      </trkpt>
      <trkpt lat="44.49872" lon="5.75876">
        <ele>896.8</ele>
        <time>2013-10-13T10:57:34Z</time>
      </trkpt>
      <trkpt lat="44.49882" lon="5.75879">
        <ele>898.5</ele>
        <time>2013-10-13T10:57:38Z</time>
      </trkpt>
      <trkpt lat="44.49893" lon="5.75881">
        <ele>899.4</ele>
        <time>2013-10-13T10:57:41Z</time>
      </trkpt>
      <trkpt lat="44.49924" lon="5.75887">
        <ele>900.9</ele>
        <time>2013-10-13T10:57:47Z</time>
      </trkpt>
      <trkpt lat="44.49935" lon="5.75891">
        <ele>900.8</ele>
        <time>2013-10-13T10:57:51Z</time>
      </trkpt>
      <trkpt lat="44.49946" lon="5.75899">
        <ele>900.5</ele>
        <time>2013-10-13T10:57:55Z</time>
      </trkpt>
      <trkpt lat="44.49955" lon="5.75906">
        <ele>900.2</ele>
        <time>2013-10-13T10:57:57Z</time>
      </trkpt>
      <trkpt lat="44.49968" lon="5.75917">
        <ele>899.9</ele>
        <time>2013-10-13T10:58:00Z</time>
      </trkpt>
      <trkpt lat="44.49979" lon="5.75925">
        <ele>899.7</ele>
        <time>2013-10-13T10:58:02Z</time>
      </trkpt>
      <trkpt lat="44.49989" lon="5.75934">
        <ele>898.4</ele>
        <time>2013-10-13T10:58:04Z</time>
      </trkpt>
      <trkpt lat="44.49997" lon="5.7594">
        <ele>898.2</ele>
        <time>2013-10-13T10:58:06Z</time>
      </trkpt>
      <trkpt lat="44.50007" lon="5.7595">
        <ele>897.4</ele>
        <time>2013-10-13T10:58:09Z</time>
      </trkpt>
      <trkpt lat="44.50016" lon="5.75958">
        <ele>895.9</ele>
        <time>2013-10-13T10:58:12Z</time>
      </trkpt>
      <trkpt lat="44.50025" lon="5.75967">
        <ele>894.3</ele>
        <time>2013-10-13T10:58:17Z</time>
      </trkpt>
      <trkpt lat="44.50034" lon="5.75975">
        <ele>892.9</ele>
        <time>2013-10-13T10:58:21Z</time>
      </trkpt>
      <trkpt lat="44.50045" lon="5.75982">
        <ele>891.8</ele>
        <time>2013-10-13T10:58:24Z</time>
      </trkpt>
      <trkpt lat="44.50054" lon="5.75987">
        <ele>890.7</ele>
        <time>2013-10-13T10:58:27Z</time>
      </trkpt>
      <trkpt lat="44.50063" lon="5.75993">
        <ele>887.7</ele>
        <time>2013-10-13T10:58:31Z</time>
      </trkpt>
      <trkpt lat="44.50069" lon="5.76002">
        <ele>872.2</ele>
        <time>2013-10-13T10:58:47Z</time>
      </trkpt>
      <trkpt lat="44.50087" lon="5.75996">
        <ele>865.8</ele>
        <time>2013-10-13T10:58:56Z</time>
      </trkpt>
      <trkpt lat="44.50099" lon="5.76006">
        <ele>864.5</ele>
        <time>2013-10-13T10:58:58Z</time>
      </trkpt>
      <trkpt lat="44.50112" lon="5.76016">
        <ele>863.1</ele>
        <time>2013-10-13T10:59:00Z</time>
      </trkpt>
      <trkpt lat="44.50125" lon="5.76022">
        <ele>861.7</ele>
        <time>2013-10-13T10:59:02Z</time>
      </trkpt>
      <trkpt lat="44.5014" lon="5.76028">
        <ele>860.6</ele>
        <time>2013-10-13T10:59:04Z</time>
      </trkpt>
      <trkpt lat="44.50155" lon="5.76032">
        <ele>860</ele>
        <time>2013-10-13T10:59:06Z</time>
      </trkpt>
      <trkpt lat="44.50171" lon="5.76033">
        <ele>858.9</ele>
        <time>2013-10-13T10:59:08Z</time>
      </trkpt>
      <trkpt lat="44.50186" lon="5.76032">
        <ele>857.3</ele>
        <time>2013-10-13T10:59:10Z</time>
      </trkpt>
      <trkpt lat="44.50199" lon="5.76032">
        <ele>855.7</ele>
        <time>2013-10-13T10:59:12Z</time>
      </trkpt>
      <trkpt lat="44.50209" lon="5.76023">
        <ele>852.7</ele>
        <time>2013-10-13T10:59:15Z</time>
      </trkpt>
      <trkpt lat="44.50216" lon="5.76001">
        <ele>851.7</ele>
        <time>2013-10-13T10:59:18Z</time>
      </trkpt>
      <trkpt lat="44.5022" lon="5.75986">
        <ele>850.7</ele>
        <time>2013-10-13T10:59:21Z</time>
      </trkpt>
      <trkpt lat="44.50227" lon="5.75972">
        <ele>850.5</ele>
        <time>2013-10-13T10:59:24Z</time>
      </trkpt>
      <trkpt lat="44.50236" lon="5.7596">
        <ele>849.9</ele>
        <time>2013-10-13T10:59:27Z</time>
      </trkpt>
      <trkpt lat="44.50246" lon="5.75949">
        <ele>849.5</ele>
        <time>2013-10-13T10:59:30Z</time>
      </trkpt>
      <trkpt lat="44.5026" lon="5.75945">
        <ele>848.6</ele>
        <time>2013-10-13T10:59:33Z</time>
      </trkpt>
      <trkpt lat="44.50268" lon="5.75951">
        <ele>846.8</ele>
        <time>2013-10-13T10:59:34Z</time>
      </trkpt>
      <trkpt lat="44.50277" lon="5.75964">
        <ele>845.2</ele>
        <time>2013-10-13T10:59:36Z</time>
      </trkpt>
      <trkpt lat="44.50289" lon="5.75982">
        <ele>842.9</ele>
        <time>2013-10-13T10:59:38Z</time>
      </trkpt>
      <trkpt lat="44.50298" lon="5.75995">
        <ele>840.5</ele>
        <time>2013-10-13T10:59:40Z</time>
      </trkpt>
      <trkpt lat="44.50305" lon="5.76007">
        <ele>838.9</ele>
        <time>2013-10-13T10:59:42Z</time>
      </trkpt>
      <trkpt lat="44.50312" lon="5.76018">
        <ele>837.9</ele>
        <time>2013-10-13T10:59:44Z</time>
      </trkpt>
      <trkpt lat="44.50318" lon="5.76029">
        <ele>837.9</ele>
        <time>2013-10-13T10:59:46Z</time>
      </trkpt>
      <trkpt lat="44.50324" lon="5.76039">
        <ele>837.5</ele>
        <time>2013-10-13T10:59:48Z</time>
      </trkpt>
      <trkpt lat="44.50335" lon="5.7606">
        <ele>837.4</ele>
        <time>2013-10-13T10:59:52Z</time>
      </trkpt>
      <trkpt lat="44.50344" lon="5.7607">
        <ele>836.7</ele>
        <time>2013-10-13T10:59:55Z</time>
      </trkpt>
      <trkpt lat="44.50354" lon="5.76076">
        <ele>836</ele>
        <time>2013-10-13T10:59:57Z</time>
      </trkpt>
      <trkpt lat="44.50363" lon="5.76081">
        <ele>835.4</ele>
        <time>2013-10-13T10:59:59Z</time>
      </trkpt>
      <trkpt lat="44.50373" lon="5.76088">
        <ele>835</ele>
        <time>2013-10-13T11:00:01Z</time>
      </trkpt>
      <trkpt lat="44.50382" lon="5.76095">
        <ele>834.6</ele>
        <time>2013-10-13T11:00:03Z</time>
      </trkpt>
      <trkpt lat="44.50392" lon="5.761">
        <ele>834.5</ele>
        <time>2013-10-13T11:00:05Z</time>
      </trkpt>
      <trkpt lat="44.50402" lon="5.76103">
        <ele>834.7</ele>
        <time>2013-10-13T11:00:07Z</time>
      </trkpt>
      <trkpt lat="44.50411" lon="5.76107">
        <ele>834.9</ele>
        <time>2013-10-13T11:00:09Z</time>
      </trkpt>
      <trkpt lat="44.50422" lon="5.76113">
        <ele>834.8</ele>
        <time>2013-10-13T11:00:12Z</time>
      </trkpt>
      <trkpt lat="44.50431" lon="5.76117">
        <ele>834.4</ele>
        <time>2013-10-13T11:00:15Z</time>
      </trkpt>
      <trkpt lat="44.50441" lon="5.76123">
        <ele>834.2</ele>
        <time>2013-10-13T11:00:18Z</time>
      </trkpt>
      <trkpt lat="44.50453" lon="5.76129">
        <ele>834.2</ele>
        <time>2013-10-13T11:00:21Z</time>
      </trkpt>
      <trkpt lat="44.50464" lon="5.76137">
        <ele>834.6</ele>
        <time>2013-10-13T11:00:24Z</time>
      </trkpt>
      <trkpt lat="44.50472" lon="5.76145">
        <ele>834.9</ele>
        <time>2013-10-13T11:00:27Z</time>
      </trkpt>
      <trkpt lat="44.5048" lon="5.76153">
        <ele>835.5</ele>
        <time>2013-10-13T11:00:30Z</time>
      </trkpt>
      <trkpt lat="44.50489" lon="5.76161">
        <ele>836.2</ele>
        <time>2013-10-13T11:00:34Z</time>
      </trkpt>
      <trkpt lat="44.50498" lon="5.76166">
        <ele>836.5</ele>
        <time>2013-10-13T11:00:37Z</time>
      </trkpt>
      <trkpt lat="44.50509" lon="5.76172">
        <ele>836.7</ele>
        <time>2013-10-13T11:00:40Z</time>
      </trkpt>
      <trkpt lat="44.50517" lon="5.76178">
        <ele>836.8</ele>
        <time>2013-10-13T11:00:43Z</time>
      </trkpt>
      <trkpt lat="44.50526" lon="5.76186">
        <ele>837.1</ele>
        <time>2013-10-13T11:00:46Z</time>
      </trkpt>
      <trkpt lat="44.50534" lon="5.76197">
        <ele>837.2</ele>
        <time>2013-10-13T11:00:49Z</time>
      </trkpt>
      <trkpt lat="44.50551" lon="5.76222">
        <ele>838.3</ele>
        <time>2013-10-13T11:00:55Z</time>
      </trkpt>
      <trkpt lat="44.50561" lon="5.76232">
        <ele>838.6</ele>
        <time>2013-10-13T11:00:58Z</time>
      </trkpt>
      <trkpt lat="44.5057" lon="5.76242">
        <ele>839</ele>
        <time>2013-10-13T11:01:01Z</time>
      </trkpt>
      <trkpt lat="44.50577" lon="5.76252">
        <ele>839.2</ele>
        <time>2013-10-13T11:01:04Z</time>
      </trkpt>
      <trkpt lat="44.50586" lon="5.76261">
        <ele>839.4</ele>
        <time>2013-10-13T11:01:07Z</time>
      </trkpt>
      <trkpt lat="44.50596" lon="5.76268">
        <ele>839.6</ele>
        <time>2013-10-13T11:01:10Z</time>
      </trkpt>
      <trkpt lat="44.50606" lon="5.76274">
        <ele>839.5</ele>
        <time>2013-10-13T11:01:13Z</time>
      </trkpt>
      <trkpt lat="44.50619" lon="5.7628">
        <ele>839.5</ele>
        <time>2013-10-13T11:01:16Z</time>
      </trkpt>
      <trkpt lat="44.5063" lon="5.76286">
        <ele>839.3</ele>
        <time>2013-10-13T11:01:19Z</time>
      </trkpt>
      <trkpt lat="44.50641" lon="5.76292">
        <ele>839.3</ele>
        <time>2013-10-13T11:01:22Z</time>
      </trkpt>
      <trkpt lat="44.50653" lon="5.76297">
        <ele>839.3</ele>
        <time>2013-10-13T11:01:25Z</time>
      </trkpt>
      <trkpt lat="44.50661" lon="5.76301">
        <ele>839</ele>
        <time>2013-10-13T11:01:27Z</time>
      </trkpt>
      <trkpt lat="44.5067" lon="5.76305">
        <ele>838.7</ele>
        <time>2013-10-13T11:01:29Z</time>
      </trkpt>
      <trkpt lat="44.50679" lon="5.76308">
        <ele>838.4</ele>
        <time>2013-10-13T11:01:31Z</time>
      </trkpt>
      <trkpt lat="44.50688" lon="5.76312">
        <ele>838.4</ele>
        <time>2013-10-13T11:01:33Z</time>
      </trkpt>
      <trkpt lat="44.50698" lon="5.76318">
        <ele>838.1</ele>
        <time>2013-10-13T11:01:36Z</time>
      </trkpt>
      <trkpt lat="44.50709" lon="5.76323">
        <ele>838.4</ele>
        <time>2013-10-13T11:01:39Z</time>
      </trkpt>
      <trkpt lat="44.5072" lon="5.76328">
        <ele>838.5</ele>
        <time>2013-10-13T11:01:42Z</time>
      </trkpt>
      <trkpt lat="44.5073" lon="5.76333">
        <ele>838.4</ele>
        <time>2013-10-13T11:01:45Z</time>
      </trkpt>
      <trkpt lat="44.50743" lon="5.76336">
        <ele>837.9</ele>
        <time>2013-10-13T11:01:48Z</time>
      </trkpt>
      <trkpt lat="44.50757" lon="5.76336">
        <ele>837.6</ele>
        <time>2013-10-13T11:01:51Z</time>
      </trkpt>
      <trkpt lat="44.50781" lon="5.76348">
        <ele>836.5</ele>
        <time>2013-10-13T11:01:57Z</time>
      </trkpt>
      <trkpt lat="44.50792" lon="5.7635">
        <ele>836.3</ele>
        <time>2013-10-13T11:02:00Z</time>
      </trkpt>
      <trkpt lat="44.50797" lon="5.76339">
        <ele>836.3</ele>
        <time>2013-10-13T11:02:03Z</time>
      </trkpt>
      <trkpt lat="44.50804" lon="5.7635">
        <ele>831.8</ele>
        <time>2013-10-13T11:09:06Z</time>
      </trkpt>
      <trkpt lat="44.50812" lon="5.76376">
        <ele>832.6</ele>
        <time>2013-10-13T11:09:14Z</time>
      </trkpt>
      <trkpt lat="44.5082" lon="5.76384">
        <ele>833.2</ele>
        <time>2013-10-13T11:09:18Z</time>
      </trkpt>
      <trkpt lat="44.50829" lon="5.76389">
        <ele>833.9</ele>
        <time>2013-10-13T11:09:22Z</time>
      </trkpt>
      <trkpt lat="44.50838" lon="5.76391">
        <ele>835.2</ele>
        <time>2013-10-13T11:09:27Z</time>
      </trkpt>
      <trkpt lat="44.50848" lon="5.76392">
        <ele>835.8</ele>
        <time>2013-10-13T11:09:31Z</time>
      </trkpt>
      <trkpt lat="44.50858" lon="5.76393">
        <ele>836.4</ele>
        <time>2013-10-13T11:09:35Z</time>
      </trkpt>
      <trkpt lat="44.50867" lon="5.76395">
        <ele>837.2</ele>
        <time>2013-10-13T11:09:39Z</time>
      </trkpt>
      <trkpt lat="44.50877" lon="5.76397">
        <ele>838.7</ele>
        <time>2013-10-13T11:09:43Z</time>
      </trkpt>
      <trkpt lat="44.50887" lon="5.764">
        <ele>839.8</ele>
        <time>2013-10-13T11:09:47Z</time>
      </trkpt>
      <trkpt lat="44.50897" lon="5.76403">
        <ele>841</ele>
        <time>2013-10-13T11:09:52Z</time>
      </trkpt>
      <trkpt lat="44.50907" lon="5.76405">
        <ele>842.3</ele>
        <time>2013-10-13T11:09:56Z</time>
      </trkpt>
      <trkpt lat="44.50918" lon="5.76405">
        <ele>843.8</ele>
        <time>2013-10-13T11:10:00Z</time>
      </trkpt>
      <trkpt lat="44.50928" lon="5.76405">
        <ele>845</ele>
        <time>2013-10-13T11:10:03Z</time>
      </trkpt>
      <trkpt lat="44.50939" lon="5.76404">
        <ele>845.8</ele>
        <time>2013-10-13T11:10:07Z</time>
      </trkpt>
      <trkpt lat="44.5096" lon="5.76398">
        <ele>848.1</ele>
        <time>2013-10-13T11:10:17Z</time>
      </trkpt>
      <trkpt lat="44.5097" lon="5.76395">
        <ele>849.6</ele>
        <time>2013-10-13T11:10:21Z</time>
      </trkpt>
      <trkpt lat="44.50981" lon="5.76392">
        <ele>851.1</ele>
        <time>2013-10-13T11:10:26Z</time>
      </trkpt>
      <trkpt lat="44.50991" lon="5.76391">
        <ele>851.9</ele>
        <time>2013-10-13T11:10:30Z</time>
      </trkpt>
      <trkpt lat="44.51" lon="5.76392">
        <ele>852.3</ele>
        <time>2013-10-13T11:10:34Z</time>
      </trkpt>
      <trkpt lat="44.5101" lon="5.76392">
        <ele>852.1</ele>
        <time>2013-10-13T11:10:38Z</time>
      </trkpt>
      <trkpt lat="44.5102" lon="5.76392">
        <ele>853.2</ele>
        <time>2013-10-13T11:10:42Z</time>
      </trkpt>
      <trkpt lat="44.51031" lon="5.76392">
        <ele>853.2</ele>
        <time>2013-10-13T11:10:47Z</time>
      </trkpt>
      <trkpt lat="44.5104" lon="5.76392">
        <ele>853.7</ele>
        <time>2013-10-13T11:10:50Z</time>
      </trkpt>
      <trkpt lat="44.51051" lon="5.76392">
        <ele>854.8</ele>
        <time>2013-10-13T11:10:54Z</time>
      </trkpt>
      <trkpt lat="44.51062" lon="5.76392">
        <ele>855.1</ele>
        <time>2013-10-13T11:10:59Z</time>
      </trkpt>
      <trkpt lat="44.51071" lon="5.76393">
        <ele>855.2</ele>
        <time>2013-10-13T11:11:04Z</time>
      </trkpt>
      <trkpt lat="44.5108" lon="5.76394">
        <ele>855.7</ele>
        <time>2013-10-13T11:11:08Z</time>
      </trkpt>
      <trkpt lat="44.51101" lon="5.76393">
        <ele>857.4</ele>
        <time>2013-10-13T11:11:18Z</time>
      </trkpt>
      <trkpt lat="44.51111" lon="5.76392">
        <ele>858.4</ele>
        <time>2013-10-13T11:11:22Z</time>
      </trkpt>
      <trkpt lat="44.5112" lon="5.7639">
        <ele>859.7</ele>
        <time>2013-10-13T11:11:26Z</time>
      </trkpt>
      <trkpt lat="44.51131" lon="5.76387">
        <ele>861.2</ele>
        <time>2013-10-13T11:11:30Z</time>
      </trkpt>
      <trkpt lat="44.51141" lon="5.76381">
        <ele>864.2</ele>
        <time>2013-10-13T11:11:35Z</time>
      </trkpt>
      <trkpt lat="44.5115" lon="5.76374">
        <ele>866.8</ele>
        <time>2013-10-13T11:11:41Z</time>
      </trkpt>
      <trkpt lat="44.51158" lon="5.7637">
        <ele>866.6</ele>
        <time>2013-10-13T11:11:48Z</time>
      </trkpt>
      <trkpt lat="44.51167" lon="5.76365">
        <ele>867.7</ele>
        <time>2013-10-13T11:11:54Z</time>
      </trkpt>
      <trkpt lat="44.51176" lon="5.76363">
        <ele>869.2</ele>
        <time>2013-10-13T11:11:58Z</time>
      </trkpt>
      <trkpt lat="44.51185" lon="5.76361">
        <ele>870</ele>
        <time>2013-10-13T11:12:03Z</time>
      </trkpt>
      <trkpt lat="44.51211" lon="5.76361">
        <ele>872.8</ele>
        <time>2013-10-13T11:12:25Z</time>
      </trkpt>
      <trkpt lat="44.51232" lon="5.76359">
        <ele>874.1</ele>
        <time>2013-10-13T11:12:46Z</time>
      </trkpt>
      <trkpt lat="44.51242" lon="5.7636">
        <ele>875</ele>
        <time>2013-10-13T11:12:49Z</time>
      </trkpt>
      <trkpt lat="44.51251" lon="5.76361">
        <ele>876.8</ele>
        <time>2013-10-13T11:12:52Z</time>
      </trkpt>
      <trkpt lat="44.51262" lon="5.76361">
        <ele>879.5</ele>
        <time>2013-10-13T11:12:57Z</time>
      </trkpt>
      <trkpt lat="44.51274" lon="5.76359">
        <ele>881.3</ele>
        <time>2013-10-13T11:13:02Z</time>
      </trkpt>
      <trkpt lat="44.5129" lon="5.76355">
        <ele>881.4</ele>
        <time>2013-10-13T11:13:05Z</time>
      </trkpt>
      <trkpt lat="44.51299" lon="5.7635">
        <ele>882.3</ele>
        <time>2013-10-13T11:13:12Z</time>
      </trkpt>
      <trkpt lat="44.51308" lon="5.76345">
        <ele>884.5</ele>
        <time>2013-10-13T11:13:17Z</time>
      </trkpt>
      <trkpt lat="44.51318" lon="5.76341">
        <ele>885.3</ele>
        <time>2013-10-13T11:13:23Z</time>
      </trkpt>
      <trkpt lat="44.51328" lon="5.76338">
        <ele>885.9</ele>
        <time>2013-10-13T11:13:29Z</time>
      </trkpt>
      <trkpt lat="44.51348" lon="5.76336">
        <ele>887.9</ele>
        <time>2013-10-13T11:13:38Z</time>
      </trkpt>
      <trkpt lat="44.51357" lon="5.76342">
        <ele>888.6</ele>
        <time>2013-10-13T11:13:44Z</time>
      </trkpt>
      <trkpt lat="44.51361" lon="5.76355">
        <ele>889.2</ele>
        <time>2013-10-13T11:13:50Z</time>
      </trkpt>
      <trkpt lat="44.51366" lon="5.76368">
        <ele>889.5</ele>
        <time>2013-10-13T11:13:56Z</time>
      </trkpt>
      <trkpt lat="44.51373" lon="5.76378">
        <ele>890.7</ele>
        <time>2013-10-13T11:14:02Z</time>
      </trkpt>
      <trkpt lat="44.5138" lon="5.76387">
        <ele>891.6</ele>
        <time>2013-10-13T11:14:07Z</time>
      </trkpt>
      <trkpt lat="44.51385" lon="5.76397">
        <ele>892.5</ele>
        <time>2013-10-13T11:14:12Z</time>
      </trkpt>
      <trkpt lat="44.51392" lon="5.76406">
        <ele>894.1</ele>
        <time>2013-10-13T11:14:17Z</time>
      </trkpt>
      <trkpt lat="44.51401" lon="5.76412">
        <ele>895.3</ele>
        <time>2013-10-13T11:14:22Z</time>
      </trkpt>
      <trkpt lat="44.51411" lon="5.76415">
        <ele>896.9</ele>
        <time>2013-10-13T11:14:27Z</time>
      </trkpt>
      <trkpt lat="44.51421" lon="5.76417">
        <ele>897.7</ele>
        <time>2013-10-13T11:14:32Z</time>
      </trkpt>
      <trkpt lat="44.51439" lon="5.76427">
        <ele>899.2</ele>
        <time>2013-10-13T11:14:46Z</time>
      </trkpt>
      <trkpt lat="44.51448" lon="5.76434">
        <ele>900.6</ele>
        <time>2013-10-13T11:14:52Z</time>
      </trkpt>
      <trkpt lat="44.51456" lon="5.7644">
        <ele>902.5</ele>
        <time>2013-10-13T11:14:57Z</time>
      </trkpt>
      <trkpt lat="44.51465" lon="5.76447">
        <ele>903.4</ele>
        <time>2013-10-13T11:15:03Z</time>
      </trkpt>
      <trkpt lat="44.51472" lon="5.76456">
        <ele>904.2</ele>
        <time>2013-10-13T11:15:09Z</time>
      </trkpt>
      <trkpt lat="44.51479" lon="5.76466">
        <ele>904.5</ele>
        <time>2013-10-13T11:15:15Z</time>
      </trkpt>
      <trkpt lat="44.51483" lon="5.76478">
        <ele>905.5</ele>
        <time>2013-10-13T11:15:20Z</time>
      </trkpt>
      <trkpt lat="44.51485" lon="5.76492">
        <ele>905.5</ele>
        <time>2013-10-13T11:15:26Z</time>
      </trkpt>
      <trkpt lat="44.51488" lon="5.76506">
        <ele>905.9</ele>
        <time>2013-10-13T11:15:31Z</time>
      </trkpt>
      <trkpt lat="44.51495" lon="5.76514">
        <ele>906.3</ele>
        <time>2013-10-13T11:15:35Z</time>
      </trkpt>
      <trkpt lat="44.51509" lon="5.76495">
        <ele>907.5</ele>
        <time>2013-10-13T11:15:43Z</time>
      </trkpt>
      <trkpt lat="44.51512" lon="5.76479">
        <ele>909.1</ele>
        <time>2013-10-13T11:15:47Z</time>
      </trkpt>
      <trkpt lat="44.51518" lon="5.76467">
        <ele>910.2</ele>
        <time>2013-10-13T11:15:51Z</time>
      </trkpt>
      <trkpt lat="44.51526" lon="5.76457">
        <ele>911.3</ele>
        <time>2013-10-13T11:15:55Z</time>
      </trkpt>
      <trkpt lat="44.5153" lon="5.76444">
        <ele>912.3</ele>
        <time>2013-10-13T11:15:59Z</time>
      </trkpt>
      <trkpt lat="44.51533" lon="5.76429">
        <ele>912.6</ele>
        <time>2013-10-13T11:16:03Z</time>
      </trkpt>
      <trkpt lat="44.51536" lon="5.76415">
        <ele>912.9</ele>
        <time>2013-10-13T11:16:08Z</time>
      </trkpt>
      <trkpt lat="44.51549" lon="5.76397">
        <ele>913.5</ele>
        <time>2013-10-13T11:20:20Z</time>
      </trkpt>
      <trkpt lat="44.5155" lon="5.76368">
        <ele>913.7</ele>
        <time>2013-10-13T11:20:31Z</time>
      </trkpt>
      <trkpt lat="44.51551" lon="5.76355">
        <ele>914.1</ele>
        <time>2013-10-13T11:20:35Z</time>
      </trkpt>
      <trkpt lat="44.51553" lon="5.7634">
        <ele>914.1</ele>
        <time>2013-10-13T11:20:40Z</time>
      </trkpt>
      <trkpt lat="44.51554" lon="5.76325">
        <ele>913.8</ele>
        <time>2013-10-13T11:20:44Z</time>
      </trkpt>
      <trkpt lat="44.51556" lon="5.76312">
        <ele>913.3</ele>
        <time>2013-10-13T11:20:47Z</time>
      </trkpt>
      <trkpt lat="44.51556" lon="5.76295">
        <ele>911.8</ele>
        <time>2013-10-13T11:20:51Z</time>
      </trkpt>
      <trkpt lat="44.51554" lon="5.76282">
        <ele>911</ele>
        <time>2013-10-13T11:20:53Z</time>
      </trkpt>
      <trkpt lat="44.51551" lon="5.76266">
        <ele>910</ele>
        <time>2013-10-13T11:20:56Z</time>
      </trkpt>
      <trkpt lat="44.51547" lon="5.76253">
        <ele>907.7</ele>
        <time>2013-10-13T11:21:01Z</time>
      </trkpt>
      <trkpt lat="44.51545" lon="5.76238">
        <ele>905.5</ele>
        <time>2013-10-13T11:21:05Z</time>
      </trkpt>
      <trkpt lat="44.51543" lon="5.76223">
        <ele>904.8</ele>
        <time>2013-10-13T11:21:08Z</time>
      </trkpt>
      <trkpt lat="44.51551" lon="5.76216">
        <ele>903.1</ele>
        <time>2013-10-13T11:21:17Z</time>
      </trkpt>
      <trkpt lat="44.51557" lon="5.76227">
        <ele>901.8</ele>
        <time>2013-10-13T11:21:21Z</time>
      </trkpt>
      <trkpt lat="44.51569" lon="5.76251">
        <ele>900.3</ele>
        <time>2013-10-13T11:21:27Z</time>
      </trkpt>
      <trkpt lat="44.51573" lon="5.76265">
        <ele>899.5</ele>
        <time>2013-10-13T11:21:30Z</time>
      </trkpt>
      <trkpt lat="44.51581" lon="5.76278">
        <ele>899.4</ele>
        <time>2013-10-13T11:21:33Z</time>
      </trkpt>
      <trkpt lat="44.51588" lon="5.76292">
        <ele>899.3</ele>
        <time>2013-10-13T11:21:36Z</time>
      </trkpt>
      <trkpt lat="44.51594" lon="5.76304">
        <ele>899.1</ele>
        <time>2013-10-13T11:21:38Z</time>
      </trkpt>
      <trkpt lat="44.51601" lon="5.76316">
        <ele>898.4</ele>
        <time>2013-10-13T11:21:40Z</time>
      </trkpt>
      <trkpt lat="44.51611" lon="5.76326">
        <ele>897.4</ele>
        <time>2013-10-13T11:21:43Z</time>
      </trkpt>
      <trkpt lat="44.5162" lon="5.76328">
        <ele>897</ele>
        <time>2013-10-13T11:21:45Z</time>
      </trkpt>
      <trkpt lat="44.51629" lon="5.76333">
        <ele>896.2</ele>
        <time>2013-10-13T11:21:48Z</time>
      </trkpt>
      <trkpt lat="44.51638" lon="5.76335">
        <ele>895.1</ele>
        <time>2013-10-13T11:21:52Z</time>
      </trkpt>
      <trkpt lat="44.51643" lon="5.76347">
        <ele>893.5</ele>
        <time>2013-10-13T11:21:56Z</time>
      </trkpt>
      <trkpt lat="44.51647" lon="5.76358">
        <ele>892.7</ele>
        <time>2013-10-13T11:22:00Z</time>
      </trkpt>
      <trkpt lat="44.5165" lon="5.76373">
        <ele>892.2</ele>
        <time>2013-10-13T11:22:05Z</time>
      </trkpt>
      <trkpt lat="44.51657" lon="5.76383">
        <ele>890.2</ele>
        <time>2013-10-13T11:22:09Z</time>
      </trkpt>
      <trkpt lat="44.51665" lon="5.76394">
        <ele>887.3</ele>
        <time>2013-10-13T11:22:18Z</time>
      </trkpt>
      <trkpt lat="44.51668" lon="5.76406">
        <ele>887</ele>
        <time>2013-10-13T11:22:21Z</time>
      </trkpt>
      <trkpt lat="44.5167" lon="5.76422">
        <ele>886.5</ele>
        <time>2013-10-13T11:22:25Z</time>
      </trkpt>
      <trkpt lat="44.51679" lon="5.76447">
        <ele>885</ele>
        <time>2013-10-13T11:22:32Z</time>
      </trkpt>
      <trkpt lat="44.51684" lon="5.76461">
        <ele>884.1</ele>
        <time>2013-10-13T11:22:37Z</time>
      </trkpt>
      <trkpt lat="44.51685" lon="5.76474">
        <ele>884.3</ele>
        <time>2013-10-13T11:22:42Z</time>
      </trkpt>
      <trkpt lat="44.51685" lon="5.76486">
        <ele>883.1</ele>
        <time>2013-10-13T11:22:47Z</time>
      </trkpt>
      <trkpt lat="44.51686" lon="5.76499">
        <ele>882.6</ele>
        <time>2013-10-13T11:22:51Z</time>
      </trkpt>
      <trkpt lat="44.51689" lon="5.76514">
        <ele>881.6</ele>
        <time>2013-10-13T11:22:57Z</time>
      </trkpt>
      <trkpt lat="44.51692" lon="5.76526">
        <ele>881.7</ele>
        <time>2013-10-13T11:23:02Z</time>
      </trkpt>
      <trkpt lat="44.51698" lon="5.76538">
        <ele>882.2</ele>
        <time>2013-10-13T11:23:07Z</time>
      </trkpt>
      <trkpt lat="44.51704" lon="5.76549">
        <ele>883</ele>
        <time>2013-10-13T11:23:20Z</time>
      </trkpt>
      <trkpt lat="44.5171" lon="5.7656">
        <ele>882.6</ele>
        <time>2013-10-13T11:23:24Z</time>
      </trkpt>
      <trkpt lat="44.51716" lon="5.7657">
        <ele>881.8</ele>
        <time>2013-10-13T11:23:29Z</time>
      </trkpt>
      <trkpt lat="44.51726" lon="5.76593">
        <ele>881.8</ele>
        <time>2013-10-13T11:23:48Z</time>
      </trkpt>
      <trkpt lat="44.51731" lon="5.76606">
        <ele>883.7</ele>
        <time>2013-10-13T11:24:07Z</time>
      </trkpt>
      <trkpt lat="44.51736" lon="5.7662">
        <ele>883.4</ele>
        <time>2013-10-13T11:24:12Z</time>
      </trkpt>
      <trkpt lat="44.51741" lon="5.76632">
        <ele>883</ele>
        <time>2013-10-13T11:24:16Z</time>
      </trkpt>
      <trkpt lat="44.51747" lon="5.76645">
        <ele>882.3</ele>
        <time>2013-10-13T11:24:20Z</time>
      </trkpt>
      <trkpt lat="44.51752" lon="5.76659">
        <ele>882</ele>
        <time>2013-10-13T11:24:24Z</time>
      </trkpt>
      <trkpt lat="44.51757" lon="5.76672">
        <ele>882.2</ele>
        <time>2013-10-13T11:24:29Z</time>
      </trkpt>
      <trkpt lat="44.51764" lon="5.76683">
        <ele>882.1</ele>
        <time>2013-10-13T11:24:33Z</time>
      </trkpt>
      <trkpt lat="44.5178" lon="5.76698">
        <ele>884</ele>
        <time>2013-10-13T11:24:41Z</time>
      </trkpt>
      <trkpt lat="44.51791" lon="5.76704">
        <ele>884.8</ele>
        <time>2013-10-13T11:24:46Z</time>
      </trkpt>
      <trkpt lat="44.51801" lon="5.76708">
        <ele>884.8</ele>
        <time>2013-10-13T11:24:51Z</time>
      </trkpt>
      <trkpt lat="44.5181" lon="5.76712">
        <ele>884.8</ele>
        <time>2013-10-13T11:25:01Z</time>
      </trkpt>
      <trkpt lat="44.51818" lon="5.76718">
        <ele>888.2</ele>
        <time>2013-10-13T11:25:21Z</time>
      </trkpt>
      <trkpt lat="44.51825" lon="5.76728">
        <ele>888.5</ele>
        <time>2013-10-13T11:25:26Z</time>
      </trkpt>
      <trkpt lat="44.51831" lon="5.76739">
        <ele>888.3</ele>
        <time>2013-10-13T11:25:31Z</time>
      </trkpt>
      <trkpt lat="44.51837" lon="5.76749">
        <ele>886.5</ele>
        <time>2013-10-13T11:25:43Z</time>
      </trkpt>
      <trkpt lat="44.51852" lon="5.76771">
        <ele>885.3</ele>
        <time>2013-10-13T11:25:51Z</time>
      </trkpt>
      <trkpt lat="44.51859" lon="5.76778">
        <ele>885.3</ele>
        <time>2013-10-13T11:25:54Z</time>
      </trkpt>
      <trkpt lat="44.51868" lon="5.76788">
        <ele>884.3</ele>
        <time>2013-10-13T11:25:58Z</time>
      </trkpt>
      <trkpt lat="44.51875" lon="5.76797">
        <ele>885</ele>
        <time>2013-10-13T11:26:01Z</time>
      </trkpt>
      <trkpt lat="44.51883" lon="5.76808">
        <ele>884.6</ele>
        <time>2013-10-13T11:26:05Z</time>
      </trkpt>
      <trkpt lat="44.5189" lon="5.7682">
        <ele>884.8</ele>
        <time>2013-10-13T11:26:10Z</time>
      </trkpt>
      <trkpt lat="44.51896" lon="5.7683">
        <ele>885</ele>
        <time>2013-10-13T11:26:14Z</time>
      </trkpt>
      <trkpt lat="44.51902" lon="5.76842">
        <ele>885.1</ele>
        <time>2013-10-13T11:26:18Z</time>
      </trkpt>
      <trkpt lat="44.51909" lon="5.76852">
        <ele>886.5</ele>
        <time>2013-10-13T11:26:22Z</time>
      </trkpt>
      <trkpt lat="44.51916" lon="5.76861">
        <ele>886.5</ele>
        <time>2013-10-13T11:26:28Z</time>
      </trkpt>
      <trkpt lat="44.51923" lon="5.76869">
        <ele>886.5</ele>
        <time>2013-10-13T11:26:37Z</time>
      </trkpt>
      <trkpt lat="44.51929" lon="5.76879">
        <ele>887.3</ele>
        <time>2013-10-13T11:26:48Z</time>
      </trkpt>
      <trkpt lat="44.51941" lon="5.76901">
        <ele>888.1</ele>
        <time>2013-10-13T11:26:57Z</time>
      </trkpt>
      <trkpt lat="44.51949" lon="5.76909">
        <ele>888.1</ele>
        <time>2013-10-13T11:27:01Z</time>
      </trkpt>
      <trkpt lat="44.51957" lon="5.76916">
        <ele>888.1</ele>
        <time>2013-10-13T11:27:06Z</time>
      </trkpt>
      <trkpt lat="44.51965" lon="5.76922">
        <ele>888.1</ele>
        <time>2013-10-13T11:27:12Z</time>
      </trkpt>
      <trkpt lat="44.51973" lon="5.76929">
        <ele>892.8</ele>
        <time>2013-10-13T11:27:46Z</time>
      </trkpt>
      <trkpt lat="44.51979" lon="5.76938">
        <ele>892</ele>
        <time>2013-10-13T11:27:50Z</time>
      </trkpt>
      <trkpt lat="44.52009" lon="5.76984">
        <ele>893.5</ele>
        <time>2013-10-13T11:28:04Z</time>
      </trkpt>
      <trkpt lat="44.52015" lon="5.76997">
        <ele>893</ele>
        <time>2013-10-13T11:28:09Z</time>
      </trkpt>
      <trkpt lat="44.52022" lon="5.77005">
        <ele>893.4</ele>
        <time>2013-10-13T11:28:13Z</time>
      </trkpt>
      <trkpt lat="44.5203" lon="5.77016">
        <ele>893.2</ele>
        <time>2013-10-13T11:28:17Z</time>
      </trkpt>
      <trkpt lat="44.52036" lon="5.77027">
        <ele>893</ele>
        <time>2013-10-13T11:28:21Z</time>
      </trkpt>
      <trkpt lat="44.52045" lon="5.77037">
        <ele>893</ele>
        <time>2013-10-13T11:28:24Z</time>
      </trkpt>
      <trkpt lat="44.52055" lon="5.77045">
        <ele>892.5</ele>
        <time>2013-10-13T11:28:27Z</time>
      </trkpt>
      <trkpt lat="44.52065" lon="5.77052">
        <ele>892.4</ele>
        <time>2013-10-13T11:28:29Z</time>
      </trkpt>
      <trkpt lat="44.52073" lon="5.77063">
        <ele>892.2</ele>
        <time>2013-10-13T11:28:31Z</time>
      </trkpt>
      <trkpt lat="44.52081" lon="5.77072">
        <ele>891.9</ele>
        <time>2013-10-13T11:28:33Z</time>
      </trkpt>
      <trkpt lat="44.52088" lon="5.77081">
        <ele>891.4</ele>
        <time>2013-10-13T11:28:35Z</time>
      </trkpt>
      <trkpt lat="44.52096" lon="5.77091">
        <ele>891.4</ele>
        <time>2013-10-13T11:28:38Z</time>
      </trkpt>
      <trkpt lat="44.52105" lon="5.77101">
        <ele>891.1</ele>
        <time>2013-10-13T11:28:41Z</time>
      </trkpt>
      <trkpt lat="44.52114" lon="5.77111">
        <ele>890.8</ele>
        <time>2013-10-13T11:28:44Z</time>
      </trkpt>
      <trkpt lat="44.52124" lon="5.7712">
        <ele>890.6</ele>
        <time>2013-10-13T11:28:47Z</time>
      </trkpt>
      <trkpt lat="44.52134" lon="5.77126">
        <ele>890.5</ele>
        <time>2013-10-13T11:28:50Z</time>
      </trkpt>
      <trkpt lat="44.52141" lon="5.7714">
        <ele>889.6</ele>
        <time>2013-10-13T11:28:54Z</time>
      </trkpt>
      <trkpt lat="44.52151" lon="5.77167">
        <ele>890.5</ele>
        <time>2013-10-13T11:29:02Z</time>
      </trkpt>
      <trkpt lat="44.52155" lon="5.7718">
        <ele>890.8</ele>
        <time>2013-10-13T11:29:14Z</time>
      </trkpt>
      <trkpt lat="44.5216" lon="5.77192">
        <ele>890.9</ele>
        <time>2013-10-13T11:29:17Z</time>
      </trkpt>
      <trkpt lat="44.52166" lon="5.77206">
        <ele>890.6</ele>
        <time>2013-10-13T11:29:20Z</time>
      </trkpt>
      <trkpt lat="44.52174" lon="5.77221">
        <ele>890.1</ele>
        <time>2013-10-13T11:29:23Z</time>
      </trkpt>
      <trkpt lat="44.52181" lon="5.77235">
        <ele>889.7</ele>
        <time>2013-10-13T11:29:26Z</time>
      </trkpt>
      <trkpt lat="44.52188" lon="5.77249">
        <ele>889.5</ele>
        <time>2013-10-13T11:29:30Z</time>
      </trkpt>
      <trkpt lat="44.52194" lon="5.77262">
        <ele>888.7</ele>
        <time>2013-10-13T11:29:33Z</time>
      </trkpt>
      <trkpt lat="44.522" lon="5.77276">
        <ele>888.3</ele>
        <time>2013-10-13T11:29:36Z</time>
      </trkpt>
      <trkpt lat="44.52205" lon="5.7729">
        <ele>887.2</ele>
        <time>2013-10-13T11:29:39Z</time>
      </trkpt>
      <trkpt lat="44.52208" lon="5.77305">
        <ele>886.5</ele>
        <time>2013-10-13T11:29:42Z</time>
      </trkpt>
      <trkpt lat="44.52213" lon="5.7732">
        <ele>886</ele>
        <time>2013-10-13T11:29:45Z</time>
      </trkpt>
      <trkpt lat="44.52218" lon="5.77331">
        <ele>885.7</ele>
        <time>2013-10-13T11:29:47Z</time>
      </trkpt>
      <trkpt lat="44.52222" lon="5.77342">
        <ele>885.6</ele>
        <time>2013-10-13T11:29:49Z</time>
      </trkpt>
      <trkpt lat="44.52226" lon="5.77355">
        <ele>885.4</ele>
        <time>2013-10-13T11:29:51Z</time>
      </trkpt>
      <trkpt lat="44.5223" lon="5.77368">
        <ele>884.5</ele>
        <time>2013-10-13T11:29:53Z</time>
      </trkpt>
      <trkpt lat="44.52235" lon="5.77381">
        <ele>884.3</ele>
        <time>2013-10-13T11:29:55Z</time>
      </trkpt>
      <trkpt lat="44.52241" lon="5.77408">
        <ele>883.9</ele>
        <time>2013-10-13T11:29:59Z</time>
      </trkpt>
      <trkpt lat="44.52243" lon="5.77424">
        <ele>883.6</ele>
        <time>2013-10-13T11:30:02Z</time>
      </trkpt>
      <trkpt lat="44.52242" lon="5.77438">
        <ele>883</ele>
        <time>2013-10-13T11:30:06Z</time>
      </trkpt>
      <trkpt lat="44.52239" lon="5.77455">
        <ele>882.5</ele>
        <time>2013-10-13T11:30:10Z</time>
      </trkpt>
      <trkpt lat="44.52235" lon="5.7747">
        <ele>881.7</ele>
        <time>2013-10-13T11:30:13Z</time>
      </trkpt>
      <trkpt lat="44.52233" lon="5.77483">
        <ele>881.4</ele>
        <time>2013-10-13T11:30:15Z</time>
      </trkpt>
      <trkpt lat="44.52232" lon="5.77496">
        <ele>882.4</ele>
        <time>2013-10-13T11:30:18Z</time>
      </trkpt>
      <trkpt lat="44.52233" lon="5.77511">
        <ele>882</ele>
        <time>2013-10-13T11:30:23Z</time>
      </trkpt>
      <trkpt lat="44.52232" lon="5.77526">
        <ele>880.8</ele>
        <time>2013-10-13T11:30:27Z</time>
      </trkpt>
      <trkpt lat="44.52235" lon="5.77541">
        <ele>879.8</ele>
        <time>2013-10-13T11:30:30Z</time>
      </trkpt>
      <trkpt lat="44.5224" lon="5.77553">
        <ele>879.6</ele>
        <time>2013-10-13T11:30:33Z</time>
      </trkpt>
      <trkpt lat="44.52248" lon="5.77563">
        <ele>878.3</ele>
        <time>2013-10-13T11:30:36Z</time>
      </trkpt>
      <trkpt lat="44.52256" lon="5.77573">
        <ele>876.9</ele>
        <time>2013-10-13T11:30:41Z</time>
      </trkpt>
      <trkpt lat="44.52262" lon="5.77586">
        <ele>876.6</ele>
        <time>2013-10-13T11:30:46Z</time>
      </trkpt>
      <trkpt lat="44.52266" lon="5.776">
        <ele>875.6</ele>
        <time>2013-10-13T11:30:51Z</time>
      </trkpt>
      <trkpt lat="44.52271" lon="5.77616">
        <ele>875.4</ele>
        <time>2013-10-13T11:30:55Z</time>
      </trkpt>
      <trkpt lat="44.52275" lon="5.77631">
        <ele>874.8</ele>
        <time>2013-10-13T11:30:58Z</time>
      </trkpt>
      <trkpt lat="44.52278" lon="5.77659">
        <ele>874.8</ele>
        <time>2013-10-13T11:31:06Z</time>
      </trkpt>
      <trkpt lat="44.52281" lon="5.77672">
        <ele>874.6</ele>
        <time>2013-10-13T11:31:10Z</time>
      </trkpt>
      <trkpt lat="44.52284" lon="5.77688">
        <ele>875.2</ele>
        <time>2013-10-13T11:31:15Z</time>
      </trkpt>
      <trkpt lat="44.52294" lon="5.77699">
        <ele>875.9</ele>
        <time>2013-10-13T11:31:19Z</time>
      </trkpt>
      <trkpt lat="44.52303" lon="5.77705">
        <ele>876.8</ele>
        <time>2013-10-13T11:31:22Z</time>
      </trkpt>
      <trkpt lat="44.5231" lon="5.77715">
        <ele>877.5</ele>
        <time>2013-10-13T11:31:26Z</time>
      </trkpt>
      <trkpt lat="44.52317" lon="5.77725">
        <ele>878</ele>
        <time>2013-10-13T11:31:30Z</time>
      </trkpt>
      <trkpt lat="44.52322" lon="5.77739">
        <ele>878.3</ele>
        <time>2013-10-13T11:31:33Z</time>
      </trkpt>
      <trkpt lat="44.52323" lon="5.77755">
        <ele>878.3</ele>
        <time>2013-10-13T11:31:36Z</time>
      </trkpt>
      <trkpt lat="44.52324" lon="5.77769">
        <ele>878.3</ele>
        <time>2013-10-13T11:31:39Z</time>
      </trkpt>
      <trkpt lat="44.52327" lon="5.77783">
        <ele>878.3</ele>
        <time>2013-10-13T11:31:42Z</time>
      </trkpt>
      <trkpt lat="44.52331" lon="5.77798">
        <ele>878.1</ele>
        <time>2013-10-13T11:31:45Z</time>
      </trkpt>
      <trkpt lat="44.52337" lon="5.7781">
        <ele>878.4</ele>
        <time>2013-10-13T11:31:48Z</time>
      </trkpt>
      <trkpt lat="44.52343" lon="5.77821">
        <ele>878.7</ele>
        <time>2013-10-13T11:31:52Z</time>
      </trkpt>
      <trkpt lat="44.5235" lon="5.77833">
        <ele>878.8</ele>
        <time>2013-10-13T11:31:57Z</time>
      </trkpt>
      <trkpt lat="44.52356" lon="5.77845">
        <ele>879.2</ele>
        <time>2013-10-13T11:32:02Z</time>
      </trkpt>
      <trkpt lat="44.52369" lon="5.77869">
        <ele>880.1</ele>
        <time>2013-10-13T11:32:12Z</time>
      </trkpt>
      <trkpt lat="44.52376" lon="5.7788">
        <ele>881.1</ele>
        <time>2013-10-13T11:32:18Z</time>
      </trkpt>
      <trkpt lat="44.52385" lon="5.77891">
        <ele>881.5</ele>
        <time>2013-10-13T11:32:23Z</time>
      </trkpt>
      <trkpt lat="44.52391" lon="5.77902">
        <ele>881.9</ele>
        <time>2013-10-13T11:32:27Z</time>
      </trkpt>
      <trkpt lat="44.52398" lon="5.77913">
        <ele>881.8</ele>
        <time>2013-10-13T11:32:31Z</time>
      </trkpt>
      <trkpt lat="44.52405" lon="5.77926">
        <ele>882</ele>
        <time>2013-10-13T11:32:35Z</time>
      </trkpt>
      <trkpt lat="44.5241" lon="5.7794">
        <ele>882.2</ele>
        <time>2013-10-13T11:32:39Z</time>
      </trkpt>
      <trkpt lat="44.52413" lon="5.77953">
        <ele>883</ele>
        <time>2013-10-13T11:32:43Z</time>
      </trkpt>
      <trkpt lat="44.52417" lon="5.77967">
        <ele>884.4</ele>
        <time>2013-10-13T11:32:48Z</time>
      </trkpt>
      <trkpt lat="44.52422" lon="5.7798">
        <ele>885.3</ele>
        <time>2013-10-13T11:32:53Z</time>
      </trkpt>
      <trkpt lat="44.52426" lon="5.77992">
        <ele>886.3</ele>
        <time>2013-10-13T11:32:57Z</time>
      </trkpt>
      <trkpt lat="44.52429" lon="5.78005">
        <ele>886.5</ele>
        <time>2013-10-13T11:33:02Z</time>
      </trkpt>
      <trkpt lat="44.52433" lon="5.78019">
        <ele>887.7</ele>
        <time>2013-10-13T11:33:08Z</time>
      </trkpt>
      <trkpt lat="44.52445" lon="5.78043">
        <ele>888.9</ele>
        <time>2013-10-13T11:33:18Z</time>
      </trkpt>
      <trkpt lat="44.52454" lon="5.78054">
        <ele>890.2</ele>
        <time>2013-10-13T11:33:22Z</time>
      </trkpt>
      <trkpt lat="44.52462" lon="5.78062">
        <ele>890</ele>
        <time>2013-10-13T11:33:25Z</time>
      </trkpt>
      <trkpt lat="44.52471" lon="5.78071">
        <ele>890.4</ele>
        <time>2013-10-13T11:33:29Z</time>
      </trkpt>
      <trkpt lat="44.5248" lon="5.78079">
        <ele>890.7</ele>
        <time>2013-10-13T11:33:33Z</time>
      </trkpt>
      <trkpt lat="44.52489" lon="5.78086">
        <ele>891.1</ele>
        <time>2013-10-13T11:33:37Z</time>
      </trkpt>
      <trkpt lat="44.52498" lon="5.78095">
        <ele>891.6</ele>
        <time>2013-10-13T11:33:42Z</time>
      </trkpt>
      <trkpt lat="44.52504" lon="5.78104">
        <ele>892.2</ele>
        <time>2013-10-13T11:33:46Z</time>
      </trkpt>
      <trkpt lat="44.52509" lon="5.78115">
        <ele>892.8</ele>
        <time>2013-10-13T11:33:50Z</time>
      </trkpt>
      <trkpt lat="44.52513" lon="5.78127">
        <ele>893.3</ele>
        <time>2013-10-13T11:33:54Z</time>
      </trkpt>
      <trkpt lat="44.52516" lon="5.7814">
        <ele>893.7</ele>
        <time>2013-10-13T11:33:58Z</time>
      </trkpt>
      <trkpt lat="44.52521" lon="5.78153">
        <ele>893.9</ele>
        <time>2013-10-13T11:34:02Z</time>
      </trkpt>
      <trkpt lat="44.52525" lon="5.78165">
        <ele>893.9</ele>
        <time>2013-10-13T11:34:06Z</time>
      </trkpt>
      <trkpt lat="44.52529" lon="5.78177">
        <ele>894.1</ele>
        <time>2013-10-13T11:34:10Z</time>
      </trkpt>
      <trkpt lat="44.52539" lon="5.78201">
        <ele>894.5</ele>
        <time>2013-10-13T11:34:18Z</time>
      </trkpt>
      <trkpt lat="44.52542" lon="5.78214">
        <ele>895</ele>
        <time>2013-10-13T11:34:22Z</time>
      </trkpt>
      <trkpt lat="44.52544" lon="5.78226">
        <ele>895.5</ele>
        <time>2013-10-13T11:34:26Z</time>
      </trkpt>
      <trkpt lat="44.52546" lon="5.78239">
        <ele>895.9</ele>
        <time>2013-10-13T11:34:30Z</time>
      </trkpt>
      <trkpt lat="44.52547" lon="5.78253">
        <ele>896.8</ele>
        <time>2013-10-13T11:34:34Z</time>
      </trkpt>
      <trkpt lat="44.52548" lon="5.78266">
        <ele>897.4</ele>
        <time>2013-10-13T11:34:38Z</time>
      </trkpt>
      <trkpt lat="44.5255" lon="5.78281">
        <ele>897.5</ele>
        <time>2013-10-13T11:34:43Z</time>
      </trkpt>
      <trkpt lat="44.52553" lon="5.78294">
        <ele>897.6</ele>
        <time>2013-10-13T11:34:47Z</time>
      </trkpt>
      <trkpt lat="44.52556" lon="5.78307">
        <ele>897.5</ele>
        <time>2013-10-13T11:34:51Z</time>
      </trkpt>
      <trkpt lat="44.5256" lon="5.78321">
        <ele>897.6</ele>
        <time>2013-10-13T11:34:55Z</time>
      </trkpt>
      <trkpt lat="44.52563" lon="5.78335">
        <ele>897.7</ele>
        <time>2013-10-13T11:34:59Z</time>
      </trkpt>
      <trkpt lat="44.5257" lon="5.78347">
        <ele>897.9</ele>
        <time>2013-10-13T11:35:03Z</time>
      </trkpt>
      <trkpt lat="44.52578" lon="5.78354">
        <ele>898.3</ele>
        <time>2013-10-13T11:35:06Z</time>
      </trkpt>
      <trkpt lat="44.52589" lon="5.78364">
        <ele>898.9</ele>
        <time>2013-10-13T11:35:10Z</time>
      </trkpt>
      <trkpt lat="44.52596" lon="5.78372">
        <ele>899.1</ele>
        <time>2013-10-13T11:35:13Z</time>
      </trkpt>
      <trkpt lat="44.5261" lon="5.78393">
        <ele>899.5</ele>
        <time>2013-10-13T11:35:19Z</time>
      </trkpt>
      <trkpt lat="44.52617" lon="5.78401">
        <ele>899.9</ele>
        <time>2013-10-13T11:35:22Z</time>
      </trkpt>
      <trkpt lat="44.52627" lon="5.78408">
        <ele>900</ele>
        <time>2013-10-13T11:35:25Z</time>
      </trkpt>
      <trkpt lat="44.52637" lon="5.78415">
        <ele>900.5</ele>
        <time>2013-10-13T11:35:28Z</time>
      </trkpt>
      <trkpt lat="44.52648" lon="5.78422">
        <ele>900.5</ele>
        <time>2013-10-13T11:35:31Z</time>
      </trkpt>
      <trkpt lat="44.52659" lon="5.78429">
        <ele>900.2</ele>
        <time>2013-10-13T11:35:35Z</time>
      </trkpt>
      <trkpt lat="44.52667" lon="5.78436">
        <ele>900.2</ele>
        <time>2013-10-13T11:35:38Z</time>
      </trkpt>
      <trkpt lat="44.52676" lon="5.78443">
        <ele>900</ele>
        <time>2013-10-13T11:35:41Z</time>
      </trkpt>
      <trkpt lat="44.52686" lon="5.78448">
        <ele>900.5</ele>
        <time>2013-10-13T11:35:44Z</time>
      </trkpt>
      <trkpt lat="44.52696" lon="5.78452">
        <ele>901.3</ele>
        <time>2013-10-13T11:35:47Z</time>
      </trkpt>
      <trkpt lat="44.52704" lon="5.78457">
        <ele>901.7</ele>
        <time>2013-10-13T11:35:50Z</time>
      </trkpt>
      <trkpt lat="44.52715" lon="5.78461">
        <ele>902.4</ele>
        <time>2013-10-13T11:35:53Z</time>
      </trkpt>
      <trkpt lat="44.52725" lon="5.78466">
        <ele>902.9</ele>
        <time>2013-10-13T11:35:56Z</time>
      </trkpt>
      <trkpt lat="44.52736" lon="5.78471">
        <ele>903.3</ele>
        <time>2013-10-13T11:35:59Z</time>
      </trkpt>
      <trkpt lat="44.52747" lon="5.78476">
        <ele>903.2</ele>
        <time>2013-10-13T11:36:02Z</time>
      </trkpt>
      <trkpt lat="44.52757" lon="5.78481">
        <ele>903.4</ele>
        <time>2013-10-13T11:36:05Z</time>
      </trkpt>
      <trkpt lat="44.52767" lon="5.78486">
        <ele>903.5</ele>
        <time>2013-10-13T11:36:08Z</time>
      </trkpt>
      <trkpt lat="44.52777" lon="5.78491">
        <ele>903.7</ele>
        <time>2013-10-13T11:36:11Z</time>
      </trkpt>
      <trkpt lat="44.52788" lon="5.78496">
        <ele>903.9</ele>
        <time>2013-10-13T11:36:14Z</time>
      </trkpt>
      <trkpt lat="44.52809" lon="5.78507">
        <ele>904.7</ele>
        <time>2013-10-13T11:36:20Z</time>
      </trkpt>
      <trkpt lat="44.52819" lon="5.78512">
        <ele>905.2</ele>
        <time>2013-10-13T11:36:23Z</time>
      </trkpt>
      <trkpt lat="44.52829" lon="5.78517">
        <ele>905.6</ele>
        <time>2013-10-13T11:36:26Z</time>
      </trkpt>
      <trkpt lat="44.52841" lon="5.78522">
        <ele>906.2</ele>
        <time>2013-10-13T11:36:32Z</time>
      </trkpt>
      <trkpt lat="44.52853" lon="5.78527">
        <ele>906.5</ele>
        <time>2013-10-13T11:36:35Z</time>
      </trkpt>
      <trkpt lat="44.52863" lon="5.78533">
        <ele>907</ele>
        <time>2013-10-13T11:36:38Z</time>
      </trkpt>
      <trkpt lat="44.52874" lon="5.78539">
        <ele>907.4</ele>
        <time>2013-10-13T11:36:41Z</time>
      </trkpt>
      <trkpt lat="44.52886" lon="5.78544">
        <ele>908.4</ele>
        <time>2013-10-13T11:36:44Z</time>
      </trkpt>
      <trkpt lat="44.52894" lon="5.78552">
        <ele>908.8</ele>
        <time>2013-10-13T11:36:47Z</time>
      </trkpt>
      <trkpt lat="44.52903" lon="5.7856">
        <ele>909.5</ele>
        <time>2013-10-13T11:36:50Z</time>
      </trkpt>
      <trkpt lat="44.5291" lon="5.78568">
        <ele>909.8</ele>
        <time>2013-10-13T11:36:53Z</time>
      </trkpt>
      <trkpt lat="44.52917" lon="5.78577">
        <ele>910</ele>
        <time>2013-10-13T11:36:56Z</time>
      </trkpt>
      <trkpt lat="44.52922" lon="5.78589">
        <ele>910.3</ele>
        <time>2013-10-13T11:36:59Z</time>
      </trkpt>
      <trkpt lat="44.52924" lon="5.78602">
        <ele>910.5</ele>
        <time>2013-10-13T11:37:02Z</time>
      </trkpt>
      <trkpt lat="44.52924" lon="5.78615">
        <ele>909.7</ele>
        <time>2013-10-13T11:37:05Z</time>
      </trkpt>
      <trkpt lat="44.5292" lon="5.78629">
        <ele>909.5</ele>
        <time>2013-10-13T11:37:08Z</time>
      </trkpt>
      <trkpt lat="44.52915" lon="5.78644">
        <ele>909.4</ele>
        <time>2013-10-13T11:37:11Z</time>
      </trkpt>
      <trkpt lat="44.52911" lon="5.78659">
        <ele>909.1</ele>
        <time>2013-10-13T11:37:14Z</time>
      </trkpt>
      <trkpt lat="44.52905" lon="5.78672">
        <ele>909.7</ele>
        <time>2013-10-13T11:37:17Z</time>
      </trkpt>
      <trkpt lat="44.52895" lon="5.78695">
        <ele>910.2</ele>
        <time>2013-10-13T11:37:23Z</time>
      </trkpt>
      <trkpt lat="44.52889" lon="5.78708">
        <ele>909.8</ele>
        <time>2013-10-13T11:37:27Z</time>
      </trkpt>
      <trkpt lat="44.52884" lon="5.78721">
        <ele>910.4</ele>
        <time>2013-10-13T11:37:30Z</time>
      </trkpt>
      <trkpt lat="44.5288" lon="5.78732">
        <ele>910.9</ele>
        <time>2013-10-13T11:37:33Z</time>
      </trkpt>
      <trkpt lat="44.52875" lon="5.78744">
        <ele>910.6</ele>
        <time>2013-10-13T11:37:36Z</time>
      </trkpt>
      <trkpt lat="44.5287" lon="5.78758">
        <ele>911.2</ele>
        <time>2013-10-13T11:37:39Z</time>
      </trkpt>
      <trkpt lat="44.52864" lon="5.78773">
        <ele>911.8</ele>
        <time>2013-10-13T11:37:42Z</time>
      </trkpt>
      <trkpt lat="44.52858" lon="5.78787">
        <ele>911.4</ele>
        <time>2013-10-13T11:37:45Z</time>
      </trkpt>
      <trkpt lat="44.52851" lon="5.788">
        <ele>911.4</ele>
        <time>2013-10-13T11:37:48Z</time>
      </trkpt>
      <trkpt lat="44.52844" lon="5.78815">
        <ele>911.7</ele>
        <time>2013-10-13T11:37:51Z</time>
      </trkpt>
      <trkpt lat="44.52837" lon="5.78828">
        <ele>911.4</ele>
        <time>2013-10-13T11:37:54Z</time>
      </trkpt>
      <trkpt lat="44.52832" lon="5.7884">
        <ele>911.4</ele>
        <time>2013-10-13T11:37:57Z</time>
      </trkpt>
      <trkpt lat="44.5283" lon="5.78826">
        <ele>907</ele>
        <time>2013-10-13T11:38:12Z</time>
      </trkpt>
      <trkpt lat="44.52835" lon="5.78815">
        <ele>908</ele>
        <time>2013-10-13T11:38:17Z</time>
      </trkpt>
      <trkpt lat="44.52839" lon="5.78803">
        <ele>909.9</ele>
        <time>2013-10-13T11:38:22Z</time>
      </trkpt>
      <trkpt lat="44.52846" lon="5.78777">
        <ele>913</ele>
        <time>2013-10-13T11:38:33Z</time>
      </trkpt>
      <trkpt lat="44.52849" lon="5.78764">
        <ele>915</ele>
        <time>2013-10-13T11:38:38Z</time>
      </trkpt>
      <trkpt lat="44.52851" lon="5.78751">
        <ele>916.4</ele>
        <time>2013-10-13T11:38:44Z</time>
      </trkpt>
      <trkpt lat="44.52855" lon="5.78739">
        <ele>918.3</ele>
        <time>2013-10-13T11:38:50Z</time>
      </trkpt>
      <trkpt lat="44.52857" lon="5.78726">
        <ele>920.1</ele>
        <time>2013-10-13T11:38:56Z</time>
      </trkpt>
      <trkpt lat="44.52859" lon="5.78712">
        <ele>921.3</ele>
        <time>2013-10-13T11:39:02Z</time>
      </trkpt>
      <trkpt lat="44.52861" lon="5.78698">
        <ele>922.7</ele>
        <time>2013-10-13T11:39:08Z</time>
      </trkpt>
      <trkpt lat="44.52861" lon="5.78684">
        <ele>924</ele>
        <time>2013-10-13T11:39:15Z</time>
      </trkpt>
      <trkpt lat="44.52862" lon="5.7867">
        <ele>926.7</ele>
        <time>2013-10-13T11:39:37Z</time>
      </trkpt>
      <trkpt lat="44.52854" lon="5.78642">
        <ele>926.4</ele>
        <time>2013-10-13T11:39:45Z</time>
      </trkpt>
      <trkpt lat="44.52847" lon="5.78625">
        <ele>926.3</ele>
        <time>2013-10-13T11:39:49Z</time>
      </trkpt>
      <trkpt lat="44.52839" lon="5.78617">
        <ele>926.2</ele>
        <time>2013-10-13T11:39:56Z</time>
      </trkpt>
      <trkpt lat="44.5283" lon="5.78613">
        <ele>927.2</ele>
        <time>2013-10-13T11:40:01Z</time>
      </trkpt>
      <trkpt lat="44.52822" lon="5.78608">
        <ele>927.6</ele>
        <time>2013-10-13T11:40:06Z</time>
      </trkpt>
      <trkpt lat="44.52813" lon="5.786">
        <ele>929.1</ele>
        <time>2013-10-13T11:40:12Z</time>
      </trkpt>
      <trkpt lat="44.52803" lon="5.78596">
        <ele>930.4</ele>
        <time>2013-10-13T11:40:17Z</time>
      </trkpt>
      <trkpt lat="44.52793" lon="5.7859">
        <ele>930.4</ele>
        <time>2013-10-13T11:40:21Z</time>
      </trkpt>
      <trkpt lat="44.52784" lon="5.78586">
        <ele>931.6</ele>
        <time>2013-10-13T11:40:25Z</time>
      </trkpt>
      <trkpt lat="44.52773" lon="5.78581">
        <ele>932.2</ele>
        <time>2013-10-13T11:40:29Z</time>
      </trkpt>
      <trkpt lat="44.52763" lon="5.78574">
        <ele>932.5</ele>
        <time>2013-10-13T11:40:33Z</time>
      </trkpt>
      <trkpt lat="44.52754" lon="5.78569">
        <ele>932.2</ele>
        <time>2013-10-13T11:40:37Z</time>
      </trkpt>
      <trkpt lat="44.52744" lon="5.78564">
        <ele>932.2</ele>
        <time>2013-10-13T11:40:41Z</time>
      </trkpt>
      <trkpt lat="44.52721" lon="5.78558">
        <ele>933.4</ele>
        <time>2013-10-13T11:40:49Z</time>
      </trkpt>
      <trkpt lat="44.52711" lon="5.78555">
        <ele>933.8</ele>
        <time>2013-10-13T11:40:52Z</time>
      </trkpt>
      <trkpt lat="44.52702" lon="5.78553">
        <ele>933.6</ele>
        <time>2013-10-13T11:40:55Z</time>
      </trkpt>
      <trkpt lat="44.52694" lon="5.78549">
        <ele>934.2</ele>
        <time>2013-10-13T11:40:58Z</time>
      </trkpt>
      <trkpt lat="44.52684" lon="5.78545">
        <ele>934.3</ele>
        <time>2013-10-13T11:41:01Z</time>
      </trkpt>
      <trkpt lat="44.52672" lon="5.78541">
        <ele>934.5</ele>
        <time>2013-10-13T11:41:05Z</time>
      </trkpt>
      <trkpt lat="44.52661" lon="5.78538">
        <ele>934.3</ele>
        <time>2013-10-13T11:41:08Z</time>
      </trkpt>
      <trkpt lat="44.5265" lon="5.78534">
        <ele>934.9</ele>
        <time>2013-10-13T11:41:12Z</time>
      </trkpt>
      <trkpt lat="44.5264" lon="5.78527">
        <ele>934.7</ele>
        <time>2013-10-13T11:41:16Z</time>
      </trkpt>
      <trkpt lat="44.52631" lon="5.78524">
        <ele>935.2</ele>
        <time>2013-10-13T11:41:19Z</time>
      </trkpt>
      <trkpt lat="44.5262" lon="5.78519">
        <ele>935</ele>
        <time>2013-10-13T11:41:23Z</time>
      </trkpt>
      <trkpt lat="44.52609" lon="5.78511">
        <ele>935.8</ele>
        <time>2013-10-13T11:41:27Z</time>
      </trkpt>
      <trkpt lat="44.526" lon="5.78506">
        <ele>936.2</ele>
        <time>2013-10-13T11:41:30Z</time>
      </trkpt>
      <trkpt lat="44.52591" lon="5.78501">
        <ele>936</ele>
        <time>2013-10-13T11:41:34Z</time>
      </trkpt>
      <trkpt lat="44.52583" lon="5.78497">
        <ele>936</ele>
        <time>2013-10-13T11:41:38Z</time>
      </trkpt>
      <trkpt lat="44.52573" lon="5.78493">
        <ele>936.2</ele>
        <time>2013-10-13T11:41:41Z</time>
      </trkpt>
      <trkpt lat="44.52563" lon="5.78485">
        <ele>936.3</ele>
        <time>2013-10-13T11:41:45Z</time>
      </trkpt>
      <trkpt lat="44.52546" lon="5.78473">
        <ele>936.5</ele>
        <time>2013-10-13T11:41:51Z</time>
      </trkpt>
      <trkpt lat="44.52538" lon="5.78466">
        <ele>936.8</ele>
        <time>2013-10-13T11:41:54Z</time>
      </trkpt>
      <trkpt lat="44.52528" lon="5.78456">
        <ele>937.1</ele>
        <time>2013-10-13T11:41:58Z</time>
      </trkpt>
      <trkpt lat="44.52521" lon="5.78446">
        <ele>937</ele>
        <time>2013-10-13T11:42:01Z</time>
      </trkpt>
      <trkpt lat="44.52514" lon="5.78434">
        <ele>936.7</ele>
        <time>2013-10-13T11:42:05Z</time>
      </trkpt>
      <trkpt lat="44.52506" lon="5.78422">
        <ele>936.1</ele>
        <time>2013-10-13T11:42:09Z</time>
      </trkpt>
      <trkpt lat="44.52501" lon="5.78412">
        <ele>936.1</ele>
        <time>2013-10-13T11:42:14Z</time>
      </trkpt>
      <trkpt lat="44.52496" lon="5.78401">
        <ele>935.7</ele>
        <time>2013-10-13T11:42:20Z</time>
      </trkpt>
      <trkpt lat="44.5248" lon="5.78361">
        <ele>935.3</ele>
        <time>2013-10-13T11:42:42Z</time>
      </trkpt>
      <trkpt lat="44.52477" lon="5.7835">
        <ele>935.9</ele>
        <time>2013-10-13T11:42:47Z</time>
      </trkpt>
      <trkpt lat="44.52458" lon="5.78314">
        <ele>939.3</ele>
        <time>2013-10-13T11:43:57Z</time>
      </trkpt>
      <trkpt lat="44.52444" lon="5.78332">
        <ele>939.4</ele>
        <time>2013-10-13T11:44:05Z</time>
      </trkpt>
      <trkpt lat="44.5244" lon="5.78346">
        <ele>941.3</ele>
        <time>2013-10-13T11:44:10Z</time>
      </trkpt>
      <trkpt lat="44.52416" lon="5.78377">
        <ele>942.2</ele>
        <time>2013-10-13T11:44:38Z</time>
      </trkpt>
      <trkpt lat="44.52408" lon="5.78381">
        <ele>942.4</ele>
        <time>2013-10-13T11:44:43Z</time>
      </trkpt>
      <trkpt lat="44.524" lon="5.78389">
        <ele>942.7</ele>
        <time>2013-10-13T11:45:04Z</time>
      </trkpt>
      <trkpt lat="44.52388" lon="5.78416">
        <ele>952.9</ele>
        <time>2013-10-13T11:45:53Z</time>
      </trkpt>
      <trkpt lat="44.52385" lon="5.78429">
        <ele>952.9</ele>
        <time>2013-10-13T11:46:00Z</time>
      </trkpt>
      <trkpt lat="44.52381" lon="5.78441">
        <ele>952.9</ele>
        <time>2013-10-13T11:46:18Z</time>
      </trkpt>
      <trkpt lat="44.5237" lon="5.78464">
        <ele>957.5</ele>
        <time>2013-10-13T11:46:29Z</time>
      </trkpt>
      <trkpt lat="44.52367" lon="5.78478">
        <ele>960</ele>
        <time>2013-10-13T11:46:33Z</time>
      </trkpt>
      <trkpt lat="44.52369" lon="5.78492">
        <ele>961</ele>
        <time>2013-10-13T11:46:42Z</time>
      </trkpt>
      <trkpt lat="44.52373" lon="5.78503">
        <ele>960.8</ele>
        <time>2013-10-13T11:46:45Z</time>
      </trkpt>
      <trkpt lat="44.52376" lon="5.78517">
        <ele>960.8</ele>
        <time>2013-10-13T11:46:57Z</time>
      </trkpt>
      <trkpt lat="44.52374" lon="5.78531">
        <ele>962.3</ele>
        <time>2013-10-13T11:47:03Z</time>
      </trkpt>
      <trkpt lat="44.5237" lon="5.78543">
        <ele>962.3</ele>
        <time>2013-10-13T11:47:10Z</time>
      </trkpt>
      <trkpt lat="44.52367" lon="5.78556">
        <ele>969.7</ele>
        <time>2013-10-13T11:47:37Z</time>
      </trkpt>
      <trkpt lat="44.5237" lon="5.78582">
        <ele>969.9</ele>
        <time>2013-10-13T11:48:39Z</time>
      </trkpt>
      <trkpt lat="44.52378" lon="5.78607">
        <ele>971.1</ele>
        <time>2013-10-13T11:48:46Z</time>
      </trkpt>
      <trkpt lat="44.52385" lon="5.78639">
        <ele>970.8</ele>
        <time>2013-10-13T11:48:48Z</time>
      </trkpt>
      <trkpt lat="44.52382" lon="5.78651">
        <ele>969.3</ele>
        <time>2013-10-13T11:48:53Z</time>
      </trkpt>
      <trkpt lat="44.52372" lon="5.78653">
        <ele>968.7</ele>
        <time>2013-10-13T11:48:58Z</time>
      </trkpt>
      <trkpt lat="44.52369" lon="5.78679">
        <ele>969.9</ele>
        <time>2013-10-13T11:49:10Z</time>
      </trkpt>
      <trkpt lat="44.52368" lon="5.78692">
        <ele>971.1</ele>
        <time>2013-10-13T11:49:15Z</time>
      </trkpt>
      <trkpt lat="44.52361" lon="5.78706">
        <ele>972.8</ele>
        <time>2013-10-13T11:49:24Z</time>
      </trkpt>
      <trkpt lat="44.52346" lon="5.78739">
        <ele>976.2</ele>
        <time>2013-10-13T11:49:40Z</time>
      </trkpt>
      <trkpt lat="44.52355" lon="5.78766">
        <ele>977.8</ele>
        <time>2013-10-13T11:49:48Z</time>
      </trkpt>
      <trkpt lat="44.52358" lon="5.78781">
        <ele>977.6</ele>
        <time>2013-10-13T11:49:53Z</time>
      </trkpt>
      <trkpt lat="44.52366" lon="5.78791">
        <ele>977.2</ele>
        <time>2013-10-13T11:49:58Z</time>
      </trkpt>
      <trkpt lat="44.52374" lon="5.78799">
        <ele>977.2</ele>
        <time>2013-10-13T11:50:03Z</time>
      </trkpt>
      <trkpt lat="44.52381" lon="5.78809">
        <ele>977.9</ele>
        <time>2013-10-13T11:50:12Z</time>
      </trkpt>
      <trkpt lat="44.52389" lon="5.78816">
        <ele>977.3</ele>
        <time>2013-10-13T11:50:17Z</time>
      </trkpt>
      <trkpt lat="44.52398" lon="5.7882">
        <ele>977.3</ele>
        <time>2013-10-13T11:50:21Z</time>
      </trkpt>
      <trkpt lat="44.52409" lon="5.78819">
        <ele>978.7</ele>
        <time>2013-10-13T11:50:57Z</time>
      </trkpt>
      <trkpt lat="44.52427" lon="5.78815">
        <ele>979.2</ele>
        <time>2013-10-13T11:51:03Z</time>
      </trkpt>
      <trkpt lat="44.52439" lon="5.78814">
        <ele>979.1</ele>
        <time>2013-10-13T11:51:06Z</time>
      </trkpt>
      <trkpt lat="44.52449" lon="5.78814">
        <ele>979.1</ele>
        <time>2013-10-13T11:51:10Z</time>
      </trkpt>
      <trkpt lat="44.5246" lon="5.78817">
        <ele>980.5</ele>
        <time>2013-10-13T11:51:15Z</time>
      </trkpt>
      <trkpt lat="44.52479" lon="5.78809">
        <ele>980.1</ele>
        <time>2013-10-13T11:51:16Z</time>
      </trkpt>
      <trkpt lat="44.52488" lon="5.78813">
        <ele>979.8</ele>
        <time>2013-10-13T11:51:20Z</time>
      </trkpt>
      <trkpt lat="44.52492" lon="5.78828">
        <ele>978.9</ele>
        <time>2013-10-13T11:51:26Z</time>
      </trkpt>
      <trkpt lat="44.52489" lon="5.78841">
        <ele>978.8</ele>
        <time>2013-10-13T11:51:30Z</time>
      </trkpt>
      <trkpt lat="44.52493" lon="5.78853">
        <ele>979.1</ele>
        <time>2013-10-13T11:51:37Z</time>
      </trkpt>
      <trkpt lat="44.52495" lon="5.78866">
        <ele>977.9</ele>
        <time>2013-10-13T11:51:42Z</time>
      </trkpt>
      <trkpt lat="44.52497" lon="5.7888">
        <ele>977.2</ele>
        <time>2013-10-13T11:51:47Z</time>
      </trkpt>
      <trkpt lat="44.52507" lon="5.78887">
        <ele>977.6</ele>
        <time>2013-10-13T11:51:53Z</time>
      </trkpt>
      <trkpt lat="44.52515" lon="5.78896">
        <ele>976.7</ele>
        <time>2013-10-13T11:51:59Z</time>
      </trkpt>
      <trkpt lat="44.5252" lon="5.78923">
        <ele>975.7</ele>
        <time>2013-10-13T11:52:09Z</time>
      </trkpt>
      <trkpt lat="44.5252" lon="5.78938">
        <ele>975.9</ele>
        <time>2013-10-13T11:52:14Z</time>
      </trkpt>
      <trkpt lat="44.52509" lon="5.78945">
        <ele>977.5</ele>
        <time>2013-10-13T11:52:33Z</time>
      </trkpt>
      <trkpt lat="44.52485" lon="5.78946">
        <ele>978</ele>
        <time>2013-10-13T11:52:34Z</time>
      </trkpt>
      <trkpt lat="44.52477" lon="5.78943">
        <ele>978.8</ele>
        <time>2013-10-13T11:52:37Z</time>
      </trkpt>
      <trkpt lat="44.52467" lon="5.78939">
        <ele>978.9</ele>
        <time>2013-10-13T11:52:41Z</time>
      </trkpt>
      <trkpt lat="44.52457" lon="5.78932">
        <ele>978.2</ele>
        <time>2013-10-13T11:52:45Z</time>
      </trkpt>
      <trkpt lat="44.52447" lon="5.78928">
        <ele>979.7</ele>
        <time>2013-10-13T11:52:49Z</time>
      </trkpt>
      <trkpt lat="44.52438" lon="5.78922">
        <ele>979.5</ele>
        <time>2013-10-13T11:52:54Z</time>
      </trkpt>
      <trkpt lat="44.52428" lon="5.78919">
        <ele>979.1</ele>
        <time>2013-10-13T11:52:58Z</time>
      </trkpt>
      <trkpt lat="44.52418" lon="5.78915">
        <ele>979</ele>
        <time>2013-10-13T11:53:01Z</time>
      </trkpt>
      <trkpt lat="44.52399" lon="5.78905">
        <ele>979.6</ele>
        <time>2013-10-13T11:53:09Z</time>
      </trkpt>
      <trkpt lat="44.52388" lon="5.78896">
        <ele>979.8</ele>
        <time>2013-10-13T11:53:13Z</time>
      </trkpt>
      <trkpt lat="44.52378" lon="5.78888">
        <ele>980.4</ele>
        <time>2013-10-13T11:53:17Z</time>
      </trkpt>
      <trkpt lat="44.52369" lon="5.78879">
        <ele>980.7</ele>
        <time>2013-10-13T11:53:21Z</time>
      </trkpt>
      <trkpt lat="44.52357" lon="5.78878">
        <ele>980.9</ele>
        <time>2013-10-13T11:53:25Z</time>
      </trkpt>
      <trkpt lat="44.52348" lon="5.78884">
        <ele>980.2</ele>
        <time>2013-10-13T11:53:28Z</time>
      </trkpt>
      <trkpt lat="44.5234" lon="5.7889">
        <ele>980.3</ele>
        <time>2013-10-13T11:53:31Z</time>
      </trkpt>
      <trkpt lat="44.52331" lon="5.78899">
        <ele>980.1</ele>
        <time>2013-10-13T11:53:35Z</time>
      </trkpt>
      <trkpt lat="44.52321" lon="5.78905">
        <ele>980.8</ele>
        <time>2013-10-13T11:53:38Z</time>
      </trkpt>
      <trkpt lat="44.52311" lon="5.78914">
        <ele>982</ele>
        <time>2013-10-13T11:53:42Z</time>
      </trkpt>
      <trkpt lat="44.52303" lon="5.7892">
        <ele>982.5</ele>
        <time>2013-10-13T11:53:45Z</time>
      </trkpt>
      <trkpt lat="44.52293" lon="5.78929">
        <ele>982.1</ele>
        <time>2013-10-13T11:53:49Z</time>
      </trkpt>
      <trkpt lat="44.52284" lon="5.78937">
        <ele>983.1</ele>
        <time>2013-10-13T11:53:53Z</time>
      </trkpt>
      <trkpt lat="44.52275" lon="5.78943">
        <ele>983.1</ele>
        <time>2013-10-13T11:53:56Z</time>
      </trkpt>
      <trkpt lat="44.52267" lon="5.7895">
        <ele>983</ele>
        <time>2013-10-13T11:53:59Z</time>
      </trkpt>
      <trkpt lat="44.52259" lon="5.78959">
        <ele>983.1</ele>
        <time>2013-10-13T11:54:02Z</time>
      </trkpt>
      <trkpt lat="44.52241" lon="5.78974">
        <ele>984.5</ele>
        <time>2013-10-13T11:54:10Z</time>
      </trkpt>
      <trkpt lat="44.52233" lon="5.7898">
        <ele>984.6</ele>
        <time>2013-10-13T11:54:13Z</time>
      </trkpt>
      <trkpt lat="44.52224" lon="5.7899">
        <ele>984.7</ele>
        <time>2013-10-13T11:54:17Z</time>
      </trkpt>
      <trkpt lat="44.52215" lon="5.78997">
        <ele>984.3</ele>
        <time>2013-10-13T11:54:22Z</time>
      </trkpt>
      <trkpt lat="44.52204" lon="5.78999">
        <ele>983.7</ele>
        <time>2013-10-13T11:54:26Z</time>
      </trkpt>
      <trkpt lat="44.52195" lon="5.79002">
        <ele>982.9</ele>
        <time>2013-10-13T11:54:30Z</time>
      </trkpt>
      <trkpt lat="44.52192" lon="5.79016">
        <ele>979.4</ele>
        <time>2013-10-13T11:55:29Z</time>
      </trkpt>
      <trkpt lat="44.5223" lon="5.79041">
        <ele>981.3</ele>
        <time>2013-10-13T11:55:36Z</time>
      </trkpt>
      <trkpt lat="44.52239" lon="5.79047">
        <ele>981.5</ele>
        <time>2013-10-13T11:55:40Z</time>
      </trkpt>
      <trkpt lat="44.52247" lon="5.79054">
        <ele>981.4</ele>
        <time>2013-10-13T11:55:44Z</time>
      </trkpt>
      <trkpt lat="44.52255" lon="5.7906">
        <ele>981.5</ele>
        <time>2013-10-13T11:55:47Z</time>
      </trkpt>
      <trkpt lat="44.52266" lon="5.79065">
        <ele>981.4</ele>
        <time>2013-10-13T11:55:51Z</time>
      </trkpt>
      <trkpt lat="44.52274" lon="5.79071">
        <ele>981.2</ele>
        <time>2013-10-13T11:55:55Z</time>
      </trkpt>
      <trkpt lat="44.52281" lon="5.79083">
        <ele>981.5</ele>
        <time>2013-10-13T11:55:58Z</time>
      </trkpt>
      <trkpt lat="44.52285" lon="5.79096">
        <ele>980.8</ele>
        <time>2013-10-13T11:56:01Z</time>
      </trkpt>
      <trkpt lat="44.52293" lon="5.79108">
        <ele>980.8</ele>
        <time>2013-10-13T11:56:05Z</time>
      </trkpt>
      <trkpt lat="44.52299" lon="5.79121">
        <ele>981.9</ele>
        <time>2013-10-13T11:56:09Z</time>
      </trkpt>
      <trkpt lat="44.52303" lon="5.79133">
        <ele>981.8</ele>
        <time>2013-10-13T11:56:12Z</time>
      </trkpt>
      <trkpt lat="44.52308" lon="5.79144">
        <ele>981.4</ele>
        <time>2013-10-13T11:56:15Z</time>
      </trkpt>
      <trkpt lat="44.52314" lon="5.79155">
        <ele>980.2</ele>
        <time>2013-10-13T11:56:19Z</time>
      </trkpt>
      <trkpt lat="44.52321" lon="5.79167">
        <ele>979.3</ele>
        <time>2013-10-13T11:56:24Z</time>
      </trkpt>
      <trkpt lat="44.52327" lon="5.79176">
        <ele>979.1</ele>
        <time>2013-10-13T11:56:28Z</time>
      </trkpt>
      <trkpt lat="44.52317" lon="5.79181">
        <ele>976.8</ele>
        <time>2013-10-13T11:56:35Z</time>
      </trkpt>
      <trkpt lat="44.52295" lon="5.79166">
        <ele>976.1</ele>
        <time>2013-10-13T11:56:41Z</time>
      </trkpt>
      <trkpt lat="44.52288" lon="5.79158">
        <ele>975.6</ele>
        <time>2013-10-13T11:56:43Z</time>
      </trkpt>
      <trkpt lat="44.5228" lon="5.79149">
        <ele>975.3</ele>
        <time>2013-10-13T11:56:45Z</time>
      </trkpt>
      <trkpt lat="44.52271" lon="5.79139">
        <ele>974.8</ele>
        <time>2013-10-13T11:56:48Z</time>
      </trkpt>
      <trkpt lat="44.52261" lon="5.79132">
        <ele>974.4</ele>
        <time>2013-10-13T11:56:51Z</time>
      </trkpt>
      <trkpt lat="44.52252" lon="5.79125">
        <ele>974.1</ele>
        <time>2013-10-13T11:56:53Z</time>
      </trkpt>
      <trkpt lat="44.52243" lon="5.79119">
        <ele>973.5</ele>
        <time>2013-10-13T11:56:55Z</time>
      </trkpt>
      <trkpt lat="44.5223" lon="5.79112">
        <ele>972.3</ele>
        <time>2013-10-13T11:56:58Z</time>
      </trkpt>
      <trkpt lat="44.52221" lon="5.79105">
        <ele>971.7</ele>
        <time>2013-10-13T11:57:00Z</time>
      </trkpt>
      <trkpt lat="44.52212" lon="5.79094">
        <ele>971.1</ele>
        <time>2013-10-13T11:57:02Z</time>
      </trkpt>
      <trkpt lat="44.52205" lon="5.79086">
        <ele>970.5</ele>
        <time>2013-10-13T11:57:04Z</time>
      </trkpt>
      <trkpt lat="44.52196" lon="5.79082">
        <ele>970.1</ele>
        <time>2013-10-13T11:57:06Z</time>
      </trkpt>
      <trkpt lat="44.52186" lon="5.7908">
        <ele>970</ele>
        <time>2013-10-13T11:57:08Z</time>
      </trkpt>
      <trkpt lat="44.52177" lon="5.79076">
        <ele>969.3</ele>
        <time>2013-10-13T11:57:10Z</time>
      </trkpt>
      <trkpt lat="44.5217" lon="5.79066">
        <ele>967.4</ele>
        <time>2013-10-13T11:57:13Z</time>
      </trkpt>
      <trkpt lat="44.52173" lon="5.79079">
        <ele>956.8</ele>
        <time>2013-10-13T11:57:19Z</time>
      </trkpt>
      <trkpt lat="44.52179" lon="5.79092">
        <ele>951.3</ele>
        <time>2013-10-13T11:57:21Z</time>
      </trkpt>
      <trkpt lat="44.52186" lon="5.79102">
        <ele>948.3</ele>
        <time>2013-10-13T11:57:23Z</time>
      </trkpt>
      <trkpt lat="44.52195" lon="5.7911">
        <ele>947.6</ele>
        <time>2013-10-13T11:57:25Z</time>
      </trkpt>
      <trkpt lat="44.52199" lon="5.79122">
        <ele>946.9</ele>
        <time>2013-10-13T11:57:27Z</time>
      </trkpt>
      <trkpt lat="44.52197" lon="5.79136">
        <ele>945.4</ele>
        <time>2013-10-13T11:57:29Z</time>
      </trkpt>
      <trkpt lat="44.52201" lon="5.79154">
        <ele>940.5</ele>
        <time>2013-10-13T11:57:32Z</time>
      </trkpt>
      <trkpt lat="44.5221" lon="5.79168">
        <ele>937.9</ele>
        <time>2013-10-13T11:57:35Z</time>
      </trkpt>
      <trkpt lat="44.52217" lon="5.79178">
        <ele>936.9</ele>
        <time>2013-10-13T11:57:37Z</time>
      </trkpt>
      <trkpt lat="44.52236" lon="5.79198">
        <ele>935.3</ele>
        <time>2013-10-13T11:57:42Z</time>
      </trkpt>
      <trkpt lat="44.52242" lon="5.79212">
        <ele>934.2</ele>
        <time>2013-10-13T11:57:46Z</time>
      </trkpt>
      <trkpt lat="44.52242" lon="5.79231">
        <ele>933.7</ele>
        <time>2013-10-13T11:57:49Z</time>
      </trkpt>
      <trkpt lat="44.52243" lon="5.79245">
        <ele>932.6</ele>
        <time>2013-10-13T11:57:51Z</time>
      </trkpt>
      <trkpt lat="44.52247" lon="5.79257">
        <ele>930.1</ele>
        <time>2013-10-13T11:57:53Z</time>
      </trkpt>
      <trkpt lat="44.52253" lon="5.79268">
        <ele>928.4</ele>
        <time>2013-10-13T11:57:55Z</time>
      </trkpt>
      <trkpt lat="44.5226" lon="5.79279">
        <ele>927.5</ele>
        <time>2013-10-13T11:57:57Z</time>
      </trkpt>
      <trkpt lat="44.52269" lon="5.79288">
        <ele>926.3</ele>
        <time>2013-10-13T11:57:59Z</time>
      </trkpt>
      <trkpt lat="44.52278" lon="5.79296">
        <ele>925.3</ele>
        <time>2013-10-13T11:58:01Z</time>
      </trkpt>
      <trkpt lat="44.52286" lon="5.79304">
        <ele>923.7</ele>
        <time>2013-10-13T11:58:03Z</time>
      </trkpt>
      <trkpt lat="44.52294" lon="5.79312">
        <ele>922.6</ele>
        <time>2013-10-13T11:58:06Z</time>
      </trkpt>
      <trkpt lat="44.52286" lon="5.79318">
        <ele>921</ele>
        <time>2013-10-13T11:58:09Z</time>
      </trkpt>
      <trkpt lat="44.52276" lon="5.79316">
        <ele>920.3</ele>
        <time>2013-10-13T11:58:11Z</time>
      </trkpt>
      <trkpt lat="44.52267" lon="5.79314">
        <ele>919.9</ele>
        <time>2013-10-13T11:58:13Z</time>
      </trkpt>
      <trkpt lat="44.52257" lon="5.7931">
        <ele>919.3</ele>
        <time>2013-10-13T11:58:15Z</time>
      </trkpt>
      <trkpt lat="44.52248" lon="5.79304">
        <ele>918.9</ele>
        <time>2013-10-13T11:58:17Z</time>
      </trkpt>
      <trkpt lat="44.5224" lon="5.79294">
        <ele>918.4</ele>
        <time>2013-10-13T11:58:19Z</time>
      </trkpt>
      <trkpt lat="44.52233" lon="5.79282">
        <ele>917.9</ele>
        <time>2013-10-13T11:58:22Z</time>
      </trkpt>
      <trkpt lat="44.52227" lon="5.7927">
        <ele>917.5</ele>
        <time>2013-10-13T11:58:25Z</time>
      </trkpt>
      <trkpt lat="44.52217" lon="5.79262">
        <ele>916.9</ele>
        <time>2013-10-13T11:58:28Z</time>
      </trkpt>
      <trkpt lat="44.52209" lon="5.79252">
        <ele>916</ele>
        <time>2013-10-13T11:58:31Z</time>
      </trkpt>
      <trkpt lat="44.52202" lon="5.79242">
        <ele>915.1</ele>
        <time>2013-10-13T11:58:35Z</time>
      </trkpt>
      <trkpt lat="44.5219" lon="5.79241">
        <ele>914.6</ele>
        <time>2013-10-13T11:58:38Z</time>
      </trkpt>
      <trkpt lat="44.5217" lon="5.79233">
        <ele>914.3</ele>
        <time>2013-10-13T11:58:42Z</time>
      </trkpt>
      <trkpt lat="44.5216" lon="5.79228">
        <ele>913.6</ele>
        <time>2013-10-13T11:58:45Z</time>
      </trkpt>
      <trkpt lat="44.52167" lon="5.79241">
        <ele>902.8</ele>
        <time>2013-10-13T11:58:51Z</time>
      </trkpt>
      <trkpt lat="44.52174" lon="5.79254">
        <ele>902.5</ele>
        <time>2013-10-13T11:58:53Z</time>
      </trkpt>
      <trkpt lat="44.52181" lon="5.79266">
        <ele>902.1</ele>
        <time>2013-10-13T11:58:55Z</time>
      </trkpt>
      <trkpt lat="44.52188" lon="5.79275">
        <ele>902</ele>
        <time>2013-10-13T11:58:57Z</time>
      </trkpt>
      <trkpt lat="44.52185" lon="5.7929">
        <ele>900.9</ele>
        <time>2013-10-13T11:59:00Z</time>
      </trkpt>
      <trkpt lat="44.52182" lon="5.79304">
        <ele>898</ele>
        <time>2013-10-13T11:59:03Z</time>
      </trkpt>
      <trkpt lat="44.52183" lon="5.79321">
        <ele>895.6</ele>
        <time>2013-10-13T11:59:06Z</time>
      </trkpt>
      <trkpt lat="44.52187" lon="5.79332">
        <ele>894.3</ele>
        <time>2013-10-13T11:59:08Z</time>
      </trkpt>
      <trkpt lat="44.52192" lon="5.79345">
        <ele>893.3</ele>
        <time>2013-10-13T11:59:10Z</time>
      </trkpt>
      <trkpt lat="44.52197" lon="5.79359">
        <ele>891.2</ele>
        <time>2013-10-13T11:59:12Z</time>
      </trkpt>
      <trkpt lat="44.52203" lon="5.7937">
        <ele>888.9</ele>
        <time>2013-10-13T11:59:14Z</time>
      </trkpt>
      <trkpt lat="44.52209" lon="5.79387">
        <ele>887.5</ele>
        <time>2013-10-13T11:59:17Z</time>
      </trkpt>
      <trkpt lat="44.52216" lon="5.794">
        <ele>885.7</ele>
        <time>2013-10-13T11:59:20Z</time>
      </trkpt>
      <trkpt lat="44.52221" lon="5.79411">
        <ele>884.8</ele>
        <time>2013-10-13T11:59:23Z</time>
      </trkpt>
      <trkpt lat="44.52225" lon="5.79422">
        <ele>880.9</ele>
        <time>2013-10-13T11:59:26Z</time>
      </trkpt>
      <trkpt lat="44.52219" lon="5.79431">
        <ele>877.3</ele>
        <time>2013-10-13T11:59:29Z</time>
      </trkpt>
      <trkpt lat="44.52208" lon="5.79422">
        <ele>875.2</ele>
        <time>2013-10-13T11:59:33Z</time>
      </trkpt>
      <trkpt lat="44.52197" lon="5.79417">
        <ele>874</ele>
        <time>2013-10-13T11:59:35Z</time>
      </trkpt>
      <trkpt lat="44.52187" lon="5.79413">
        <ele>873.1</ele>
        <time>2013-10-13T11:59:37Z</time>
      </trkpt>
      <trkpt lat="44.52176" lon="5.7941">
        <ele>872.2</ele>
        <time>2013-10-13T11:59:39Z</time>
      </trkpt>
      <trkpt lat="44.52158" lon="5.79398">
        <ele>870.4</ele>
        <time>2013-10-13T11:59:43Z</time>
      </trkpt>
      <trkpt lat="44.52151" lon="5.79384">
        <ele>868.1</ele>
        <time>2013-10-13T11:59:46Z</time>
      </trkpt>
      <trkpt lat="44.52147" lon="5.79369">
        <ele>865.5</ele>
        <time>2013-10-13T11:59:49Z</time>
      </trkpt>
      <trkpt lat="44.52139" lon="5.79357">
        <ele>861.9</ele>
        <time>2013-10-13T11:59:53Z</time>
      </trkpt>
      <trkpt lat="44.5213" lon="5.7935">
        <ele>859.8</ele>
        <time>2013-10-13T11:59:56Z</time>
      </trkpt>
      <trkpt lat="44.5212" lon="5.79347">
        <ele>858.8</ele>
        <time>2013-10-13T11:59:58Z</time>
      </trkpt>
      <trkpt lat="44.52109" lon="5.79339">
        <ele>856.9</ele>
        <time>2013-10-13T12:00:01Z</time>
      </trkpt>
      <trkpt lat="44.52105" lon="5.79352">
        <ele>851.1</ele>
        <time>2013-10-13T12:00:08Z</time>
      </trkpt>
      <trkpt lat="44.52108" lon="5.79367">
        <ele>848.3</ele>
        <time>2013-10-13T12:00:11Z</time>
      </trkpt>
      <trkpt lat="44.52113" lon="5.79383">
        <ele>845.3</ele>
        <time>2013-10-13T12:00:14Z</time>
      </trkpt>
      <trkpt lat="44.52116" lon="5.79395">
        <ele>843</ele>
        <time>2013-10-13T12:00:17Z</time>
      </trkpt>
      <trkpt lat="44.52118" lon="5.79409">
        <ele>840.7</ele>
        <time>2013-10-13T12:00:20Z</time>
      </trkpt>
      <trkpt lat="44.52119" lon="5.79423">
        <ele>835.1</ele>
        <time>2013-10-13T12:00:23Z</time>
      </trkpt>
      <trkpt lat="44.52123" lon="5.79438">
        <ele>831.6</ele>
        <time>2013-10-13T12:00:26Z</time>
      </trkpt>
      <trkpt lat="44.52125" lon="5.79457">
        <ele>827.4</ele>
        <time>2013-10-13T12:00:29Z</time>
      </trkpt>
      <trkpt lat="44.52125" lon="5.79472">
        <ele>824.5</ele>
        <time>2013-10-13T12:00:31Z</time>
      </trkpt>
      <trkpt lat="44.52122" lon="5.79487">
        <ele>822.3</ele>
        <time>2013-10-13T12:00:33Z</time>
      </trkpt>
      <trkpt lat="44.52119" lon="5.79502">
        <ele>820.2</ele>
        <time>2013-10-13T12:00:35Z</time>
      </trkpt>
      <trkpt lat="44.52116" lon="5.79516">
        <ele>818.1</ele>
        <time>2013-10-13T12:00:37Z</time>
      </trkpt>
      <trkpt lat="44.52111" lon="5.79529">
        <ele>815.9</ele>
        <time>2013-10-13T12:00:39Z</time>
      </trkpt>
      <trkpt lat="44.52103" lon="5.79539">
        <ele>814.2</ele>
        <time>2013-10-13T12:00:41Z</time>
      </trkpt>
      <trkpt lat="44.52085" lon="5.79555">
        <ele>810.2</ele>
        <time>2013-10-13T12:00:46Z</time>
      </trkpt>
      <trkpt lat="44.52087" lon="5.79569">
        <ele>807.1</ele>
        <time>2013-10-13T12:00:52Z</time>
      </trkpt>
      <trkpt lat="44.52094" lon="5.79579">
        <ele>806.3</ele>
        <time>2013-10-13T12:00:57Z</time>
      </trkpt>
      <trkpt lat="44.52101" lon="5.7959">
        <ele>805.7</ele>
        <time>2013-10-13T12:01:02Z</time>
      </trkpt>
      <trkpt lat="44.52108" lon="5.79604">
        <ele>805.7</ele>
        <time>2013-10-13T12:01:06Z</time>
      </trkpt>
      <trkpt lat="44.52115" lon="5.79615">
        <ele>805.8</ele>
        <time>2013-10-13T12:01:09Z</time>
      </trkpt>
      <trkpt lat="44.52121" lon="5.79627">
        <ele>805.5</ele>
        <time>2013-10-13T12:01:12Z</time>
      </trkpt>
      <trkpt lat="44.52126" lon="5.79639">
        <ele>804.7</ele>
        <time>2013-10-13T12:01:15Z</time>
      </trkpt>
      <trkpt lat="44.5213" lon="5.79651">
        <ele>804.3</ele>
        <time>2013-10-13T12:01:18Z</time>
      </trkpt>
      <trkpt lat="44.52136" lon="5.79664">
        <ele>803.9</ele>
        <time>2013-10-13T12:01:22Z</time>
      </trkpt>
      <trkpt lat="44.52142" lon="5.79677">
        <ele>803</ele>
        <time>2013-10-13T12:01:26Z</time>
      </trkpt>
      <trkpt lat="44.52148" lon="5.79691">
        <ele>802</ele>
        <time>2013-10-13T12:01:30Z</time>
      </trkpt>
      <trkpt lat="44.52154" lon="5.79704">
        <ele>801.9</ele>
        <time>2013-10-13T12:01:33Z</time>
      </trkpt>
      <trkpt lat="44.5216" lon="5.79718">
        <ele>801.2</ele>
        <time>2013-10-13T12:01:36Z</time>
      </trkpt>
      <trkpt lat="44.52167" lon="5.79733">
        <ele>800.6</ele>
        <time>2013-10-13T12:01:39Z</time>
      </trkpt>
      <trkpt lat="44.52172" lon="5.79744">
        <ele>800</ele>
        <time>2013-10-13T12:01:41Z</time>
      </trkpt>
      <trkpt lat="44.52178" lon="5.79754">
        <ele>799.7</ele>
        <time>2013-10-13T12:01:43Z</time>
      </trkpt>
      <trkpt lat="44.52193" lon="5.79783">
        <ele>799.2</ele>
        <time>2013-10-13T12:01:49Z</time>
      </trkpt>
      <trkpt lat="44.52201" lon="5.79797">
        <ele>799.1</ele>
        <time>2013-10-13T12:01:52Z</time>
      </trkpt>
      <trkpt lat="44.52209" lon="5.7981">
        <ele>799.3</ele>
        <time>2013-10-13T12:01:55Z</time>
      </trkpt>
      <trkpt lat="44.52215" lon="5.79822">
        <ele>799.1</ele>
        <time>2013-10-13T12:01:58Z</time>
      </trkpt>
      <trkpt lat="44.52221" lon="5.79833">
        <ele>798.8</ele>
        <time>2013-10-13T12:02:01Z</time>
      </trkpt>
      <trkpt lat="44.52227" lon="5.79845">
        <ele>798.9</ele>
        <time>2013-10-13T12:02:04Z</time>
      </trkpt>
      <trkpt lat="44.52235" lon="5.79858">
        <ele>799</ele>
        <time>2013-10-13T12:02:07Z</time>
      </trkpt>
      <trkpt lat="44.52242" lon="5.79871">
        <ele>799</ele>
        <time>2013-10-13T12:02:10Z</time>
      </trkpt>
      <trkpt lat="44.52248" lon="5.79883">
        <ele>799</ele>
        <time>2013-10-13T12:02:13Z</time>
      </trkpt>
      <trkpt lat="44.52255" lon="5.79897">
        <ele>799</ele>
        <time>2013-10-13T12:02:16Z</time>
      </trkpt>
      <trkpt lat="44.52262" lon="5.79912">
        <ele>799.1</ele>
        <time>2013-10-13T12:02:19Z</time>
      </trkpt>
      <trkpt lat="44.52268" lon="5.79925">
        <ele>799.3</ele>
        <time>2013-10-13T12:02:22Z</time>
      </trkpt>
      <trkpt lat="44.52275" lon="5.79938">
        <ele>799.6</ele>
        <time>2013-10-13T12:02:25Z</time>
      </trkpt>
      <trkpt lat="44.52282" lon="5.7995">
        <ele>799.8</ele>
        <time>2013-10-13T12:02:28Z</time>
      </trkpt>
      <trkpt lat="44.52288" lon="5.79962">
        <ele>799.8</ele>
        <time>2013-10-13T12:02:31Z</time>
      </trkpt>
      <trkpt lat="44.52294" lon="5.79973">
        <ele>800.1</ele>
        <time>2013-10-13T12:02:34Z</time>
      </trkpt>
      <trkpt lat="44.523" lon="5.79985">
        <ele>800.1</ele>
        <time>2013-10-13T12:02:37Z</time>
      </trkpt>
      <trkpt lat="44.52306" lon="5.79995">
        <ele>800.6</ele>
        <time>2013-10-13T12:02:40Z</time>
      </trkpt>
      <trkpt lat="44.52314" lon="5.80008">
        <ele>801</ele>
        <time>2013-10-13T12:02:44Z</time>
      </trkpt>
      <trkpt lat="44.52328" lon="5.80031">
        <ele>800.8</ele>
        <time>2013-10-13T12:02:49Z</time>
      </trkpt>
      <trkpt lat="44.52333" lon="5.80042">
        <ele>800.5</ele>
        <time>2013-10-13T12:02:51Z</time>
      </trkpt>
      <trkpt lat="44.52338" lon="5.80053">
        <ele>800.4</ele>
        <time>2013-10-13T12:02:53Z</time>
      </trkpt>
      <trkpt lat="44.52343" lon="5.80064">
        <ele>800.2</ele>
        <time>2013-10-13T12:02:55Z</time>
      </trkpt>
      <trkpt lat="44.52349" lon="5.80074">
        <ele>800.3</ele>
        <time>2013-10-13T12:02:57Z</time>
      </trkpt>
      <trkpt lat="44.52356" lon="5.8009">
        <ele>801</ele>
        <time>2013-10-13T12:03:00Z</time>
      </trkpt>
      <trkpt lat="44.52363" lon="5.80105">
        <ele>801.4</ele>
        <time>2013-10-13T12:03:03Z</time>
      </trkpt>
      <trkpt lat="44.52371" lon="5.80119">
        <ele>801.3</ele>
        <time>2013-10-13T12:03:06Z</time>
      </trkpt>
      <trkpt lat="44.52378" lon="5.80133">
        <ele>801.3</ele>
        <time>2013-10-13T12:03:09Z</time>
      </trkpt>
      <trkpt lat="44.52385" lon="5.80146">
        <ele>801.5</ele>
        <time>2013-10-13T12:03:12Z</time>
      </trkpt>
      <trkpt lat="44.52392" lon="5.8016">
        <ele>801.5</ele>
        <time>2013-10-13T12:03:15Z</time>
      </trkpt>
      <trkpt lat="44.524" lon="5.80174">
        <ele>802</ele>
        <time>2013-10-13T12:03:18Z</time>
      </trkpt>
      <trkpt lat="44.52407" lon="5.80188">
        <ele>802.1</ele>
        <time>2013-10-13T12:03:21Z</time>
      </trkpt>
      <trkpt lat="44.52413" lon="5.802">
        <ele>802.4</ele>
        <time>2013-10-13T12:03:24Z</time>
      </trkpt>
      <trkpt lat="44.5242" lon="5.80213">
        <ele>802.9</ele>
        <time>2013-10-13T12:03:27Z</time>
      </trkpt>
      <trkpt lat="44.52426" lon="5.80226">
        <ele>803.1</ele>
        <time>2013-10-13T12:03:31Z</time>
      </trkpt>
      <trkpt lat="44.52434" lon="5.80232">
        <ele>803.2</ele>
        <time>2013-10-13T12:03:35Z</time>
      </trkpt>
      <trkpt lat="44.52443" lon="5.80229">
        <ele>803.1</ele>
        <time>2013-10-13T12:03:38Z</time>
      </trkpt>
      <trkpt lat="44.52452" lon="5.80225">
        <ele>803.1</ele>
        <time>2013-10-13T12:03:41Z</time>
      </trkpt>
      <trkpt lat="44.52461" lon="5.80222">
        <ele>803.1</ele>
        <time>2013-10-13T12:03:44Z</time>
      </trkpt>
      <trkpt lat="44.5247" lon="5.80218">
        <ele>803.4</ele>
        <time>2013-10-13T12:03:47Z</time>
      </trkpt>
      <trkpt lat="44.52489" lon="5.80212">
        <ele>804.5</ele>
        <time>2013-10-13T12:03:53Z</time>
      </trkpt>
      <trkpt lat="44.52498" lon="5.80209">
        <ele>804.8</ele>
        <time>2013-10-13T12:03:56Z</time>
      </trkpt>
      <trkpt lat="44.52509" lon="5.80205">
        <ele>805.3</ele>
        <time>2013-10-13T12:04:00Z</time>
      </trkpt>
      <trkpt lat="44.52517" lon="5.80213">
        <ele>805.3</ele>
        <time>2013-10-13T12:04:04Z</time>
      </trkpt>
      <trkpt lat="44.52517" lon="5.80227">
        <ele>805.2</ele>
        <time>2013-10-13T12:04:07Z</time>
      </trkpt>
      <trkpt lat="44.5252" lon="5.80241">
        <ele>805.3</ele>
        <time>2013-10-13T12:04:10Z</time>
      </trkpt>
      <trkpt lat="44.52524" lon="5.80255">
        <ele>805.3</ele>
        <time>2013-10-13T12:04:13Z</time>
      </trkpt>
      <trkpt lat="44.52527" lon="5.80268">
        <ele>805.3</ele>
        <time>2013-10-13T12:04:16Z</time>
      </trkpt>
      <trkpt lat="44.52519" lon="5.8028">
        <ele>805.9</ele>
        <time>2013-10-13T12:04:20Z</time>
      </trkpt>
      <trkpt lat="44.52511" lon="5.80288">
        <ele>807.1</ele>
        <time>2013-10-13T12:04:25Z</time>
      </trkpt>
      <trkpt lat="44.52501" lon="5.80297">
        <ele>807.8</ele>
        <time>2013-10-13T12:04:29Z</time>
      </trkpt>
      <trkpt lat="44.52493" lon="5.80307">
        <ele>808.7</ele>
        <time>2013-10-13T12:04:32Z</time>
      </trkpt>
      <trkpt lat="44.52485" lon="5.80313">
        <ele>809</ele>
        <time>2013-10-13T12:04:34Z</time>
      </trkpt>
      <trkpt lat="44.52475" lon="5.80319">
        <ele>808.9</ele>
        <time>2013-10-13T12:04:37Z</time>
      </trkpt>
      <trkpt lat="44.52467" lon="5.80326">
        <ele>809</ele>
        <time>2013-10-13T12:04:41Z</time>
      </trkpt>
      <trkpt lat="44.52461" lon="5.80335">
        <ele>808.9</ele>
        <time>2013-10-13T12:04:44Z</time>
      </trkpt>
      <trkpt lat="44.52452" lon="5.80343">
        <ele>808.9</ele>
        <time>2013-10-13T12:04:48Z</time>
      </trkpt>
      <trkpt lat="44.52433" lon="5.80357">
        <ele>808.4</ele>
        <time>2013-10-13T12:04:55Z</time>
      </trkpt>
      <trkpt lat="44.52425" lon="5.80368">
        <ele>809.2</ele>
        <time>2013-10-13T12:04:58Z</time>
      </trkpt>
      <trkpt lat="44.52419" lon="5.80377">
        <ele>810.8</ele>
        <time>2013-10-13T12:05:01Z</time>
      </trkpt>
      <trkpt lat="44.52411" lon="5.80385">
        <ele>812.3</ele>
        <time>2013-10-13T12:05:04Z</time>
      </trkpt>
      <trkpt lat="44.52405" lon="5.80394">
        <ele>812.8</ele>
        <time>2013-10-13T12:05:08Z</time>
      </trkpt>
      <trkpt lat="44.52408" lon="5.80408">
        <ele>806.7</ele>
        <time>2013-10-13T12:05:13Z</time>
      </trkpt>
      <trkpt lat="44.524" lon="5.8042">
        <ele>805.7</ele>
        <time>2013-10-13T12:05:16Z</time>
      </trkpt>
      <trkpt lat="44.52392" lon="5.80427">
        <ele>805.5</ele>
        <time>2013-10-13T12:05:18Z</time>
      </trkpt>
      <trkpt lat="44.52383" lon="5.80433">
        <ele>805</ele>
        <time>2013-10-13T12:05:20Z</time>
      </trkpt>
      <trkpt lat="44.5237" lon="5.80437">
        <ele>804.7</ele>
        <time>2013-10-13T12:05:22Z</time>
      </trkpt>
      <trkpt lat="44.52356" lon="5.8044">
        <ele>804.3</ele>
        <time>2013-10-13T12:05:24Z</time>
      </trkpt>
      <trkpt lat="44.52341" lon="5.8044">
        <ele>803.6</ele>
        <time>2013-10-13T12:05:26Z</time>
      </trkpt>
      <trkpt lat="44.52326" lon="5.80441">
        <ele>803.5</ele>
        <time>2013-10-13T12:05:28Z</time>
      </trkpt>
      <trkpt lat="44.52313" lon="5.80444">
        <ele>803.8</ele>
        <time>2013-10-13T12:05:30Z</time>
      </trkpt>
      <trkpt lat="44.52299" lon="5.80448">
        <ele>803.9</ele>
        <time>2013-10-13T12:05:32Z</time>
      </trkpt>
      <trkpt lat="44.52286" lon="5.80451">
        <ele>803.9</ele>
        <time>2013-10-13T12:05:34Z</time>
      </trkpt>
      <trkpt lat="44.52274" lon="5.80454">
        <ele>803.4</ele>
        <time>2013-10-13T12:05:36Z</time>
      </trkpt>
      <trkpt lat="44.52263" lon="5.80456">
        <ele>803.1</ele>
        <time>2013-10-13T12:05:38Z</time>
      </trkpt>
      <trkpt lat="44.52251" lon="5.80458">
        <ele>802.9</ele>
        <time>2013-10-13T12:05:40Z</time>
      </trkpt>
      <trkpt lat="44.52238" lon="5.80462">
        <ele>802.8</ele>
        <time>2013-10-13T12:05:42Z</time>
      </trkpt>
      <trkpt lat="44.52226" lon="5.80465">
        <ele>802.4</ele>
        <time>2013-10-13T12:05:44Z</time>
      </trkpt>
      <trkpt lat="44.52215" lon="5.80469">
        <ele>802.1</ele>
        <time>2013-10-13T12:05:46Z</time>
      </trkpt>
      <trkpt lat="44.52205" lon="5.80474">
        <ele>801.1</ele>
        <time>2013-10-13T12:05:48Z</time>
      </trkpt>
      <trkpt lat="44.52196" lon="5.80477">
        <ele>800.6</ele>
        <time>2013-10-13T12:05:50Z</time>
      </trkpt>
      <trkpt lat="44.52174" lon="5.80485">
        <ele>800.3</ele>
        <time>2013-10-13T12:05:55Z</time>
      </trkpt>
      <trkpt lat="44.52162" lon="5.80489">
        <ele>799.6</ele>
        <time>2013-10-13T12:05:58Z</time>
      </trkpt>
      <trkpt lat="44.5215" lon="5.80494">
        <ele>798.9</ele>
        <time>2013-10-13T12:06:01Z</time>
      </trkpt>
      <trkpt lat="44.5214" lon="5.805">
        <ele>798.3</ele>
        <time>2013-10-13T12:06:03Z</time>
      </trkpt>
      <trkpt lat="44.52131" lon="5.80507">
        <ele>798.2</ele>
        <time>2013-10-13T12:06:05Z</time>
      </trkpt>
      <trkpt lat="44.52121" lon="5.80514">
        <ele>797.6</ele>
        <time>2013-10-13T12:06:07Z</time>
      </trkpt>
      <trkpt lat="44.52111" lon="5.80522">
        <ele>797.1</ele>
        <time>2013-10-13T12:06:09Z</time>
      </trkpt>
      <trkpt lat="44.52103" lon="5.80528">
        <ele>796.4</ele>
        <time>2013-10-13T12:06:11Z</time>
      </trkpt>
      <trkpt lat="44.52095" lon="5.80536">
        <ele>796.1</ele>
        <time>2013-10-13T12:06:13Z</time>
      </trkpt>
      <trkpt lat="44.52084" lon="5.80545">
        <ele>795.9</ele>
        <time>2013-10-13T12:06:16Z</time>
      </trkpt>
      <trkpt lat="44.52073" lon="5.80553">
        <ele>795.3</ele>
        <time>2013-10-13T12:06:19Z</time>
      </trkpt>
      <trkpt lat="44.52062" lon="5.80545">
        <ele>794.8</ele>
        <time>2013-10-13T12:06:22Z</time>
      </trkpt>
      <trkpt lat="44.52059" lon="5.80532">
        <ele>794.3</ele>
        <time>2013-10-13T12:06:24Z</time>
      </trkpt>
      <trkpt lat="44.52056" lon="5.80519">
        <ele>793.8</ele>
        <time>2013-10-13T12:06:26Z</time>
      </trkpt>
      <trkpt lat="44.52053" lon="5.80506">
        <ele>793.5</ele>
        <time>2013-10-13T12:06:28Z</time>
      </trkpt>
      <trkpt lat="44.52049" lon="5.80492">
        <ele>793.6</ele>
        <time>2013-10-13T12:06:30Z</time>
      </trkpt>
      <trkpt lat="44.52045" lon="5.80479">
        <ele>793.5</ele>
        <time>2013-10-13T12:06:32Z</time>
      </trkpt>
      <trkpt lat="44.52041" lon="5.80466">
        <ele>793.6</ele>
        <time>2013-10-13T12:06:34Z</time>
      </trkpt>
      <trkpt lat="44.52037" lon="5.80453">
        <ele>793.4</ele>
        <time>2013-10-13T12:06:36Z</time>
      </trkpt>
      <trkpt lat="44.52034" lon="5.8044">
        <ele>793.6</ele>
        <time>2013-10-13T12:06:38Z</time>
      </trkpt>
      <trkpt lat="44.5203" lon="5.80427">
        <ele>793.8</ele>
        <time>2013-10-13T12:06:40Z</time>
      </trkpt>
      <trkpt lat="44.52026" lon="5.80413">
        <ele>793.7</ele>
        <time>2013-10-13T12:06:42Z</time>
      </trkpt>
      <trkpt lat="44.52022" lon="5.804">
        <ele>793.8</ele>
        <time>2013-10-13T12:06:44Z</time>
      </trkpt>
      <trkpt lat="44.52018" lon="5.80387">
        <ele>794.1</ele>
        <time>2013-10-13T12:06:46Z</time>
      </trkpt>
      <trkpt lat="44.52013" lon="5.80373">
        <ele>793.9</ele>
        <time>2013-10-13T12:06:48Z</time>
      </trkpt>
      <trkpt lat="44.52009" lon="5.80359">
        <ele>794.1</ele>
        <time>2013-10-13T12:06:50Z</time>
      </trkpt>
      <trkpt lat="44.52006" lon="5.80347">
        <ele>794.1</ele>
        <time>2013-10-13T12:06:52Z</time>
      </trkpt>
      <trkpt lat="44.52" lon="5.80321">
        <ele>794.8</ele>
        <time>2013-10-13T12:06:56Z</time>
      </trkpt>
      <trkpt lat="44.51997" lon="5.80306">
        <ele>794.8</ele>
        <time>2013-10-13T12:06:58Z</time>
      </trkpt>
      <trkpt lat="44.51993" lon="5.80292">
        <ele>794.6</ele>
        <time>2013-10-13T12:07:00Z</time>
      </trkpt>
      <trkpt lat="44.51988" lon="5.80277">
        <ele>794.5</ele>
        <time>2013-10-13T12:07:02Z</time>
      </trkpt>
      <trkpt lat="44.51982" lon="5.80262">
        <ele>794.3</ele>
        <time>2013-10-13T12:07:04Z</time>
      </trkpt>
      <trkpt lat="44.51976" lon="5.80247">
        <ele>794.1</ele>
        <time>2013-10-13T12:07:06Z</time>
      </trkpt>
      <trkpt lat="44.51972" lon="5.80232">
        <ele>794.1</ele>
        <time>2013-10-13T12:07:08Z</time>
      </trkpt>
      <trkpt lat="44.51969" lon="5.80217">
        <ele>794.7</ele>
        <time>2013-10-13T12:07:10Z</time>
      </trkpt>
      <trkpt lat="44.51966" lon="5.80202">
        <ele>795.1</ele>
        <time>2013-10-13T12:07:12Z</time>
      </trkpt>
      <trkpt lat="44.51963" lon="5.80186">
        <ele>795</ele>
        <time>2013-10-13T12:07:14Z</time>
      </trkpt>
      <trkpt lat="44.51961" lon="5.8017">
        <ele>795</ele>
        <time>2013-10-13T12:07:16Z</time>
      </trkpt>
      <trkpt lat="44.51959" lon="5.80154">
        <ele>795</ele>
        <time>2013-10-13T12:07:18Z</time>
      </trkpt>
      <trkpt lat="44.51956" lon="5.80138">
        <ele>795</ele>
        <time>2013-10-13T12:07:20Z</time>
      </trkpt>
      <trkpt lat="44.51952" lon="5.80123">
        <ele>794.9</ele>
        <time>2013-10-13T12:07:22Z</time>
      </trkpt>
      <trkpt lat="44.51948" lon="5.80107">
        <ele>794.9</ele>
        <time>2013-10-13T12:07:24Z</time>
      </trkpt>
      <trkpt lat="44.51944" lon="5.80092">
        <ele>794.6</ele>
        <time>2013-10-13T12:07:26Z</time>
      </trkpt>
      <trkpt lat="44.5194" lon="5.80078">
        <ele>794</ele>
        <time>2013-10-13T12:07:28Z</time>
      </trkpt>
      <trkpt lat="44.51936" lon="5.80064">
        <ele>793.6</ele>
        <time>2013-10-13T12:07:30Z</time>
      </trkpt>
      <trkpt lat="44.51933" lon="5.80049">
        <ele>793.2</ele>
        <time>2013-10-13T12:07:32Z</time>
      </trkpt>
      <trkpt lat="44.51929" lon="5.80035">
        <ele>792.9</ele>
        <time>2013-10-13T12:07:34Z</time>
      </trkpt>
      <trkpt lat="44.51925" lon="5.8002">
        <ele>792.8</ele>
        <time>2013-10-13T12:07:36Z</time>
      </trkpt>
      <trkpt lat="44.51923" lon="5.80006">
        <ele>792.8</ele>
        <time>2013-10-13T12:07:38Z</time>
      </trkpt>
      <trkpt lat="44.5192" lon="5.79991">
        <ele>792.6</ele>
        <time>2013-10-13T12:07:40Z</time>
      </trkpt>
      <trkpt lat="44.51917" lon="5.79975">
        <ele>792.6</ele>
        <time>2013-10-13T12:07:42Z</time>
      </trkpt>
      <trkpt lat="44.51913" lon="5.7996">
        <ele>792.1</ele>
        <time>2013-10-13T12:07:44Z</time>
      </trkpt>
      <trkpt lat="44.51909" lon="5.79946">
        <ele>791.7</ele>
        <time>2013-10-13T12:07:46Z</time>
      </trkpt>
      <trkpt lat="44.51904" lon="5.79932">
        <ele>791.8</ele>
        <time>2013-10-13T12:07:48Z</time>
      </trkpt>
      <trkpt lat="44.51901" lon="5.79919">
        <ele>791.2</ele>
        <time>2013-10-13T12:07:50Z</time>
      </trkpt>
      <trkpt lat="44.51897" lon="5.79907">
        <ele>790.8</ele>
        <time>2013-10-13T12:07:52Z</time>
      </trkpt>
      <trkpt lat="44.51894" lon="5.79894">
        <ele>790.8</ele>
        <time>2013-10-13T12:07:54Z</time>
      </trkpt>
      <trkpt lat="44.51884" lon="5.79864">
        <ele>792.7</ele>
        <time>2013-10-13T12:08:00Z</time>
      </trkpt>
      <trkpt lat="44.51879" lon="5.79852">
        <ele>792.5</ele>
        <time>2013-10-13T12:08:06Z</time>
      </trkpt>
      <trkpt lat="44.51881" lon="5.79839">
        <ele>791.7</ele>
        <time>2013-10-13T12:09:09Z</time>
      </trkpt>
      <trkpt lat="44.51889" lon="5.79815">
        <ele>793.8</ele>
        <time>2013-10-13T12:09:18Z</time>
      </trkpt>
      <trkpt lat="44.51893" lon="5.7981">
        <ele>795</ele>
        <time>2013-10-13T12:11:57Z</time>
      </trkpt>
    </trkseg>
  </trk>
</gpx>